<?xml version="1.0" encoding="UTF-8" standalone="no" ?>
<gpx xmlns="http://www.topografix.com/GPX/1/1" xmlns:xsi="http://www.w3.org/2001/XMLSchema-instance" xsi:schemaLocation="http://www.topografix.com/GPX/1/1 http://www.topografix.com/GPX/1/1/gpx.xsd" version="1.1" creator="VisuGPX - https://www.visugpx.com">
  <metadata>
    <name>rando VTT Lozère 2012 - 1</name>
    <desc><![CDATA[Rando à VTT entre copains - le premier jour.]]></desc>
  </metadata>
  <trk>
    <name><![CDATA[2012-LOZERE 1]]></name>
    <trkseg>
      <trkpt lat="44.59363" lon="3.90452">
        <ele>1001.83</ele>
        <time>2012-06-16T07:58:34Z</time>
      </trkpt>
      <trkpt lat="44.59363" lon="3.90453">
        <ele>1005.2</ele>
        <time>2012-06-16T07:58:37Z</time>
      </trkpt>
      <trkpt lat="44.59363" lon="3.90452">
        <ele>1008.56</ele>
        <time>2012-06-16T07:58:41Z</time>
      </trkpt>
      <trkpt lat="44.59363" lon="3.90451">
        <ele>1011.44</ele>
        <time>2012-06-16T07:58:45Z</time>
      </trkpt>
      <trkpt lat="44.59364" lon="3.90452">
        <ele>1014.33</ele>
        <time>2012-06-16T07:58:50Z</time>
      </trkpt>
      <trkpt lat="44.59365" lon="3.90451">
        <ele>1017.21</ele>
        <time>2012-06-16T07:58:55Z</time>
      </trkpt>
      <trkpt lat="44.59366" lon="3.90452">
        <ele>1020.58</ele>
        <time>2012-06-16T07:59:04Z</time>
      </trkpt>
      <trkpt lat="44.59366" lon="3.90451">
        <ele>1023.94</ele>
        <time>2012-06-16T07:59:16Z</time>
      </trkpt>
      <trkpt lat="44.59367" lon="3.9045">
        <ele>1025.86</ele>
        <time>2012-06-16T07:59:33Z</time>
      </trkpt>
      <trkpt lat="44.59367" lon="3.9045">
        <ele>1026.83</ele>
        <time>2012-06-16T07:59:53Z</time>
      </trkpt>
      <trkpt lat="44.59367" lon="3.90449">
        <ele>1027.31</ele>
        <time>2012-06-16T08:00:15Z</time>
      </trkpt>
      <trkpt lat="44.59367" lon="3.90448">
        <ele>1027.31</ele>
        <time>2012-06-16T08:00:25Z</time>
      </trkpt>
      <trkpt lat="44.59366" lon="3.90445">
        <ele>1027.31</ele>
        <time>2012-06-16T08:00:28Z</time>
      </trkpt>
      <trkpt lat="44.59361" lon="3.90446">
        <ele>1026.83</ele>
        <time>2012-06-16T08:00:34Z</time>
      </trkpt>
      <trkpt lat="44.5936" lon="3.90456">
        <ele>1027.31</ele>
        <time>2012-06-16T08:00:40Z</time>
      </trkpt>
      <trkpt lat="44.59364" lon="3.90459">
        <ele>1026.83</ele>
        <time>2012-06-16T08:00:45Z</time>
      </trkpt>
      <trkpt lat="44.59366" lon="3.90453">
        <ele>1026.83</ele>
        <time>2012-06-16T08:00:50Z</time>
      </trkpt>
      <trkpt lat="44.5936" lon="3.90456">
        <ele>1026.83</ele>
        <time>2012-06-16T08:00:58Z</time>
      </trkpt>
      <trkpt lat="44.59362" lon="3.90465">
        <ele>1027.31</ele>
        <time>2012-06-16T08:01:08Z</time>
      </trkpt>
      <trkpt lat="44.59361" lon="3.90462">
        <ele>1027.31</ele>
        <time>2012-06-16T08:01:10Z</time>
      </trkpt>
      <trkpt lat="44.59365" lon="3.90443">
        <ele>1026.83</ele>
        <time>2012-06-16T08:01:21Z</time>
      </trkpt>
      <trkpt lat="44.59356" lon="3.90445">
        <ele>1027.31</ele>
        <time>2012-06-16T08:01:28Z</time>
      </trkpt>
      <trkpt lat="44.59352" lon="3.90444">
        <ele>1027.31</ele>
        <time>2012-06-16T08:01:30Z</time>
      </trkpt>
      <trkpt lat="44.59358" lon="3.90458">
        <ele>1027.31</ele>
        <time>2012-06-16T08:01:35Z</time>
      </trkpt>
      <trkpt lat="44.59364" lon="3.90445">
        <ele>1026.83</ele>
        <time>2012-06-16T08:01:44Z</time>
      </trkpt>
      <trkpt lat="44.59366" lon="3.90441">
        <ele>1027.31</ele>
        <time>2012-06-16T08:01:58Z</time>
      </trkpt>
      <trkpt lat="44.59364" lon="3.90445">
        <ele>1026.83</ele>
        <time>2012-06-16T08:02:17Z</time>
      </trkpt>
      <trkpt lat="44.59361" lon="3.90452">
        <ele>1027.31</ele>
        <time>2012-06-16T08:02:20Z</time>
      </trkpt>
      <trkpt lat="44.5936" lon="3.90458">
        <ele>1026.83</ele>
        <time>2012-06-16T08:02:22Z</time>
      </trkpt>
      <trkpt lat="44.59364" lon="3.90456">
        <ele>1026.83</ele>
        <time>2012-06-16T08:02:29Z</time>
      </trkpt>
      <trkpt lat="44.59364" lon="3.90455">
        <ele>1026.34</ele>
        <time>2012-06-16T08:02:37Z</time>
      </trkpt>
      <trkpt lat="44.59362" lon="3.9045">
        <ele>1026.83</ele>
        <time>2012-06-16T08:02:54Z</time>
      </trkpt>
      <trkpt lat="44.59362" lon="3.90439">
        <ele>1026.83</ele>
        <time>2012-06-16T08:03:01Z</time>
      </trkpt>
      <trkpt lat="44.59358" lon="3.90442">
        <ele>1027.31</ele>
        <time>2012-06-16T08:03:05Z</time>
      </trkpt>
      <trkpt lat="44.5936" lon="3.90451">
        <ele>1027.79</ele>
        <time>2012-06-16T08:03:09Z</time>
      </trkpt>
      <trkpt lat="44.59361" lon="3.90447">
        <ele>1026.83</ele>
        <time>2012-06-16T08:03:10Z</time>
      </trkpt>
      <trkpt lat="44.59362" lon="3.90444">
        <ele>1027.31</ele>
        <time>2012-06-16T08:03:24Z</time>
      </trkpt>
      <trkpt lat="44.59362" lon="3.90443">
        <ele>1026.83</ele>
        <time>2012-06-16T08:03:45Z</time>
      </trkpt>
      <trkpt lat="44.59362" lon="3.9044">
        <ele>1027.31</ele>
        <time>2012-06-16T08:03:55Z</time>
      </trkpt>
      <trkpt lat="44.59362" lon="3.90441">
        <ele>1027.31</ele>
        <time>2012-06-16T08:04:12Z</time>
      </trkpt>
      <trkpt lat="44.59361" lon="3.90444">
        <ele>1026.83</ele>
        <time>2012-06-16T08:04:33Z</time>
      </trkpt>
      <trkpt lat="44.59362" lon="3.90441">
        <ele>1027.31</ele>
        <time>2012-06-16T08:05:02Z</time>
      </trkpt>
      <trkpt lat="44.59363" lon="3.90439">
        <ele>1027.79</ele>
        <time>2012-06-16T08:05:29Z</time>
      </trkpt>
      <trkpt lat="44.59363" lon="3.90439">
        <ele>1027.79</ele>
        <time>2012-06-16T08:05:51Z</time>
      </trkpt>
      <trkpt lat="44.59363" lon="3.90441">
        <ele>1026.83</ele>
        <time>2012-06-16T08:06:18Z</time>
      </trkpt>
      <trkpt lat="44.59363" lon="3.90442">
        <ele>1027.79</ele>
        <time>2012-06-16T08:06:33Z</time>
      </trkpt>
      <trkpt lat="44.59363" lon="3.90441">
        <ele>1027.31</ele>
        <time>2012-06-16T08:06:51Z</time>
      </trkpt>
      <trkpt lat="44.59363" lon="3.90448">
        <ele>1027.31</ele>
        <time>2012-06-16T08:07:22Z</time>
      </trkpt>
      <trkpt lat="44.59364" lon="3.90448">
        <ele>1027.79</ele>
        <time>2012-06-16T08:07:51Z</time>
      </trkpt>
      <trkpt lat="44.59364" lon="3.90448">
        <ele>1027.31</ele>
        <time>2012-06-16T08:07:54Z</time>
      </trkpt>
      <trkpt lat="44.59356" lon="3.90453">
        <ele>1027.31</ele>
        <time>2012-06-16T08:07:59Z</time>
      </trkpt>
      <trkpt lat="44.59337" lon="3.90458">
        <ele>1027.31</ele>
        <time>2012-06-16T08:08:10Z</time>
      </trkpt>
      <trkpt lat="44.59314" lon="3.9046">
        <ele>1027.79</ele>
        <time>2012-06-16T08:08:20Z</time>
      </trkpt>
      <trkpt lat="44.59303" lon="3.90458">
        <ele>1028.27</ele>
        <time>2012-06-16T08:08:22Z</time>
      </trkpt>
      <trkpt lat="44.5924" lon="3.90442">
        <ele>1027.79</ele>
        <time>2012-06-16T08:08:31Z</time>
      </trkpt>
      <trkpt lat="44.59226" lon="3.90437">
        <ele>1026.83</ele>
        <time>2012-06-16T08:08:33Z</time>
      </trkpt>
      <trkpt lat="44.59221" lon="3.90437">
        <ele>1026.34</ele>
        <time>2012-06-16T08:08:34Z</time>
      </trkpt>
      <trkpt lat="44.59217" lon="3.90437">
        <ele>1026.34</ele>
        <time>2012-06-16T08:08:35Z</time>
      </trkpt>
      <trkpt lat="44.59213" lon="3.90439">
        <ele>1026.34</ele>
        <time>2012-06-16T08:08:36Z</time>
      </trkpt>
      <trkpt lat="44.59209" lon="3.90443">
        <ele>1025.86</ele>
        <time>2012-06-16T08:08:37Z</time>
      </trkpt>
      <trkpt lat="44.59206" lon="3.90447">
        <ele>1025.38</ele>
        <time>2012-06-16T08:08:38Z</time>
      </trkpt>
      <trkpt lat="44.59203" lon="3.90453">
        <ele>1024.9</ele>
        <time>2012-06-16T08:08:39Z</time>
      </trkpt>
      <trkpt lat="44.592" lon="3.90459">
        <ele>1025.38</ele>
        <time>2012-06-16T08:08:40Z</time>
      </trkpt>
      <trkpt lat="44.59191" lon="3.90487">
        <ele>1024.42</ele>
        <time>2012-06-16T08:08:44Z</time>
      </trkpt>
      <trkpt lat="44.59186" lon="3.90522">
        <ele>1023.46</ele>
        <time>2012-06-16T08:08:49Z</time>
      </trkpt>
      <trkpt lat="44.59184" lon="3.90528">
        <ele>1022.98</ele>
        <time>2012-06-16T08:08:50Z</time>
      </trkpt>
      <trkpt lat="44.59177" lon="3.90554">
        <ele>1022.5</ele>
        <time>2012-06-16T08:08:56Z</time>
      </trkpt>
      <trkpt lat="44.59173" lon="3.90555">
        <ele>1022.5</ele>
        <time>2012-06-16T08:08:57Z</time>
      </trkpt>
      <trkpt lat="44.5917" lon="3.90554">
        <ele>1022.5</ele>
        <time>2012-06-16T08:08:58Z</time>
      </trkpt>
      <trkpt lat="44.59146" lon="3.90545">
        <ele>1025.86</ele>
        <time>2012-06-16T08:09:09Z</time>
      </trkpt>
      <trkpt lat="44.59145" lon="3.90545">
        <ele>1025.86</ele>
        <time>2012-06-16T08:09:26Z</time>
      </trkpt>
      <trkpt lat="44.59144" lon="3.90542">
        <ele>1025.38</ele>
        <time>2012-06-16T08:09:54Z</time>
      </trkpt>
      <trkpt lat="44.59143" lon="3.9054">
        <ele>1025.86</ele>
        <time>2012-06-16T08:10:23Z</time>
      </trkpt>
      <trkpt lat="44.5914" lon="3.90542">
        <ele>1025.86</ele>
        <time>2012-06-16T08:10:33Z</time>
      </trkpt>
      <trkpt lat="44.5914" lon="3.90543">
        <ele>1025.86</ele>
        <time>2012-06-16T08:10:34Z</time>
      </trkpt>
      <trkpt lat="44.59141" lon="3.90545">
        <ele>1025.86</ele>
        <time>2012-06-16T08:10:35Z</time>
      </trkpt>
      <trkpt lat="44.59143" lon="3.90546">
        <ele>1025.38</ele>
        <time>2012-06-16T08:10:36Z</time>
      </trkpt>
      <trkpt lat="44.59144" lon="3.90547">
        <ele>1025.86</ele>
        <time>2012-06-16T08:10:37Z</time>
      </trkpt>
      <trkpt lat="44.59163" lon="3.90556">
        <ele>1023.46</ele>
        <time>2012-06-16T08:10:46Z</time>
      </trkpt>
      <trkpt lat="44.59175" lon="3.90561">
        <ele>1022.02</ele>
        <time>2012-06-16T08:10:53Z</time>
      </trkpt>
      <trkpt lat="44.59177" lon="3.90559">
        <ele>1022.5</ele>
        <time>2012-06-16T08:10:54Z</time>
      </trkpt>
      <trkpt lat="44.59189" lon="3.9051">
        <ele>1022.98</ele>
        <time>2012-06-16T08:11:07Z</time>
      </trkpt>
      <trkpt lat="44.59204" lon="3.90459">
        <ele>1024.42</ele>
        <time>2012-06-16T08:11:22Z</time>
      </trkpt>
      <trkpt lat="44.59207" lon="3.90454">
        <ele>1024.9</ele>
        <time>2012-06-16T08:11:25Z</time>
      </trkpt>
      <trkpt lat="44.59205" lon="3.90452">
        <ele>1024.9</ele>
        <time>2012-06-16T08:11:27Z</time>
      </trkpt>
      <trkpt lat="44.59203" lon="3.90453">
        <ele>1024.9</ele>
        <time>2012-06-16T08:11:28Z</time>
      </trkpt>
      <trkpt lat="44.59201" lon="3.90458">
        <ele>1024.9</ele>
        <time>2012-06-16T08:11:29Z</time>
      </trkpt>
      <trkpt lat="44.59198" lon="3.90463">
        <ele>1024.42</ele>
        <time>2012-06-16T08:11:30Z</time>
      </trkpt>
      <trkpt lat="44.59196" lon="3.90469">
        <ele>1024.9</ele>
        <time>2012-06-16T08:11:31Z</time>
      </trkpt>
      <trkpt lat="44.59191" lon="3.90488">
        <ele>1024.42</ele>
        <time>2012-06-16T08:11:34Z</time>
      </trkpt>
      <trkpt lat="44.5918" lon="3.90535">
        <ele>1023.46</ele>
        <time>2012-06-16T08:11:41Z</time>
      </trkpt>
      <trkpt lat="44.59177" lon="3.90539">
        <ele>1022.98</ele>
        <time>2012-06-16T08:11:42Z</time>
      </trkpt>
      <trkpt lat="44.59175" lon="3.90542">
        <ele>1022.98</ele>
        <time>2012-06-16T08:11:43Z</time>
      </trkpt>
      <trkpt lat="44.59173" lon="3.90546">
        <ele>1023.46</ele>
        <time>2012-06-16T08:11:44Z</time>
      </trkpt>
      <trkpt lat="44.59171" lon="3.9055">
        <ele>1023.46</ele>
        <time>2012-06-16T08:11:45Z</time>
      </trkpt>
      <trkpt lat="44.5917" lon="3.90552">
        <ele>1023.46</ele>
        <time>2012-06-16T08:11:46Z</time>
      </trkpt>
      <trkpt lat="44.59168" lon="3.90553">
        <ele>1023.46</ele>
        <time>2012-06-16T08:11:47Z</time>
      </trkpt>
      <trkpt lat="44.59166" lon="3.90553">
        <ele>1023.46</ele>
        <time>2012-06-16T08:11:48Z</time>
      </trkpt>
      <trkpt lat="44.59163" lon="3.90552">
        <ele>1023.46</ele>
        <time>2012-06-16T08:11:49Z</time>
      </trkpt>
      <trkpt lat="44.5916" lon="3.90549">
        <ele>1024.42</ele>
        <time>2012-06-16T08:11:50Z</time>
      </trkpt>
      <trkpt lat="44.59157" lon="3.90548">
        <ele>1024.42</ele>
        <time>2012-06-16T08:11:51Z</time>
      </trkpt>
      <trkpt lat="44.59153" lon="3.90547">
        <ele>1024.9</ele>
        <time>2012-06-16T08:11:52Z</time>
      </trkpt>
      <trkpt lat="44.59151" lon="3.90546">
        <ele>1024.9</ele>
        <time>2012-06-16T08:11:53Z</time>
      </trkpt>
      <trkpt lat="44.59148" lon="3.90545">
        <ele>1025.38</ele>
        <time>2012-06-16T08:11:54Z</time>
      </trkpt>
      <trkpt lat="44.59146" lon="3.90544">
        <ele>1025.38</ele>
        <time>2012-06-16T08:11:55Z</time>
      </trkpt>
      <trkpt lat="44.59142" lon="3.90543">
        <ele>1025.38</ele>
        <time>2012-06-16T08:11:56Z</time>
      </trkpt>
      <trkpt lat="44.59139" lon="3.90542">
        <ele>1025.86</ele>
        <time>2012-06-16T08:11:57Z</time>
      </trkpt>
      <trkpt lat="44.59136" lon="3.90542">
        <ele>1026.34</ele>
        <time>2012-06-16T08:11:58Z</time>
      </trkpt>
      <trkpt lat="44.59134" lon="3.90542">
        <ele>1026.34</ele>
        <time>2012-06-16T08:11:59Z</time>
      </trkpt>
      <trkpt lat="44.591" lon="3.90542">
        <ele>1028.27</ele>
        <time>2012-06-16T08:12:12Z</time>
      </trkpt>
      <trkpt lat="44.59091" lon="3.90544">
        <ele>1029.71</ele>
        <time>2012-06-16T08:12:15Z</time>
      </trkpt>
      <trkpt lat="44.59056" lon="3.90557">
        <ele>1032.11</ele>
        <time>2012-06-16T08:12:28Z</time>
      </trkpt>
      <trkpt lat="44.59026" lon="3.90575">
        <ele>1035.48</ele>
        <time>2012-06-16T08:12:41Z</time>
      </trkpt>
      <trkpt lat="44.58997" lon="3.90588">
        <ele>1037.4</ele>
        <time>2012-06-16T08:12:55Z</time>
      </trkpt>
      <trkpt lat="44.58973" lon="3.90598">
        <ele>1039.8</ele>
        <time>2012-06-16T08:13:09Z</time>
      </trkpt>
      <trkpt lat="44.58967" lon="3.90602">
        <ele>1040.28</ele>
        <time>2012-06-16T08:13:13Z</time>
      </trkpt>
      <trkpt lat="44.58965" lon="3.90603">
        <ele>1040.76</ele>
        <time>2012-06-16T08:13:14Z</time>
      </trkpt>
      <trkpt lat="44.58963" lon="3.90604">
        <ele>1041.25</ele>
        <time>2012-06-16T08:13:15Z</time>
      </trkpt>
      <trkpt lat="44.58961" lon="3.90604">
        <ele>1040.76</ele>
        <time>2012-06-16T08:13:16Z</time>
      </trkpt>
      <trkpt lat="44.58959" lon="3.90605">
        <ele>1041.25</ele>
        <time>2012-06-16T08:13:17Z</time>
      </trkpt>
      <trkpt lat="44.58929" lon="3.90621">
        <ele>1044.13</ele>
        <time>2012-06-16T08:13:35Z</time>
      </trkpt>
      <trkpt lat="44.58902" lon="3.9063">
        <ele>1047.01</ele>
        <time>2012-06-16T08:13:50Z</time>
      </trkpt>
      <trkpt lat="44.589" lon="3.90631">
        <ele>1047.01</ele>
        <time>2012-06-16T08:13:51Z</time>
      </trkpt>
      <trkpt lat="44.58879" lon="3.90637">
        <ele>1048.94</ele>
        <time>2012-06-16T08:14:00Z</time>
      </trkpt>
      <trkpt lat="44.5885" lon="3.90642">
        <ele>1051.82</ele>
        <time>2012-06-16T08:14:14Z</time>
      </trkpt>
      <trkpt lat="44.58817" lon="3.90647">
        <ele>1055.67</ele>
        <time>2012-06-16T08:14:29Z</time>
      </trkpt>
      <trkpt lat="44.58788" lon="3.90658">
        <ele>1058.07</ele>
        <time>2012-06-16T08:14:43Z</time>
      </trkpt>
      <trkpt lat="44.58759" lon="3.90678">
        <ele>1060.47</ele>
        <time>2012-06-16T08:14:57Z</time>
      </trkpt>
      <trkpt lat="44.58727" lon="3.90705">
        <ele>1063.36</ele>
        <time>2012-06-16T08:15:13Z</time>
      </trkpt>
      <trkpt lat="44.58702" lon="3.90727">
        <ele>1064.32</ele>
        <time>2012-06-16T08:15:27Z</time>
      </trkpt>
      <trkpt lat="44.58671" lon="3.90741">
        <ele>1065.28</ele>
        <time>2012-06-16T08:15:41Z</time>
      </trkpt>
      <trkpt lat="44.58646" lon="3.90732">
        <ele>1068.16</ele>
        <time>2012-06-16T08:15:54Z</time>
      </trkpt>
      <trkpt lat="44.58622" lon="3.90725">
        <ele>1071.05</ele>
        <time>2012-06-16T08:16:06Z</time>
      </trkpt>
      <trkpt lat="44.586" lon="3.90715">
        <ele>1072.97</ele>
        <time>2012-06-16T08:16:19Z</time>
      </trkpt>
      <trkpt lat="44.58577" lon="3.90704">
        <ele>1076.33</ele>
        <time>2012-06-16T08:16:30Z</time>
      </trkpt>
      <trkpt lat="44.5855" lon="3.90689">
        <ele>1078.74</ele>
        <time>2012-06-16T08:16:42Z</time>
      </trkpt>
      <trkpt lat="44.58533" lon="3.9068">
        <ele>1080.66</ele>
        <time>2012-06-16T08:16:50Z</time>
      </trkpt>
      <trkpt lat="44.58507" lon="3.90665">
        <ele>1083.06</ele>
        <time>2012-06-16T08:17:02Z</time>
      </trkpt>
      <trkpt lat="44.58481" lon="3.90648">
        <ele>1084.99</ele>
        <time>2012-06-16T08:17:14Z</time>
      </trkpt>
      <trkpt lat="44.58456" lon="3.90624">
        <ele>1086.43</ele>
        <time>2012-06-16T08:17:27Z</time>
      </trkpt>
      <trkpt lat="44.58431" lon="3.90594">
        <ele>1087.87</ele>
        <time>2012-06-16T08:17:40Z</time>
      </trkpt>
      <trkpt lat="44.58405" lon="3.90563">
        <ele>1091.23</ele>
        <time>2012-06-16T08:17:53Z</time>
      </trkpt>
      <trkpt lat="44.5838" lon="3.90533">
        <ele>1091.71</ele>
        <time>2012-06-16T08:18:06Z</time>
      </trkpt>
      <trkpt lat="44.58348" lon="3.905">
        <ele>1093.16</ele>
        <time>2012-06-16T08:18:23Z</time>
      </trkpt>
      <trkpt lat="44.58323" lon="3.90473">
        <ele>1094.12</ele>
        <time>2012-06-16T08:18:37Z</time>
      </trkpt>
      <trkpt lat="44.58298" lon="3.90454">
        <ele>1095.08</ele>
        <time>2012-06-16T08:18:49Z</time>
      </trkpt>
      <trkpt lat="44.58296" lon="3.90454">
        <ele>1095.56</ele>
        <time>2012-06-16T08:18:50Z</time>
      </trkpt>
      <trkpt lat="44.58294" lon="3.90454">
        <ele>1095.56</ele>
        <time>2012-06-16T08:18:51Z</time>
      </trkpt>
      <trkpt lat="44.58293" lon="3.90454">
        <ele>1095.56</ele>
        <time>2012-06-16T08:18:52Z</time>
      </trkpt>
      <trkpt lat="44.58292" lon="3.90455">
        <ele>1095.56</ele>
        <time>2012-06-16T08:18:53Z</time>
      </trkpt>
      <trkpt lat="44.5829" lon="3.90456">
        <ele>1095.56</ele>
        <time>2012-06-16T08:18:54Z</time>
      </trkpt>
      <trkpt lat="44.58289" lon="3.90458">
        <ele>1096.04</ele>
        <time>2012-06-16T08:18:55Z</time>
      </trkpt>
      <trkpt lat="44.58289" lon="3.90459">
        <ele>1095.08</ele>
        <time>2012-06-16T08:18:56Z</time>
      </trkpt>
      <trkpt lat="44.58289" lon="3.90461">
        <ele>1095.08</ele>
        <time>2012-06-16T08:18:57Z</time>
      </trkpt>
      <trkpt lat="44.58288" lon="3.90464">
        <ele>1094.6</ele>
        <time>2012-06-16T08:18:58Z</time>
      </trkpt>
      <trkpt lat="44.58287" lon="3.90479">
        <ele>1094.6</ele>
        <time>2012-06-16T08:19:10Z</time>
      </trkpt>
      <trkpt lat="44.58288" lon="3.9048">
        <ele>1095.08</ele>
        <time>2012-06-16T08:19:26Z</time>
      </trkpt>
      <trkpt lat="44.58288" lon="3.90481">
        <ele>1095.08</ele>
        <time>2012-06-16T08:19:47Z</time>
      </trkpt>
      <trkpt lat="44.58288" lon="3.9048">
        <ele>1096.04</ele>
        <time>2012-06-16T08:20:03Z</time>
      </trkpt>
      <trkpt lat="44.58287" lon="3.90479">
        <ele>1095.56</ele>
        <time>2012-06-16T08:20:32Z</time>
      </trkpt>
      <trkpt lat="44.58287" lon="3.90479">
        <ele>1095.56</ele>
        <time>2012-06-16T08:20:52Z</time>
      </trkpt>
      <trkpt lat="44.58287" lon="3.9048">
        <ele>1096.04</ele>
        <time>2012-06-16T08:21:12Z</time>
      </trkpt>
      <trkpt lat="44.58288" lon="3.90486">
        <ele>1095.56</ele>
        <time>2012-06-16T08:21:23Z</time>
      </trkpt>
      <trkpt lat="44.58287" lon="3.90486">
        <ele>1094.6</ele>
        <time>2012-06-16T08:21:44Z</time>
      </trkpt>
      <trkpt lat="44.58289" lon="3.90501">
        <ele>1094.6</ele>
        <time>2012-06-16T08:22:04Z</time>
      </trkpt>
      <trkpt lat="44.58289" lon="3.90508">
        <ele>1094.12</ele>
        <time>2012-06-16T08:22:05Z</time>
      </trkpt>
      <trkpt lat="44.58292" lon="3.90535">
        <ele>1092.68</ele>
        <time>2012-06-16T08:22:08Z</time>
      </trkpt>
      <trkpt lat="44.58296" lon="3.90568">
        <ele>1088.83</ele>
        <time>2012-06-16T08:22:11Z</time>
      </trkpt>
      <trkpt lat="44.58297" lon="3.9058">
        <ele>1088.35</ele>
        <time>2012-06-16T08:22:12Z</time>
      </trkpt>
      <trkpt lat="44.58296" lon="3.90624">
        <ele>1084.5</ele>
        <time>2012-06-16T08:22:16Z</time>
      </trkpt>
      <trkpt lat="44.58296" lon="3.90635">
        <ele>1084.5</ele>
        <time>2012-06-16T08:22:17Z</time>
      </trkpt>
      <trkpt lat="44.58294" lon="3.90676">
        <ele>1081.62</ele>
        <time>2012-06-16T08:22:21Z</time>
      </trkpt>
      <trkpt lat="44.58292" lon="3.90716">
        <ele>1077.29</ele>
        <time>2012-06-16T08:22:25Z</time>
      </trkpt>
      <trkpt lat="44.5829" lon="3.90748">
        <ele>1074.89</ele>
        <time>2012-06-16T08:22:29Z</time>
      </trkpt>
      <trkpt lat="44.58288" lon="3.90755">
        <ele>1074.89</ele>
        <time>2012-06-16T08:22:30Z</time>
      </trkpt>
      <trkpt lat="44.58286" lon="3.90763">
        <ele>1073.93</ele>
        <time>2012-06-16T08:22:31Z</time>
      </trkpt>
      <trkpt lat="44.58285" lon="3.9077">
        <ele>1072.97</ele>
        <time>2012-06-16T08:22:32Z</time>
      </trkpt>
      <trkpt lat="44.58286" lon="3.90778">
        <ele>1072.49</ele>
        <time>2012-06-16T08:22:33Z</time>
      </trkpt>
      <trkpt lat="44.58287" lon="3.90786">
        <ele>1071.53</ele>
        <time>2012-06-16T08:22:34Z</time>
      </trkpt>
      <trkpt lat="44.58287" lon="3.90793">
        <ele>1070.08</ele>
        <time>2012-06-16T08:22:35Z</time>
      </trkpt>
      <trkpt lat="44.58287" lon="3.908">
        <ele>1070.08</ele>
        <time>2012-06-16T08:22:36Z</time>
      </trkpt>
      <trkpt lat="44.58287" lon="3.90813">
        <ele>1068.64</ele>
        <time>2012-06-16T08:22:38Z</time>
      </trkpt>
      <trkpt lat="44.58288" lon="3.90819">
        <ele>1067.68</ele>
        <time>2012-06-16T08:22:39Z</time>
      </trkpt>
      <trkpt lat="44.58288" lon="3.90824">
        <ele>1066.72</ele>
        <time>2012-06-16T08:22:40Z</time>
      </trkpt>
      <trkpt lat="44.58288" lon="3.90829">
        <ele>1066.72</ele>
        <time>2012-06-16T08:22:41Z</time>
      </trkpt>
      <trkpt lat="44.58287" lon="3.90835">
        <ele>1065.76</ele>
        <time>2012-06-16T08:22:42Z</time>
      </trkpt>
      <trkpt lat="44.58286" lon="3.90845">
        <ele>1065.76</ele>
        <time>2012-06-16T08:22:43Z</time>
      </trkpt>
      <trkpt lat="44.58284" lon="3.90854">
        <ele>1065.28</ele>
        <time>2012-06-16T08:22:44Z</time>
      </trkpt>
      <trkpt lat="44.58282" lon="3.90862">
        <ele>1064.32</ele>
        <time>2012-06-16T08:22:45Z</time>
      </trkpt>
      <trkpt lat="44.5828" lon="3.9087">
        <ele>1063.36</ele>
        <time>2012-06-16T08:22:46Z</time>
      </trkpt>
      <trkpt lat="44.58278" lon="3.90875">
        <ele>1062.39</ele>
        <time>2012-06-16T08:22:47Z</time>
      </trkpt>
      <trkpt lat="44.58275" lon="3.90879">
        <ele>1061.43</ele>
        <time>2012-06-16T08:22:48Z</time>
      </trkpt>
      <trkpt lat="44.58272" lon="3.9088">
        <ele>1061.91</ele>
        <time>2012-06-16T08:22:49Z</time>
      </trkpt>
      <trkpt lat="44.58271" lon="3.90881">
        <ele>1061.43</ele>
        <time>2012-06-16T08:22:50Z</time>
      </trkpt>
      <trkpt lat="44.58269" lon="3.90879">
        <ele>1060.95</ele>
        <time>2012-06-16T08:22:51Z</time>
      </trkpt>
      <trkpt lat="44.58268" lon="3.90876">
        <ele>1060.95</ele>
        <time>2012-06-16T08:22:52Z</time>
      </trkpt>
      <trkpt lat="44.58266" lon="3.90873">
        <ele>1060.95</ele>
        <time>2012-06-16T08:22:53Z</time>
      </trkpt>
      <trkpt lat="44.58264" lon="3.90869">
        <ele>1060.47</ele>
        <time>2012-06-16T08:22:54Z</time>
      </trkpt>
      <trkpt lat="44.58262" lon="3.90866">
        <ele>1060.47</ele>
        <time>2012-06-16T08:22:55Z</time>
      </trkpt>
      <trkpt lat="44.58261" lon="3.90863">
        <ele>1060.95</ele>
        <time>2012-06-16T08:22:56Z</time>
      </trkpt>
      <trkpt lat="44.5826" lon="3.90861">
        <ele>1060.95</ele>
        <time>2012-06-16T08:22:57Z</time>
      </trkpt>
      <trkpt lat="44.58258" lon="3.90858">
        <ele>1060.47</ele>
        <time>2012-06-16T08:22:58Z</time>
      </trkpt>
      <trkpt lat="44.58256" lon="3.90854">
        <ele>1060.95</ele>
        <time>2012-06-16T08:22:59Z</time>
      </trkpt>
      <trkpt lat="44.58254" lon="3.9085">
        <ele>1060.95</ele>
        <time>2012-06-16T08:23:00Z</time>
      </trkpt>
      <trkpt lat="44.58253" lon="3.90845">
        <ele>1060.95</ele>
        <time>2012-06-16T08:23:01Z</time>
      </trkpt>
      <trkpt lat="44.5825" lon="3.90838">
        <ele>1060.47</ele>
        <time>2012-06-16T08:23:02Z</time>
      </trkpt>
      <trkpt lat="44.58246" lon="3.9082">
        <ele>1061.43</ele>
        <time>2012-06-16T08:23:04Z</time>
      </trkpt>
      <trkpt lat="44.58238" lon="3.90781">
        <ele>1061.43</ele>
        <time>2012-06-16T08:23:08Z</time>
      </trkpt>
      <trkpt lat="44.58237" lon="3.90772">
        <ele>1061.91</ele>
        <time>2012-06-16T08:23:09Z</time>
      </trkpt>
      <trkpt lat="44.58235" lon="3.9073">
        <ele>1061.43</ele>
        <time>2012-06-16T08:23:15Z</time>
      </trkpt>
      <trkpt lat="44.58234" lon="3.90724">
        <ele>1061.43</ele>
        <time>2012-06-16T08:23:16Z</time>
      </trkpt>
      <trkpt lat="44.58228" lon="3.90686">
        <ele>1060.47</ele>
        <time>2012-06-16T08:23:23Z</time>
      </trkpt>
      <trkpt lat="44.5822" lon="3.90666">
        <ele>1061.43</ele>
        <time>2012-06-16T08:23:27Z</time>
      </trkpt>
      <trkpt lat="44.58217" lon="3.90661">
        <ele>1061.43</ele>
        <time>2012-06-16T08:23:28Z</time>
      </trkpt>
      <trkpt lat="44.58214" lon="3.90658">
        <ele>1061.43</ele>
        <time>2012-06-16T08:23:29Z</time>
      </trkpt>
      <trkpt lat="44.5821" lon="3.90656">
        <ele>1060.95</ele>
        <time>2012-06-16T08:23:30Z</time>
      </trkpt>
      <trkpt lat="44.58207" lon="3.90655">
        <ele>1060.47</ele>
        <time>2012-06-16T08:23:31Z</time>
      </trkpt>
      <trkpt lat="44.58204" lon="3.90655">
        <ele>1060.95</ele>
        <time>2012-06-16T08:23:32Z</time>
      </trkpt>
      <trkpt lat="44.58178" lon="3.90657">
        <ele>1060.95</ele>
        <time>2012-06-16T08:23:41Z</time>
      </trkpt>
      <trkpt lat="44.5817" lon="3.90657">
        <ele>1060.95</ele>
        <time>2012-06-16T08:23:43Z</time>
      </trkpt>
      <trkpt lat="44.58165" lon="3.90656">
        <ele>1061.43</ele>
        <time>2012-06-16T08:23:44Z</time>
      </trkpt>
      <trkpt lat="44.58161" lon="3.90653">
        <ele>1061.91</ele>
        <time>2012-06-16T08:23:45Z</time>
      </trkpt>
      <trkpt lat="44.58157" lon="3.90651">
        <ele>1061.43</ele>
        <time>2012-06-16T08:23:46Z</time>
      </trkpt>
      <trkpt lat="44.58153" lon="3.90647">
        <ele>1061.43</ele>
        <time>2012-06-16T08:23:47Z</time>
      </trkpt>
      <trkpt lat="44.58141" lon="3.90635">
        <ele>1060.95</ele>
        <time>2012-06-16T08:23:51Z</time>
      </trkpt>
      <trkpt lat="44.58137" lon="3.90632">
        <ele>1061.43</ele>
        <time>2012-06-16T08:23:52Z</time>
      </trkpt>
      <trkpt lat="44.58134" lon="3.90628">
        <ele>1061.43</ele>
        <time>2012-06-16T08:23:53Z</time>
      </trkpt>
      <trkpt lat="44.58124" lon="3.90617">
        <ele>1061.91</ele>
        <time>2012-06-16T08:23:56Z</time>
      </trkpt>
      <trkpt lat="44.5812" lon="3.90613">
        <ele>1061.91</ele>
        <time>2012-06-16T08:23:57Z</time>
      </trkpt>
      <trkpt lat="44.58086" lon="3.90603">
        <ele>1061.43</ele>
        <time>2012-06-16T08:24:06Z</time>
      </trkpt>
      <trkpt lat="44.58049" lon="3.906">
        <ele>1061.91</ele>
        <time>2012-06-16T08:24:15Z</time>
      </trkpt>
      <trkpt lat="44.58028" lon="3.90597">
        <ele>1061.43</ele>
        <time>2012-06-16T08:24:19Z</time>
      </trkpt>
      <trkpt lat="44.58018" lon="3.90597">
        <ele>1060.95</ele>
        <time>2012-06-16T08:24:21Z</time>
      </trkpt>
      <trkpt lat="44.58014" lon="3.90599">
        <ele>1061.91</ele>
        <time>2012-06-16T08:24:22Z</time>
      </trkpt>
      <trkpt lat="44.5801" lon="3.90602">
        <ele>1061.43</ele>
        <time>2012-06-16T08:24:23Z</time>
      </trkpt>
      <trkpt lat="44.58006" lon="3.90606">
        <ele>1060.95</ele>
        <time>2012-06-16T08:24:24Z</time>
      </trkpt>
      <trkpt lat="44.58004" lon="3.90611">
        <ele>1060.95</ele>
        <time>2012-06-16T08:24:25Z</time>
      </trkpt>
      <trkpt lat="44.58003" lon="3.90617">
        <ele>1060.95</ele>
        <time>2012-06-16T08:24:26Z</time>
      </trkpt>
      <trkpt lat="44.58002" lon="3.90623">
        <ele>1060.95</ele>
        <time>2012-06-16T08:24:27Z</time>
      </trkpt>
      <trkpt lat="44.58002" lon="3.90629">
        <ele>1061.43</ele>
        <time>2012-06-16T08:24:28Z</time>
      </trkpt>
      <trkpt lat="44.58002" lon="3.90635">
        <ele>1061.43</ele>
        <time>2012-06-16T08:24:29Z</time>
      </trkpt>
      <trkpt lat="44.58003" lon="3.90641">
        <ele>1061.43</ele>
        <time>2012-06-16T08:24:30Z</time>
      </trkpt>
      <trkpt lat="44.58004" lon="3.90647">
        <ele>1061.43</ele>
        <time>2012-06-16T08:24:31Z</time>
      </trkpt>
      <trkpt lat="44.58005" lon="3.90653">
        <ele>1060.95</ele>
        <time>2012-06-16T08:24:32Z</time>
      </trkpt>
      <trkpt lat="44.58007" lon="3.90659">
        <ele>1061.43</ele>
        <time>2012-06-16T08:24:33Z</time>
      </trkpt>
      <trkpt lat="44.58009" lon="3.90665">
        <ele>1061.91</ele>
        <time>2012-06-16T08:24:34Z</time>
      </trkpt>
      <trkpt lat="44.58013" lon="3.90678">
        <ele>1061.43</ele>
        <time>2012-06-16T08:24:36Z</time>
      </trkpt>
      <trkpt lat="44.58015" lon="3.90684">
        <ele>1061.91</ele>
        <time>2012-06-16T08:24:37Z</time>
      </trkpt>
      <trkpt lat="44.58018" lon="3.90688">
        <ele>1061.91</ele>
        <time>2012-06-16T08:24:38Z</time>
      </trkpt>
      <trkpt lat="44.58021" lon="3.90694">
        <ele>1061.43</ele>
        <time>2012-06-16T08:24:39Z</time>
      </trkpt>
      <trkpt lat="44.58023" lon="3.907">
        <ele>1061.91</ele>
        <time>2012-06-16T08:24:40Z</time>
      </trkpt>
      <trkpt lat="44.58025" lon="3.90705">
        <ele>1061.43</ele>
        <time>2012-06-16T08:24:41Z</time>
      </trkpt>
      <trkpt lat="44.58027" lon="3.9071">
        <ele>1061.91</ele>
        <time>2012-06-16T08:24:42Z</time>
      </trkpt>
      <trkpt lat="44.58029" lon="3.90716">
        <ele>1061.91</ele>
        <time>2012-06-16T08:24:43Z</time>
      </trkpt>
      <trkpt lat="44.58032" lon="3.90722">
        <ele>1061.91</ele>
        <time>2012-06-16T08:24:44Z</time>
      </trkpt>
      <trkpt lat="44.58034" lon="3.90728">
        <ele>1061.91</ele>
        <time>2012-06-16T08:24:45Z</time>
      </trkpt>
      <trkpt lat="44.58039" lon="3.90747">
        <ele>1061.43</ele>
        <time>2012-06-16T08:24:48Z</time>
      </trkpt>
      <trkpt lat="44.58039" lon="3.90754">
        <ele>1061.91</ele>
        <time>2012-06-16T08:24:49Z</time>
      </trkpt>
      <trkpt lat="44.5804" lon="3.90768">
        <ele>1061.43</ele>
        <time>2012-06-16T08:24:51Z</time>
      </trkpt>
      <trkpt lat="44.58039" lon="3.90781">
        <ele>1060.95</ele>
        <time>2012-06-16T08:24:53Z</time>
      </trkpt>
      <trkpt lat="44.58038" lon="3.90788">
        <ele>1061.43</ele>
        <time>2012-06-16T08:24:54Z</time>
      </trkpt>
      <trkpt lat="44.58031" lon="3.90806">
        <ele>1061.43</ele>
        <time>2012-06-16T08:24:57Z</time>
      </trkpt>
      <trkpt lat="44.58028" lon="3.90812">
        <ele>1061.91</ele>
        <time>2012-06-16T08:24:58Z</time>
      </trkpt>
      <trkpt lat="44.58024" lon="3.90816">
        <ele>1061.43</ele>
        <time>2012-06-16T08:24:59Z</time>
      </trkpt>
      <trkpt lat="44.58017" lon="3.90825">
        <ele>1061.43</ele>
        <time>2012-06-16T08:25:01Z</time>
      </trkpt>
      <trkpt lat="44.58013" lon="3.90828">
        <ele>1061.43</ele>
        <time>2012-06-16T08:25:02Z</time>
      </trkpt>
      <trkpt lat="44.57996" lon="3.90838">
        <ele>1061.91</ele>
        <time>2012-06-16T08:25:06Z</time>
      </trkpt>
      <trkpt lat="44.57971" lon="3.90849">
        <ele>1061.91</ele>
        <time>2012-06-16T08:25:12Z</time>
      </trkpt>
      <trkpt lat="44.57958" lon="3.90854">
        <ele>1061.91</ele>
        <time>2012-06-16T08:25:15Z</time>
      </trkpt>
      <trkpt lat="44.57954" lon="3.90855">
        <ele>1061.43</ele>
        <time>2012-06-16T08:25:16Z</time>
      </trkpt>
      <trkpt lat="44.57942" lon="3.90861">
        <ele>1061.43</ele>
        <time>2012-06-16T08:25:19Z</time>
      </trkpt>
      <trkpt lat="44.57938" lon="3.90864">
        <ele>1061.43</ele>
        <time>2012-06-16T08:25:20Z</time>
      </trkpt>
      <trkpt lat="44.57934" lon="3.90866">
        <ele>1061.43</ele>
        <time>2012-06-16T08:25:21Z</time>
      </trkpt>
      <trkpt lat="44.5793" lon="3.90869">
        <ele>1061.43</ele>
        <time>2012-06-16T08:25:22Z</time>
      </trkpt>
      <trkpt lat="44.57925" lon="3.90871">
        <ele>1061.43</ele>
        <time>2012-06-16T08:25:23Z</time>
      </trkpt>
      <trkpt lat="44.57921" lon="3.90873">
        <ele>1061.43</ele>
        <time>2012-06-16T08:25:24Z</time>
      </trkpt>
      <trkpt lat="44.57906" lon="3.9088">
        <ele>1061.43</ele>
        <time>2012-06-16T08:25:28Z</time>
      </trkpt>
      <trkpt lat="44.57902" lon="3.90881">
        <ele>1060.95</ele>
        <time>2012-06-16T08:25:29Z</time>
      </trkpt>
      <trkpt lat="44.57894" lon="3.90882">
        <ele>1060.95</ele>
        <time>2012-06-16T08:25:31Z</time>
      </trkpt>
      <trkpt lat="44.5789" lon="3.90882">
        <ele>1060.95</ele>
        <time>2012-06-16T08:25:32Z</time>
      </trkpt>
      <trkpt lat="44.57842" lon="3.90853">
        <ele>1061.91</ele>
        <time>2012-06-16T08:25:44Z</time>
      </trkpt>
      <trkpt lat="44.57813" lon="3.90831">
        <ele>1060.95</ele>
        <time>2012-06-16T08:25:52Z</time>
      </trkpt>
      <trkpt lat="44.57809" lon="3.90828">
        <ele>1060.95</ele>
        <time>2012-06-16T08:25:53Z</time>
      </trkpt>
      <trkpt lat="44.57794" lon="3.90817">
        <ele>1061.43</ele>
        <time>2012-06-16T08:25:57Z</time>
      </trkpt>
      <trkpt lat="44.5779" lon="3.90813">
        <ele>1060.95</ele>
        <time>2012-06-16T08:25:58Z</time>
      </trkpt>
      <trkpt lat="44.57761" lon="3.90785">
        <ele>1060.95</ele>
        <time>2012-06-16T08:26:06Z</time>
      </trkpt>
      <trkpt lat="44.57751" lon="3.90772">
        <ele>1060.95</ele>
        <time>2012-06-16T08:26:09Z</time>
      </trkpt>
      <trkpt lat="44.57745" lon="3.90762">
        <ele>1060.95</ele>
        <time>2012-06-16T08:26:11Z</time>
      </trkpt>
      <trkpt lat="44.57728" lon="3.90686">
        <ele>1060.47</ele>
        <time>2012-06-16T08:26:25Z</time>
      </trkpt>
      <trkpt lat="44.5771" lon="3.90629">
        <ele>1059.99</ele>
        <time>2012-06-16T08:26:36Z</time>
      </trkpt>
      <trkpt lat="44.57672" lon="3.90585">
        <ele>1060.47</ele>
        <time>2012-06-16T08:26:49Z</time>
      </trkpt>
      <trkpt lat="44.57668" lon="3.90584">
        <ele>1059.99</ele>
        <time>2012-06-16T08:26:50Z</time>
      </trkpt>
      <trkpt lat="44.57664" lon="3.90585">
        <ele>1059.99</ele>
        <time>2012-06-16T08:26:51Z</time>
      </trkpt>
      <trkpt lat="44.5766" lon="3.90586">
        <ele>1059.99</ele>
        <time>2012-06-16T08:26:52Z</time>
      </trkpt>
      <trkpt lat="44.57657" lon="3.90588">
        <ele>1060.47</ele>
        <time>2012-06-16T08:26:53Z</time>
      </trkpt>
      <trkpt lat="44.57645" lon="3.90618">
        <ele>1059.99</ele>
        <time>2012-06-16T08:27:00Z</time>
      </trkpt>
      <trkpt lat="44.57645" lon="3.90624">
        <ele>1060.47</ele>
        <time>2012-06-16T08:27:01Z</time>
      </trkpt>
      <trkpt lat="44.57641" lon="3.90651">
        <ele>1060.47</ele>
        <time>2012-06-16T08:27:05Z</time>
      </trkpt>
      <trkpt lat="44.57631" lon="3.90679">
        <ele>1060.47</ele>
        <time>2012-06-16T08:27:10Z</time>
      </trkpt>
      <trkpt lat="44.57596" lon="3.90751">
        <ele>1060.47</ele>
        <time>2012-06-16T08:27:25Z</time>
      </trkpt>
      <trkpt lat="44.57586" lon="3.9077">
        <ele>1060.47</ele>
        <time>2012-06-16T08:27:29Z</time>
      </trkpt>
      <trkpt lat="44.57582" lon="3.90773">
        <ele>1060.47</ele>
        <time>2012-06-16T08:27:30Z</time>
      </trkpt>
      <trkpt lat="44.57579" lon="3.90777">
        <ele>1060.95</ele>
        <time>2012-06-16T08:27:31Z</time>
      </trkpt>
      <trkpt lat="44.57575" lon="3.90779">
        <ele>1060.47</ele>
        <time>2012-06-16T08:27:32Z</time>
      </trkpt>
      <trkpt lat="44.57571" lon="3.90781">
        <ele>1060.95</ele>
        <time>2012-06-16T08:27:33Z</time>
      </trkpt>
      <trkpt lat="44.57566" lon="3.90783">
        <ele>1060.95</ele>
        <time>2012-06-16T08:27:34Z</time>
      </trkpt>
      <trkpt lat="44.57562" lon="3.90783">
        <ele>1060.95</ele>
        <time>2012-06-16T08:27:35Z</time>
      </trkpt>
      <trkpt lat="44.57557" lon="3.90783">
        <ele>1060.95</ele>
        <time>2012-06-16T08:27:36Z</time>
      </trkpt>
      <trkpt lat="44.57553" lon="3.90782">
        <ele>1060.95</ele>
        <time>2012-06-16T08:27:37Z</time>
      </trkpt>
      <trkpt lat="44.57549" lon="3.90779">
        <ele>1060.95</ele>
        <time>2012-06-16T08:27:38Z</time>
      </trkpt>
      <trkpt lat="44.57545" lon="3.90776">
        <ele>1060.95</ele>
        <time>2012-06-16T08:27:39Z</time>
      </trkpt>
      <trkpt lat="44.57541" lon="3.90772">
        <ele>1060.95</ele>
        <time>2012-06-16T08:27:40Z</time>
      </trkpt>
      <trkpt lat="44.57535" lon="3.90763">
        <ele>1061.43</ele>
        <time>2012-06-16T08:27:42Z</time>
      </trkpt>
      <trkpt lat="44.57489" lon="3.90709">
        <ele>1061.43</ele>
        <time>2012-06-16T08:27:57Z</time>
      </trkpt>
      <trkpt lat="44.57459" lon="3.90693">
        <ele>1062.39</ele>
        <time>2012-06-16T08:28:05Z</time>
      </trkpt>
      <trkpt lat="44.57433" lon="3.90687">
        <ele>1062.39</ele>
        <time>2012-06-16T08:28:12Z</time>
      </trkpt>
      <trkpt lat="44.57429" lon="3.90688">
        <ele>1062.39</ele>
        <time>2012-06-16T08:28:13Z</time>
      </trkpt>
      <trkpt lat="44.57424" lon="3.9069">
        <ele>1062.39</ele>
        <time>2012-06-16T08:28:14Z</time>
      </trkpt>
      <trkpt lat="44.57381" lon="3.90711">
        <ele>1062.87</ele>
        <time>2012-06-16T08:28:26Z</time>
      </trkpt>
      <trkpt lat="44.57337" lon="3.90735">
        <ele>1063.36</ele>
        <time>2012-06-16T08:28:38Z</time>
      </trkpt>
      <trkpt lat="44.57335" lon="3.90739">
        <ele>1063.36</ele>
        <time>2012-06-16T08:28:39Z</time>
      </trkpt>
      <trkpt lat="44.5733" lon="3.90759">
        <ele>1063.36</ele>
        <time>2012-06-16T08:28:43Z</time>
      </trkpt>
      <trkpt lat="44.5733" lon="3.90764">
        <ele>1063.36</ele>
        <time>2012-06-16T08:28:44Z</time>
      </trkpt>
      <trkpt lat="44.57332" lon="3.9077">
        <ele>1063.36</ele>
        <time>2012-06-16T08:28:45Z</time>
      </trkpt>
      <trkpt lat="44.57337" lon="3.90787">
        <ele>1063.36</ele>
        <time>2012-06-16T08:28:48Z</time>
      </trkpt>
      <trkpt lat="44.5734" lon="3.90793">
        <ele>1063.36</ele>
        <time>2012-06-16T08:28:49Z</time>
      </trkpt>
      <trkpt lat="44.57343" lon="3.90797">
        <ele>1063.36</ele>
        <time>2012-06-16T08:28:50Z</time>
      </trkpt>
      <trkpt lat="44.57345" lon="3.908">
        <ele>1063.84</ele>
        <time>2012-06-16T08:28:51Z</time>
      </trkpt>
      <trkpt lat="44.57349" lon="3.90802">
        <ele>1063.84</ele>
        <time>2012-06-16T08:28:52Z</time>
      </trkpt>
      <trkpt lat="44.57352" lon="3.90804">
        <ele>1062.87</ele>
        <time>2012-06-16T08:28:53Z</time>
      </trkpt>
      <trkpt lat="44.57355" lon="3.90806">
        <ele>1063.84</ele>
        <time>2012-06-16T08:28:54Z</time>
      </trkpt>
      <trkpt lat="44.57358" lon="3.90808">
        <ele>1063.36</ele>
        <time>2012-06-16T08:28:55Z</time>
      </trkpt>
      <trkpt lat="44.57361" lon="3.9081">
        <ele>1064.32</ele>
        <time>2012-06-16T08:28:56Z</time>
      </trkpt>
      <trkpt lat="44.57364" lon="3.90813">
        <ele>1064.32</ele>
        <time>2012-06-16T08:28:57Z</time>
      </trkpt>
      <trkpt lat="44.57366" lon="3.90816">
        <ele>1063.84</ele>
        <time>2012-06-16T08:28:58Z</time>
      </trkpt>
      <trkpt lat="44.57368" lon="3.9082">
        <ele>1064.32</ele>
        <time>2012-06-16T08:28:59Z</time>
      </trkpt>
      <trkpt lat="44.5737" lon="3.90824">
        <ele>1063.84</ele>
        <time>2012-06-16T08:29:00Z</time>
      </trkpt>
      <trkpt lat="44.57384" lon="3.90882">
        <ele>1064.32</ele>
        <time>2012-06-16T08:29:12Z</time>
      </trkpt>
      <trkpt lat="44.57385" lon="3.90914">
        <ele>1064.8</ele>
        <time>2012-06-16T08:29:20Z</time>
      </trkpt>
      <trkpt lat="44.57386" lon="3.90921">
        <ele>1065.28</ele>
        <time>2012-06-16T08:29:21Z</time>
      </trkpt>
      <trkpt lat="44.57387" lon="3.90927">
        <ele>1065.28</ele>
        <time>2012-06-16T08:29:22Z</time>
      </trkpt>
      <trkpt lat="44.57388" lon="3.90933">
        <ele>1064.32</ele>
        <time>2012-06-16T08:29:23Z</time>
      </trkpt>
      <trkpt lat="44.57389" lon="3.90938">
        <ele>1065.28</ele>
        <time>2012-06-16T08:29:24Z</time>
      </trkpt>
      <trkpt lat="44.5739" lon="3.90945">
        <ele>1065.28</ele>
        <time>2012-06-16T08:29:25Z</time>
      </trkpt>
      <trkpt lat="44.5739" lon="3.90951">
        <ele>1064.8</ele>
        <time>2012-06-16T08:29:26Z</time>
      </trkpt>
      <trkpt lat="44.57396" lon="3.91028">
        <ele>1065.76</ele>
        <time>2012-06-16T08:29:39Z</time>
      </trkpt>
      <trkpt lat="44.57397" lon="3.91058">
        <ele>1066.24</ele>
        <time>2012-06-16T08:29:44Z</time>
      </trkpt>
      <trkpt lat="44.57375" lon="3.91124">
        <ele>1066.24</ele>
        <time>2012-06-16T08:29:57Z</time>
      </trkpt>
      <trkpt lat="44.57354" lon="3.91141">
        <ele>1067.2</ele>
        <time>2012-06-16T08:30:04Z</time>
      </trkpt>
      <trkpt lat="44.57339" lon="3.9114">
        <ele>1066.72</ele>
        <time>2012-06-16T08:30:12Z</time>
      </trkpt>
      <trkpt lat="44.57339" lon="3.91138">
        <ele>1066.24</ele>
        <time>2012-06-16T08:30:13Z</time>
      </trkpt>
      <trkpt lat="44.57342" lon="3.91132">
        <ele>1066.72</ele>
        <time>2012-06-16T08:30:19Z</time>
      </trkpt>
      <trkpt lat="44.57345" lon="3.91117">
        <ele>1067.68</ele>
        <time>2012-06-16T08:30:23Z</time>
      </trkpt>
      <trkpt lat="44.57345" lon="3.91113">
        <ele>1068.64</ele>
        <time>2012-06-16T08:30:24Z</time>
      </trkpt>
      <trkpt lat="44.5734" lon="3.91094">
        <ele>1069.6</ele>
        <time>2012-06-16T08:30:30Z</time>
      </trkpt>
      <trkpt lat="44.57339" lon="3.91092">
        <ele>1069.6</ele>
        <time>2012-06-16T08:30:31Z</time>
      </trkpt>
      <trkpt lat="44.57339" lon="3.9109">
        <ele>1070.08</ele>
        <time>2012-06-16T08:30:32Z</time>
      </trkpt>
      <trkpt lat="44.57339" lon="3.91088">
        <ele>1070.08</ele>
        <time>2012-06-16T08:30:33Z</time>
      </trkpt>
      <trkpt lat="44.57338" lon="3.91086">
        <ele>1070.57</ele>
        <time>2012-06-16T08:30:34Z</time>
      </trkpt>
      <trkpt lat="44.57333" lon="3.91071">
        <ele>1072.01</ele>
        <time>2012-06-16T08:30:44Z</time>
      </trkpt>
      <trkpt lat="44.57326" lon="3.91053">
        <ele>1072.97</ele>
        <time>2012-06-16T08:30:52Z</time>
      </trkpt>
      <trkpt lat="44.57326" lon="3.91051">
        <ele>1073.45</ele>
        <time>2012-06-16T08:30:53Z</time>
      </trkpt>
      <trkpt lat="44.57325" lon="3.91048">
        <ele>1073.93</ele>
        <time>2012-06-16T08:30:54Z</time>
      </trkpt>
      <trkpt lat="44.57323" lon="3.91044">
        <ele>1073.45</ele>
        <time>2012-06-16T08:30:55Z</time>
      </trkpt>
      <trkpt lat="44.57322" lon="3.91042">
        <ele>1073.93</ele>
        <time>2012-06-16T08:30:56Z</time>
      </trkpt>
      <trkpt lat="44.57321" lon="3.91039">
        <ele>1073.93</ele>
        <time>2012-06-16T08:30:57Z</time>
      </trkpt>
      <trkpt lat="44.57319" lon="3.91038">
        <ele>1073.93</ele>
        <time>2012-06-16T08:30:58Z</time>
      </trkpt>
      <trkpt lat="44.57307" lon="3.91008">
        <ele>1075.37</ele>
        <time>2012-06-16T08:31:08Z</time>
      </trkpt>
      <trkpt lat="44.57296" lon="3.90984">
        <ele>1077.29</ele>
        <time>2012-06-16T08:31:18Z</time>
      </trkpt>
      <trkpt lat="44.57294" lon="3.9098">
        <ele>1077.78</ele>
        <time>2012-06-16T08:31:20Z</time>
      </trkpt>
      <trkpt lat="44.57293" lon="3.90977">
        <ele>1078.26</ele>
        <time>2012-06-16T08:31:21Z</time>
      </trkpt>
      <trkpt lat="44.57291" lon="3.90974">
        <ele>1078.26</ele>
        <time>2012-06-16T08:31:22Z</time>
      </trkpt>
      <trkpt lat="44.57265" lon="3.90935">
        <ele>1080.18</ele>
        <time>2012-06-16T08:31:37Z</time>
      </trkpt>
      <trkpt lat="44.57237" lon="3.9091">
        <ele>1083.54</ele>
        <time>2012-06-16T08:31:50Z</time>
      </trkpt>
      <trkpt lat="44.57219" lon="3.90894">
        <ele>1084.5</ele>
        <time>2012-06-16T08:32:03Z</time>
      </trkpt>
      <trkpt lat="44.57219" lon="3.90895">
        <ele>1084.5</ele>
        <time>2012-06-16T08:32:24Z</time>
      </trkpt>
      <trkpt lat="44.57209" lon="3.90888">
        <ele>1085.47</ele>
        <time>2012-06-16T08:32:39Z</time>
      </trkpt>
      <trkpt lat="44.57189" lon="3.90877">
        <ele>1087.39</ele>
        <time>2012-06-16T08:32:48Z</time>
      </trkpt>
      <trkpt lat="44.57168" lon="3.90854">
        <ele>1089.79</ele>
        <time>2012-06-16T08:32:59Z</time>
      </trkpt>
      <trkpt lat="44.57141" lon="3.90838">
        <ele>1092.2</ele>
        <time>2012-06-16T08:33:12Z</time>
      </trkpt>
      <trkpt lat="44.57138" lon="3.90835">
        <ele>1093.16</ele>
        <time>2012-06-16T08:33:14Z</time>
      </trkpt>
      <trkpt lat="44.57137" lon="3.90835">
        <ele>1093.64</ele>
        <time>2012-06-16T08:33:15Z</time>
      </trkpt>
      <trkpt lat="44.57135" lon="3.90833">
        <ele>1093.64</ele>
        <time>2012-06-16T08:33:16Z</time>
      </trkpt>
      <trkpt lat="44.57134" lon="3.90833">
        <ele>1094.12</ele>
        <time>2012-06-16T08:33:17Z</time>
      </trkpt>
      <trkpt lat="44.57132" lon="3.90832">
        <ele>1094.12</ele>
        <time>2012-06-16T08:33:18Z</time>
      </trkpt>
      <trkpt lat="44.57132" lon="3.90831">
        <ele>1094.6</ele>
        <time>2012-06-16T08:33:19Z</time>
      </trkpt>
      <trkpt lat="44.5712" lon="3.90828">
        <ele>1096.04</ele>
        <time>2012-06-16T08:33:25Z</time>
      </trkpt>
      <trkpt lat="44.57119" lon="3.90827">
        <ele>1096.04</ele>
        <time>2012-06-16T08:33:26Z</time>
      </trkpt>
      <trkpt lat="44.57117" lon="3.90826">
        <ele>1096.52</ele>
        <time>2012-06-16T08:33:27Z</time>
      </trkpt>
      <trkpt lat="44.57114" lon="3.90825">
        <ele>1096.52</ele>
        <time>2012-06-16T08:33:29Z</time>
      </trkpt>
      <trkpt lat="44.57112" lon="3.90824">
        <ele>1097</ele>
        <time>2012-06-16T08:33:30Z</time>
      </trkpt>
      <trkpt lat="44.57096" lon="3.90813">
        <ele>1098.92</ele>
        <time>2012-06-16T08:33:42Z</time>
      </trkpt>
      <trkpt lat="44.57094" lon="3.90812">
        <ele>1098.92</ele>
        <time>2012-06-16T08:33:43Z</time>
      </trkpt>
      <trkpt lat="44.57087" lon="3.90807">
        <ele>1099.4</ele>
        <time>2012-06-16T08:33:48Z</time>
      </trkpt>
      <trkpt lat="44.5708" lon="3.90803">
        <ele>1100.37</ele>
        <time>2012-06-16T08:33:53Z</time>
      </trkpt>
      <trkpt lat="44.57079" lon="3.90801">
        <ele>1100.37</ele>
        <time>2012-06-16T08:33:54Z</time>
      </trkpt>
      <trkpt lat="44.57077" lon="3.908">
        <ele>1100.37</ele>
        <time>2012-06-16T08:33:55Z</time>
      </trkpt>
      <trkpt lat="44.57076" lon="3.908">
        <ele>1100.37</ele>
        <time>2012-06-16T08:33:56Z</time>
      </trkpt>
      <trkpt lat="44.57074" lon="3.90799">
        <ele>1100.85</ele>
        <time>2012-06-16T08:33:57Z</time>
      </trkpt>
      <trkpt lat="44.57073" lon="3.90798">
        <ele>1101.33</ele>
        <time>2012-06-16T08:33:58Z</time>
      </trkpt>
      <trkpt lat="44.57071" lon="3.90798">
        <ele>1101.33</ele>
        <time>2012-06-16T08:33:59Z</time>
      </trkpt>
      <trkpt lat="44.5707" lon="3.90797">
        <ele>1101.33</ele>
        <time>2012-06-16T08:34:00Z</time>
      </trkpt>
      <trkpt lat="44.57068" lon="3.90795">
        <ele>1101.33</ele>
        <time>2012-06-16T08:34:01Z</time>
      </trkpt>
      <trkpt lat="44.57051" lon="3.90783">
        <ele>1103.73</ele>
        <time>2012-06-16T08:34:13Z</time>
      </trkpt>
      <trkpt lat="44.57031" lon="3.90771">
        <ele>1105.65</ele>
        <time>2012-06-16T08:34:25Z</time>
      </trkpt>
      <trkpt lat="44.57004" lon="3.90751">
        <ele>1107.58</ele>
        <time>2012-06-16T08:34:39Z</time>
      </trkpt>
      <trkpt lat="44.56977" lon="3.90728">
        <ele>1109.5</ele>
        <time>2012-06-16T08:34:54Z</time>
      </trkpt>
      <trkpt lat="44.56948" lon="3.907">
        <ele>1110.94</ele>
        <time>2012-06-16T08:35:10Z</time>
      </trkpt>
      <trkpt lat="44.56917" lon="3.90676">
        <ele>1113.82</ele>
        <time>2012-06-16T08:35:27Z</time>
      </trkpt>
      <trkpt lat="44.56893" lon="3.90663">
        <ele>1115.75</ele>
        <time>2012-06-16T08:35:40Z</time>
      </trkpt>
      <trkpt lat="44.56886" lon="3.9066">
        <ele>1116.23</ele>
        <time>2012-06-16T08:35:44Z</time>
      </trkpt>
      <trkpt lat="44.56884" lon="3.90659">
        <ele>1116.23</ele>
        <time>2012-06-16T08:35:45Z</time>
      </trkpt>
      <trkpt lat="44.56879" lon="3.90658">
        <ele>1117.19</ele>
        <time>2012-06-16T08:35:48Z</time>
      </trkpt>
      <trkpt lat="44.56878" lon="3.90658">
        <ele>1117.19</ele>
        <time>2012-06-16T08:35:49Z</time>
      </trkpt>
      <trkpt lat="44.56876" lon="3.90657">
        <ele>1117.19</ele>
        <time>2012-06-16T08:35:50Z</time>
      </trkpt>
      <trkpt lat="44.56874" lon="3.90657">
        <ele>1117.19</ele>
        <time>2012-06-16T08:35:51Z</time>
      </trkpt>
      <trkpt lat="44.56872" lon="3.90656">
        <ele>1117.67</ele>
        <time>2012-06-16T08:35:52Z</time>
      </trkpt>
      <trkpt lat="44.5687" lon="3.90656">
        <ele>1118.15</ele>
        <time>2012-06-16T08:35:53Z</time>
      </trkpt>
      <trkpt lat="44.56868" lon="3.90656">
        <ele>1117.67</ele>
        <time>2012-06-16T08:35:54Z</time>
      </trkpt>
      <trkpt lat="44.56838" lon="3.90661">
        <ele>1119.11</ele>
        <time>2012-06-16T08:36:06Z</time>
      </trkpt>
      <trkpt lat="44.56804" lon="3.90662">
        <ele>1121.52</ele>
        <time>2012-06-16T08:36:21Z</time>
      </trkpt>
      <trkpt lat="44.5678" lon="3.90665">
        <ele>1121.52</ele>
        <time>2012-06-16T08:36:33Z</time>
      </trkpt>
      <trkpt lat="44.56752" lon="3.90675">
        <ele>1120.55</ele>
        <time>2012-06-16T08:36:48Z</time>
      </trkpt>
      <trkpt lat="44.56724" lon="3.90694">
        <ele>1117.19</ele>
        <time>2012-06-16T08:36:55Z</time>
      </trkpt>
      <trkpt lat="44.56719" lon="3.90697">
        <ele>1116.71</ele>
        <time>2012-06-16T08:36:56Z</time>
      </trkpt>
      <trkpt lat="44.56702" lon="3.90704">
        <ele>1116.71</ele>
        <time>2012-06-16T08:37:00Z</time>
      </trkpt>
      <trkpt lat="44.56698" lon="3.90706">
        <ele>1117.19</ele>
        <time>2012-06-16T08:37:01Z</time>
      </trkpt>
      <trkpt lat="44.56694" lon="3.90708">
        <ele>1117.67</ele>
        <time>2012-06-16T08:37:02Z</time>
      </trkpt>
      <trkpt lat="44.56691" lon="3.9071">
        <ele>1118.15</ele>
        <time>2012-06-16T08:37:03Z</time>
      </trkpt>
      <trkpt lat="44.56687" lon="3.90712">
        <ele>1118.63</ele>
        <time>2012-06-16T08:37:04Z</time>
      </trkpt>
      <trkpt lat="44.56683" lon="3.90713">
        <ele>1118.63</ele>
        <time>2012-06-16T08:37:05Z</time>
      </trkpt>
      <trkpt lat="44.5668" lon="3.90715">
        <ele>1119.11</ele>
        <time>2012-06-16T08:37:06Z</time>
      </trkpt>
      <trkpt lat="44.56677" lon="3.90717">
        <ele>1119.59</ele>
        <time>2012-06-16T08:37:07Z</time>
      </trkpt>
      <trkpt lat="44.56675" lon="3.90718">
        <ele>1119.59</ele>
        <time>2012-06-16T08:37:08Z</time>
      </trkpt>
      <trkpt lat="44.56674" lon="3.9072">
        <ele>1119.59</ele>
        <time>2012-06-16T08:37:09Z</time>
      </trkpt>
      <trkpt lat="44.56673" lon="3.90721">
        <ele>1118.63</ele>
        <time>2012-06-16T08:37:17Z</time>
      </trkpt>
      <trkpt lat="44.5667" lon="3.90726">
        <ele>1119.59</ele>
        <time>2012-06-16T08:37:23Z</time>
      </trkpt>
      <trkpt lat="44.56667" lon="3.9073">
        <ele>1119.59</ele>
        <time>2012-06-16T08:37:24Z</time>
      </trkpt>
      <trkpt lat="44.56642" lon="3.90761">
        <ele>1121.03</ele>
        <time>2012-06-16T08:37:35Z</time>
      </trkpt>
      <trkpt lat="44.56639" lon="3.90763">
        <ele>1121.52</ele>
        <time>2012-06-16T08:37:37Z</time>
      </trkpt>
      <trkpt lat="44.56638" lon="3.90764">
        <ele>1121.03</ele>
        <time>2012-06-16T08:37:38Z</time>
      </trkpt>
      <trkpt lat="44.56636" lon="3.90765">
        <ele>1121.03</ele>
        <time>2012-06-16T08:37:39Z</time>
      </trkpt>
      <trkpt lat="44.56635" lon="3.90766">
        <ele>1121.52</ele>
        <time>2012-06-16T08:37:40Z</time>
      </trkpt>
      <trkpt lat="44.56633" lon="3.90766">
        <ele>1121.03</ele>
        <time>2012-06-16T08:37:41Z</time>
      </trkpt>
      <trkpt lat="44.56631" lon="3.90765">
        <ele>1121.03</ele>
        <time>2012-06-16T08:37:42Z</time>
      </trkpt>
      <trkpt lat="44.5663" lon="3.90764">
        <ele>1120.55</ele>
        <time>2012-06-16T08:37:43Z</time>
      </trkpt>
      <trkpt lat="44.56627" lon="3.90762">
        <ele>1121.52</ele>
        <time>2012-06-16T08:37:47Z</time>
      </trkpt>
      <trkpt lat="44.56626" lon="3.90761">
        <ele>1121.52</ele>
        <time>2012-06-16T08:37:48Z</time>
      </trkpt>
      <trkpt lat="44.56625" lon="3.90761">
        <ele>1121.03</ele>
        <time>2012-06-16T08:37:49Z</time>
      </trkpt>
      <trkpt lat="44.56624" lon="3.90761">
        <ele>1121.52</ele>
        <time>2012-06-16T08:37:50Z</time>
      </trkpt>
      <trkpt lat="44.56623" lon="3.90763">
        <ele>1121.52</ele>
        <time>2012-06-16T08:37:51Z</time>
      </trkpt>
      <trkpt lat="44.56623" lon="3.90764">
        <ele>1121.03</ele>
        <time>2012-06-16T08:37:52Z</time>
      </trkpt>
      <trkpt lat="44.56624" lon="3.90766">
        <ele>1121.52</ele>
        <time>2012-06-16T08:37:53Z</time>
      </trkpt>
      <trkpt lat="44.56625" lon="3.90766">
        <ele>1121.52</ele>
        <time>2012-06-16T08:37:54Z</time>
      </trkpt>
      <trkpt lat="44.56627" lon="3.90766">
        <ele>1121.52</ele>
        <time>2012-06-16T08:37:55Z</time>
      </trkpt>
      <trkpt lat="44.56628" lon="3.90764">
        <ele>1121.03</ele>
        <time>2012-06-16T08:37:56Z</time>
      </trkpt>
      <trkpt lat="44.56627" lon="3.90762">
        <ele>1121.52</ele>
        <time>2012-06-16T08:37:57Z</time>
      </trkpt>
      <trkpt lat="44.56626" lon="3.90761">
        <ele>1121.52</ele>
        <time>2012-06-16T08:37:58Z</time>
      </trkpt>
      <trkpt lat="44.56624" lon="3.90762">
        <ele>1121.03</ele>
        <time>2012-06-16T08:37:59Z</time>
      </trkpt>
      <trkpt lat="44.56624" lon="3.90765">
        <ele>1121.52</ele>
        <time>2012-06-16T08:38:00Z</time>
      </trkpt>
      <trkpt lat="44.56626" lon="3.90767">
        <ele>1121.03</ele>
        <time>2012-06-16T08:38:01Z</time>
      </trkpt>
      <trkpt lat="44.56628" lon="3.90767">
        <ele>1121.03</ele>
        <time>2012-06-16T08:38:02Z</time>
      </trkpt>
      <trkpt lat="44.56629" lon="3.90765">
        <ele>1121.03</ele>
        <time>2012-06-16T08:38:03Z</time>
      </trkpt>
      <trkpt lat="44.56629" lon="3.90762">
        <ele>1121.52</ele>
        <time>2012-06-16T08:38:04Z</time>
      </trkpt>
      <trkpt lat="44.56627" lon="3.90761">
        <ele>1121.03</ele>
        <time>2012-06-16T08:38:05Z</time>
      </trkpt>
      <trkpt lat="44.56625" lon="3.90763">
        <ele>1121.03</ele>
        <time>2012-06-16T08:38:06Z</time>
      </trkpt>
      <trkpt lat="44.56624" lon="3.90765">
        <ele>1121.52</ele>
        <time>2012-06-16T08:38:07Z</time>
      </trkpt>
      <trkpt lat="44.56625" lon="3.90768">
        <ele>1121.52</ele>
        <time>2012-06-16T08:38:08Z</time>
      </trkpt>
      <trkpt lat="44.56627" lon="3.90768">
        <ele>1121.52</ele>
        <time>2012-06-16T08:38:09Z</time>
      </trkpt>
      <trkpt lat="44.56629" lon="3.90766">
        <ele>1121.03</ele>
        <time>2012-06-16T08:38:10Z</time>
      </trkpt>
      <trkpt lat="44.5663" lon="3.90764">
        <ele>1121.03</ele>
        <time>2012-06-16T08:38:11Z</time>
      </trkpt>
      <trkpt lat="44.5663" lon="3.90761">
        <ele>1121.52</ele>
        <time>2012-06-16T08:38:25Z</time>
      </trkpt>
      <trkpt lat="44.56626" lon="3.90762">
        <ele>1121.03</ele>
        <time>2012-06-16T08:38:44Z</time>
      </trkpt>
      <trkpt lat="44.56625" lon="3.90763">
        <ele>1120.55</ele>
        <time>2012-06-16T08:38:45Z</time>
      </trkpt>
      <trkpt lat="44.56623" lon="3.90764">
        <ele>1120.55</ele>
        <time>2012-06-16T08:38:46Z</time>
      </trkpt>
      <trkpt lat="44.56622" lon="3.90764">
        <ele>1121.03</ele>
        <time>2012-06-16T08:38:47Z</time>
      </trkpt>
      <trkpt lat="44.56621" lon="3.90764">
        <ele>1120.55</ele>
        <time>2012-06-16T08:38:48Z</time>
      </trkpt>
      <trkpt lat="44.5662" lon="3.90765">
        <ele>1120.55</ele>
        <time>2012-06-16T08:38:49Z</time>
      </trkpt>
      <trkpt lat="44.56618" lon="3.90766">
        <ele>1121.03</ele>
        <time>2012-06-16T08:38:50Z</time>
      </trkpt>
      <trkpt lat="44.56616" lon="3.90767">
        <ele>1122</ele>
        <time>2012-06-16T08:38:51Z</time>
      </trkpt>
      <trkpt lat="44.56615" lon="3.90768">
        <ele>1121.52</ele>
        <time>2012-06-16T08:38:52Z</time>
      </trkpt>
      <trkpt lat="44.56613" lon="3.90768">
        <ele>1121.52</ele>
        <time>2012-06-16T08:38:53Z</time>
      </trkpt>
      <trkpt lat="44.56612" lon="3.90769">
        <ele>1122</ele>
        <time>2012-06-16T08:38:54Z</time>
      </trkpt>
      <trkpt lat="44.5661" lon="3.9077">
        <ele>1122</ele>
        <time>2012-06-16T08:38:55Z</time>
      </trkpt>
      <trkpt lat="44.56603" lon="3.90773">
        <ele>1121.52</ele>
        <time>2012-06-16T08:38:59Z</time>
      </trkpt>
      <trkpt lat="44.566" lon="3.90773">
        <ele>1122</ele>
        <time>2012-06-16T08:39:00Z</time>
      </trkpt>
      <trkpt lat="44.56598" lon="3.90774">
        <ele>1121.52</ele>
        <time>2012-06-16T08:39:01Z</time>
      </trkpt>
      <trkpt lat="44.56595" lon="3.90775">
        <ele>1122</ele>
        <time>2012-06-16T08:39:02Z</time>
      </trkpt>
      <trkpt lat="44.56592" lon="3.90776">
        <ele>1122</ele>
        <time>2012-06-16T08:39:03Z</time>
      </trkpt>
      <trkpt lat="44.56589" lon="3.90776">
        <ele>1121.52</ele>
        <time>2012-06-16T08:39:04Z</time>
      </trkpt>
      <trkpt lat="44.56549" lon="3.90778">
        <ele>1119.59</ele>
        <time>2012-06-16T08:39:15Z</time>
      </trkpt>
      <trkpt lat="44.56545" lon="3.90778">
        <ele>1119.59</ele>
        <time>2012-06-16T08:39:16Z</time>
      </trkpt>
      <trkpt lat="44.56504" lon="3.90779">
        <ele>1118.15</ele>
        <time>2012-06-16T08:39:25Z</time>
      </trkpt>
      <trkpt lat="44.56499" lon="3.90779">
        <ele>1118.15</ele>
        <time>2012-06-16T08:39:26Z</time>
      </trkpt>
      <trkpt lat="44.5649" lon="3.90778">
        <ele>1118.63</ele>
        <time>2012-06-16T08:39:28Z</time>
      </trkpt>
      <trkpt lat="44.56457" lon="3.90773">
        <ele>1120.07</ele>
        <time>2012-06-16T08:39:38Z</time>
      </trkpt>
      <trkpt lat="44.5644" lon="3.90767">
        <ele>1121.03</ele>
        <time>2012-06-16T08:39:42Z</time>
      </trkpt>
      <trkpt lat="44.56436" lon="3.90766">
        <ele>1121.03</ele>
        <time>2012-06-16T08:39:43Z</time>
      </trkpt>
      <trkpt lat="44.56431" lon="3.90764">
        <ele>1121.52</ele>
        <time>2012-06-16T08:39:44Z</time>
      </trkpt>
      <trkpt lat="44.56413" lon="3.90759">
        <ele>1122.48</ele>
        <time>2012-06-16T08:39:48Z</time>
      </trkpt>
      <trkpt lat="44.564" lon="3.90755">
        <ele>1122.48</ele>
        <time>2012-06-16T08:39:51Z</time>
      </trkpt>
      <trkpt lat="44.56348" lon="3.90741">
        <ele>1124.88</ele>
        <time>2012-06-16T08:40:05Z</time>
      </trkpt>
      <trkpt lat="44.56303" lon="3.90739">
        <ele>1125.84</ele>
        <time>2012-06-16T08:40:18Z</time>
      </trkpt>
      <trkpt lat="44.56258" lon="3.90738">
        <ele>1126.8</ele>
        <time>2012-06-16T08:40:32Z</time>
      </trkpt>
      <trkpt lat="44.56209" lon="3.90733">
        <ele>1127.76</ele>
        <time>2012-06-16T08:40:47Z</time>
      </trkpt>
      <trkpt lat="44.56153" lon="3.90729">
        <ele>1129.21</ele>
        <time>2012-06-16T08:41:03Z</time>
      </trkpt>
      <trkpt lat="44.56098" lon="3.90728">
        <ele>1130.17</ele>
        <time>2012-06-16T08:41:20Z</time>
      </trkpt>
      <trkpt lat="44.56062" lon="3.90724">
        <ele>1130.65</ele>
        <time>2012-06-16T08:41:35Z</time>
      </trkpt>
      <trkpt lat="44.56024" lon="3.90719">
        <ele>1130.65</ele>
        <time>2012-06-16T08:41:50Z</time>
      </trkpt>
      <trkpt lat="44.55993" lon="3.90721">
        <ele>1132.09</ele>
        <time>2012-06-16T08:42:02Z</time>
      </trkpt>
      <trkpt lat="44.55963" lon="3.90723">
        <ele>1134.01</ele>
        <time>2012-06-16T08:42:14Z</time>
      </trkpt>
      <trkpt lat="44.55952" lon="3.9072">
        <ele>1134.49</ele>
        <time>2012-06-16T08:42:19Z</time>
      </trkpt>
      <trkpt lat="44.5595" lon="3.9072">
        <ele>1134.97</ele>
        <time>2012-06-16T08:42:20Z</time>
      </trkpt>
      <trkpt lat="44.55922" lon="3.90717">
        <ele>1135.94</ele>
        <time>2012-06-16T08:42:32Z</time>
      </trkpt>
      <trkpt lat="44.55907" lon="3.90715">
        <ele>1136.9</ele>
        <time>2012-06-16T08:42:39Z</time>
      </trkpt>
      <trkpt lat="44.55905" lon="3.90715">
        <ele>1136.9</ele>
        <time>2012-06-16T08:42:40Z</time>
      </trkpt>
      <trkpt lat="44.55904" lon="3.90715">
        <ele>1136.9</ele>
        <time>2012-06-16T08:42:41Z</time>
      </trkpt>
      <trkpt lat="44.55874" lon="3.90718">
        <ele>1136.42</ele>
        <time>2012-06-16T08:42:52Z</time>
      </trkpt>
      <trkpt lat="44.55851" lon="3.90733">
        <ele>1134.49</ele>
        <time>2012-06-16T08:43:01Z</time>
      </trkpt>
      <trkpt lat="44.5584" lon="3.90748">
        <ele>1133.53</ele>
        <time>2012-06-16T08:43:06Z</time>
      </trkpt>
      <trkpt lat="44.55814" lon="3.90782">
        <ele>1131.13</ele>
        <time>2012-06-16T08:43:12Z</time>
      </trkpt>
      <trkpt lat="44.5579" lon="3.90821">
        <ele>1128.24</ele>
        <time>2012-06-16T08:43:18Z</time>
      </trkpt>
      <trkpt lat="44.55772" lon="3.90847">
        <ele>1126.32</ele>
        <time>2012-06-16T08:43:22Z</time>
      </trkpt>
      <trkpt lat="44.55767" lon="3.90853">
        <ele>1125.36</ele>
        <time>2012-06-16T08:43:23Z</time>
      </trkpt>
      <trkpt lat="44.55763" lon="3.90859">
        <ele>1124.88</ele>
        <time>2012-06-16T08:43:24Z</time>
      </trkpt>
      <trkpt lat="44.55759" lon="3.90866">
        <ele>1123.44</ele>
        <time>2012-06-16T08:43:25Z</time>
      </trkpt>
      <trkpt lat="44.55756" lon="3.90872">
        <ele>1122.96</ele>
        <time>2012-06-16T08:43:26Z</time>
      </trkpt>
      <trkpt lat="44.55753" lon="3.90878">
        <ele>1122.48</ele>
        <time>2012-06-16T08:43:27Z</time>
      </trkpt>
      <trkpt lat="44.55751" lon="3.90882">
        <ele>1122</ele>
        <time>2012-06-16T08:43:28Z</time>
      </trkpt>
      <trkpt lat="44.55747" lon="3.90886">
        <ele>1121.52</ele>
        <time>2012-06-16T08:43:29Z</time>
      </trkpt>
      <trkpt lat="44.55738" lon="3.90893">
        <ele>1120.55</ele>
        <time>2012-06-16T08:43:31Z</time>
      </trkpt>
      <trkpt lat="44.55733" lon="3.90898">
        <ele>1119.59</ele>
        <time>2012-06-16T08:43:32Z</time>
      </trkpt>
      <trkpt lat="44.55729" lon="3.90904">
        <ele>1119.59</ele>
        <time>2012-06-16T08:43:33Z</time>
      </trkpt>
      <trkpt lat="44.55721" lon="3.90915">
        <ele>1118.63</ele>
        <time>2012-06-16T08:43:35Z</time>
      </trkpt>
      <trkpt lat="44.55707" lon="3.90932">
        <ele>1116.71</ele>
        <time>2012-06-16T08:43:38Z</time>
      </trkpt>
      <trkpt lat="44.55701" lon="3.90938">
        <ele>1115.75</ele>
        <time>2012-06-16T08:43:39Z</time>
      </trkpt>
      <trkpt lat="44.55695" lon="3.90943">
        <ele>1114.79</ele>
        <time>2012-06-16T08:43:40Z</time>
      </trkpt>
      <trkpt lat="44.55689" lon="3.90949">
        <ele>1113.82</ele>
        <time>2012-06-16T08:43:41Z</time>
      </trkpt>
      <trkpt lat="44.55676" lon="3.9096">
        <ele>1112.38</ele>
        <time>2012-06-16T08:43:43Z</time>
      </trkpt>
      <trkpt lat="44.55659" lon="3.90979">
        <ele>1109.02</ele>
        <time>2012-06-16T08:43:46Z</time>
      </trkpt>
      <trkpt lat="44.55652" lon="3.90982">
        <ele>1109.02</ele>
        <time>2012-06-16T08:43:47Z</time>
      </trkpt>
      <trkpt lat="44.55645" lon="3.90985">
        <ele>1108.06</ele>
        <time>2012-06-16T08:43:48Z</time>
      </trkpt>
      <trkpt lat="44.55638" lon="3.90988">
        <ele>1107.1</ele>
        <time>2012-06-16T08:43:49Z</time>
      </trkpt>
      <trkpt lat="44.55633" lon="3.90993">
        <ele>1105.65</ele>
        <time>2012-06-16T08:43:50Z</time>
      </trkpt>
      <trkpt lat="44.55629" lon="3.91">
        <ele>1105.65</ele>
        <time>2012-06-16T08:43:51Z</time>
      </trkpt>
      <trkpt lat="44.55626" lon="3.91009">
        <ele>1105.17</ele>
        <time>2012-06-16T08:43:52Z</time>
      </trkpt>
      <trkpt lat="44.55622" lon="3.91017">
        <ele>1104.69</ele>
        <time>2012-06-16T08:43:53Z</time>
      </trkpt>
      <trkpt lat="44.55617" lon="3.91024">
        <ele>1103.73</ele>
        <time>2012-06-16T08:43:54Z</time>
      </trkpt>
      <trkpt lat="44.55612" lon="3.9103">
        <ele>1103.73</ele>
        <time>2012-06-16T08:43:55Z</time>
      </trkpt>
      <trkpt lat="44.55607" lon="3.91035">
        <ele>1102.77</ele>
        <time>2012-06-16T08:43:56Z</time>
      </trkpt>
      <trkpt lat="44.55602" lon="3.91041">
        <ele>1102.77</ele>
        <time>2012-06-16T08:43:57Z</time>
      </trkpt>
      <trkpt lat="44.55591" lon="3.9105">
        <ele>1101.33</ele>
        <time>2012-06-16T08:43:59Z</time>
      </trkpt>
      <trkpt lat="44.5556" lon="3.91076">
        <ele>1100.85</ele>
        <time>2012-06-16T08:44:05Z</time>
      </trkpt>
      <trkpt lat="44.55543" lon="3.9109">
        <ele>1099.89</ele>
        <time>2012-06-16T08:44:09Z</time>
      </trkpt>
      <trkpt lat="44.55534" lon="3.91098">
        <ele>1099.89</ele>
        <time>2012-06-16T08:44:11Z</time>
      </trkpt>
      <trkpt lat="44.5553" lon="3.91102">
        <ele>1099.89</ele>
        <time>2012-06-16T08:44:12Z</time>
      </trkpt>
      <trkpt lat="44.55526" lon="3.91106">
        <ele>1099.4</ele>
        <time>2012-06-16T08:44:13Z</time>
      </trkpt>
      <trkpt lat="44.55518" lon="3.91113">
        <ele>1098.92</ele>
        <time>2012-06-16T08:44:15Z</time>
      </trkpt>
      <trkpt lat="44.55514" lon="3.91118">
        <ele>1098.44</ele>
        <time>2012-06-16T08:44:16Z</time>
      </trkpt>
      <trkpt lat="44.5551" lon="3.91122">
        <ele>1097.96</ele>
        <time>2012-06-16T08:44:17Z</time>
      </trkpt>
      <trkpt lat="44.55493" lon="3.91134">
        <ele>1096.04</ele>
        <time>2012-06-16T08:44:21Z</time>
      </trkpt>
      <trkpt lat="44.55477" lon="3.91143">
        <ele>1093.64</ele>
        <time>2012-06-16T08:44:25Z</time>
      </trkpt>
      <trkpt lat="44.55468" lon="3.91144">
        <ele>1093.16</ele>
        <time>2012-06-16T08:44:27Z</time>
      </trkpt>
      <trkpt lat="44.55464" lon="3.91143">
        <ele>1093.16</ele>
        <time>2012-06-16T08:44:28Z</time>
      </trkpt>
      <trkpt lat="44.5546" lon="3.91142">
        <ele>1093.16</ele>
        <time>2012-06-16T08:44:29Z</time>
      </trkpt>
      <trkpt lat="44.55456" lon="3.91141">
        <ele>1092.2</ele>
        <time>2012-06-16T08:44:30Z</time>
      </trkpt>
      <trkpt lat="44.55452" lon="3.9114">
        <ele>1092.2</ele>
        <time>2012-06-16T08:44:31Z</time>
      </trkpt>
      <trkpt lat="44.55449" lon="3.91137">
        <ele>1092.2</ele>
        <time>2012-06-16T08:44:32Z</time>
      </trkpt>
      <trkpt lat="44.55447" lon="3.91131">
        <ele>1091.71</ele>
        <time>2012-06-16T08:44:33Z</time>
      </trkpt>
      <trkpt lat="44.55446" lon="3.91125">
        <ele>1091.23</ele>
        <time>2012-06-16T08:44:34Z</time>
      </trkpt>
      <trkpt lat="44.55444" lon="3.91119">
        <ele>1090.75</ele>
        <time>2012-06-16T08:44:35Z</time>
      </trkpt>
      <trkpt lat="44.55442" lon="3.91113">
        <ele>1090.27</ele>
        <time>2012-06-16T08:44:36Z</time>
      </trkpt>
      <trkpt lat="44.55442" lon="3.91108">
        <ele>1089.79</ele>
        <time>2012-06-16T08:44:37Z</time>
      </trkpt>
      <trkpt lat="44.55442" lon="3.91104">
        <ele>1089.31</ele>
        <time>2012-06-16T08:44:38Z</time>
      </trkpt>
      <trkpt lat="44.55441" lon="3.91102">
        <ele>1089.31</ele>
        <time>2012-06-16T08:44:39Z</time>
      </trkpt>
      <trkpt lat="44.5544" lon="3.911">
        <ele>1089.31</ele>
        <time>2012-06-16T08:44:52Z</time>
      </trkpt>
      <trkpt lat="44.55441" lon="3.91101">
        <ele>1088.83</ele>
        <time>2012-06-16T08:45:16Z</time>
      </trkpt>
      <trkpt lat="44.55439" lon="3.911">
        <ele>1089.31</ele>
        <time>2012-06-16T08:45:30Z</time>
      </trkpt>
      <trkpt lat="44.55438" lon="3.91097">
        <ele>1089.79</ele>
        <time>2012-06-16T08:45:31Z</time>
      </trkpt>
      <trkpt lat="44.55438" lon="3.91093">
        <ele>1089.31</ele>
        <time>2012-06-16T08:45:32Z</time>
      </trkpt>
      <trkpt lat="44.55438" lon="3.91089">
        <ele>1088.35</ele>
        <time>2012-06-16T08:45:33Z</time>
      </trkpt>
      <trkpt lat="44.55439" lon="3.91084">
        <ele>1087.87</ele>
        <time>2012-06-16T08:45:34Z</time>
      </trkpt>
      <trkpt lat="44.55439" lon="3.91078">
        <ele>1087.39</ele>
        <time>2012-06-16T08:45:35Z</time>
      </trkpt>
      <trkpt lat="44.55439" lon="3.91066">
        <ele>1087.39</ele>
        <time>2012-06-16T08:45:37Z</time>
      </trkpt>
      <trkpt lat="44.5544" lon="3.91061">
        <ele>1086.43</ele>
        <time>2012-06-16T08:45:38Z</time>
      </trkpt>
      <trkpt lat="44.55441" lon="3.91057">
        <ele>1085.95</ele>
        <time>2012-06-16T08:45:39Z</time>
      </trkpt>
      <trkpt lat="44.55443" lon="3.91053">
        <ele>1085.47</ele>
        <time>2012-06-16T08:45:40Z</time>
      </trkpt>
      <trkpt lat="44.55444" lon="3.91049">
        <ele>1084.99</ele>
        <time>2012-06-16T08:45:41Z</time>
      </trkpt>
      <trkpt lat="44.55445" lon="3.91044">
        <ele>1084.99</ele>
        <time>2012-06-16T08:45:42Z</time>
      </trkpt>
      <trkpt lat="44.55447" lon="3.91038">
        <ele>1084.99</ele>
        <time>2012-06-16T08:45:43Z</time>
      </trkpt>
      <trkpt lat="44.55447" lon="3.91032">
        <ele>1084.5</ele>
        <time>2012-06-16T08:45:44Z</time>
      </trkpt>
      <trkpt lat="44.55446" lon="3.91025">
        <ele>1084.02</ele>
        <time>2012-06-16T08:45:45Z</time>
      </trkpt>
      <trkpt lat="44.55445" lon="3.9102">
        <ele>1083.54</ele>
        <time>2012-06-16T08:45:46Z</time>
      </trkpt>
      <trkpt lat="44.55444" lon="3.91015">
        <ele>1083.54</ele>
        <time>2012-06-16T08:45:47Z</time>
      </trkpt>
      <trkpt lat="44.55445" lon="3.91009">
        <ele>1083.06</ele>
        <time>2012-06-16T08:45:48Z</time>
      </trkpt>
      <trkpt lat="44.55447" lon="3.91003">
        <ele>1082.58</ele>
        <time>2012-06-16T08:45:49Z</time>
      </trkpt>
      <trkpt lat="44.55448" lon="3.90997">
        <ele>1082.58</ele>
        <time>2012-06-16T08:45:50Z</time>
      </trkpt>
      <trkpt lat="44.55448" lon="3.90991">
        <ele>1082.1</ele>
        <time>2012-06-16T08:45:51Z</time>
      </trkpt>
      <trkpt lat="44.55448" lon="3.90986">
        <ele>1082.1</ele>
        <time>2012-06-16T08:45:52Z</time>
      </trkpt>
      <trkpt lat="44.55446" lon="3.90981">
        <ele>1081.62</ele>
        <time>2012-06-16T08:45:53Z</time>
      </trkpt>
      <trkpt lat="44.55445" lon="3.90976">
        <ele>1081.62</ele>
        <time>2012-06-16T08:45:54Z</time>
      </trkpt>
      <trkpt lat="44.55442" lon="3.90972">
        <ele>1080.18</ele>
        <time>2012-06-16T08:45:55Z</time>
      </trkpt>
      <trkpt lat="44.55439" lon="3.90968">
        <ele>1079.7</ele>
        <time>2012-06-16T08:45:56Z</time>
      </trkpt>
      <trkpt lat="44.55436" lon="3.90963">
        <ele>1079.22</ele>
        <time>2012-06-16T08:45:57Z</time>
      </trkpt>
      <trkpt lat="44.55433" lon="3.90958">
        <ele>1079.22</ele>
        <time>2012-06-16T08:45:58Z</time>
      </trkpt>
      <trkpt lat="44.5543" lon="3.90953">
        <ele>1078.74</ele>
        <time>2012-06-16T08:45:59Z</time>
      </trkpt>
      <trkpt lat="44.55427" lon="3.90948">
        <ele>1078.26</ele>
        <time>2012-06-16T08:46:00Z</time>
      </trkpt>
      <trkpt lat="44.55424" lon="3.90944">
        <ele>1077.78</ele>
        <time>2012-06-16T08:46:01Z</time>
      </trkpt>
      <trkpt lat="44.55421" lon="3.90939">
        <ele>1077.78</ele>
        <time>2012-06-16T08:46:02Z</time>
      </trkpt>
      <trkpt lat="44.55406" lon="3.90915">
        <ele>1075.85</ele>
        <time>2012-06-16T08:46:11Z</time>
      </trkpt>
      <trkpt lat="44.55394" lon="3.90899">
        <ele>1074.41</ele>
        <time>2012-06-16T08:46:21Z</time>
      </trkpt>
      <trkpt lat="44.55368" lon="3.90867">
        <ele>1071.05</ele>
        <time>2012-06-16T08:46:29Z</time>
      </trkpt>
      <trkpt lat="44.55364" lon="3.90862">
        <ele>1071.05</ele>
        <time>2012-06-16T08:46:30Z</time>
      </trkpt>
      <trkpt lat="44.5536" lon="3.90858">
        <ele>1071.05</ele>
        <time>2012-06-16T08:46:31Z</time>
      </trkpt>
      <trkpt lat="44.55355" lon="3.90854">
        <ele>1070.57</ele>
        <time>2012-06-16T08:46:32Z</time>
      </trkpt>
      <trkpt lat="44.55351" lon="3.90851">
        <ele>1070.57</ele>
        <time>2012-06-16T08:46:33Z</time>
      </trkpt>
      <trkpt lat="44.55347" lon="3.90848">
        <ele>1070.57</ele>
        <time>2012-06-16T08:46:34Z</time>
      </trkpt>
      <trkpt lat="44.55342" lon="3.90847">
        <ele>1070.08</ele>
        <time>2012-06-16T08:46:35Z</time>
      </trkpt>
      <trkpt lat="44.55338" lon="3.90847">
        <ele>1070.57</ele>
        <time>2012-06-16T08:46:36Z</time>
      </trkpt>
      <trkpt lat="44.55334" lon="3.90847">
        <ele>1070.08</ele>
        <time>2012-06-16T08:46:37Z</time>
      </trkpt>
      <trkpt lat="44.55331" lon="3.90846">
        <ele>1069.6</ele>
        <time>2012-06-16T08:46:38Z</time>
      </trkpt>
      <trkpt lat="44.55329" lon="3.90846">
        <ele>1069.12</ele>
        <time>2012-06-16T08:46:39Z</time>
      </trkpt>
      <trkpt lat="44.55327" lon="3.90845">
        <ele>1068.64</ele>
        <time>2012-06-16T08:46:40Z</time>
      </trkpt>
      <trkpt lat="44.55326" lon="3.90845">
        <ele>1069.12</ele>
        <time>2012-06-16T08:46:41Z</time>
      </trkpt>
      <trkpt lat="44.55325" lon="3.90844">
        <ele>1067.68</ele>
        <time>2012-06-16T08:46:50Z</time>
      </trkpt>
      <trkpt lat="44.55325" lon="3.90844">
        <ele>1071.05</ele>
        <time>2012-06-16T08:46:51Z</time>
      </trkpt>
      <trkpt lat="44.55325" lon="3.90844">
        <ele>1068.16</ele>
        <time>2012-06-16T08:46:52Z</time>
      </trkpt>
      <trkpt lat="44.55324" lon="3.90844">
        <ele>1068.64</ele>
        <time>2012-06-16T08:47:20Z</time>
      </trkpt>
      <trkpt lat="44.55324" lon="3.90844">
        <ele>1068.64</ele>
        <time>2012-06-16T08:47:40Z</time>
      </trkpt>
      <trkpt lat="44.55324" lon="3.90844">
        <ele>1069.12</ele>
        <time>2012-06-16T08:48:05Z</time>
      </trkpt>
      <trkpt lat="44.55324" lon="3.90845">
        <ele>1069.12</ele>
        <time>2012-06-16T08:48:20Z</time>
      </trkpt>
      <trkpt lat="44.55322" lon="3.90846">
        <ele>1069.12</ele>
        <time>2012-06-16T08:48:21Z</time>
      </trkpt>
      <trkpt lat="44.5532" lon="3.90847">
        <ele>1068.16</ele>
        <time>2012-06-16T08:48:22Z</time>
      </trkpt>
      <trkpt lat="44.55317" lon="3.90849">
        <ele>1068.16</ele>
        <time>2012-06-16T08:48:23Z</time>
      </trkpt>
      <trkpt lat="44.55314" lon="3.90851">
        <ele>1068.16</ele>
        <time>2012-06-16T08:48:24Z</time>
      </trkpt>
      <trkpt lat="44.5531" lon="3.90854">
        <ele>1068.16</ele>
        <time>2012-06-16T08:48:25Z</time>
      </trkpt>
      <trkpt lat="44.55274" lon="3.90876">
        <ele>1063.84</ele>
        <time>2012-06-16T08:48:31Z</time>
      </trkpt>
      <trkpt lat="44.55267" lon="3.90881">
        <ele>1062.39</ele>
        <time>2012-06-16T08:48:32Z</time>
      </trkpt>
      <trkpt lat="44.5526" lon="3.90887">
        <ele>1061.91</ele>
        <time>2012-06-16T08:48:33Z</time>
      </trkpt>
      <trkpt lat="44.55254" lon="3.90893">
        <ele>1061.43</ele>
        <time>2012-06-16T08:48:34Z</time>
      </trkpt>
      <trkpt lat="44.55246" lon="3.90899">
        <ele>1059.99</ele>
        <time>2012-06-16T08:48:35Z</time>
      </trkpt>
      <trkpt lat="44.55238" lon="3.90905">
        <ele>1059.03</ele>
        <time>2012-06-16T08:48:36Z</time>
      </trkpt>
      <trkpt lat="44.5523" lon="3.9091">
        <ele>1059.03</ele>
        <time>2012-06-16T08:48:37Z</time>
      </trkpt>
      <trkpt lat="44.55213" lon="3.90923">
        <ele>1055.67</ele>
        <time>2012-06-16T08:48:39Z</time>
      </trkpt>
      <trkpt lat="44.55204" lon="3.9093">
        <ele>1055.67</ele>
        <time>2012-06-16T08:48:40Z</time>
      </trkpt>
      <trkpt lat="44.55177" lon="3.9095">
        <ele>1052.3</ele>
        <time>2012-06-16T08:48:43Z</time>
      </trkpt>
      <trkpt lat="44.55158" lon="3.90963">
        <ele>1048.94</ele>
        <time>2012-06-16T08:48:45Z</time>
      </trkpt>
      <trkpt lat="44.55133" lon="3.90982">
        <ele>1045.09</ele>
        <time>2012-06-16T08:48:48Z</time>
      </trkpt>
      <trkpt lat="44.55106" lon="3.91">
        <ele>1040.76</ele>
        <time>2012-06-16T08:48:51Z</time>
      </trkpt>
      <trkpt lat="44.55081" lon="3.91016">
        <ele>1036.92</ele>
        <time>2012-06-16T08:48:54Z</time>
      </trkpt>
      <trkpt lat="44.55055" lon="3.91031">
        <ele>1033.07</ele>
        <time>2012-06-16T08:48:57Z</time>
      </trkpt>
      <trkpt lat="44.5503" lon="3.91046">
        <ele>1029.71</ele>
        <time>2012-06-16T08:49:00Z</time>
      </trkpt>
      <trkpt lat="44.55005" lon="3.9106">
        <ele>1027.31</ele>
        <time>2012-06-16T08:49:03Z</time>
      </trkpt>
      <trkpt lat="44.54975" lon="3.91077">
        <ele>1023.46</ele>
        <time>2012-06-16T08:49:07Z</time>
      </trkpt>
      <trkpt lat="44.54953" lon="3.9109">
        <ele>1019.62</ele>
        <time>2012-06-16T08:49:10Z</time>
      </trkpt>
      <trkpt lat="44.54942" lon="3.91097">
        <ele>1016.73</ele>
        <time>2012-06-16T08:49:13Z</time>
      </trkpt>
      <trkpt lat="44.5494" lon="3.91098">
        <ele>1016.25</ele>
        <time>2012-06-16T08:49:14Z</time>
      </trkpt>
      <trkpt lat="44.54935" lon="3.91105">
        <ele>1015.77</ele>
        <time>2012-06-16T08:49:25Z</time>
      </trkpt>
      <trkpt lat="44.54934" lon="3.91107">
        <ele>1015.29</ele>
        <time>2012-06-16T08:49:34Z</time>
      </trkpt>
      <trkpt lat="44.54933" lon="3.91108">
        <ele>1015.77</ele>
        <time>2012-06-16T08:49:35Z</time>
      </trkpt>
      <trkpt lat="44.54931" lon="3.91109">
        <ele>1015.77</ele>
        <time>2012-06-16T08:49:36Z</time>
      </trkpt>
      <trkpt lat="44.54895" lon="3.9113">
        <ele>1014.81</ele>
        <time>2012-06-16T08:49:48Z</time>
      </trkpt>
      <trkpt lat="44.54835" lon="3.91176">
        <ele>1011.44</ele>
        <time>2012-06-16T08:50:01Z</time>
      </trkpt>
      <trkpt lat="44.54768" lon="3.9123">
        <ele>1009.04</ele>
        <time>2012-06-16T08:50:14Z</time>
      </trkpt>
      <trkpt lat="44.5474" lon="3.91252">
        <ele>1007.6</ele>
        <time>2012-06-16T08:50:19Z</time>
      </trkpt>
      <trkpt lat="44.54684" lon="3.91296">
        <ele>1005.2</ele>
        <time>2012-06-16T08:50:29Z</time>
      </trkpt>
      <trkpt lat="44.54596" lon="3.91348">
        <ele>1001.83</ele>
        <time>2012-06-16T08:50:44Z</time>
      </trkpt>
      <trkpt lat="44.54565" lon="3.91365">
        <ele>1000.39</ele>
        <time>2012-06-16T08:50:49Z</time>
      </trkpt>
      <trkpt lat="44.54558" lon="3.91369">
        <ele>999.91</ele>
        <time>2012-06-16T08:50:50Z</time>
      </trkpt>
      <trkpt lat="44.54527" lon="3.9139">
        <ele>999.43</ele>
        <time>2012-06-16T08:50:55Z</time>
      </trkpt>
      <trkpt lat="44.54456" lon="3.91461">
        <ele>997.99</ele>
        <time>2012-06-16T08:51:08Z</time>
      </trkpt>
      <trkpt lat="44.54452" lon="3.91471">
        <ele>997.99</ele>
        <time>2012-06-16T08:51:09Z</time>
      </trkpt>
      <trkpt lat="44.54448" lon="3.91481">
        <ele>997.51</ele>
        <time>2012-06-16T08:51:10Z</time>
      </trkpt>
      <trkpt lat="44.54444" lon="3.9149">
        <ele>997.51</ele>
        <time>2012-06-16T08:51:11Z</time>
      </trkpt>
      <trkpt lat="44.5444" lon="3.91498">
        <ele>997.51</ele>
        <time>2012-06-16T08:51:12Z</time>
      </trkpt>
      <trkpt lat="44.54426" lon="3.91527">
        <ele>999.43</ele>
        <time>2012-06-16T08:51:17Z</time>
      </trkpt>
      <trkpt lat="44.54421" lon="3.91537">
        <ele>999.43</ele>
        <time>2012-06-16T08:51:21Z</time>
      </trkpt>
      <trkpt lat="44.54419" lon="3.91538">
        <ele>999.91</ele>
        <time>2012-06-16T08:51:22Z</time>
      </trkpt>
      <trkpt lat="44.54418" lon="3.9154">
        <ele>999.91</ele>
        <time>2012-06-16T08:51:23Z</time>
      </trkpt>
      <trkpt lat="44.54416" lon="3.91543">
        <ele>1000.39</ele>
        <time>2012-06-16T08:51:24Z</time>
      </trkpt>
      <trkpt lat="44.54415" lon="3.91545">
        <ele>1000.39</ele>
        <time>2012-06-16T08:51:25Z</time>
      </trkpt>
      <trkpt lat="44.54414" lon="3.91548">
        <ele>1000.39</ele>
        <time>2012-06-16T08:51:26Z</time>
      </trkpt>
      <trkpt lat="44.544" lon="3.91581">
        <ele>1000.87</ele>
        <time>2012-06-16T08:51:33Z</time>
      </trkpt>
      <trkpt lat="44.54396" lon="3.91586">
        <ele>1000.87</ele>
        <time>2012-06-16T08:51:34Z</time>
      </trkpt>
      <trkpt lat="44.54392" lon="3.91591">
        <ele>1001.35</ele>
        <time>2012-06-16T08:51:35Z</time>
      </trkpt>
      <trkpt lat="44.54388" lon="3.91596">
        <ele>1001.83</ele>
        <time>2012-06-16T08:51:36Z</time>
      </trkpt>
      <trkpt lat="44.54384" lon="3.91601">
        <ele>1001.83</ele>
        <time>2012-06-16T08:51:37Z</time>
      </trkpt>
      <trkpt lat="44.54375" lon="3.9161">
        <ele>1003.27</ele>
        <time>2012-06-16T08:51:39Z</time>
      </trkpt>
      <trkpt lat="44.54359" lon="3.91629">
        <ele>1003.75</ele>
        <time>2012-06-16T08:51:43Z</time>
      </trkpt>
      <trkpt lat="44.5435" lon="3.91646">
        <ele>1004.23</ele>
        <time>2012-06-16T08:51:46Z</time>
      </trkpt>
      <trkpt lat="44.54347" lon="3.9165">
        <ele>1004.72</ele>
        <time>2012-06-16T08:51:47Z</time>
      </trkpt>
      <trkpt lat="44.54314" lon="3.91682">
        <ele>1004.72</ele>
        <time>2012-06-16T08:52:01Z</time>
      </trkpt>
      <trkpt lat="44.54308" lon="3.91688">
        <ele>1004.23</ele>
        <time>2012-06-16T08:52:05Z</time>
      </trkpt>
      <trkpt lat="44.54286" lon="3.91705">
        <ele>1003.75</ele>
        <time>2012-06-16T08:52:16Z</time>
      </trkpt>
      <trkpt lat="44.54258" lon="3.91718">
        <ele>1002.31</ele>
        <time>2012-06-16T08:52:28Z</time>
      </trkpt>
      <trkpt lat="44.54224" lon="3.91726">
        <ele>999.91</ele>
        <time>2012-06-16T08:52:38Z</time>
      </trkpt>
      <trkpt lat="44.54186" lon="3.9174">
        <ele>998.95</ele>
        <time>2012-06-16T08:52:50Z</time>
      </trkpt>
      <trkpt lat="44.54185" lon="3.9174">
        <ele>998.95</ele>
        <time>2012-06-16T08:52:51Z</time>
      </trkpt>
      <trkpt lat="44.54183" lon="3.9174">
        <ele>998.95</ele>
        <time>2012-06-16T08:52:52Z</time>
      </trkpt>
      <trkpt lat="44.54181" lon="3.91741">
        <ele>998.95</ele>
        <time>2012-06-16T08:52:53Z</time>
      </trkpt>
      <trkpt lat="44.54179" lon="3.91742">
        <ele>998.47</ele>
        <time>2012-06-16T08:52:54Z</time>
      </trkpt>
      <trkpt lat="44.54176" lon="3.91743">
        <ele>998.95</ele>
        <time>2012-06-16T08:52:55Z</time>
      </trkpt>
      <trkpt lat="44.54174" lon="3.91745">
        <ele>998.47</ele>
        <time>2012-06-16T08:52:56Z</time>
      </trkpt>
      <trkpt lat="44.54172" lon="3.91746">
        <ele>999.43</ele>
        <time>2012-06-16T08:52:57Z</time>
      </trkpt>
      <trkpt lat="44.54153" lon="3.91752">
        <ele>999.43</ele>
        <time>2012-06-16T08:53:06Z</time>
      </trkpt>
      <trkpt lat="44.54152" lon="3.91752">
        <ele>999.43</ele>
        <time>2012-06-16T08:53:07Z</time>
      </trkpt>
      <trkpt lat="44.54149" lon="3.91753">
        <ele>999.91</ele>
        <time>2012-06-16T08:53:08Z</time>
      </trkpt>
      <trkpt lat="44.54147" lon="3.91755">
        <ele>1000.39</ele>
        <time>2012-06-16T08:53:09Z</time>
      </trkpt>
      <trkpt lat="44.54144" lon="3.91756">
        <ele>1000.39</ele>
        <time>2012-06-16T08:53:10Z</time>
      </trkpt>
      <trkpt lat="44.54115" lon="3.91764">
        <ele>1001.83</ele>
        <time>2012-06-16T08:53:21Z</time>
      </trkpt>
      <trkpt lat="44.5409" lon="3.91772">
        <ele>1003.75</ele>
        <time>2012-06-16T08:53:30Z</time>
      </trkpt>
      <trkpt lat="44.54087" lon="3.91772">
        <ele>1003.75</ele>
        <time>2012-06-16T08:53:31Z</time>
      </trkpt>
      <trkpt lat="44.5407" lon="3.91775">
        <ele>1004.23</ele>
        <time>2012-06-16T08:53:44Z</time>
      </trkpt>
      <trkpt lat="44.54056" lon="3.91782">
        <ele>1005.2</ele>
        <time>2012-06-16T08:53:54Z</time>
      </trkpt>
      <trkpt lat="44.54055" lon="3.91784">
        <ele>1005.2</ele>
        <time>2012-06-16T08:53:55Z</time>
      </trkpt>
      <trkpt lat="44.54053" lon="3.91785">
        <ele>1006.16</ele>
        <time>2012-06-16T08:53:56Z</time>
      </trkpt>
      <trkpt lat="44.54051" lon="3.91786">
        <ele>1006.16</ele>
        <time>2012-06-16T08:53:57Z</time>
      </trkpt>
      <trkpt lat="44.54049" lon="3.91787">
        <ele>1006.16</ele>
        <time>2012-06-16T08:53:58Z</time>
      </trkpt>
      <trkpt lat="44.54047" lon="3.91788">
        <ele>1006.64</ele>
        <time>2012-06-16T08:53:59Z</time>
      </trkpt>
      <trkpt lat="44.54044" lon="3.91789">
        <ele>1006.64</ele>
        <time>2012-06-16T08:54:00Z</time>
      </trkpt>
      <trkpt lat="44.54016" lon="3.91797">
        <ele>1006.64</ele>
        <time>2012-06-16T08:54:12Z</time>
      </trkpt>
      <trkpt lat="44.54001" lon="3.91807">
        <ele>1006.64</ele>
        <time>2012-06-16T08:54:21Z</time>
      </trkpt>
      <trkpt lat="44.53995" lon="3.91814">
        <ele>1007.12</ele>
        <time>2012-06-16T08:54:25Z</time>
      </trkpt>
      <trkpt lat="44.53993" lon="3.91814">
        <ele>1007.12</ele>
        <time>2012-06-16T08:54:26Z</time>
      </trkpt>
      <trkpt lat="44.5399" lon="3.91814">
        <ele>1007.12</ele>
        <time>2012-06-16T08:54:27Z</time>
      </trkpt>
      <trkpt lat="44.53988" lon="3.91815">
        <ele>1007.12</ele>
        <time>2012-06-16T08:54:28Z</time>
      </trkpt>
      <trkpt lat="44.53985" lon="3.91816">
        <ele>1007.12</ele>
        <time>2012-06-16T08:54:29Z</time>
      </trkpt>
      <trkpt lat="44.53983" lon="3.91817">
        <ele>1007.12</ele>
        <time>2012-06-16T08:54:30Z</time>
      </trkpt>
      <trkpt lat="44.5398" lon="3.91818">
        <ele>1007.6</ele>
        <time>2012-06-16T08:54:31Z</time>
      </trkpt>
      <trkpt lat="44.53944" lon="3.91836">
        <ele>1007.6</ele>
        <time>2012-06-16T08:54:45Z</time>
      </trkpt>
      <trkpt lat="44.53913" lon="3.91859">
        <ele>1007.6</ele>
        <time>2012-06-16T08:54:57Z</time>
      </trkpt>
      <trkpt lat="44.53878" lon="3.91894">
        <ele>1006.64</ele>
        <time>2012-06-16T08:55:10Z</time>
      </trkpt>
      <trkpt lat="44.53848" lon="3.91923">
        <ele>1004.72</ele>
        <time>2012-06-16T08:55:21Z</time>
      </trkpt>
      <trkpt lat="44.53829" lon="3.91936">
        <ele>1003.75</ele>
        <time>2012-06-16T08:55:27Z</time>
      </trkpt>
      <trkpt lat="44.53819" lon="3.91943">
        <ele>1003.75</ele>
        <time>2012-06-16T08:55:30Z</time>
      </trkpt>
      <trkpt lat="44.5381" lon="3.91947">
        <ele>1003.27</ele>
        <time>2012-06-16T08:55:32Z</time>
      </trkpt>
      <trkpt lat="44.53801" lon="3.91949">
        <ele>1001.83</ele>
        <time>2012-06-16T08:55:34Z</time>
      </trkpt>
      <trkpt lat="44.5377" lon="3.9195">
        <ele>1001.35</ele>
        <time>2012-06-16T08:55:43Z</time>
      </trkpt>
      <trkpt lat="44.53733" lon="3.91948">
        <ele>999.43</ele>
        <time>2012-06-16T08:55:53Z</time>
      </trkpt>
      <trkpt lat="44.53728" lon="3.91947">
        <ele>999.43</ele>
        <time>2012-06-16T08:55:54Z</time>
      </trkpt>
      <trkpt lat="44.53725" lon="3.91946">
        <ele>998.95</ele>
        <time>2012-06-16T08:55:55Z</time>
      </trkpt>
      <trkpt lat="44.53721" lon="3.91945">
        <ele>999.43</ele>
        <time>2012-06-16T08:55:56Z</time>
      </trkpt>
      <trkpt lat="44.53718" lon="3.91944">
        <ele>998.95</ele>
        <time>2012-06-16T08:55:57Z</time>
      </trkpt>
      <trkpt lat="44.53682" lon="3.91933">
        <ele>997.99</ele>
        <time>2012-06-16T08:56:08Z</time>
      </trkpt>
      <trkpt lat="44.53646" lon="3.91924">
        <ele>998.47</ele>
        <time>2012-06-16T08:56:21Z</time>
      </trkpt>
      <trkpt lat="44.53619" lon="3.91921">
        <ele>997.51</ele>
        <time>2012-06-16T08:56:29Z</time>
      </trkpt>
      <trkpt lat="44.53587" lon="3.91923">
        <ele>996.06</ele>
        <time>2012-06-16T08:56:38Z</time>
      </trkpt>
      <trkpt lat="44.5355" lon="3.91927">
        <ele>995.58</ele>
        <time>2012-06-16T08:56:51Z</time>
      </trkpt>
      <trkpt lat="44.53517" lon="3.91929">
        <ele>994.62</ele>
        <time>2012-06-16T08:57:01Z</time>
      </trkpt>
      <trkpt lat="44.53514" lon="3.91929">
        <ele>994.62</ele>
        <time>2012-06-16T08:57:02Z</time>
      </trkpt>
      <trkpt lat="44.53468" lon="3.91943">
        <ele>993.66</ele>
        <time>2012-06-16T08:57:15Z</time>
      </trkpt>
      <trkpt lat="44.53436" lon="3.91962">
        <ele>992.22</ele>
        <time>2012-06-16T08:57:25Z</time>
      </trkpt>
      <trkpt lat="44.5342" lon="3.91974">
        <ele>991.74</ele>
        <time>2012-06-16T08:57:30Z</time>
      </trkpt>
      <trkpt lat="44.53417" lon="3.91976">
        <ele>991.26</ele>
        <time>2012-06-16T08:57:31Z</time>
      </trkpt>
      <trkpt lat="44.53393" lon="3.91995">
        <ele>991.26</ele>
        <time>2012-06-16T08:57:42Z</time>
      </trkpt>
      <trkpt lat="44.5336" lon="3.9201">
        <ele>989.33</ele>
        <time>2012-06-16T08:57:54Z</time>
      </trkpt>
      <trkpt lat="44.53344" lon="3.92016">
        <ele>988.37</ele>
        <time>2012-06-16T08:58:02Z</time>
      </trkpt>
      <trkpt lat="44.53341" lon="3.92018">
        <ele>987.89</ele>
        <time>2012-06-16T08:58:03Z</time>
      </trkpt>
      <trkpt lat="44.53339" lon="3.9202">
        <ele>987.89</ele>
        <time>2012-06-16T08:58:04Z</time>
      </trkpt>
      <trkpt lat="44.53317" lon="3.9204">
        <ele>987.41</ele>
        <time>2012-06-16T08:58:12Z</time>
      </trkpt>
      <trkpt lat="44.53314" lon="3.92041">
        <ele>986.93</ele>
        <time>2012-06-16T08:58:13Z</time>
      </trkpt>
      <trkpt lat="44.5331" lon="3.92044">
        <ele>987.41</ele>
        <time>2012-06-16T08:58:14Z</time>
      </trkpt>
      <trkpt lat="44.53306" lon="3.92048">
        <ele>986.45</ele>
        <time>2012-06-16T08:58:15Z</time>
      </trkpt>
      <trkpt lat="44.53301" lon="3.92051">
        <ele>986.45</ele>
        <time>2012-06-16T08:58:16Z</time>
      </trkpt>
      <trkpt lat="44.53288" lon="3.92058">
        <ele>985.49</ele>
        <time>2012-06-16T08:58:19Z</time>
      </trkpt>
      <trkpt lat="44.53284" lon="3.92059">
        <ele>985.01</ele>
        <time>2012-06-16T08:58:20Z</time>
      </trkpt>
      <trkpt lat="44.5328" lon="3.92061">
        <ele>985.01</ele>
        <time>2012-06-16T08:58:21Z</time>
      </trkpt>
      <trkpt lat="44.53276" lon="3.92064">
        <ele>984.05</ele>
        <time>2012-06-16T08:58:22Z</time>
      </trkpt>
      <trkpt lat="44.53273" lon="3.92069">
        <ele>984.05</ele>
        <time>2012-06-16T08:58:23Z</time>
      </trkpt>
      <trkpt lat="44.53271" lon="3.92075">
        <ele>983.57</ele>
        <time>2012-06-16T08:58:24Z</time>
      </trkpt>
      <trkpt lat="44.53269" lon="3.92081">
        <ele>983.09</ele>
        <time>2012-06-16T08:58:25Z</time>
      </trkpt>
      <trkpt lat="44.53267" lon="3.92087">
        <ele>982.6</ele>
        <time>2012-06-16T08:58:26Z</time>
      </trkpt>
      <trkpt lat="44.53265" lon="3.92093">
        <ele>982.12</ele>
        <time>2012-06-16T08:58:27Z</time>
      </trkpt>
      <trkpt lat="44.53266" lon="3.921">
        <ele>982.12</ele>
        <time>2012-06-16T08:58:28Z</time>
      </trkpt>
      <trkpt lat="44.53267" lon="3.92108">
        <ele>981.64</ele>
        <time>2012-06-16T08:58:29Z</time>
      </trkpt>
      <trkpt lat="44.53267" lon="3.92115">
        <ele>981.64</ele>
        <time>2012-06-16T08:58:30Z</time>
      </trkpt>
      <trkpt lat="44.53266" lon="3.92121">
        <ele>981.64</ele>
        <time>2012-06-16T08:58:31Z</time>
      </trkpt>
      <trkpt lat="44.53266" lon="3.92128">
        <ele>981.16</ele>
        <time>2012-06-16T08:58:32Z</time>
      </trkpt>
      <trkpt lat="44.53265" lon="3.92134">
        <ele>981.16</ele>
        <time>2012-06-16T08:58:33Z</time>
      </trkpt>
      <trkpt lat="44.53264" lon="3.92137">
        <ele>980.68</ele>
        <time>2012-06-16T08:58:34Z</time>
      </trkpt>
      <trkpt lat="44.53263" lon="3.92149">
        <ele>978.76</ele>
        <time>2012-06-16T08:58:39Z</time>
      </trkpt>
      <trkpt lat="44.53263" lon="3.92154">
        <ele>978.28</ele>
        <time>2012-06-16T08:58:41Z</time>
      </trkpt>
      <trkpt lat="44.53264" lon="3.92156">
        <ele>978.28</ele>
        <time>2012-06-16T08:58:42Z</time>
      </trkpt>
      <trkpt lat="44.53265" lon="3.92159">
        <ele>978.28</ele>
        <time>2012-06-16T08:58:43Z</time>
      </trkpt>
      <trkpt lat="44.53267" lon="3.92161">
        <ele>978.28</ele>
        <time>2012-06-16T08:58:44Z</time>
      </trkpt>
      <trkpt lat="44.5327" lon="3.92164">
        <ele>978.28</ele>
        <time>2012-06-16T08:58:45Z</time>
      </trkpt>
      <trkpt lat="44.53272" lon="3.92166">
        <ele>978.28</ele>
        <time>2012-06-16T08:58:46Z</time>
      </trkpt>
      <trkpt lat="44.53275" lon="3.92169">
        <ele>978.28</ele>
        <time>2012-06-16T08:58:47Z</time>
      </trkpt>
      <trkpt lat="44.53294" lon="3.92182">
        <ele>976.84</ele>
        <time>2012-06-16T08:58:57Z</time>
      </trkpt>
      <trkpt lat="44.53302" lon="3.92191">
        <ele>975.39</ele>
        <time>2012-06-16T08:59:08Z</time>
      </trkpt>
      <trkpt lat="44.53303" lon="3.92193">
        <ele>975.39</ele>
        <time>2012-06-16T08:59:10Z</time>
      </trkpt>
      <trkpt lat="44.53304" lon="3.92195">
        <ele>975.39</ele>
        <time>2012-06-16T08:59:11Z</time>
      </trkpt>
      <trkpt lat="44.53305" lon="3.92196">
        <ele>975.39</ele>
        <time>2012-06-16T08:59:12Z</time>
      </trkpt>
      <trkpt lat="44.53312" lon="3.92214">
        <ele>973.95</ele>
        <time>2012-06-16T08:59:23Z</time>
      </trkpt>
      <trkpt lat="44.53312" lon="3.92216">
        <ele>973.95</ele>
        <time>2012-06-16T08:59:24Z</time>
      </trkpt>
      <trkpt lat="44.53313" lon="3.92218">
        <ele>973.95</ele>
        <time>2012-06-16T08:59:25Z</time>
      </trkpt>
      <trkpt lat="44.53313" lon="3.9222">
        <ele>973.95</ele>
        <time>2012-06-16T08:59:26Z</time>
      </trkpt>
      <trkpt lat="44.53314" lon="3.92222">
        <ele>974.43</ele>
        <time>2012-06-16T08:59:27Z</time>
      </trkpt>
      <trkpt lat="44.53314" lon="3.92224">
        <ele>973.95</ele>
        <time>2012-06-16T08:59:28Z</time>
      </trkpt>
      <trkpt lat="44.53314" lon="3.92225">
        <ele>973.95</ele>
        <time>2012-06-16T08:59:29Z</time>
      </trkpt>
      <trkpt lat="44.53315" lon="3.92227">
        <ele>973.47</ele>
        <time>2012-06-16T08:59:30Z</time>
      </trkpt>
      <trkpt lat="44.53315" lon="3.92229">
        <ele>973.95</ele>
        <time>2012-06-16T08:59:31Z</time>
      </trkpt>
      <trkpt lat="44.53314" lon="3.92232">
        <ele>973.47</ele>
        <time>2012-06-16T08:59:32Z</time>
      </trkpt>
      <trkpt lat="44.53311" lon="3.92271">
        <ele>972.99</ele>
        <time>2012-06-16T08:59:46Z</time>
      </trkpt>
      <trkpt lat="44.53311" lon="3.92296">
        <ele>973.47</ele>
        <time>2012-06-16T08:59:58Z</time>
      </trkpt>
      <trkpt lat="44.5331" lon="3.92298">
        <ele>973.47</ele>
        <time>2012-06-16T08:59:59Z</time>
      </trkpt>
      <trkpt lat="44.53308" lon="3.923">
        <ele>972.99</ele>
        <time>2012-06-16T09:00:00Z</time>
      </trkpt>
      <trkpt lat="44.53306" lon="3.92302">
        <ele>973.47</ele>
        <time>2012-06-16T09:00:01Z</time>
      </trkpt>
      <trkpt lat="44.53304" lon="3.92302">
        <ele>973.47</ele>
        <time>2012-06-16T09:00:02Z</time>
      </trkpt>
      <trkpt lat="44.53302" lon="3.92303">
        <ele>973.47</ele>
        <time>2012-06-16T09:00:03Z</time>
      </trkpt>
      <trkpt lat="44.533" lon="3.92303">
        <ele>973.47</ele>
        <time>2012-06-16T09:00:04Z</time>
      </trkpt>
      <trkpt lat="44.53292" lon="3.92302">
        <ele>973.95</ele>
        <time>2012-06-16T09:00:12Z</time>
      </trkpt>
      <trkpt lat="44.53292" lon="3.92301">
        <ele>972.99</ele>
        <time>2012-06-16T09:00:41Z</time>
      </trkpt>
      <trkpt lat="44.53291" lon="3.92302">
        <ele>973.47</ele>
        <time>2012-06-16T09:01:06Z</time>
      </trkpt>
      <trkpt lat="44.53289" lon="3.92303">
        <ele>973.47</ele>
        <time>2012-06-16T09:01:07Z</time>
      </trkpt>
      <trkpt lat="44.53287" lon="3.92304">
        <ele>973.95</ele>
        <time>2012-06-16T09:01:08Z</time>
      </trkpt>
      <trkpt lat="44.53285" lon="3.92306">
        <ele>973.95</ele>
        <time>2012-06-16T09:01:09Z</time>
      </trkpt>
      <trkpt lat="44.53283" lon="3.92307">
        <ele>973.95</ele>
        <time>2012-06-16T09:01:10Z</time>
      </trkpt>
      <trkpt lat="44.53253" lon="3.92324">
        <ele>975.88</ele>
        <time>2012-06-16T09:01:23Z</time>
      </trkpt>
      <trkpt lat="44.53227" lon="3.9234">
        <ele>977.32</ele>
        <time>2012-06-16T09:01:35Z</time>
      </trkpt>
      <trkpt lat="44.5319" lon="3.92357">
        <ele>977.32</ele>
        <time>2012-06-16T09:01:49Z</time>
      </trkpt>
      <trkpt lat="44.53151" lon="3.92367">
        <ele>975.88</ele>
        <time>2012-06-16T09:02:01Z</time>
      </trkpt>
      <trkpt lat="44.5313" lon="3.92359">
        <ele>974.91</ele>
        <time>2012-06-16T09:02:07Z</time>
      </trkpt>
      <trkpt lat="44.53082" lon="3.92346">
        <ele>974.91</ele>
        <time>2012-06-16T09:02:20Z</time>
      </trkpt>
      <trkpt lat="44.53037" lon="3.92347">
        <ele>974.91</ele>
        <time>2012-06-16T09:02:33Z</time>
      </trkpt>
      <trkpt lat="44.53015" lon="3.92339">
        <ele>973.95</ele>
        <time>2012-06-16T09:02:38Z</time>
      </trkpt>
      <trkpt lat="44.53009" lon="3.92338">
        <ele>973.95</ele>
        <time>2012-06-16T09:02:39Z</time>
      </trkpt>
      <trkpt lat="44.53003" lon="3.92337">
        <ele>973.95</ele>
        <time>2012-06-16T09:02:40Z</time>
      </trkpt>
      <trkpt lat="44.52977" lon="3.92337">
        <ele>972.51</ele>
        <time>2012-06-16T09:02:44Z</time>
      </trkpt>
      <trkpt lat="44.52951" lon="3.92343">
        <ele>971.55</ele>
        <time>2012-06-16T09:02:48Z</time>
      </trkpt>
      <trkpt lat="44.52944" lon="3.92342">
        <ele>971.55</ele>
        <time>2012-06-16T09:02:49Z</time>
      </trkpt>
      <trkpt lat="44.52879" lon="3.92291">
        <ele>968.67</ele>
        <time>2012-06-16T09:03:00Z</time>
      </trkpt>
      <trkpt lat="44.52862" lon="3.92281">
        <ele>967.7</ele>
        <time>2012-06-16T09:03:04Z</time>
      </trkpt>
      <trkpt lat="44.52837" lon="3.92283">
        <ele>967.22</ele>
        <time>2012-06-16T09:03:11Z</time>
      </trkpt>
      <trkpt lat="44.52833" lon="3.92284">
        <ele>967.22</ele>
        <time>2012-06-16T09:03:12Z</time>
      </trkpt>
      <trkpt lat="44.52825" lon="3.92286">
        <ele>967.7</ele>
        <time>2012-06-16T09:03:14Z</time>
      </trkpt>
      <trkpt lat="44.52796" lon="3.92287">
        <ele>967.22</ele>
        <time>2012-06-16T09:03:21Z</time>
      </trkpt>
      <trkpt lat="44.52788" lon="3.92284">
        <ele>967.7</ele>
        <time>2012-06-16T09:03:23Z</time>
      </trkpt>
      <trkpt lat="44.52784" lon="3.92282">
        <ele>967.22</ele>
        <time>2012-06-16T09:03:24Z</time>
      </trkpt>
      <trkpt lat="44.52771" lon="3.92277">
        <ele>966.74</ele>
        <time>2012-06-16T09:03:27Z</time>
      </trkpt>
      <trkpt lat="44.52767" lon="3.92274">
        <ele>967.22</ele>
        <time>2012-06-16T09:03:28Z</time>
      </trkpt>
      <trkpt lat="44.52763" lon="3.92271">
        <ele>966.74</ele>
        <time>2012-06-16T09:03:29Z</time>
      </trkpt>
      <trkpt lat="44.5276" lon="3.92269">
        <ele>966.74</ele>
        <time>2012-06-16T09:03:30Z</time>
      </trkpt>
      <trkpt lat="44.52756" lon="3.92266">
        <ele>966.74</ele>
        <time>2012-06-16T09:03:31Z</time>
      </trkpt>
      <trkpt lat="44.52753" lon="3.92262">
        <ele>966.26</ele>
        <time>2012-06-16T09:03:32Z</time>
      </trkpt>
      <trkpt lat="44.52743" lon="3.92253">
        <ele>966.74</ele>
        <time>2012-06-16T09:03:35Z</time>
      </trkpt>
      <trkpt lat="44.52739" lon="3.92252">
        <ele>966.26</ele>
        <time>2012-06-16T09:03:36Z</time>
      </trkpt>
      <trkpt lat="44.52723" lon="3.92245">
        <ele>965.78</ele>
        <time>2012-06-16T09:03:40Z</time>
      </trkpt>
      <trkpt lat="44.52704" lon="3.92236">
        <ele>965.3</ele>
        <time>2012-06-16T09:03:44Z</time>
      </trkpt>
      <trkpt lat="44.52689" lon="3.92232">
        <ele>964.82</ele>
        <time>2012-06-16T09:03:47Z</time>
      </trkpt>
      <trkpt lat="44.52664" lon="3.92221">
        <ele>963.38</ele>
        <time>2012-06-16T09:03:52Z</time>
      </trkpt>
      <trkpt lat="44.52658" lon="3.92219">
        <ele>962.9</ele>
        <time>2012-06-16T09:03:53Z</time>
      </trkpt>
      <trkpt lat="44.52635" lon="3.92209">
        <ele>961.94</ele>
        <time>2012-06-16T09:03:57Z</time>
      </trkpt>
      <trkpt lat="44.52618" lon="3.922">
        <ele>960.01</ele>
        <time>2012-06-16T09:04:00Z</time>
      </trkpt>
      <trkpt lat="44.52598" lon="3.92191">
        <ele>958.57</ele>
        <time>2012-06-16T09:04:04Z</time>
      </trkpt>
      <trkpt lat="44.52586" lon="3.92193">
        <ele>957.13</ele>
        <time>2012-06-16T09:04:07Z</time>
      </trkpt>
      <trkpt lat="44.52576" lon="3.92193">
        <ele>957.13</ele>
        <time>2012-06-16T09:04:09Z</time>
      </trkpt>
      <trkpt lat="44.52572" lon="3.92193">
        <ele>957.13</ele>
        <time>2012-06-16T09:04:10Z</time>
      </trkpt>
      <trkpt lat="44.52567" lon="3.92191">
        <ele>957.13</ele>
        <time>2012-06-16T09:04:11Z</time>
      </trkpt>
      <trkpt lat="44.52549" lon="3.92185">
        <ele>956.65</ele>
        <time>2012-06-16T09:04:15Z</time>
      </trkpt>
      <trkpt lat="44.5254" lon="3.92179">
        <ele>955.69</ele>
        <time>2012-06-16T09:04:17Z</time>
      </trkpt>
      <trkpt lat="44.52532" lon="3.92175">
        <ele>954.73</ele>
        <time>2012-06-16T09:04:19Z</time>
      </trkpt>
      <trkpt lat="44.52528" lon="3.92172">
        <ele>956.17</ele>
        <time>2012-06-16T09:04:20Z</time>
      </trkpt>
      <trkpt lat="44.52525" lon="3.9217">
        <ele>955.21</ele>
        <time>2012-06-16T09:04:21Z</time>
      </trkpt>
      <trkpt lat="44.52521" lon="3.92167">
        <ele>955.21</ele>
        <time>2012-06-16T09:04:22Z</time>
      </trkpt>
      <trkpt lat="44.52518" lon="3.92163">
        <ele>955.21</ele>
        <time>2012-06-16T09:04:23Z</time>
      </trkpt>
      <trkpt lat="44.52478" lon="3.92134">
        <ele>953.77</ele>
        <time>2012-06-16T09:04:36Z</time>
      </trkpt>
      <trkpt lat="44.52426" lon="3.9211">
        <ele>951.84</ele>
        <time>2012-06-16T09:04:51Z</time>
      </trkpt>
      <trkpt lat="44.52423" lon="3.92107">
        <ele>951.36</ele>
        <time>2012-06-16T09:04:52Z</time>
      </trkpt>
      <trkpt lat="44.52411" lon="3.92102">
        <ele>951.84</ele>
        <time>2012-06-16T09:04:55Z</time>
      </trkpt>
      <trkpt lat="44.52373" lon="3.92092">
        <ele>950.4</ele>
        <time>2012-06-16T09:05:07Z</time>
      </trkpt>
      <trkpt lat="44.52346" lon="3.92085">
        <ele>952.32</ele>
        <time>2012-06-16T09:05:20Z</time>
      </trkpt>
      <trkpt lat="44.52318" lon="3.92054">
        <ele>954.25</ele>
        <time>2012-06-16T09:05:37Z</time>
      </trkpt>
      <trkpt lat="44.52306" lon="3.92045">
        <ele>954.73</ele>
        <time>2012-06-16T09:05:43Z</time>
      </trkpt>
      <trkpt lat="44.52304" lon="3.92043">
        <ele>955.21</ele>
        <time>2012-06-16T09:05:44Z</time>
      </trkpt>
      <trkpt lat="44.5228" lon="3.92023">
        <ele>955.21</ele>
        <time>2012-06-16T09:05:55Z</time>
      </trkpt>
      <trkpt lat="44.52235" lon="3.91998">
        <ele>953.28</ele>
        <time>2012-06-16T09:06:10Z</time>
      </trkpt>
      <trkpt lat="44.52208" lon="3.91983">
        <ele>951.84</ele>
        <time>2012-06-16T09:06:20Z</time>
      </trkpt>
      <trkpt lat="44.52193" lon="3.91977">
        <ele>950.88</ele>
        <time>2012-06-16T09:06:24Z</time>
      </trkpt>
      <trkpt lat="44.52189" lon="3.91975">
        <ele>950.4</ele>
        <time>2012-06-16T09:06:25Z</time>
      </trkpt>
      <trkpt lat="44.52185" lon="3.91974">
        <ele>949.92</ele>
        <time>2012-06-16T09:06:26Z</time>
      </trkpt>
      <trkpt lat="44.52183" lon="3.91973">
        <ele>949.44</ele>
        <time>2012-06-16T09:06:27Z</time>
      </trkpt>
      <trkpt lat="44.52181" lon="3.91973">
        <ele>948.48</ele>
        <time>2012-06-16T09:06:28Z</time>
      </trkpt>
      <trkpt lat="44.52176" lon="3.9197">
        <ele>948.48</ele>
        <time>2012-06-16T09:06:32Z</time>
      </trkpt>
      <trkpt lat="44.52172" lon="3.9197">
        <ele>948.48</ele>
        <time>2012-06-16T09:06:33Z</time>
      </trkpt>
      <trkpt lat="44.52168" lon="3.91968">
        <ele>948</ele>
        <time>2012-06-16T09:06:34Z</time>
      </trkpt>
      <trkpt lat="44.52164" lon="3.91967">
        <ele>948</ele>
        <time>2012-06-16T09:06:35Z</time>
      </trkpt>
      <trkpt lat="44.5216" lon="3.91964">
        <ele>947.04</ele>
        <time>2012-06-16T09:06:36Z</time>
      </trkpt>
      <trkpt lat="44.52155" lon="3.91961">
        <ele>946.56</ele>
        <time>2012-06-16T09:06:37Z</time>
      </trkpt>
      <trkpt lat="44.52139" lon="3.91952">
        <ele>945.59</ele>
        <time>2012-06-16T09:06:40Z</time>
      </trkpt>
      <trkpt lat="44.52134" lon="3.9195">
        <ele>945.11</ele>
        <time>2012-06-16T09:06:41Z</time>
      </trkpt>
      <trkpt lat="44.52128" lon="3.91948">
        <ele>945.11</ele>
        <time>2012-06-16T09:06:42Z</time>
      </trkpt>
      <trkpt lat="44.52115" lon="3.91943">
        <ele>943.19</ele>
        <time>2012-06-16T09:06:44Z</time>
      </trkpt>
      <trkpt lat="44.52102" lon="3.91936">
        <ele>941.75</ele>
        <time>2012-06-16T09:06:46Z</time>
      </trkpt>
      <trkpt lat="44.5208" lon="3.91922">
        <ele>939.83</ele>
        <time>2012-06-16T09:06:50Z</time>
      </trkpt>
      <trkpt lat="44.52068" lon="3.91917">
        <ele>938.38</ele>
        <time>2012-06-16T09:06:52Z</time>
      </trkpt>
      <trkpt lat="44.52044" lon="3.919">
        <ele>936.46</ele>
        <time>2012-06-16T09:06:56Z</time>
      </trkpt>
      <trkpt lat="44.52033" lon="3.91893">
        <ele>935.5</ele>
        <time>2012-06-16T09:06:58Z</time>
      </trkpt>
      <trkpt lat="44.52028" lon="3.91891">
        <ele>935.5</ele>
        <time>2012-06-16T09:06:59Z</time>
      </trkpt>
      <trkpt lat="44.52013" lon="3.91885">
        <ele>935.5</ele>
        <time>2012-06-16T09:07:02Z</time>
      </trkpt>
      <trkpt lat="44.51962" lon="3.91862">
        <ele>935.02</ele>
        <time>2012-06-16T09:07:16Z</time>
      </trkpt>
      <trkpt lat="44.51912" lon="3.91828">
        <ele>932.62</ele>
        <time>2012-06-16T09:07:29Z</time>
      </trkpt>
      <trkpt lat="44.51852" lon="3.91776">
        <ele>929.73</ele>
        <time>2012-06-16T09:07:43Z</time>
      </trkpt>
      <trkpt lat="44.51847" lon="3.91772">
        <ele>928.77</ele>
        <time>2012-06-16T09:07:44Z</time>
      </trkpt>
      <trkpt lat="44.51837" lon="3.91766">
        <ele>927.81</ele>
        <time>2012-06-16T09:07:46Z</time>
      </trkpt>
      <trkpt lat="44.51833" lon="3.9176">
        <ele>927.33</ele>
        <time>2012-06-16T09:07:47Z</time>
      </trkpt>
      <trkpt lat="44.5183" lon="3.91753">
        <ele>926.85</ele>
        <time>2012-06-16T09:07:48Z</time>
      </trkpt>
      <trkpt lat="44.51829" lon="3.91745">
        <ele>925.89</ele>
        <time>2012-06-16T09:07:49Z</time>
      </trkpt>
      <trkpt lat="44.51829" lon="3.91736">
        <ele>925.89</ele>
        <time>2012-06-16T09:07:50Z</time>
      </trkpt>
      <trkpt lat="44.5183" lon="3.91728">
        <ele>924.93</ele>
        <time>2012-06-16T09:07:51Z</time>
      </trkpt>
      <trkpt lat="44.51831" lon="3.91719">
        <ele>923.96</ele>
        <time>2012-06-16T09:07:52Z</time>
      </trkpt>
      <trkpt lat="44.51834" lon="3.91711">
        <ele>923.48</ele>
        <time>2012-06-16T09:07:53Z</time>
      </trkpt>
      <trkpt lat="44.51837" lon="3.91702">
        <ele>923</ele>
        <time>2012-06-16T09:07:54Z</time>
      </trkpt>
      <trkpt lat="44.51841" lon="3.91695">
        <ele>923</ele>
        <time>2012-06-16T09:07:55Z</time>
      </trkpt>
      <trkpt lat="44.51845" lon="3.91689">
        <ele>922.04</ele>
        <time>2012-06-16T09:07:56Z</time>
      </trkpt>
      <trkpt lat="44.5185" lon="3.91684">
        <ele>922.04</ele>
        <time>2012-06-16T09:07:57Z</time>
      </trkpt>
      <trkpt lat="44.51855" lon="3.9168">
        <ele>922.04</ele>
        <time>2012-06-16T09:07:58Z</time>
      </trkpt>
      <trkpt lat="44.51876" lon="3.91664">
        <ele>918.68</ele>
        <time>2012-06-16T09:08:02Z</time>
      </trkpt>
      <trkpt lat="44.51886" lon="3.91656">
        <ele>917.24</ele>
        <time>2012-06-16T09:08:05Z</time>
      </trkpt>
      <trkpt lat="44.51891" lon="3.91648">
        <ele>916.75</ele>
        <time>2012-06-16T09:08:07Z</time>
      </trkpt>
      <trkpt lat="44.51892" lon="3.91642">
        <ele>916.27</ele>
        <time>2012-06-16T09:08:08Z</time>
      </trkpt>
      <trkpt lat="44.51893" lon="3.91636">
        <ele>915.79</ele>
        <time>2012-06-16T09:08:09Z</time>
      </trkpt>
      <trkpt lat="44.51892" lon="3.9163">
        <ele>915.79</ele>
        <time>2012-06-16T09:08:10Z</time>
      </trkpt>
      <trkpt lat="44.5189" lon="3.91624">
        <ele>915.79</ele>
        <time>2012-06-16T09:08:11Z</time>
      </trkpt>
      <trkpt lat="44.51888" lon="3.9162">
        <ele>915.79</ele>
        <time>2012-06-16T09:08:12Z</time>
      </trkpt>
      <trkpt lat="44.51885" lon="3.91615">
        <ele>915.79</ele>
        <time>2012-06-16T09:08:13Z</time>
      </trkpt>
      <trkpt lat="44.51882" lon="3.91611">
        <ele>916.27</ele>
        <time>2012-06-16T09:08:14Z</time>
      </trkpt>
      <trkpt lat="44.5185" lon="3.91596">
        <ele>915.31</ele>
        <time>2012-06-16T09:08:25Z</time>
      </trkpt>
      <trkpt lat="44.51818" lon="3.91592">
        <ele>916.27</ele>
        <time>2012-06-16T09:08:36Z</time>
      </trkpt>
      <trkpt lat="44.51816" lon="3.91591">
        <ele>916.27</ele>
        <time>2012-06-16T09:08:37Z</time>
      </trkpt>
      <trkpt lat="44.51774" lon="3.91571">
        <ele>915.79</ele>
        <time>2012-06-16T09:08:52Z</time>
      </trkpt>
      <trkpt lat="44.51738" lon="3.91553">
        <ele>915.79</ele>
        <time>2012-06-16T09:09:04Z</time>
      </trkpt>
      <trkpt lat="44.51713" lon="3.91538">
        <ele>913.87</ele>
        <time>2012-06-16T09:09:11Z</time>
      </trkpt>
      <trkpt lat="44.51709" lon="3.91536">
        <ele>914.83</ele>
        <time>2012-06-16T09:09:12Z</time>
      </trkpt>
      <trkpt lat="44.51705" lon="3.91533">
        <ele>914.35</ele>
        <time>2012-06-16T09:09:13Z</time>
      </trkpt>
      <trkpt lat="44.51679" lon="3.91518">
        <ele>913.39</ele>
        <time>2012-06-16T09:09:24Z</time>
      </trkpt>
      <trkpt lat="44.51673" lon="3.91515">
        <ele>911.95</ele>
        <time>2012-06-16T09:09:36Z</time>
      </trkpt>
      <trkpt lat="44.51673" lon="3.91515">
        <ele>913.87</ele>
        <time>2012-06-16T09:09:38Z</time>
      </trkpt>
      <trkpt lat="44.51673" lon="3.91514">
        <ele>912.91</ele>
        <time>2012-06-16T09:09:40Z</time>
      </trkpt>
      <trkpt lat="44.51673" lon="3.91516">
        <ele>913.39</ele>
        <time>2012-06-16T09:10:01Z</time>
      </trkpt>
      <trkpt lat="44.51673" lon="3.91516">
        <ele>913.39</ele>
        <time>2012-06-16T09:10:28Z</time>
      </trkpt>
      <trkpt lat="44.51673" lon="3.91517">
        <ele>913.39</ele>
        <time>2012-06-16T09:11:08Z</time>
      </trkpt>
      <trkpt lat="44.51672" lon="3.91516">
        <ele>912.91</ele>
        <time>2012-06-16T09:11:40Z</time>
      </trkpt>
      <trkpt lat="44.51671" lon="3.91516">
        <ele>913.39</ele>
        <time>2012-06-16T09:11:44Z</time>
      </trkpt>
      <trkpt lat="44.51669" lon="3.91516">
        <ele>913.39</ele>
        <time>2012-06-16T09:11:45Z</time>
      </trkpt>
      <trkpt lat="44.51667" lon="3.91516">
        <ele>913.87</ele>
        <time>2012-06-16T09:11:46Z</time>
      </trkpt>
      <trkpt lat="44.51665" lon="3.91515">
        <ele>913.39</ele>
        <time>2012-06-16T09:11:47Z</time>
      </trkpt>
      <trkpt lat="44.51661" lon="3.91514">
        <ele>913.39</ele>
        <time>2012-06-16T09:11:48Z</time>
      </trkpt>
      <trkpt lat="44.51652" lon="3.91513">
        <ele>914.35</ele>
        <time>2012-06-16T09:11:50Z</time>
      </trkpt>
      <trkpt lat="44.51648" lon="3.91511">
        <ele>913.87</ele>
        <time>2012-06-16T09:11:51Z</time>
      </trkpt>
      <trkpt lat="44.51644" lon="3.9151">
        <ele>914.83</ele>
        <time>2012-06-16T09:11:52Z</time>
      </trkpt>
      <trkpt lat="44.51641" lon="3.91509">
        <ele>914.83</ele>
        <time>2012-06-16T09:11:53Z</time>
      </trkpt>
      <trkpt lat="44.51638" lon="3.91509">
        <ele>914.83</ele>
        <time>2012-06-16T09:11:54Z</time>
      </trkpt>
      <trkpt lat="44.51585" lon="3.91517">
        <ele>913.39</ele>
        <time>2012-06-16T09:12:10Z</time>
      </trkpt>
      <trkpt lat="44.51573" lon="3.91519">
        <ele>913.39</ele>
        <time>2012-06-16T09:12:13Z</time>
      </trkpt>
      <trkpt lat="44.51523" lon="3.91537">
        <ele>910.99</ele>
        <time>2012-06-16T09:12:23Z</time>
      </trkpt>
      <trkpt lat="44.51498" lon="3.91547">
        <ele>910.99</ele>
        <time>2012-06-16T09:12:28Z</time>
      </trkpt>
      <trkpt lat="44.51486" lon="3.91554">
        <ele>910.99</ele>
        <time>2012-06-16T09:12:30Z</time>
      </trkpt>
      <trkpt lat="44.51474" lon="3.91557">
        <ele>910.99</ele>
        <time>2012-06-16T09:12:32Z</time>
      </trkpt>
      <trkpt lat="44.51465" lon="3.91557">
        <ele>914.83</ele>
        <time>2012-06-16T09:12:35Z</time>
      </trkpt>
      <trkpt lat="44.5146" lon="3.91557">
        <ele>913.87</ele>
        <time>2012-06-16T09:12:36Z</time>
      </trkpt>
      <trkpt lat="44.51443" lon="3.91554">
        <ele>912.43</ele>
        <time>2012-06-16T09:12:39Z</time>
      </trkpt>
      <trkpt lat="44.51428" lon="3.91551">
        <ele>912.43</ele>
        <time>2012-06-16T09:12:42Z</time>
      </trkpt>
      <trkpt lat="44.51415" lon="3.91545">
        <ele>912.43</ele>
        <time>2012-06-16T09:12:45Z</time>
      </trkpt>
      <trkpt lat="44.51411" lon="3.91544">
        <ele>912.43</ele>
        <time>2012-06-16T09:12:46Z</time>
      </trkpt>
      <trkpt lat="44.51407" lon="3.91544">
        <ele>912.43</ele>
        <time>2012-06-16T09:12:47Z</time>
      </trkpt>
      <trkpt lat="44.51386" lon="3.91545">
        <ele>913.87</ele>
        <time>2012-06-16T09:12:55Z</time>
      </trkpt>
      <trkpt lat="44.51353" lon="3.91543">
        <ele>917.24</ele>
        <time>2012-06-16T09:13:05Z</time>
      </trkpt>
      <trkpt lat="44.51332" lon="3.91543">
        <ele>918.2</ele>
        <time>2012-06-16T09:13:15Z</time>
      </trkpt>
      <trkpt lat="44.5133" lon="3.91543">
        <ele>918.2</ele>
        <time>2012-06-16T09:13:16Z</time>
      </trkpt>
      <trkpt lat="44.51328" lon="3.91543">
        <ele>917.72</ele>
        <time>2012-06-16T09:13:17Z</time>
      </trkpt>
      <trkpt lat="44.51298" lon="3.9154">
        <ele>916.75</ele>
        <time>2012-06-16T09:13:31Z</time>
      </trkpt>
      <trkpt lat="44.5129" lon="3.91541">
        <ele>916.27</ele>
        <time>2012-06-16T09:13:33Z</time>
      </trkpt>
      <trkpt lat="44.51286" lon="3.91543">
        <ele>915.79</ele>
        <time>2012-06-16T09:13:34Z</time>
      </trkpt>
      <trkpt lat="44.51282" lon="3.91544">
        <ele>915.79</ele>
        <time>2012-06-16T09:13:35Z</time>
      </trkpt>
      <trkpt lat="44.51277" lon="3.91545">
        <ele>915.31</ele>
        <time>2012-06-16T09:13:36Z</time>
      </trkpt>
      <trkpt lat="44.51272" lon="3.91546">
        <ele>914.83</ele>
        <time>2012-06-16T09:13:37Z</time>
      </trkpt>
      <trkpt lat="44.5126" lon="3.91549">
        <ele>913.87</ele>
        <time>2012-06-16T09:13:39Z</time>
      </trkpt>
      <trkpt lat="44.5124" lon="3.91551">
        <ele>912.43</ele>
        <time>2012-06-16T09:13:42Z</time>
      </trkpt>
      <trkpt lat="44.5122" lon="3.91553">
        <ele>910.99</ele>
        <time>2012-06-16T09:13:45Z</time>
      </trkpt>
      <trkpt lat="44.51215" lon="3.91557">
        <ele>910.51</ele>
        <time>2012-06-16T09:13:46Z</time>
      </trkpt>
      <trkpt lat="44.51211" lon="3.91563">
        <ele>910.03</ele>
        <time>2012-06-16T09:13:47Z</time>
      </trkpt>
      <trkpt lat="44.51202" lon="3.91591">
        <ele>907.62</ele>
        <time>2012-06-16T09:13:51Z</time>
      </trkpt>
      <trkpt lat="44.512" lon="3.91597">
        <ele>906.18</ele>
        <time>2012-06-16T09:13:52Z</time>
      </trkpt>
      <trkpt lat="44.51198" lon="3.91603">
        <ele>906.18</ele>
        <time>2012-06-16T09:13:53Z</time>
      </trkpt>
      <trkpt lat="44.51195" lon="3.91608">
        <ele>905.22</ele>
        <time>2012-06-16T09:13:54Z</time>
      </trkpt>
      <trkpt lat="44.51193" lon="3.91611">
        <ele>903.78</ele>
        <time>2012-06-16T09:13:55Z</time>
      </trkpt>
      <trkpt lat="44.51191" lon="3.91614">
        <ele>903.78</ele>
        <time>2012-06-16T09:13:56Z</time>
      </trkpt>
      <trkpt lat="44.51189" lon="3.91617">
        <ele>902.82</ele>
        <time>2012-06-16T09:13:57Z</time>
      </trkpt>
      <trkpt lat="44.51186" lon="3.91619">
        <ele>903.3</ele>
        <time>2012-06-16T09:13:58Z</time>
      </trkpt>
      <trkpt lat="44.51183" lon="3.91622">
        <ele>902.33</ele>
        <time>2012-06-16T09:13:59Z</time>
      </trkpt>
      <trkpt lat="44.51159" lon="3.91642">
        <ele>901.37</ele>
        <time>2012-06-16T09:14:10Z</time>
      </trkpt>
      <trkpt lat="44.51156" lon="3.91644">
        <ele>900.89</ele>
        <time>2012-06-16T09:14:11Z</time>
      </trkpt>
      <trkpt lat="44.51154" lon="3.91644">
        <ele>900.41</ele>
        <time>2012-06-16T09:14:12Z</time>
      </trkpt>
      <trkpt lat="44.51151" lon="3.91643">
        <ele>900.89</ele>
        <time>2012-06-16T09:14:13Z</time>
      </trkpt>
      <trkpt lat="44.51148" lon="3.91642">
        <ele>900.41</ele>
        <time>2012-06-16T09:14:14Z</time>
      </trkpt>
      <trkpt lat="44.51145" lon="3.91641">
        <ele>900.41</ele>
        <time>2012-06-16T09:14:15Z</time>
      </trkpt>
      <trkpt lat="44.51142" lon="3.91639">
        <ele>899.93</ele>
        <time>2012-06-16T09:14:16Z</time>
      </trkpt>
      <trkpt lat="44.51133" lon="3.91636">
        <ele>898.97</ele>
        <time>2012-06-16T09:14:25Z</time>
      </trkpt>
      <trkpt lat="44.51131" lon="3.91635">
        <ele>898.97</ele>
        <time>2012-06-16T09:14:26Z</time>
      </trkpt>
      <trkpt lat="44.51099" lon="3.91623">
        <ele>897.05</ele>
        <time>2012-06-16T09:14:35Z</time>
      </trkpt>
      <trkpt lat="44.51085" lon="3.91617">
        <ele>896.09</ele>
        <time>2012-06-16T09:14:38Z</time>
      </trkpt>
      <trkpt lat="44.51081" lon="3.91616">
        <ele>895.61</ele>
        <time>2012-06-16T09:14:39Z</time>
      </trkpt>
      <trkpt lat="44.51061" lon="3.91607">
        <ele>894.16</ele>
        <time>2012-06-16T09:14:43Z</time>
      </trkpt>
      <trkpt lat="44.51057" lon="3.91604">
        <ele>893.2</ele>
        <time>2012-06-16T09:14:44Z</time>
      </trkpt>
      <trkpt lat="44.51048" lon="3.91598">
        <ele>893.2</ele>
        <time>2012-06-16T09:14:46Z</time>
      </trkpt>
      <trkpt lat="44.51044" lon="3.91595">
        <ele>893.2</ele>
        <time>2012-06-16T09:14:47Z</time>
      </trkpt>
      <trkpt lat="44.51021" lon="3.91582">
        <ele>892.72</ele>
        <time>2012-06-16T09:14:52Z</time>
      </trkpt>
      <trkpt lat="44.51011" lon="3.91581">
        <ele>892.24</ele>
        <time>2012-06-16T09:14:54Z</time>
      </trkpt>
      <trkpt lat="44.51006" lon="3.9158">
        <ele>892.24</ele>
        <time>2012-06-16T09:14:55Z</time>
      </trkpt>
      <trkpt lat="44.50992" lon="3.91579">
        <ele>891.28</ele>
        <time>2012-06-16T09:14:58Z</time>
      </trkpt>
      <trkpt lat="44.50987" lon="3.9158">
        <ele>891.76</ele>
        <time>2012-06-16T09:14:59Z</time>
      </trkpt>
      <trkpt lat="44.50982" lon="3.9158">
        <ele>891.28</ele>
        <time>2012-06-16T09:15:00Z</time>
      </trkpt>
      <trkpt lat="44.50964" lon="3.91584">
        <ele>890.8</ele>
        <time>2012-06-16T09:15:04Z</time>
      </trkpt>
      <trkpt lat="44.50955" lon="3.91588">
        <ele>891.28</ele>
        <time>2012-06-16T09:15:06Z</time>
      </trkpt>
      <trkpt lat="44.50909" lon="3.91596">
        <ele>888.4</ele>
        <time>2012-06-16T09:15:18Z</time>
      </trkpt>
      <trkpt lat="44.50905" lon="3.91594">
        <ele>888.4</ele>
        <time>2012-06-16T09:15:20Z</time>
      </trkpt>
      <trkpt lat="44.50903" lon="3.91594">
        <ele>888.4</ele>
        <time>2012-06-16T09:15:21Z</time>
      </trkpt>
      <trkpt lat="44.50902" lon="3.91594">
        <ele>888.4</ele>
        <time>2012-06-16T09:15:22Z</time>
      </trkpt>
      <trkpt lat="44.509" lon="3.91594">
        <ele>887.91</ele>
        <time>2012-06-16T09:15:23Z</time>
      </trkpt>
      <trkpt lat="44.50899" lon="3.91594">
        <ele>887.91</ele>
        <time>2012-06-16T09:15:24Z</time>
      </trkpt>
      <trkpt lat="44.50898" lon="3.91594">
        <ele>887.91</ele>
        <time>2012-06-16T09:15:25Z</time>
      </trkpt>
      <trkpt lat="44.50896" lon="3.91594">
        <ele>887.43</ele>
        <time>2012-06-16T09:15:26Z</time>
      </trkpt>
      <trkpt lat="44.50894" lon="3.91595">
        <ele>887.91</ele>
        <time>2012-06-16T09:15:27Z</time>
      </trkpt>
      <trkpt lat="44.50892" lon="3.91595">
        <ele>887.91</ele>
        <time>2012-06-16T09:15:28Z</time>
      </trkpt>
      <trkpt lat="44.50891" lon="3.91594">
        <ele>887.91</ele>
        <time>2012-06-16T09:15:29Z</time>
      </trkpt>
      <trkpt lat="44.50888" lon="3.91594">
        <ele>887.43</ele>
        <time>2012-06-16T09:15:30Z</time>
      </trkpt>
      <trkpt lat="44.50885" lon="3.91594">
        <ele>887.91</ele>
        <time>2012-06-16T09:15:31Z</time>
      </trkpt>
      <trkpt lat="44.50883" lon="3.91594">
        <ele>886.95</ele>
        <time>2012-06-16T09:15:32Z</time>
      </trkpt>
      <trkpt lat="44.50862" lon="3.91599">
        <ele>885.51</ele>
        <time>2012-06-16T09:15:38Z</time>
      </trkpt>
      <trkpt lat="44.50841" lon="3.91602">
        <ele>885.03</ele>
        <time>2012-06-16T09:15:43Z</time>
      </trkpt>
      <trkpt lat="44.50826" lon="3.91602">
        <ele>883.59</ele>
        <time>2012-06-16T09:15:46Z</time>
      </trkpt>
      <trkpt lat="44.50821" lon="3.91603">
        <ele>883.11</ele>
        <time>2012-06-16T09:15:47Z</time>
      </trkpt>
      <trkpt lat="44.50816" lon="3.91602">
        <ele>883.11</ele>
        <time>2012-06-16T09:15:48Z</time>
      </trkpt>
      <trkpt lat="44.50811" lon="3.91602">
        <ele>882.63</ele>
        <time>2012-06-16T09:15:49Z</time>
      </trkpt>
      <trkpt lat="44.50806" lon="3.91602">
        <ele>882.63</ele>
        <time>2012-06-16T09:15:50Z</time>
      </trkpt>
      <trkpt lat="44.50783" lon="3.91599">
        <ele>881.19</ele>
        <time>2012-06-16T09:15:55Z</time>
      </trkpt>
      <trkpt lat="44.50779" lon="3.91597">
        <ele>881.67</ele>
        <time>2012-06-16T09:15:56Z</time>
      </trkpt>
      <trkpt lat="44.50776" lon="3.91596">
        <ele>881.67</ele>
        <time>2012-06-16T09:15:57Z</time>
      </trkpt>
      <trkpt lat="44.50772" lon="3.91594">
        <ele>881.19</ele>
        <time>2012-06-16T09:15:58Z</time>
      </trkpt>
      <trkpt lat="44.50769" lon="3.91592">
        <ele>881.19</ele>
        <time>2012-06-16T09:15:59Z</time>
      </trkpt>
      <trkpt lat="44.50766" lon="3.91589">
        <ele>880.71</ele>
        <time>2012-06-16T09:16:00Z</time>
      </trkpt>
      <trkpt lat="44.50763" lon="3.91586">
        <ele>880.71</ele>
        <time>2012-06-16T09:16:01Z</time>
      </trkpt>
      <trkpt lat="44.5076" lon="3.91583">
        <ele>880.71</ele>
        <time>2012-06-16T09:16:02Z</time>
      </trkpt>
      <trkpt lat="44.50757" lon="3.91579">
        <ele>880.22</ele>
        <time>2012-06-16T09:16:03Z</time>
      </trkpt>
      <trkpt lat="44.50753" lon="3.91576">
        <ele>880.22</ele>
        <time>2012-06-16T09:16:04Z</time>
      </trkpt>
      <trkpt lat="44.50748" lon="3.91574">
        <ele>879.26</ele>
        <time>2012-06-16T09:16:05Z</time>
      </trkpt>
      <trkpt lat="44.50742" lon="3.91572">
        <ele>878.3</ele>
        <time>2012-06-16T09:16:06Z</time>
      </trkpt>
      <trkpt lat="44.50736" lon="3.91571">
        <ele>877.34</ele>
        <time>2012-06-16T09:16:07Z</time>
      </trkpt>
      <trkpt lat="44.50714" lon="3.9157">
        <ele>875.42</ele>
        <time>2012-06-16T09:16:10Z</time>
      </trkpt>
      <trkpt lat="44.507" lon="3.91575">
        <ele>873.5</ele>
        <time>2012-06-16T09:16:12Z</time>
      </trkpt>
      <trkpt lat="44.50686" lon="3.9158">
        <ele>871.57</ele>
        <time>2012-06-16T09:16:15Z</time>
      </trkpt>
      <trkpt lat="44.50683" lon="3.91581">
        <ele>870.61</ele>
        <time>2012-06-16T09:16:17Z</time>
      </trkpt>
      <trkpt lat="44.50681" lon="3.91581">
        <ele>870.61</ele>
        <time>2012-06-16T09:16:18Z</time>
      </trkpt>
      <trkpt lat="44.5068" lon="3.9158">
        <ele>870.61</ele>
        <time>2012-06-16T09:16:19Z</time>
      </trkpt>
      <trkpt lat="44.50678" lon="3.9158">
        <ele>870.61</ele>
        <time>2012-06-16T09:16:20Z</time>
      </trkpt>
      <trkpt lat="44.50677" lon="3.91582">
        <ele>870.13</ele>
        <time>2012-06-16T09:16:27Z</time>
      </trkpt>
      <trkpt lat="44.50676" lon="3.91583">
        <ele>870.13</ele>
        <time>2012-06-16T09:16:28Z</time>
      </trkpt>
      <trkpt lat="44.50674" lon="3.91584">
        <ele>870.13</ele>
        <time>2012-06-16T09:16:29Z</time>
      </trkpt>
      <trkpt lat="44.50672" lon="3.91585">
        <ele>870.61</ele>
        <time>2012-06-16T09:16:30Z</time>
      </trkpt>
      <trkpt lat="44.5067" lon="3.91585">
        <ele>869.65</ele>
        <time>2012-06-16T09:16:31Z</time>
      </trkpt>
      <trkpt lat="44.50667" lon="3.91586">
        <ele>870.13</ele>
        <time>2012-06-16T09:16:32Z</time>
      </trkpt>
      <trkpt lat="44.50646" lon="3.91597">
        <ele>869.65</ele>
        <time>2012-06-16T09:16:38Z</time>
      </trkpt>
      <trkpt lat="44.50642" lon="3.91598">
        <ele>868.69</ele>
        <time>2012-06-16T09:16:39Z</time>
      </trkpt>
      <trkpt lat="44.50613" lon="3.91598">
        <ele>866.29</ele>
        <time>2012-06-16T09:16:51Z</time>
      </trkpt>
      <trkpt lat="44.50599" lon="3.91601">
        <ele>862.44</ele>
        <time>2012-06-16T09:16:55Z</time>
      </trkpt>
      <trkpt lat="44.50596" lon="3.91601">
        <ele>863.4</ele>
        <time>2012-06-16T09:16:56Z</time>
      </trkpt>
      <trkpt lat="44.50571" lon="3.91609">
        <ele>861</ele>
        <time>2012-06-16T09:17:03Z</time>
      </trkpt>
      <trkpt lat="44.50567" lon="3.9161">
        <ele>860.52</ele>
        <time>2012-06-16T09:17:04Z</time>
      </trkpt>
      <trkpt lat="44.50558" lon="3.91612">
        <ele>860.04</ele>
        <time>2012-06-16T09:17:06Z</time>
      </trkpt>
      <trkpt lat="44.50553" lon="3.91613">
        <ele>859.08</ele>
        <time>2012-06-16T09:17:07Z</time>
      </trkpt>
      <trkpt lat="44.50548" lon="3.91615">
        <ele>858.59</ele>
        <time>2012-06-16T09:17:08Z</time>
      </trkpt>
      <trkpt lat="44.50525" lon="3.91625">
        <ele>857.15</ele>
        <time>2012-06-16T09:17:12Z</time>
      </trkpt>
      <trkpt lat="44.50513" lon="3.91629">
        <ele>855.71</ele>
        <time>2012-06-16T09:17:14Z</time>
      </trkpt>
      <trkpt lat="44.50502" lon="3.9163">
        <ele>855.71</ele>
        <time>2012-06-16T09:17:16Z</time>
      </trkpt>
      <trkpt lat="44.50496" lon="3.91631">
        <ele>854.75</ele>
        <time>2012-06-16T09:17:17Z</time>
      </trkpt>
      <trkpt lat="44.50485" lon="3.91632">
        <ele>853.79</ele>
        <time>2012-06-16T09:17:19Z</time>
      </trkpt>
      <trkpt lat="44.50472" lon="3.91633">
        <ele>852.35</ele>
        <time>2012-06-16T09:17:26Z</time>
      </trkpt>
      <trkpt lat="44.50471" lon="3.91632">
        <ele>852.35</ele>
        <time>2012-06-16T09:17:53Z</time>
      </trkpt>
      <trkpt lat="44.50469" lon="3.91633">
        <ele>851.87</ele>
        <time>2012-06-16T09:18:21Z</time>
      </trkpt>
      <trkpt lat="44.50469" lon="3.91632">
        <ele>852.83</ele>
        <time>2012-06-16T09:18:46Z</time>
      </trkpt>
      <trkpt lat="44.50467" lon="3.91633">
        <ele>851.87</ele>
        <time>2012-06-16T09:19:10Z</time>
      </trkpt>
      <trkpt lat="44.50465" lon="3.91634">
        <ele>852.35</ele>
        <time>2012-06-16T09:19:11Z</time>
      </trkpt>
      <trkpt lat="44.50462" lon="3.91635">
        <ele>852.35</ele>
        <time>2012-06-16T09:19:12Z</time>
      </trkpt>
      <trkpt lat="44.50458" lon="3.91636">
        <ele>852.35</ele>
        <time>2012-06-16T09:19:13Z</time>
      </trkpt>
      <trkpt lat="44.50452" lon="3.91637">
        <ele>851.38</ele>
        <time>2012-06-16T09:19:14Z</time>
      </trkpt>
      <trkpt lat="44.50447" lon="3.91637">
        <ele>851.38</ele>
        <time>2012-06-16T09:19:15Z</time>
      </trkpt>
      <trkpt lat="44.5043" lon="3.91637">
        <ele>848.98</ele>
        <time>2012-06-16T09:19:18Z</time>
      </trkpt>
      <trkpt lat="44.50425" lon="3.91636">
        <ele>847.54</ele>
        <time>2012-06-16T09:19:19Z</time>
      </trkpt>
      <trkpt lat="44.50413" lon="3.91634">
        <ele>846.1</ele>
        <time>2012-06-16T09:19:21Z</time>
      </trkpt>
      <trkpt lat="44.504" lon="3.91631">
        <ele>844.18</ele>
        <time>2012-06-16T09:19:23Z</time>
      </trkpt>
      <trkpt lat="44.50387" lon="3.9163">
        <ele>840.81</ele>
        <time>2012-06-16T09:19:25Z</time>
      </trkpt>
      <trkpt lat="44.5038" lon="3.9163">
        <ele>840.33</ele>
        <time>2012-06-16T09:19:26Z</time>
      </trkpt>
      <trkpt lat="44.50374" lon="3.91631">
        <ele>838.89</ele>
        <time>2012-06-16T09:19:27Z</time>
      </trkpt>
      <trkpt lat="44.50368" lon="3.91632">
        <ele>838.41</ele>
        <time>2012-06-16T09:19:28Z</time>
      </trkpt>
      <trkpt lat="44.50356" lon="3.91637">
        <ele>836</ele>
        <time>2012-06-16T09:19:31Z</time>
      </trkpt>
      <trkpt lat="44.50353" lon="3.91639">
        <ele>835.04</ele>
        <time>2012-06-16T09:19:32Z</time>
      </trkpt>
      <trkpt lat="44.50348" lon="3.91639">
        <ele>834.08</ele>
        <time>2012-06-16T09:19:35Z</time>
      </trkpt>
      <trkpt lat="44.50346" lon="3.91638">
        <ele>834.08</ele>
        <time>2012-06-16T09:19:36Z</time>
      </trkpt>
      <trkpt lat="44.50344" lon="3.91636">
        <ele>834.08</ele>
        <time>2012-06-16T09:19:37Z</time>
      </trkpt>
      <trkpt lat="44.50343" lon="3.91633">
        <ele>834.08</ele>
        <time>2012-06-16T09:19:38Z</time>
      </trkpt>
      <trkpt lat="44.50343" lon="3.91631">
        <ele>834.08</ele>
        <time>2012-06-16T09:19:39Z</time>
      </trkpt>
      <trkpt lat="44.50342" lon="3.91629">
        <ele>834.08</ele>
        <time>2012-06-16T09:19:40Z</time>
      </trkpt>
      <trkpt lat="44.50341" lon="3.91627">
        <ele>834.56</ele>
        <time>2012-06-16T09:19:41Z</time>
      </trkpt>
      <trkpt lat="44.5034" lon="3.91624">
        <ele>834.08</ele>
        <time>2012-06-16T09:19:42Z</time>
      </trkpt>
      <trkpt lat="44.50338" lon="3.91587">
        <ele>834.56</ele>
        <time>2012-06-16T09:19:56Z</time>
      </trkpt>
      <trkpt lat="44.50347" lon="3.91547">
        <ele>834.08</ele>
        <time>2012-06-16T09:20:08Z</time>
      </trkpt>
      <trkpt lat="44.50364" lon="3.91515">
        <ele>833.6</ele>
        <time>2012-06-16T09:20:19Z</time>
      </trkpt>
      <trkpt lat="44.50385" lon="3.91495">
        <ele>833.12</ele>
        <time>2012-06-16T09:20:29Z</time>
      </trkpt>
      <trkpt lat="44.5041" lon="3.91471">
        <ele>833.12</ele>
        <time>2012-06-16T09:20:40Z</time>
      </trkpt>
      <trkpt lat="44.50436" lon="3.91437">
        <ele>834.56</ele>
        <time>2012-06-16T09:20:53Z</time>
      </trkpt>
      <trkpt lat="44.50462" lon="3.91396">
        <ele>833.6</ele>
        <time>2012-06-16T09:21:05Z</time>
      </trkpt>
      <trkpt lat="44.50494" lon="3.91395">
        <ele>834.56</ele>
        <time>2012-06-16T09:21:15Z</time>
      </trkpt>
      <trkpt lat="44.50497" lon="3.91399">
        <ele>834.56</ele>
        <time>2012-06-16T09:21:16Z</time>
      </trkpt>
      <trkpt lat="44.50514" lon="3.91426">
        <ele>837.45</ele>
        <time>2012-06-16T09:21:25Z</time>
      </trkpt>
      <trkpt lat="44.50516" lon="3.91426">
        <ele>837.45</ele>
        <time>2012-06-16T09:21:26Z</time>
      </trkpt>
      <trkpt lat="44.50518" lon="3.91425">
        <ele>836.96</ele>
        <time>2012-06-16T09:21:27Z</time>
      </trkpt>
      <trkpt lat="44.50557" lon="3.91394">
        <ele>836.48</ele>
        <time>2012-06-16T09:21:42Z</time>
      </trkpt>
      <trkpt lat="44.50597" lon="3.91365">
        <ele>836.96</ele>
        <time>2012-06-16T09:21:56Z</time>
      </trkpt>
      <trkpt lat="44.50625" lon="3.91346">
        <ele>839.85</ele>
        <time>2012-06-16T09:22:05Z</time>
      </trkpt>
      <trkpt lat="44.50629" lon="3.91344">
        <ele>840.33</ele>
        <time>2012-06-16T09:22:06Z</time>
      </trkpt>
      <trkpt lat="44.50633" lon="3.9134">
        <ele>840.33</ele>
        <time>2012-06-16T09:22:07Z</time>
      </trkpt>
      <trkpt lat="44.50636" lon="3.91336">
        <ele>840.81</ele>
        <time>2012-06-16T09:22:08Z</time>
      </trkpt>
      <trkpt lat="44.50644" lon="3.91327">
        <ele>841.29</ele>
        <time>2012-06-16T09:22:10Z</time>
      </trkpt>
      <trkpt lat="44.50647" lon="3.91322">
        <ele>841.77</ele>
        <time>2012-06-16T09:22:11Z</time>
      </trkpt>
      <trkpt lat="44.50649" lon="3.91316">
        <ele>842.25</ele>
        <time>2012-06-16T09:22:12Z</time>
      </trkpt>
      <trkpt lat="44.50652" lon="3.91311">
        <ele>843.21</ele>
        <time>2012-06-16T09:22:13Z</time>
      </trkpt>
      <trkpt lat="44.50654" lon="3.91305">
        <ele>843.21</ele>
        <time>2012-06-16T09:22:14Z</time>
      </trkpt>
      <trkpt lat="44.50658" lon="3.91282">
        <ele>844.18</ele>
        <time>2012-06-16T09:22:20Z</time>
      </trkpt>
      <trkpt lat="44.50647" lon="3.91275">
        <ele>844.66</ele>
        <time>2012-06-16T09:22:28Z</time>
      </trkpt>
      <trkpt lat="44.50646" lon="3.91277">
        <ele>844.66</ele>
        <time>2012-06-16T09:22:29Z</time>
      </trkpt>
      <trkpt lat="44.50644" lon="3.91278">
        <ele>844.18</ele>
        <time>2012-06-16T09:22:30Z</time>
      </trkpt>
      <trkpt lat="44.50604" lon="3.91299">
        <ele>844.18</ele>
        <time>2012-06-16T09:22:43Z</time>
      </trkpt>
      <trkpt lat="44.50549" lon="3.91282">
        <ele>842.73</ele>
        <time>2012-06-16T09:22:58Z</time>
      </trkpt>
      <trkpt lat="44.50546" lon="3.9128">
        <ele>842.73</ele>
        <time>2012-06-16T09:22:59Z</time>
      </trkpt>
      <trkpt lat="44.50483" lon="3.91253">
        <ele>840.81</ele>
        <time>2012-06-16T09:23:14Z</time>
      </trkpt>
      <trkpt lat="44.50457" lon="3.91247">
        <ele>840.33</ele>
        <time>2012-06-16T09:23:19Z</time>
      </trkpt>
      <trkpt lat="44.50391" lon="3.91275">
        <ele>838.89</ele>
        <time>2012-06-16T09:23:32Z</time>
      </trkpt>
      <trkpt lat="44.50333" lon="3.91315">
        <ele>838.89</ele>
        <time>2012-06-16T09:23:45Z</time>
      </trkpt>
      <trkpt lat="44.50307" lon="3.91335">
        <ele>840.81</ele>
        <time>2012-06-16T09:23:55Z</time>
      </trkpt>
      <trkpt lat="44.50296" lon="3.91331">
        <ele>844.18</ele>
        <time>2012-06-16T09:24:05Z</time>
      </trkpt>
      <trkpt lat="44.50297" lon="3.91331">
        <ele>843.69</ele>
        <time>2012-06-16T09:24:15Z</time>
      </trkpt>
      <trkpt lat="44.50298" lon="3.91332">
        <ele>843.21</ele>
        <time>2012-06-16T09:24:16Z</time>
      </trkpt>
      <trkpt lat="44.503" lon="3.91333">
        <ele>843.21</ele>
        <time>2012-06-16T09:24:17Z</time>
      </trkpt>
      <trkpt lat="44.50301" lon="3.91335">
        <ele>842.73</ele>
        <time>2012-06-16T09:24:18Z</time>
      </trkpt>
      <trkpt lat="44.50304" lon="3.91336">
        <ele>842.73</ele>
        <time>2012-06-16T09:24:19Z</time>
      </trkpt>
      <trkpt lat="44.50307" lon="3.91339">
        <ele>841.77</ele>
        <time>2012-06-16T09:24:20Z</time>
      </trkpt>
      <trkpt lat="44.50314" lon="3.91344">
        <ele>841.29</ele>
        <time>2012-06-16T09:24:22Z</time>
      </trkpt>
      <trkpt lat="44.50315" lon="3.91347">
        <ele>840.81</ele>
        <time>2012-06-16T09:24:23Z</time>
      </trkpt>
      <trkpt lat="44.50315" lon="3.91351">
        <ele>840.81</ele>
        <time>2012-06-16T09:24:24Z</time>
      </trkpt>
      <trkpt lat="44.50309" lon="3.91404">
        <ele>843.21</ele>
        <time>2012-06-16T09:24:35Z</time>
      </trkpt>
      <trkpt lat="44.50287" lon="3.91455">
        <ele>844.66</ele>
        <time>2012-06-16T09:24:49Z</time>
      </trkpt>
      <trkpt lat="44.50264" lon="3.91502">
        <ele>846.1</ele>
        <time>2012-06-16T09:25:04Z</time>
      </trkpt>
      <trkpt lat="44.5024" lon="3.91541">
        <ele>848.02</ele>
        <time>2012-06-16T09:25:19Z</time>
      </trkpt>
      <trkpt lat="44.50228" lon="3.91579">
        <ele>849.94</ele>
        <time>2012-06-16T09:25:31Z</time>
      </trkpt>
      <trkpt lat="44.50217" lon="3.91625">
        <ele>851.38</ele>
        <time>2012-06-16T09:25:46Z</time>
      </trkpt>
      <trkpt lat="44.50208" lon="3.9166">
        <ele>852.35</ele>
        <time>2012-06-16T09:25:59Z</time>
      </trkpt>
      <trkpt lat="44.50189" lon="3.91686">
        <ele>853.79</ele>
        <time>2012-06-16T09:26:13Z</time>
      </trkpt>
      <trkpt lat="44.50152" lon="3.91697">
        <ele>855.23</ele>
        <time>2012-06-16T09:26:28Z</time>
      </trkpt>
      <trkpt lat="44.50138" lon="3.917">
        <ele>856.19</ele>
        <time>2012-06-16T09:26:35Z</time>
      </trkpt>
      <trkpt lat="44.50112" lon="3.91701">
        <ele>859.56</ele>
        <time>2012-06-16T09:26:47Z</time>
      </trkpt>
      <trkpt lat="44.50083" lon="3.91711">
        <ele>860.52</ele>
        <time>2012-06-16T09:27:01Z</time>
      </trkpt>
      <trkpt lat="44.50075" lon="3.91721">
        <ele>861.96</ele>
        <time>2012-06-16T09:27:12Z</time>
      </trkpt>
      <trkpt lat="44.50075" lon="3.9172">
        <ele>861</ele>
        <time>2012-06-16T09:27:39Z</time>
      </trkpt>
      <trkpt lat="44.50076" lon="3.91721">
        <ele>861</ele>
        <time>2012-06-16T09:27:41Z</time>
      </trkpt>
      <trkpt lat="44.50076" lon="3.91724">
        <ele>861.48</ele>
        <time>2012-06-16T09:27:42Z</time>
      </trkpt>
      <trkpt lat="44.50078" lon="3.9175">
        <ele>861</ele>
        <time>2012-06-16T09:27:48Z</time>
      </trkpt>
      <trkpt lat="44.50081" lon="3.91782">
        <ele>860.04</ele>
        <time>2012-06-16T09:27:53Z</time>
      </trkpt>
      <trkpt lat="44.50083" lon="3.91788">
        <ele>859.56</ele>
        <time>2012-06-16T09:27:54Z</time>
      </trkpt>
      <trkpt lat="44.50085" lon="3.91794">
        <ele>859.56</ele>
        <time>2012-06-16T09:27:55Z</time>
      </trkpt>
      <trkpt lat="44.50088" lon="3.918">
        <ele>860.04</ele>
        <time>2012-06-16T09:27:56Z</time>
      </trkpt>
      <trkpt lat="44.50091" lon="3.91806">
        <ele>860.04</ele>
        <time>2012-06-16T09:27:57Z</time>
      </trkpt>
      <trkpt lat="44.50094" lon="3.91811">
        <ele>859.56</ele>
        <time>2012-06-16T09:27:58Z</time>
      </trkpt>
      <trkpt lat="44.50098" lon="3.91816">
        <ele>859.56</ele>
        <time>2012-06-16T09:27:59Z</time>
      </trkpt>
      <trkpt lat="44.50102" lon="3.91822">
        <ele>859.56</ele>
        <time>2012-06-16T09:28:00Z</time>
      </trkpt>
      <trkpt lat="44.50112" lon="3.9184">
        <ele>860.04</ele>
        <time>2012-06-16T09:28:03Z</time>
      </trkpt>
      <trkpt lat="44.50123" lon="3.91865">
        <ele>860.04</ele>
        <time>2012-06-16T09:28:07Z</time>
      </trkpt>
      <trkpt lat="44.50127" lon="3.9187">
        <ele>859.56</ele>
        <time>2012-06-16T09:28:08Z</time>
      </trkpt>
      <trkpt lat="44.50138" lon="3.91883">
        <ele>860.04</ele>
        <time>2012-06-16T09:28:11Z</time>
      </trkpt>
      <trkpt lat="44.50143" lon="3.91886">
        <ele>860.04</ele>
        <time>2012-06-16T09:28:12Z</time>
      </trkpt>
      <trkpt lat="44.50148" lon="3.91887">
        <ele>860.04</ele>
        <time>2012-06-16T09:28:13Z</time>
      </trkpt>
      <trkpt lat="44.50189" lon="3.91898">
        <ele>859.08</ele>
        <time>2012-06-16T09:28:21Z</time>
      </trkpt>
      <trkpt lat="44.50193" lon="3.91902">
        <ele>859.56</ele>
        <time>2012-06-16T09:28:22Z</time>
      </trkpt>
      <trkpt lat="44.50198" lon="3.91907">
        <ele>860.04</ele>
        <time>2012-06-16T09:28:23Z</time>
      </trkpt>
      <trkpt lat="44.50214" lon="3.91925">
        <ele>860.04</ele>
        <time>2012-06-16T09:28:27Z</time>
      </trkpt>
      <trkpt lat="44.50219" lon="3.91928">
        <ele>859.56</ele>
        <time>2012-06-16T09:28:28Z</time>
      </trkpt>
      <trkpt lat="44.50224" lon="3.91931">
        <ele>859.56</ele>
        <time>2012-06-16T09:28:29Z</time>
      </trkpt>
      <trkpt lat="44.50229" lon="3.91932">
        <ele>859.56</ele>
        <time>2012-06-16T09:28:30Z</time>
      </trkpt>
      <trkpt lat="44.50233" lon="3.91933">
        <ele>859.56</ele>
        <time>2012-06-16T09:28:31Z</time>
      </trkpt>
      <trkpt lat="44.50238" lon="3.91933">
        <ele>860.04</ele>
        <time>2012-06-16T09:28:32Z</time>
      </trkpt>
      <trkpt lat="44.50285" lon="3.91941">
        <ele>860.04</ele>
        <time>2012-06-16T09:28:44Z</time>
      </trkpt>
      <trkpt lat="44.50337" lon="3.91958">
        <ele>859.56</ele>
        <time>2012-06-16T09:28:58Z</time>
      </trkpt>
      <trkpt lat="44.50351" lon="3.9197">
        <ele>859.56</ele>
        <time>2012-06-16T09:29:02Z</time>
      </trkpt>
      <trkpt lat="44.50365" lon="3.9199">
        <ele>860.04</ele>
        <time>2012-06-16T09:29:07Z</time>
      </trkpt>
      <trkpt lat="44.50369" lon="3.91993">
        <ele>860.52</ele>
        <time>2012-06-16T09:29:08Z</time>
      </trkpt>
      <trkpt lat="44.50373" lon="3.91995">
        <ele>860.04</ele>
        <time>2012-06-16T09:29:09Z</time>
      </trkpt>
      <trkpt lat="44.50377" lon="3.91997">
        <ele>860.52</ele>
        <time>2012-06-16T09:29:10Z</time>
      </trkpt>
      <trkpt lat="44.50382" lon="3.91997">
        <ele>860.04</ele>
        <time>2012-06-16T09:29:11Z</time>
      </trkpt>
      <trkpt lat="44.50387" lon="3.91997">
        <ele>860.04</ele>
        <time>2012-06-16T09:29:12Z</time>
      </trkpt>
      <trkpt lat="44.50392" lon="3.91995">
        <ele>860.04</ele>
        <time>2012-06-16T09:29:13Z</time>
      </trkpt>
      <trkpt lat="44.50396" lon="3.91993">
        <ele>860.04</ele>
        <time>2012-06-16T09:29:14Z</time>
      </trkpt>
      <trkpt lat="44.50409" lon="3.9199">
        <ele>860.04</ele>
        <time>2012-06-16T09:29:17Z</time>
      </trkpt>
      <trkpt lat="44.50413" lon="3.9199">
        <ele>860.52</ele>
        <time>2012-06-16T09:29:18Z</time>
      </trkpt>
      <trkpt lat="44.50417" lon="3.9199">
        <ele>860.52</ele>
        <time>2012-06-16T09:29:19Z</time>
      </trkpt>
      <trkpt lat="44.50471" lon="3.92004">
        <ele>860.04</ele>
        <time>2012-06-16T09:29:33Z</time>
      </trkpt>
      <trkpt lat="44.50529" lon="3.92024">
        <ele>860.52</ele>
        <time>2012-06-16T09:29:48Z</time>
      </trkpt>
      <trkpt lat="44.50582" lon="3.92029">
        <ele>860.52</ele>
        <time>2012-06-16T09:30:01Z</time>
      </trkpt>
      <trkpt lat="44.50629" lon="3.92045">
        <ele>860.52</ele>
        <time>2012-06-16T09:30:13Z</time>
      </trkpt>
      <trkpt lat="44.50683" lon="3.92078">
        <ele>860.04</ele>
        <time>2012-06-16T09:30:28Z</time>
      </trkpt>
      <trkpt lat="44.50695" lon="3.92105">
        <ele>860.04</ele>
        <time>2012-06-16T09:30:34Z</time>
      </trkpt>
      <trkpt lat="44.50696" lon="3.9211">
        <ele>860.04</ele>
        <time>2012-06-16T09:30:35Z</time>
      </trkpt>
      <trkpt lat="44.50696" lon="3.92117">
        <ele>860.04</ele>
        <time>2012-06-16T09:30:36Z</time>
      </trkpt>
      <trkpt lat="44.50694" lon="3.92123">
        <ele>860.52</ele>
        <time>2012-06-16T09:30:37Z</time>
      </trkpt>
      <trkpt lat="44.50693" lon="3.92128">
        <ele>860.04</ele>
        <time>2012-06-16T09:30:38Z</time>
      </trkpt>
      <trkpt lat="44.5069" lon="3.92133">
        <ele>860.04</ele>
        <time>2012-06-16T09:30:39Z</time>
      </trkpt>
      <trkpt lat="44.50687" lon="3.92138">
        <ele>860.04</ele>
        <time>2012-06-16T09:30:40Z</time>
      </trkpt>
      <trkpt lat="44.50684" lon="3.92143">
        <ele>860.04</ele>
        <time>2012-06-16T09:30:41Z</time>
      </trkpt>
      <trkpt lat="44.50681" lon="3.92147">
        <ele>860.04</ele>
        <time>2012-06-16T09:30:42Z</time>
      </trkpt>
      <trkpt lat="44.50677" lon="3.9215">
        <ele>860.04</ele>
        <time>2012-06-16T09:30:43Z</time>
      </trkpt>
      <trkpt lat="44.50673" lon="3.92153">
        <ele>860.04</ele>
        <time>2012-06-16T09:30:44Z</time>
      </trkpt>
      <trkpt lat="44.5067" lon="3.92156">
        <ele>860.04</ele>
        <time>2012-06-16T09:30:45Z</time>
      </trkpt>
      <trkpt lat="44.50631" lon="3.92186">
        <ele>859.08</ele>
        <time>2012-06-16T09:30:58Z</time>
      </trkpt>
      <trkpt lat="44.50596" lon="3.92215">
        <ele>860.04</ele>
        <time>2012-06-16T09:31:09Z</time>
      </trkpt>
      <trkpt lat="44.50555" lon="3.9225">
        <ele>860.04</ele>
        <time>2012-06-16T09:31:22Z</time>
      </trkpt>
      <trkpt lat="44.50549" lon="3.92257">
        <ele>860.04</ele>
        <time>2012-06-16T09:31:24Z</time>
      </trkpt>
      <trkpt lat="44.50547" lon="3.92262">
        <ele>860.52</ele>
        <time>2012-06-16T09:31:25Z</time>
      </trkpt>
      <trkpt lat="44.50545" lon="3.92268">
        <ele>860.52</ele>
        <time>2012-06-16T09:31:26Z</time>
      </trkpt>
      <trkpt lat="44.50545" lon="3.92274">
        <ele>860.52</ele>
        <time>2012-06-16T09:31:27Z</time>
      </trkpt>
      <trkpt lat="44.50545" lon="3.92279">
        <ele>860.04</ele>
        <time>2012-06-16T09:31:28Z</time>
      </trkpt>
      <trkpt lat="44.50545" lon="3.92285">
        <ele>860.04</ele>
        <time>2012-06-16T09:31:29Z</time>
      </trkpt>
      <trkpt lat="44.50546" lon="3.9229">
        <ele>860.04</ele>
        <time>2012-06-16T09:31:30Z</time>
      </trkpt>
      <trkpt lat="44.5055" lon="3.92347">
        <ele>860.04</ele>
        <time>2012-06-16T09:31:43Z</time>
      </trkpt>
      <trkpt lat="44.50546" lon="3.924">
        <ele>860.04</ele>
        <time>2012-06-16T09:31:56Z</time>
      </trkpt>
      <trkpt lat="44.50538" lon="3.92457">
        <ele>860.52</ele>
        <time>2012-06-16T09:32:08Z</time>
      </trkpt>
      <trkpt lat="44.5052" lon="3.92519">
        <ele>860.52</ele>
        <time>2012-06-16T09:32:21Z</time>
      </trkpt>
      <trkpt lat="44.50511" lon="3.92539">
        <ele>860.04</ele>
        <time>2012-06-16T09:32:28Z</time>
      </trkpt>
      <trkpt lat="44.50511" lon="3.9254">
        <ele>860.04</ele>
        <time>2012-06-16T09:32:29Z</time>
      </trkpt>
      <trkpt lat="44.50512" lon="3.92543">
        <ele>860.04</ele>
        <time>2012-06-16T09:32:31Z</time>
      </trkpt>
      <trkpt lat="44.50513" lon="3.92546">
        <ele>860.04</ele>
        <time>2012-06-16T09:32:33Z</time>
      </trkpt>
      <trkpt lat="44.50513" lon="3.92548">
        <ele>860.04</ele>
        <time>2012-06-16T09:32:34Z</time>
      </trkpt>
      <trkpt lat="44.50511" lon="3.9255">
        <ele>859.56</ele>
        <time>2012-06-16T09:32:47Z</time>
      </trkpt>
      <trkpt lat="44.50511" lon="3.9255">
        <ele>859.56</ele>
        <time>2012-06-16T09:33:14Z</time>
      </trkpt>
      <trkpt lat="44.50505" lon="3.92563">
        <ele>860.04</ele>
        <time>2012-06-16T09:33:21Z</time>
      </trkpt>
      <trkpt lat="44.505" lon="3.92574">
        <ele>860.52</ele>
        <time>2012-06-16T09:33:23Z</time>
      </trkpt>
      <trkpt lat="44.50477" lon="3.92629">
        <ele>860.52</ele>
        <time>2012-06-16T09:33:35Z</time>
      </trkpt>
      <trkpt lat="44.50436" lon="3.92672">
        <ele>859.56</ele>
        <time>2012-06-16T09:33:50Z</time>
      </trkpt>
      <trkpt lat="44.5038" lon="3.92721">
        <ele>860.04</ele>
        <time>2012-06-16T09:34:09Z</time>
      </trkpt>
      <trkpt lat="44.50338" lon="3.92745">
        <ele>860.04</ele>
        <time>2012-06-16T09:34:23Z</time>
      </trkpt>
      <trkpt lat="44.503" lon="3.92727">
        <ele>860.04</ele>
        <time>2012-06-16T09:34:36Z</time>
      </trkpt>
      <trkpt lat="44.50266" lon="3.92684">
        <ele>859.08</ele>
        <time>2012-06-16T09:34:50Z</time>
      </trkpt>
      <trkpt lat="44.50237" lon="3.92642">
        <ele>860.04</ele>
        <time>2012-06-16T09:35:03Z</time>
      </trkpt>
      <trkpt lat="44.50211" lon="3.92606">
        <ele>859.56</ele>
        <time>2012-06-16T09:35:16Z</time>
      </trkpt>
      <trkpt lat="44.50186" lon="3.92573">
        <ele>859.08</ele>
        <time>2012-06-16T09:35:25Z</time>
      </trkpt>
      <trkpt lat="44.50155" lon="3.92538">
        <ele>859.08</ele>
        <time>2012-06-16T09:35:34Z</time>
      </trkpt>
      <trkpt lat="44.50151" lon="3.92536">
        <ele>859.56</ele>
        <time>2012-06-16T09:35:35Z</time>
      </trkpt>
      <trkpt lat="44.50147" lon="3.92535">
        <ele>859.56</ele>
        <time>2012-06-16T09:35:36Z</time>
      </trkpt>
      <trkpt lat="44.50142" lon="3.92534">
        <ele>859.56</ele>
        <time>2012-06-16T09:35:37Z</time>
      </trkpt>
      <trkpt lat="44.50138" lon="3.92535">
        <ele>859.56</ele>
        <time>2012-06-16T09:35:38Z</time>
      </trkpt>
      <trkpt lat="44.50134" lon="3.92536">
        <ele>859.56</ele>
        <time>2012-06-16T09:35:39Z</time>
      </trkpt>
      <trkpt lat="44.5013" lon="3.92538">
        <ele>859.56</ele>
        <time>2012-06-16T09:35:40Z</time>
      </trkpt>
      <trkpt lat="44.50126" lon="3.92541">
        <ele>859.56</ele>
        <time>2012-06-16T09:35:41Z</time>
      </trkpt>
      <trkpt lat="44.50123" lon="3.92544">
        <ele>860.04</ele>
        <time>2012-06-16T09:35:42Z</time>
      </trkpt>
      <trkpt lat="44.5012" lon="3.92547">
        <ele>859.56</ele>
        <time>2012-06-16T09:35:43Z</time>
      </trkpt>
      <trkpt lat="44.50118" lon="3.92552">
        <ele>859.56</ele>
        <time>2012-06-16T09:35:44Z</time>
      </trkpt>
      <trkpt lat="44.50116" lon="3.92556">
        <ele>859.56</ele>
        <time>2012-06-16T09:35:45Z</time>
      </trkpt>
      <trkpt lat="44.50114" lon="3.9256">
        <ele>860.52</ele>
        <time>2012-06-16T09:35:46Z</time>
      </trkpt>
      <trkpt lat="44.50113" lon="3.92565">
        <ele>860.04</ele>
        <time>2012-06-16T09:35:47Z</time>
      </trkpt>
      <trkpt lat="44.50112" lon="3.9257">
        <ele>860.04</ele>
        <time>2012-06-16T09:35:48Z</time>
      </trkpt>
      <trkpt lat="44.50112" lon="3.92576">
        <ele>860.04</ele>
        <time>2012-06-16T09:35:49Z</time>
      </trkpt>
      <trkpt lat="44.50112" lon="3.92581">
        <ele>860.04</ele>
        <time>2012-06-16T09:35:50Z</time>
      </trkpt>
      <trkpt lat="44.50113" lon="3.92588">
        <ele>860.04</ele>
        <time>2012-06-16T09:35:51Z</time>
      </trkpt>
      <trkpt lat="44.5012" lon="3.9261">
        <ele>860.04</ele>
        <time>2012-06-16T09:35:55Z</time>
      </trkpt>
      <trkpt lat="44.50128" lon="3.92625">
        <ele>860.04</ele>
        <time>2012-06-16T09:35:58Z</time>
      </trkpt>
      <trkpt lat="44.50134" lon="3.92636">
        <ele>860.04</ele>
        <time>2012-06-16T09:36:00Z</time>
      </trkpt>
      <trkpt lat="44.50139" lon="3.92645">
        <ele>860.04</ele>
        <time>2012-06-16T09:36:02Z</time>
      </trkpt>
      <trkpt lat="44.50142" lon="3.9265">
        <ele>860.04</ele>
        <time>2012-06-16T09:36:03Z</time>
      </trkpt>
      <trkpt lat="44.50145" lon="3.92654">
        <ele>859.56</ele>
        <time>2012-06-16T09:36:04Z</time>
      </trkpt>
      <trkpt lat="44.50147" lon="3.92659">
        <ele>859.56</ele>
        <time>2012-06-16T09:36:05Z</time>
      </trkpt>
      <trkpt lat="44.50149" lon="3.92664">
        <ele>859.56</ele>
        <time>2012-06-16T09:36:06Z</time>
      </trkpt>
      <trkpt lat="44.50151" lon="3.92669">
        <ele>860.04</ele>
        <time>2012-06-16T09:36:07Z</time>
      </trkpt>
      <trkpt lat="44.50152" lon="3.92674">
        <ele>859.56</ele>
        <time>2012-06-16T09:36:08Z</time>
      </trkpt>
      <trkpt lat="44.50154" lon="3.92679">
        <ele>859.56</ele>
        <time>2012-06-16T09:36:09Z</time>
      </trkpt>
      <trkpt lat="44.50162" lon="3.92732">
        <ele>859.56</ele>
        <time>2012-06-16T09:36:21Z</time>
      </trkpt>
      <trkpt lat="44.5017" lon="3.92778">
        <ele>859.08</ele>
        <time>2012-06-16T09:36:32Z</time>
      </trkpt>
      <trkpt lat="44.50185" lon="3.92831">
        <ele>859.56</ele>
        <time>2012-06-16T09:36:40Z</time>
      </trkpt>
      <trkpt lat="44.50185" lon="3.92838">
        <ele>859.56</ele>
        <time>2012-06-16T09:36:41Z</time>
      </trkpt>
      <trkpt lat="44.50185" lon="3.92863">
        <ele>859.56</ele>
        <time>2012-06-16T09:36:45Z</time>
      </trkpt>
      <trkpt lat="44.50183" lon="3.92869">
        <ele>859.56</ele>
        <time>2012-06-16T09:36:46Z</time>
      </trkpt>
      <trkpt lat="44.50181" lon="3.92881">
        <ele>860.04</ele>
        <time>2012-06-16T09:36:48Z</time>
      </trkpt>
      <trkpt lat="44.50174" lon="3.92901">
        <ele>860.04</ele>
        <time>2012-06-16T09:36:52Z</time>
      </trkpt>
      <trkpt lat="44.50152" lon="3.92945">
        <ele>859.56</ele>
        <time>2012-06-16T09:37:01Z</time>
      </trkpt>
      <trkpt lat="44.50135" lon="3.92987">
        <ele>859.56</ele>
        <time>2012-06-16T09:37:09Z</time>
      </trkpt>
      <trkpt lat="44.50123" lon="3.93005">
        <ele>859.56</ele>
        <time>2012-06-16T09:37:13Z</time>
      </trkpt>
      <trkpt lat="44.50118" lon="3.93008">
        <ele>860.04</ele>
        <time>2012-06-16T09:37:14Z</time>
      </trkpt>
      <trkpt lat="44.50114" lon="3.93011">
        <ele>859.56</ele>
        <time>2012-06-16T09:37:15Z</time>
      </trkpt>
      <trkpt lat="44.5011" lon="3.93014">
        <ele>859.56</ele>
        <time>2012-06-16T09:37:16Z</time>
      </trkpt>
      <trkpt lat="44.50105" lon="3.93015">
        <ele>859.56</ele>
        <time>2012-06-16T09:37:17Z</time>
      </trkpt>
      <trkpt lat="44.50101" lon="3.93016">
        <ele>859.56</ele>
        <time>2012-06-16T09:37:18Z</time>
      </trkpt>
      <trkpt lat="44.50088" lon="3.93018">
        <ele>859.08</ele>
        <time>2012-06-16T09:37:21Z</time>
      </trkpt>
      <trkpt lat="44.50084" lon="3.9302">
        <ele>859.08</ele>
        <time>2012-06-16T09:37:22Z</time>
      </trkpt>
      <trkpt lat="44.5008" lon="3.93022">
        <ele>859.08</ele>
        <time>2012-06-16T09:37:23Z</time>
      </trkpt>
      <trkpt lat="44.50068" lon="3.93031">
        <ele>859.08</ele>
        <time>2012-06-16T09:37:26Z</time>
      </trkpt>
      <trkpt lat="44.50035" lon="3.93055">
        <ele>859.56</ele>
        <time>2012-06-16T09:37:35Z</time>
      </trkpt>
      <trkpt lat="44.50031" lon="3.93058">
        <ele>861</ele>
        <time>2012-06-16T09:37:36Z</time>
      </trkpt>
      <trkpt lat="44.50021" lon="3.93064">
        <ele>861.96</ele>
        <time>2012-06-16T09:37:38Z</time>
      </trkpt>
      <trkpt lat="44.49981" lon="3.93082">
        <ele>865.32</ele>
        <time>2012-06-16T09:37:47Z</time>
      </trkpt>
      <trkpt lat="44.49953" lon="3.93086">
        <ele>867.73</ele>
        <time>2012-06-16T09:37:58Z</time>
      </trkpt>
      <trkpt lat="44.49918" lon="3.93091">
        <ele>871.09</ele>
        <time>2012-06-16T09:38:10Z</time>
      </trkpt>
      <trkpt lat="44.49897" lon="3.9309">
        <ele>873.01</ele>
        <time>2012-06-16T09:38:20Z</time>
      </trkpt>
      <trkpt lat="44.49886" lon="3.93089">
        <ele>873.98</ele>
        <time>2012-06-16T09:38:30Z</time>
      </trkpt>
      <trkpt lat="44.49887" lon="3.93088">
        <ele>873.5</ele>
        <time>2012-06-16T09:39:03Z</time>
      </trkpt>
      <trkpt lat="44.49887" lon="3.93088">
        <ele>873.98</ele>
        <time>2012-06-16T09:39:30Z</time>
      </trkpt>
      <trkpt lat="44.49887" lon="3.93089">
        <ele>873.98</ele>
        <time>2012-06-16T09:39:35Z</time>
      </trkpt>
      <trkpt lat="44.49879" lon="3.93083">
        <ele>874.94</ele>
        <time>2012-06-16T09:39:40Z</time>
      </trkpt>
      <trkpt lat="44.49878" lon="3.93081">
        <ele>874.94</ele>
        <time>2012-06-16T09:39:41Z</time>
      </trkpt>
      <trkpt lat="44.49878" lon="3.9308">
        <ele>874.94</ele>
        <time>2012-06-16T09:39:42Z</time>
      </trkpt>
      <trkpt lat="44.49877" lon="3.93078">
        <ele>875.42</ele>
        <time>2012-06-16T09:39:43Z</time>
      </trkpt>
      <trkpt lat="44.49876" lon="3.93076">
        <ele>875.9</ele>
        <time>2012-06-16T09:39:44Z</time>
      </trkpt>
      <trkpt lat="44.49875" lon="3.93075">
        <ele>875.42</ele>
        <time>2012-06-16T09:39:45Z</time>
      </trkpt>
      <trkpt lat="44.49874" lon="3.93074">
        <ele>875.9</ele>
        <time>2012-06-16T09:39:46Z</time>
      </trkpt>
      <trkpt lat="44.49873" lon="3.93072">
        <ele>875.9</ele>
        <time>2012-06-16T09:39:47Z</time>
      </trkpt>
      <trkpt lat="44.49872" lon="3.9307">
        <ele>875.42</ele>
        <time>2012-06-16T09:39:48Z</time>
      </trkpt>
      <trkpt lat="44.49865" lon="3.93066">
        <ele>874.94</ele>
        <time>2012-06-16T09:40:00Z</time>
      </trkpt>
      <trkpt lat="44.49862" lon="3.93066">
        <ele>875.42</ele>
        <time>2012-06-16T09:40:19Z</time>
      </trkpt>
      <trkpt lat="44.49862" lon="3.93068">
        <ele>874.94</ele>
        <time>2012-06-16T09:40:32Z</time>
      </trkpt>
      <trkpt lat="44.49864" lon="3.93069">
        <ele>875.42</ele>
        <time>2012-06-16T09:40:45Z</time>
      </trkpt>
      <trkpt lat="44.49863" lon="3.93067">
        <ele>875.42</ele>
        <time>2012-06-16T09:40:58Z</time>
      </trkpt>
      <trkpt lat="44.49864" lon="3.93067">
        <ele>874.94</ele>
        <time>2012-06-16T09:41:14Z</time>
      </trkpt>
      <trkpt lat="44.49864" lon="3.93068">
        <ele>874.94</ele>
        <time>2012-06-16T09:41:36Z</time>
      </trkpt>
      <trkpt lat="44.49864" lon="3.93068">
        <ele>874.46</ele>
        <time>2012-06-16T09:41:58Z</time>
      </trkpt>
      <trkpt lat="44.49858" lon="3.93058">
        <ele>873.98</ele>
        <time>2012-06-16T09:42:10Z</time>
      </trkpt>
      <trkpt lat="44.4984" lon="3.9303">
        <ele>872.05</ele>
        <time>2012-06-16T09:42:15Z</time>
      </trkpt>
      <trkpt lat="44.4983" lon="3.93013">
        <ele>872.05</ele>
        <time>2012-06-16T09:42:18Z</time>
      </trkpt>
      <trkpt lat="44.49826" lon="3.93009">
        <ele>872.05</ele>
        <time>2012-06-16T09:42:19Z</time>
      </trkpt>
      <trkpt lat="44.49795" lon="3.92992">
        <ele>874.46</ele>
        <time>2012-06-16T09:42:31Z</time>
      </trkpt>
      <trkpt lat="44.4977" lon="3.92984">
        <ele>876.86</ele>
        <time>2012-06-16T09:42:41Z</time>
      </trkpt>
      <trkpt lat="44.4974" lon="3.92962">
        <ele>878.3</ele>
        <time>2012-06-16T09:42:54Z</time>
      </trkpt>
      <trkpt lat="44.49708" lon="3.92958">
        <ele>879.74</ele>
        <time>2012-06-16T09:43:07Z</time>
      </trkpt>
      <trkpt lat="44.49696" lon="3.92967">
        <ele>881.19</ele>
        <time>2012-06-16T09:43:14Z</time>
      </trkpt>
      <trkpt lat="44.49697" lon="3.93004">
        <ele>881.67</ele>
        <time>2012-06-16T09:43:25Z</time>
      </trkpt>
      <trkpt lat="44.49697" lon="3.93023">
        <ele>881.19</ele>
        <time>2012-06-16T09:43:29Z</time>
      </trkpt>
      <trkpt lat="44.49696" lon="3.93029">
        <ele>880.71</ele>
        <time>2012-06-16T09:43:30Z</time>
      </trkpt>
      <trkpt lat="44.49694" lon="3.93036">
        <ele>879.74</ele>
        <time>2012-06-16T09:43:31Z</time>
      </trkpt>
      <trkpt lat="44.49692" lon="3.93044">
        <ele>879.74</ele>
        <time>2012-06-16T09:43:32Z</time>
      </trkpt>
      <trkpt lat="44.49689" lon="3.93051">
        <ele>879.74</ele>
        <time>2012-06-16T09:43:33Z</time>
      </trkpt>
      <trkpt lat="44.49684" lon="3.93059">
        <ele>878.78</ele>
        <time>2012-06-16T09:43:34Z</time>
      </trkpt>
      <trkpt lat="44.49676" lon="3.93075">
        <ele>876.38</ele>
        <time>2012-06-16T09:43:36Z</time>
      </trkpt>
      <trkpt lat="44.49671" lon="3.93081">
        <ele>875.42</ele>
        <time>2012-06-16T09:43:37Z</time>
      </trkpt>
      <trkpt lat="44.4966" lon="3.93093">
        <ele>873.01</ele>
        <time>2012-06-16T09:43:39Z</time>
      </trkpt>
      <trkpt lat="44.49654" lon="3.93098">
        <ele>871.57</ele>
        <time>2012-06-16T09:43:40Z</time>
      </trkpt>
      <trkpt lat="44.49647" lon="3.93101">
        <ele>871.09</ele>
        <time>2012-06-16T09:43:41Z</time>
      </trkpt>
      <trkpt lat="44.49627" lon="3.93109">
        <ele>867.73</ele>
        <time>2012-06-16T09:43:44Z</time>
      </trkpt>
      <trkpt lat="44.49596" lon="3.9311">
        <ele>864.36</ele>
        <time>2012-06-16T09:43:48Z</time>
      </trkpt>
      <trkpt lat="44.49588" lon="3.93108">
        <ele>864.36</ele>
        <time>2012-06-16T09:43:49Z</time>
      </trkpt>
      <trkpt lat="44.49574" lon="3.93106">
        <ele>863.4</ele>
        <time>2012-06-16T09:43:51Z</time>
      </trkpt>
      <trkpt lat="44.49568" lon="3.93108">
        <ele>863.4</ele>
        <time>2012-06-16T09:43:52Z</time>
      </trkpt>
      <trkpt lat="44.49563" lon="3.9311">
        <ele>861.96</ele>
        <time>2012-06-16T09:43:53Z</time>
      </trkpt>
      <trkpt lat="44.4956" lon="3.93112">
        <ele>862.44</ele>
        <time>2012-06-16T09:43:54Z</time>
      </trkpt>
      <trkpt lat="44.49558" lon="3.93114">
        <ele>861.96</ele>
        <time>2012-06-16T09:43:55Z</time>
      </trkpt>
      <trkpt lat="44.49555" lon="3.93117">
        <ele>861.48</ele>
        <time>2012-06-16T09:43:58Z</time>
      </trkpt>
      <trkpt lat="44.4955" lon="3.93119">
        <ele>861.96</ele>
        <time>2012-06-16T09:44:06Z</time>
      </trkpt>
      <trkpt lat="44.49548" lon="3.93121">
        <ele>862.92</ele>
        <time>2012-06-16T09:44:13Z</time>
      </trkpt>
      <trkpt lat="44.49544" lon="3.93124">
        <ele>862.44</ele>
        <time>2012-06-16T09:44:28Z</time>
      </trkpt>
      <trkpt lat="44.49544" lon="3.93123">
        <ele>861.96</ele>
        <time>2012-06-16T09:44:36Z</time>
      </trkpt>
      <trkpt lat="44.49543" lon="3.93124">
        <ele>862.44</ele>
        <time>2012-06-16T09:44:37Z</time>
      </trkpt>
      <trkpt lat="44.49542" lon="3.93125">
        <ele>862.92</ele>
        <time>2012-06-16T09:44:38Z</time>
      </trkpt>
      <trkpt lat="44.4954" lon="3.93127">
        <ele>862.92</ele>
        <time>2012-06-16T09:44:39Z</time>
      </trkpt>
      <trkpt lat="44.49539" lon="3.93128">
        <ele>862.92</ele>
        <time>2012-06-16T09:44:40Z</time>
      </trkpt>
      <trkpt lat="44.49537" lon="3.93129">
        <ele>862.92</ele>
        <time>2012-06-16T09:44:41Z</time>
      </trkpt>
      <trkpt lat="44.49536" lon="3.93129">
        <ele>863.4</ele>
        <time>2012-06-16T09:44:42Z</time>
      </trkpt>
      <trkpt lat="44.49522" lon="3.93135">
        <ele>864.36</ele>
        <time>2012-06-16T09:44:54Z</time>
      </trkpt>
      <trkpt lat="44.49513" lon="3.93137">
        <ele>865.32</ele>
        <time>2012-06-16T09:45:06Z</time>
      </trkpt>
      <trkpt lat="44.49512" lon="3.93138">
        <ele>865.8</ele>
        <time>2012-06-16T09:45:08Z</time>
      </trkpt>
      <trkpt lat="44.49511" lon="3.93139">
        <ele>865.8</ele>
        <time>2012-06-16T09:45:09Z</time>
      </trkpt>
      <trkpt lat="44.49509" lon="3.9314">
        <ele>866.77</ele>
        <time>2012-06-16T09:45:16Z</time>
      </trkpt>
      <trkpt lat="44.49503" lon="3.93143">
        <ele>867.25</ele>
        <time>2012-06-16T09:45:26Z</time>
      </trkpt>
      <trkpt lat="44.49501" lon="3.93144">
        <ele>867.73</ele>
        <time>2012-06-16T09:45:27Z</time>
      </trkpt>
      <trkpt lat="44.49498" lon="3.93145">
        <ele>868.21</ele>
        <time>2012-06-16T09:45:28Z</time>
      </trkpt>
      <trkpt lat="44.49496" lon="3.93145">
        <ele>868.21</ele>
        <time>2012-06-16T09:45:29Z</time>
      </trkpt>
      <trkpt lat="44.49494" lon="3.93145">
        <ele>867.73</ele>
        <time>2012-06-16T09:45:30Z</time>
      </trkpt>
      <trkpt lat="44.49492" lon="3.93145">
        <ele>868.69</ele>
        <time>2012-06-16T09:45:31Z</time>
      </trkpt>
      <trkpt lat="44.4949" lon="3.93145">
        <ele>868.69</ele>
        <time>2012-06-16T09:45:32Z</time>
      </trkpt>
      <trkpt lat="44.49488" lon="3.93145">
        <ele>868.69</ele>
        <time>2012-06-16T09:45:33Z</time>
      </trkpt>
      <trkpt lat="44.49482" lon="3.93145">
        <ele>870.13</ele>
        <time>2012-06-16T09:45:42Z</time>
      </trkpt>
      <trkpt lat="44.49475" lon="3.93148">
        <ele>871.09</ele>
        <time>2012-06-16T09:45:51Z</time>
      </trkpt>
      <trkpt lat="44.49471" lon="3.93149">
        <ele>872.05</ele>
        <time>2012-06-16T09:46:02Z</time>
      </trkpt>
      <trkpt lat="44.49457" lon="3.93144">
        <ele>873.98</ele>
        <time>2012-06-16T09:46:12Z</time>
      </trkpt>
      <trkpt lat="44.49453" lon="3.93141">
        <ele>873.98</ele>
        <time>2012-06-16T09:46:15Z</time>
      </trkpt>
      <trkpt lat="44.49451" lon="3.93141">
        <ele>874.46</ele>
        <time>2012-06-16T09:46:16Z</time>
      </trkpt>
      <trkpt lat="44.49448" lon="3.93139">
        <ele>874.94</ele>
        <time>2012-06-16T09:46:17Z</time>
      </trkpt>
      <trkpt lat="44.49446" lon="3.93139">
        <ele>874.94</ele>
        <time>2012-06-16T09:46:18Z</time>
      </trkpt>
      <trkpt lat="44.49444" lon="3.93139">
        <ele>874.94</ele>
        <time>2012-06-16T09:46:19Z</time>
      </trkpt>
      <trkpt lat="44.49428" lon="3.93134">
        <ele>876.86</ele>
        <time>2012-06-16T09:46:29Z</time>
      </trkpt>
      <trkpt lat="44.49421" lon="3.93132">
        <ele>877.82</ele>
        <time>2012-06-16T09:46:33Z</time>
      </trkpt>
      <trkpt lat="44.49419" lon="3.93132">
        <ele>877.82</ele>
        <time>2012-06-16T09:46:34Z</time>
      </trkpt>
      <trkpt lat="44.4941" lon="3.9313">
        <ele>879.74</ele>
        <time>2012-06-16T09:46:40Z</time>
      </trkpt>
      <trkpt lat="44.49409" lon="3.93128">
        <ele>879.26</ele>
        <time>2012-06-16T09:46:41Z</time>
      </trkpt>
      <trkpt lat="44.49408" lon="3.93127">
        <ele>880.22</ele>
        <time>2012-06-16T09:46:42Z</time>
      </trkpt>
      <trkpt lat="44.49406" lon="3.93126">
        <ele>880.22</ele>
        <time>2012-06-16T09:46:43Z</time>
      </trkpt>
      <trkpt lat="44.49405" lon="3.93125">
        <ele>880.22</ele>
        <time>2012-06-16T09:46:44Z</time>
      </trkpt>
      <trkpt lat="44.49401" lon="3.93121">
        <ele>881.19</ele>
        <time>2012-06-16T09:46:47Z</time>
      </trkpt>
      <trkpt lat="44.494" lon="3.93121">
        <ele>880.71</ele>
        <time>2012-06-16T09:46:48Z</time>
      </trkpt>
      <trkpt lat="44.49398" lon="3.93122">
        <ele>881.19</ele>
        <time>2012-06-16T09:46:49Z</time>
      </trkpt>
      <trkpt lat="44.49396" lon="3.93121">
        <ele>881.19</ele>
        <time>2012-06-16T09:46:50Z</time>
      </trkpt>
      <trkpt lat="44.49394" lon="3.93121">
        <ele>881.67</ele>
        <time>2012-06-16T09:46:51Z</time>
      </trkpt>
      <trkpt lat="44.49393" lon="3.93121">
        <ele>881.67</ele>
        <time>2012-06-16T09:46:52Z</time>
      </trkpt>
      <trkpt lat="44.49391" lon="3.93121">
        <ele>882.15</ele>
        <time>2012-06-16T09:46:53Z</time>
      </trkpt>
      <trkpt lat="44.4939" lon="3.93122">
        <ele>882.15</ele>
        <time>2012-06-16T09:46:54Z</time>
      </trkpt>
      <trkpt lat="44.49388" lon="3.93121">
        <ele>881.67</ele>
        <time>2012-06-16T09:46:55Z</time>
      </trkpt>
      <trkpt lat="44.49386" lon="3.93121">
        <ele>882.15</ele>
        <time>2012-06-16T09:46:56Z</time>
      </trkpt>
      <trkpt lat="44.49384" lon="3.93122">
        <ele>882.15</ele>
        <time>2012-06-16T09:46:57Z</time>
      </trkpt>
      <trkpt lat="44.49383" lon="3.93121">
        <ele>882.15</ele>
        <time>2012-06-16T09:46:58Z</time>
      </trkpt>
      <trkpt lat="44.49381" lon="3.9312">
        <ele>882.63</ele>
        <time>2012-06-16T09:46:59Z</time>
      </trkpt>
      <trkpt lat="44.49377" lon="3.9312">
        <ele>883.11</ele>
        <time>2012-06-16T09:47:08Z</time>
      </trkpt>
      <trkpt lat="44.49375" lon="3.93119">
        <ele>883.59</ele>
        <time>2012-06-16T09:47:20Z</time>
      </trkpt>
      <trkpt lat="44.49371" lon="3.93119">
        <ele>884.55</ele>
        <time>2012-06-16T09:47:23Z</time>
      </trkpt>
      <trkpt lat="44.4937" lon="3.9312">
        <ele>884.55</ele>
        <time>2012-06-16T09:47:24Z</time>
      </trkpt>
      <trkpt lat="44.49368" lon="3.93121">
        <ele>885.51</ele>
        <time>2012-06-16T09:47:25Z</time>
      </trkpt>
      <trkpt lat="44.49367" lon="3.9312">
        <ele>885.51</ele>
        <time>2012-06-16T09:47:26Z</time>
      </trkpt>
      <trkpt lat="44.49365" lon="3.93121">
        <ele>885.51</ele>
        <time>2012-06-16T09:47:27Z</time>
      </trkpt>
      <trkpt lat="44.49363" lon="3.93121">
        <ele>885.99</ele>
        <time>2012-06-16T09:47:28Z</time>
      </trkpt>
      <trkpt lat="44.49361" lon="3.93121">
        <ele>886.47</ele>
        <time>2012-06-16T09:47:29Z</time>
      </trkpt>
      <trkpt lat="44.49343" lon="3.93116">
        <ele>887.91</ele>
        <time>2012-06-16T09:47:40Z</time>
      </trkpt>
      <trkpt lat="44.49341" lon="3.93116">
        <ele>887.91</ele>
        <time>2012-06-16T09:47:41Z</time>
      </trkpt>
      <trkpt lat="44.4934" lon="3.93115">
        <ele>888.4</ele>
        <time>2012-06-16T09:47:42Z</time>
      </trkpt>
      <trkpt lat="44.49338" lon="3.93114">
        <ele>888.4</ele>
        <time>2012-06-16T09:47:43Z</time>
      </trkpt>
      <trkpt lat="44.49337" lon="3.93113">
        <ele>888.88</ele>
        <time>2012-06-16T09:47:44Z</time>
      </trkpt>
      <trkpt lat="44.49335" lon="3.93111">
        <ele>888.88</ele>
        <time>2012-06-16T09:47:45Z</time>
      </trkpt>
      <trkpt lat="44.49334" lon="3.9311">
        <ele>888.88</ele>
        <time>2012-06-16T09:47:46Z</time>
      </trkpt>
      <trkpt lat="44.49332" lon="3.9311">
        <ele>889.36</ele>
        <time>2012-06-16T09:47:47Z</time>
      </trkpt>
      <trkpt lat="44.49329" lon="3.93108">
        <ele>889.36</ele>
        <time>2012-06-16T09:47:49Z</time>
      </trkpt>
      <trkpt lat="44.49328" lon="3.93106">
        <ele>889.36</ele>
        <time>2012-06-16T09:47:51Z</time>
      </trkpt>
      <trkpt lat="44.49328" lon="3.93105">
        <ele>889.84</ele>
        <time>2012-06-16T09:47:52Z</time>
      </trkpt>
      <trkpt lat="44.49321" lon="3.93093">
        <ele>890.32</ele>
        <time>2012-06-16T09:47:59Z</time>
      </trkpt>
      <trkpt lat="44.4932" lon="3.93093">
        <ele>890.8</ele>
        <time>2012-06-16T09:48:00Z</time>
      </trkpt>
      <trkpt lat="44.49311" lon="3.93087">
        <ele>890.32</ele>
        <time>2012-06-16T09:48:07Z</time>
      </trkpt>
      <trkpt lat="44.49305" lon="3.93087">
        <ele>891.28</ele>
        <time>2012-06-16T09:48:11Z</time>
      </trkpt>
      <trkpt lat="44.49302" lon="3.93086">
        <ele>891.76</ele>
        <time>2012-06-16T09:48:12Z</time>
      </trkpt>
      <trkpt lat="44.49301" lon="3.93084">
        <ele>892.24</ele>
        <time>2012-06-16T09:48:13Z</time>
      </trkpt>
      <trkpt lat="44.49299" lon="3.93083">
        <ele>892.24</ele>
        <time>2012-06-16T09:48:14Z</time>
      </trkpt>
      <trkpt lat="44.49298" lon="3.93082">
        <ele>892.24</ele>
        <time>2012-06-16T09:48:15Z</time>
      </trkpt>
      <trkpt lat="44.49297" lon="3.93081">
        <ele>892.24</ele>
        <time>2012-06-16T09:48:16Z</time>
      </trkpt>
      <trkpt lat="44.49295" lon="3.93081">
        <ele>892.72</ele>
        <time>2012-06-16T09:48:17Z</time>
      </trkpt>
      <trkpt lat="44.4928" lon="3.93079">
        <ele>893.68</ele>
        <time>2012-06-16T09:48:29Z</time>
      </trkpt>
      <trkpt lat="44.49277" lon="3.93079">
        <ele>893.68</ele>
        <time>2012-06-16T09:48:31Z</time>
      </trkpt>
      <trkpt lat="44.49261" lon="3.93079">
        <ele>894.64</ele>
        <time>2012-06-16T09:48:45Z</time>
      </trkpt>
      <trkpt lat="44.49251" lon="3.93079">
        <ele>895.12</ele>
        <time>2012-06-16T09:48:55Z</time>
      </trkpt>
      <trkpt lat="44.4925" lon="3.9308">
        <ele>895.61</ele>
        <time>2012-06-16T09:48:56Z</time>
      </trkpt>
      <trkpt lat="44.49249" lon="3.9308">
        <ele>895.12</ele>
        <time>2012-06-16T09:48:57Z</time>
      </trkpt>
      <trkpt lat="44.49234" lon="3.93085">
        <ele>895.61</ele>
        <time>2012-06-16T09:49:10Z</time>
      </trkpt>
      <trkpt lat="44.49214" lon="3.93095">
        <ele>896.09</ele>
        <time>2012-06-16T09:49:26Z</time>
      </trkpt>
      <trkpt lat="44.49211" lon="3.93098">
        <ele>896.09</ele>
        <time>2012-06-16T09:49:29Z</time>
      </trkpt>
      <trkpt lat="44.49209" lon="3.93098">
        <ele>896.09</ele>
        <time>2012-06-16T09:49:30Z</time>
      </trkpt>
      <trkpt lat="44.49208" lon="3.93098">
        <ele>896.09</ele>
        <time>2012-06-16T09:49:31Z</time>
      </trkpt>
      <trkpt lat="44.49206" lon="3.93098">
        <ele>896.09</ele>
        <time>2012-06-16T09:49:32Z</time>
      </trkpt>
      <trkpt lat="44.49205" lon="3.93099">
        <ele>896.09</ele>
        <time>2012-06-16T09:49:33Z</time>
      </trkpt>
      <trkpt lat="44.49204" lon="3.931">
        <ele>896.09</ele>
        <time>2012-06-16T09:49:34Z</time>
      </trkpt>
      <trkpt lat="44.49202" lon="3.93101">
        <ele>896.09</ele>
        <time>2012-06-16T09:49:35Z</time>
      </trkpt>
      <trkpt lat="44.49197" lon="3.93104">
        <ele>896.09</ele>
        <time>2012-06-16T09:49:39Z</time>
      </trkpt>
      <trkpt lat="44.49196" lon="3.93104">
        <ele>896.09</ele>
        <time>2012-06-16T09:49:40Z</time>
      </trkpt>
      <trkpt lat="44.49191" lon="3.93105">
        <ele>896.09</ele>
        <time>2012-06-16T09:49:52Z</time>
      </trkpt>
      <trkpt lat="44.49188" lon="3.93108">
        <ele>896.09</ele>
        <time>2012-06-16T09:50:01Z</time>
      </trkpt>
      <trkpt lat="44.49187" lon="3.93109">
        <ele>896.09</ele>
        <time>2012-06-16T09:50:35Z</time>
      </trkpt>
      <trkpt lat="44.49187" lon="3.93109">
        <ele>895.61</ele>
        <time>2012-06-16T09:51:19Z</time>
      </trkpt>
      <trkpt lat="44.49187" lon="3.93109">
        <ele>896.09</ele>
        <time>2012-06-16T09:51:34Z</time>
      </trkpt>
      <trkpt lat="44.49186" lon="3.93108">
        <ele>896.09</ele>
        <time>2012-06-16T09:51:49Z</time>
      </trkpt>
      <trkpt lat="44.49184" lon="3.93108">
        <ele>896.09</ele>
        <time>2012-06-16T09:51:52Z</time>
      </trkpt>
      <trkpt lat="44.49183" lon="3.93107">
        <ele>896.09</ele>
        <time>2012-06-16T09:51:53Z</time>
      </trkpt>
      <trkpt lat="44.49177" lon="3.93104">
        <ele>896.09</ele>
        <time>2012-06-16T09:51:56Z</time>
      </trkpt>
      <trkpt lat="44.49175" lon="3.93102">
        <ele>896.09</ele>
        <time>2012-06-16T09:51:57Z</time>
      </trkpt>
      <trkpt lat="44.49173" lon="3.93102">
        <ele>896.09</ele>
        <time>2012-06-16T09:51:58Z</time>
      </trkpt>
      <trkpt lat="44.49171" lon="3.93101">
        <ele>895.61</ele>
        <time>2012-06-16T09:51:59Z</time>
      </trkpt>
      <trkpt lat="44.49169" lon="3.93101">
        <ele>895.61</ele>
        <time>2012-06-16T09:52:00Z</time>
      </trkpt>
      <trkpt lat="44.49166" lon="3.931">
        <ele>895.12</ele>
        <time>2012-06-16T09:52:01Z</time>
      </trkpt>
      <trkpt lat="44.49153" lon="3.93094">
        <ele>894.16</ele>
        <time>2012-06-16T09:52:08Z</time>
      </trkpt>
      <trkpt lat="44.49151" lon="3.93092">
        <ele>894.16</ele>
        <time>2012-06-16T09:52:09Z</time>
      </trkpt>
      <trkpt lat="44.49112" lon="3.93071">
        <ele>894.16</ele>
        <time>2012-06-16T09:52:22Z</time>
      </trkpt>
      <trkpt lat="44.4908" lon="3.93053">
        <ele>893.2</ele>
        <time>2012-06-16T09:52:34Z</time>
      </trkpt>
      <trkpt lat="44.49043" lon="3.93031">
        <ele>892.24</ele>
        <time>2012-06-16T09:52:47Z</time>
      </trkpt>
      <trkpt lat="44.49015" lon="3.93004">
        <ele>891.76</ele>
        <time>2012-06-16T09:52:59Z</time>
      </trkpt>
      <trkpt lat="44.49006" lon="3.92991">
        <ele>891.28</ele>
        <time>2012-06-16T09:53:07Z</time>
      </trkpt>
      <trkpt lat="44.48985" lon="3.92961">
        <ele>891.28</ele>
        <time>2012-06-16T09:53:18Z</time>
      </trkpt>
      <trkpt lat="44.48956" lon="3.92944">
        <ele>889.36</ele>
        <time>2012-06-16T09:53:29Z</time>
      </trkpt>
      <trkpt lat="44.48918" lon="3.92914">
        <ele>889.36</ele>
        <time>2012-06-16T09:53:41Z</time>
      </trkpt>
      <trkpt lat="44.48914" lon="3.92913">
        <ele>889.36</ele>
        <time>2012-06-16T09:53:42Z</time>
      </trkpt>
      <trkpt lat="44.48909" lon="3.92911">
        <ele>888.88</ele>
        <time>2012-06-16T09:53:43Z</time>
      </trkpt>
      <trkpt lat="44.48906" lon="3.92909">
        <ele>888.88</ele>
        <time>2012-06-16T09:53:44Z</time>
      </trkpt>
      <trkpt lat="44.48902" lon="3.92908">
        <ele>888.4</ele>
        <time>2012-06-16T09:53:45Z</time>
      </trkpt>
      <trkpt lat="44.48898" lon="3.92907">
        <ele>888.4</ele>
        <time>2012-06-16T09:53:46Z</time>
      </trkpt>
      <trkpt lat="44.48863" lon="3.92889">
        <ele>887.91</ele>
        <time>2012-06-16T09:53:56Z</time>
      </trkpt>
      <trkpt lat="44.48824" lon="3.92869">
        <ele>886.95</ele>
        <time>2012-06-16T09:54:07Z</time>
      </trkpt>
      <trkpt lat="44.48822" lon="3.92868">
        <ele>887.91</ele>
        <time>2012-06-16T09:54:08Z</time>
      </trkpt>
      <trkpt lat="44.4882" lon="3.92867">
        <ele>887.43</ele>
        <time>2012-06-16T09:54:09Z</time>
      </trkpt>
      <trkpt lat="44.48818" lon="3.92866">
        <ele>887.43</ele>
        <time>2012-06-16T09:54:10Z</time>
      </trkpt>
      <trkpt lat="44.48804" lon="3.92858">
        <ele>886.95</ele>
        <time>2012-06-16T09:54:15Z</time>
      </trkpt>
      <trkpt lat="44.48799" lon="3.92857">
        <ele>886.95</ele>
        <time>2012-06-16T09:54:16Z</time>
      </trkpt>
      <trkpt lat="44.48777" lon="3.92849">
        <ele>885.03</ele>
        <time>2012-06-16T09:54:20Z</time>
      </trkpt>
      <trkpt lat="44.48771" lon="3.92848">
        <ele>885.03</ele>
        <time>2012-06-16T09:54:21Z</time>
      </trkpt>
      <trkpt lat="44.4875" lon="3.92846">
        <ele>883.59</ele>
        <time>2012-06-16T09:54:25Z</time>
      </trkpt>
      <trkpt lat="44.48746" lon="3.92847">
        <ele>883.11</ele>
        <time>2012-06-16T09:54:26Z</time>
      </trkpt>
      <trkpt lat="44.48741" lon="3.92847">
        <ele>882.63</ele>
        <time>2012-06-16T09:54:27Z</time>
      </trkpt>
      <trkpt lat="44.48731" lon="3.92847">
        <ele>882.63</ele>
        <time>2012-06-16T09:54:29Z</time>
      </trkpt>
      <trkpt lat="44.48708" lon="3.92845">
        <ele>881.67</ele>
        <time>2012-06-16T09:54:34Z</time>
      </trkpt>
      <trkpt lat="44.48704" lon="3.92845">
        <ele>881.67</ele>
        <time>2012-06-16T09:54:35Z</time>
      </trkpt>
      <trkpt lat="44.48694" lon="3.92847">
        <ele>882.15</ele>
        <time>2012-06-16T09:54:37Z</time>
      </trkpt>
      <trkpt lat="44.4869" lon="3.9285">
        <ele>882.15</ele>
        <time>2012-06-16T09:54:38Z</time>
      </trkpt>
      <trkpt lat="44.48686" lon="3.92852">
        <ele>882.63</ele>
        <time>2012-06-16T09:54:39Z</time>
      </trkpt>
      <trkpt lat="44.48643" lon="3.92869">
        <ele>883.59</ele>
        <time>2012-06-16T09:54:51Z</time>
      </trkpt>
      <trkpt lat="44.48612" lon="3.92879">
        <ele>884.07</ele>
        <time>2012-06-16T09:55:02Z</time>
      </trkpt>
      <trkpt lat="44.4856" lon="3.92899">
        <ele>883.59</ele>
        <time>2012-06-16T09:55:19Z</time>
      </trkpt>
      <trkpt lat="44.48506" lon="3.92908">
        <ele>882.15</ele>
        <time>2012-06-16T09:55:32Z</time>
      </trkpt>
      <trkpt lat="44.48454" lon="3.92917">
        <ele>880.71</ele>
        <time>2012-06-16T09:55:44Z</time>
      </trkpt>
      <trkpt lat="44.48449" lon="3.92918">
        <ele>879.74</ele>
        <time>2012-06-16T09:55:45Z</time>
      </trkpt>
      <trkpt lat="44.48414" lon="3.92924">
        <ele>878.78</ele>
        <time>2012-06-16T09:55:52Z</time>
      </trkpt>
      <trkpt lat="44.48368" lon="3.92931">
        <ele>877.34</ele>
        <time>2012-06-16T09:56:01Z</time>
      </trkpt>
      <trkpt lat="44.483" lon="3.92942">
        <ele>874.46</ele>
        <time>2012-06-16T09:56:14Z</time>
      </trkpt>
      <trkpt lat="44.48236" lon="3.9296">
        <ele>871.57</ele>
        <time>2012-06-16T09:56:27Z</time>
      </trkpt>
      <trkpt lat="44.48231" lon="3.92962">
        <ele>872.05</ele>
        <time>2012-06-16T09:56:28Z</time>
      </trkpt>
      <trkpt lat="44.4817" lon="3.92987">
        <ele>869.65</ele>
        <time>2012-06-16T09:56:43Z</time>
      </trkpt>
      <trkpt lat="44.48146" lon="3.93007">
        <ele>867.73</ele>
        <time>2012-06-16T09:56:49Z</time>
      </trkpt>
      <trkpt lat="44.48141" lon="3.93009">
        <ele>867.73</ele>
        <time>2012-06-16T09:56:50Z</time>
      </trkpt>
      <trkpt lat="44.48124" lon="3.93014">
        <ele>866.29</ele>
        <time>2012-06-16T09:56:53Z</time>
      </trkpt>
      <trkpt lat="44.48113" lon="3.93018">
        <ele>865.8</ele>
        <time>2012-06-16T09:56:55Z</time>
      </trkpt>
      <trkpt lat="44.48107" lon="3.93018">
        <ele>865.32</ele>
        <time>2012-06-16T09:56:56Z</time>
      </trkpt>
      <trkpt lat="44.48102" lon="3.93018">
        <ele>864.36</ele>
        <time>2012-06-16T09:56:57Z</time>
      </trkpt>
      <trkpt lat="44.48098" lon="3.93018">
        <ele>863.4</ele>
        <time>2012-06-16T09:56:58Z</time>
      </trkpt>
      <trkpt lat="44.48095" lon="3.93017">
        <ele>862.92</ele>
        <time>2012-06-16T09:56:59Z</time>
      </trkpt>
      <trkpt lat="44.48091" lon="3.93018">
        <ele>861.96</ele>
        <time>2012-06-16T09:57:00Z</time>
      </trkpt>
      <trkpt lat="44.48088" lon="3.93018">
        <ele>860.52</ele>
        <time>2012-06-16T09:57:01Z</time>
      </trkpt>
      <trkpt lat="44.48084" lon="3.93019">
        <ele>860.52</ele>
        <time>2012-06-16T09:57:02Z</time>
      </trkpt>
      <trkpt lat="44.48071" lon="3.93017">
        <ele>860.04</ele>
        <time>2012-06-16T09:57:11Z</time>
      </trkpt>
      <trkpt lat="44.48061" lon="3.93014">
        <ele>859.08</ele>
        <time>2012-06-16T09:57:14Z</time>
      </trkpt>
      <trkpt lat="44.48056" lon="3.93016">
        <ele>858.59</ele>
        <time>2012-06-16T09:57:15Z</time>
      </trkpt>
      <trkpt lat="44.48052" lon="3.93018">
        <ele>857.63</ele>
        <time>2012-06-16T09:57:16Z</time>
      </trkpt>
      <trkpt lat="44.48047" lon="3.93019">
        <ele>857.63</ele>
        <time>2012-06-16T09:57:17Z</time>
      </trkpt>
      <trkpt lat="44.48017" lon="3.93029">
        <ele>855.71</ele>
        <time>2012-06-16T09:57:23Z</time>
      </trkpt>
      <trkpt lat="44.48012" lon="3.93031">
        <ele>855.23</ele>
        <time>2012-06-16T09:57:24Z</time>
      </trkpt>
      <trkpt lat="44.47989" lon="3.93042">
        <ele>855.23</ele>
        <time>2012-06-16T09:57:30Z</time>
      </trkpt>
      <trkpt lat="44.47965" lon="3.93053">
        <ele>856.19</ele>
        <time>2012-06-16T09:57:36Z</time>
      </trkpt>
      <trkpt lat="44.47904" lon="3.93075">
        <ele>856.19</ele>
        <time>2012-06-16T09:57:51Z</time>
      </trkpt>
      <trkpt lat="44.4789" lon="3.9308">
        <ele>857.63</ele>
        <time>2012-06-16T09:57:54Z</time>
      </trkpt>
      <trkpt lat="44.47877" lon="3.93086">
        <ele>858.11</ele>
        <time>2012-06-16T09:57:57Z</time>
      </trkpt>
      <trkpt lat="44.47822" lon="3.93117">
        <ele>860.52</ele>
        <time>2012-06-16T09:58:11Z</time>
      </trkpt>
      <trkpt lat="44.47788" lon="3.93143">
        <ele>861.48</ele>
        <time>2012-06-16T09:58:22Z</time>
      </trkpt>
      <trkpt lat="44.47787" lon="3.93147">
        <ele>861.48</ele>
        <time>2012-06-16T09:58:23Z</time>
      </trkpt>
      <trkpt lat="44.47785" lon="3.93164">
        <ele>861.96</ele>
        <time>2012-06-16T09:58:33Z</time>
      </trkpt>
      <trkpt lat="44.47784" lon="3.93191">
        <ele>862.92</ele>
        <time>2012-06-16T09:58:44Z</time>
      </trkpt>
      <trkpt lat="44.47777" lon="3.93253">
        <ele>865.8</ele>
        <time>2012-06-16T09:58:56Z</time>
      </trkpt>
      <trkpt lat="44.4777" lon="3.93303">
        <ele>868.21</ele>
        <time>2012-06-16T09:59:10Z</time>
      </trkpt>
      <trkpt lat="44.47777" lon="3.93352">
        <ele>869.65</ele>
        <time>2012-06-16T09:59:24Z</time>
      </trkpt>
      <trkpt lat="44.47782" lon="3.93403">
        <ele>871.09</ele>
        <time>2012-06-16T09:59:40Z</time>
      </trkpt>
      <trkpt lat="44.47792" lon="3.93429">
        <ele>872.05</ele>
        <time>2012-06-16T09:59:54Z</time>
      </trkpt>
      <trkpt lat="44.4781" lon="3.93451">
        <ele>873.5</ele>
        <time>2012-06-16T10:00:07Z</time>
      </trkpt>
      <trkpt lat="44.47814" lon="3.93463">
        <ele>873.98</ele>
        <time>2012-06-16T10:00:12Z</time>
      </trkpt>
      <trkpt lat="44.47813" lon="3.93465">
        <ele>874.46</ele>
        <time>2012-06-16T10:00:13Z</time>
      </trkpt>
      <trkpt lat="44.47812" lon="3.93467">
        <ele>874.46</ele>
        <time>2012-06-16T10:00:14Z</time>
      </trkpt>
      <trkpt lat="44.47793" lon="3.93485">
        <ele>876.38</ele>
        <time>2012-06-16T10:00:27Z</time>
      </trkpt>
      <trkpt lat="44.47788" lon="3.93492">
        <ele>876.38</ele>
        <time>2012-06-16T10:00:32Z</time>
      </trkpt>
      <trkpt lat="44.47788" lon="3.93494">
        <ele>876.86</ele>
        <time>2012-06-16T10:00:33Z</time>
      </trkpt>
      <trkpt lat="44.47787" lon="3.93497">
        <ele>876.38</ele>
        <time>2012-06-16T10:00:34Z</time>
      </trkpt>
      <trkpt lat="44.47787" lon="3.93499">
        <ele>876.38</ele>
        <time>2012-06-16T10:00:35Z</time>
      </trkpt>
      <trkpt lat="44.47788" lon="3.93501">
        <ele>876.86</ele>
        <time>2012-06-16T10:00:36Z</time>
      </trkpt>
      <trkpt lat="44.47785" lon="3.93526">
        <ele>877.82</ele>
        <time>2012-06-16T10:00:48Z</time>
      </trkpt>
      <trkpt lat="44.47785" lon="3.93528">
        <ele>877.82</ele>
        <time>2012-06-16T10:00:49Z</time>
      </trkpt>
      <trkpt lat="44.47784" lon="3.93529">
        <ele>877.82</ele>
        <time>2012-06-16T10:00:50Z</time>
      </trkpt>
      <trkpt lat="44.47783" lon="3.93531">
        <ele>877.82</ele>
        <time>2012-06-16T10:00:51Z</time>
      </trkpt>
      <trkpt lat="44.47783" lon="3.93533">
        <ele>876.86</ele>
        <time>2012-06-16T10:00:52Z</time>
      </trkpt>
      <trkpt lat="44.47783" lon="3.93535">
        <ele>877.34</ele>
        <time>2012-06-16T10:00:53Z</time>
      </trkpt>
      <trkpt lat="44.47783" lon="3.93537">
        <ele>877.34</ele>
        <time>2012-06-16T10:00:54Z</time>
      </trkpt>
      <trkpt lat="44.47783" lon="3.93539">
        <ele>877.34</ele>
        <time>2012-06-16T10:00:55Z</time>
      </trkpt>
      <trkpt lat="44.4779" lon="3.93545">
        <ele>877.34</ele>
        <time>2012-06-16T10:01:04Z</time>
      </trkpt>
      <trkpt lat="44.4779" lon="3.93547">
        <ele>877.34</ele>
        <time>2012-06-16T10:01:05Z</time>
      </trkpt>
      <trkpt lat="44.4779" lon="3.93549">
        <ele>877.34</ele>
        <time>2012-06-16T10:01:06Z</time>
      </trkpt>
      <trkpt lat="44.47791" lon="3.93549">
        <ele>877.82</ele>
        <time>2012-06-16T10:01:22Z</time>
      </trkpt>
      <trkpt lat="44.4779" lon="3.93558">
        <ele>876.86</ele>
        <time>2012-06-16T10:01:49Z</time>
      </trkpt>
      <trkpt lat="44.4779" lon="3.9356">
        <ele>877.34</ele>
        <time>2012-06-16T10:01:51Z</time>
      </trkpt>
      <trkpt lat="44.47793" lon="3.93572">
        <ele>877.34</ele>
        <time>2012-06-16T10:02:02Z</time>
      </trkpt>
      <trkpt lat="44.47792" lon="3.93572">
        <ele>877.34</ele>
        <time>2012-06-16T10:02:19Z</time>
      </trkpt>
      <trkpt lat="44.47792" lon="3.93572">
        <ele>876.86</ele>
        <time>2012-06-16T10:02:46Z</time>
      </trkpt>
      <trkpt lat="44.47793" lon="3.93573">
        <ele>876.86</ele>
        <time>2012-06-16T10:03:19Z</time>
      </trkpt>
      <trkpt lat="44.47793" lon="3.93573">
        <ele>877.34</ele>
        <time>2012-06-16T10:03:46Z</time>
      </trkpt>
      <trkpt lat="44.47793" lon="3.93572">
        <ele>876.86</ele>
        <time>2012-06-16T10:04:17Z</time>
      </trkpt>
      <trkpt lat="44.47793" lon="3.93572">
        <ele>877.34</ele>
        <time>2012-06-16T10:04:41Z</time>
      </trkpt>
      <trkpt lat="44.47792" lon="3.9357">
        <ele>877.34</ele>
        <time>2012-06-16T10:05:08Z</time>
      </trkpt>
      <trkpt lat="44.47793" lon="3.93569">
        <ele>877.82</ele>
        <time>2012-06-16T10:05:35Z</time>
      </trkpt>
      <trkpt lat="44.47792" lon="3.93567">
        <ele>877.34</ele>
        <time>2012-06-16T10:05:49Z</time>
      </trkpt>
      <trkpt lat="44.47792" lon="3.93566">
        <ele>877.34</ele>
        <time>2012-06-16T10:06:01Z</time>
      </trkpt>
      <trkpt lat="44.47791" lon="3.93564">
        <ele>877.82</ele>
        <time>2012-06-16T10:06:03Z</time>
      </trkpt>
      <trkpt lat="44.47791" lon="3.93548">
        <ele>877.34</ele>
        <time>2012-06-16T10:06:12Z</time>
      </trkpt>
      <trkpt lat="44.4779" lon="3.93544">
        <ele>877.82</ele>
        <time>2012-06-16T10:06:14Z</time>
      </trkpt>
      <trkpt lat="44.4777" lon="3.93541">
        <ele>876.86</ele>
        <time>2012-06-16T10:06:29Z</time>
      </trkpt>
      <trkpt lat="44.47767" lon="3.93538">
        <ele>876.38</ele>
        <time>2012-06-16T10:06:36Z</time>
      </trkpt>
      <trkpt lat="44.47762" lon="3.93534">
        <ele>875.9</ele>
        <time>2012-06-16T10:06:40Z</time>
      </trkpt>
      <trkpt lat="44.47741" lon="3.93516">
        <ele>875.42</ele>
        <time>2012-06-16T10:06:54Z</time>
      </trkpt>
      <trkpt lat="44.47723" lon="3.93537">
        <ele>874.94</ele>
        <time>2012-06-16T10:07:07Z</time>
      </trkpt>
      <trkpt lat="44.47718" lon="3.9354">
        <ele>874.46</ele>
        <time>2012-06-16T10:07:09Z</time>
      </trkpt>
      <trkpt lat="44.477" lon="3.93553">
        <ele>874.46</ele>
        <time>2012-06-16T10:07:23Z</time>
      </trkpt>
      <trkpt lat="44.47688" lon="3.93558">
        <ele>873.5</ele>
        <time>2012-06-16T10:07:28Z</time>
      </trkpt>
      <trkpt lat="44.47683" lon="3.93557">
        <ele>872.53</ele>
        <time>2012-06-16T10:07:43Z</time>
      </trkpt>
      <trkpt lat="44.47682" lon="3.93557">
        <ele>873.01</ele>
        <time>2012-06-16T10:07:44Z</time>
      </trkpt>
      <trkpt lat="44.47674" lon="3.93563">
        <ele>873.01</ele>
        <time>2012-06-16T10:07:49Z</time>
      </trkpt>
      <trkpt lat="44.47669" lon="3.93565">
        <ele>872.53</ele>
        <time>2012-06-16T10:08:00Z</time>
      </trkpt>
      <trkpt lat="44.47672" lon="3.93562">
        <ele>872.05</ele>
        <time>2012-06-16T10:08:04Z</time>
      </trkpt>
      <trkpt lat="44.47682" lon="3.93555">
        <ele>872.53</ele>
        <time>2012-06-16T10:08:16Z</time>
      </trkpt>
      <trkpt lat="44.47683" lon="3.93555">
        <ele>872.53</ele>
        <time>2012-06-16T10:08:23Z</time>
      </trkpt>
      <trkpt lat="44.47682" lon="3.93543">
        <ele>872.53</ele>
        <time>2012-06-16T10:08:28Z</time>
      </trkpt>
      <trkpt lat="44.4769" lon="3.93491">
        <ele>872.53</ele>
        <time>2012-06-16T10:08:41Z</time>
      </trkpt>
      <trkpt lat="44.47712" lon="3.93433">
        <ele>872.05</ele>
        <time>2012-06-16T10:08:54Z</time>
      </trkpt>
      <trkpt lat="44.47734" lon="3.93405">
        <ele>871.57</ele>
        <time>2012-06-16T10:09:03Z</time>
      </trkpt>
      <trkpt lat="44.4777" lon="3.93395">
        <ele>872.05</ele>
        <time>2012-06-16T10:09:18Z</time>
      </trkpt>
      <trkpt lat="44.47777" lon="3.93398">
        <ele>871.57</ele>
        <time>2012-06-16T10:09:21Z</time>
      </trkpt>
      <trkpt lat="44.47782" lon="3.93378">
        <ele>871.09</ele>
        <time>2012-06-16T10:09:26Z</time>
      </trkpt>
      <trkpt lat="44.47782" lon="3.93372">
        <ele>870.61</ele>
        <time>2012-06-16T10:09:27Z</time>
      </trkpt>
      <trkpt lat="44.47782" lon="3.93366">
        <ele>871.09</ele>
        <time>2012-06-16T10:09:28Z</time>
      </trkpt>
      <trkpt lat="44.47781" lon="3.93359">
        <ele>870.61</ele>
        <time>2012-06-16T10:09:29Z</time>
      </trkpt>
      <trkpt lat="44.47776" lon="3.9334">
        <ele>870.13</ele>
        <time>2012-06-16T10:09:32Z</time>
      </trkpt>
      <trkpt lat="44.47772" lon="3.93304">
        <ele>868.21</ele>
        <time>2012-06-16T10:09:38Z</time>
      </trkpt>
      <trkpt lat="44.47773" lon="3.93293">
        <ele>868.21</ele>
        <time>2012-06-16T10:09:40Z</time>
      </trkpt>
      <trkpt lat="44.47784" lon="3.9321">
        <ele>864.84</ele>
        <time>2012-06-16T10:09:50Z</time>
      </trkpt>
      <trkpt lat="44.47789" lon="3.93136">
        <ele>861.48</ele>
        <time>2012-06-16T10:09:57Z</time>
      </trkpt>
      <trkpt lat="44.47788" lon="3.93128">
        <ele>860.52</ele>
        <time>2012-06-16T10:09:58Z</time>
      </trkpt>
      <trkpt lat="44.47786" lon="3.93121">
        <ele>860.52</ele>
        <time>2012-06-16T10:09:59Z</time>
      </trkpt>
      <trkpt lat="44.47785" lon="3.93116">
        <ele>860.04</ele>
        <time>2012-06-16T10:10:00Z</time>
      </trkpt>
      <trkpt lat="44.47783" lon="3.93113">
        <ele>860.04</ele>
        <time>2012-06-16T10:10:01Z</time>
      </trkpt>
      <trkpt lat="44.47781" lon="3.93111">
        <ele>859.08</ele>
        <time>2012-06-16T10:10:02Z</time>
      </trkpt>
      <trkpt lat="44.4778" lon="3.93109">
        <ele>859.08</ele>
        <time>2012-06-16T10:10:03Z</time>
      </trkpt>
      <trkpt lat="44.47763" lon="3.93103">
        <ele>858.59</ele>
        <time>2012-06-16T10:10:10Z</time>
      </trkpt>
      <trkpt lat="44.47754" lon="3.93103">
        <ele>857.15</ele>
        <time>2012-06-16T10:10:21Z</time>
      </trkpt>
      <trkpt lat="44.47734" lon="3.93107">
        <ele>856.67</ele>
        <time>2012-06-16T10:10:34Z</time>
      </trkpt>
      <trkpt lat="44.47665" lon="3.9312">
        <ele>853.79</ele>
        <time>2012-06-16T10:10:46Z</time>
      </trkpt>
      <trkpt lat="44.4766" lon="3.93122">
        <ele>853.79</ele>
        <time>2012-06-16T10:10:47Z</time>
      </trkpt>
      <trkpt lat="44.47654" lon="3.93123">
        <ele>853.79</ele>
        <time>2012-06-16T10:10:48Z</time>
      </trkpt>
      <trkpt lat="44.47603" lon="3.93135">
        <ele>851.87</ele>
        <time>2012-06-16T10:10:57Z</time>
      </trkpt>
      <trkpt lat="44.47591" lon="3.93138">
        <ele>851.38</ele>
        <time>2012-06-16T10:10:59Z</time>
      </trkpt>
      <trkpt lat="44.47585" lon="3.93139">
        <ele>851.87</ele>
        <time>2012-06-16T10:11:00Z</time>
      </trkpt>
      <trkpt lat="44.47567" lon="3.93143">
        <ele>850.9</ele>
        <time>2012-06-16T10:11:03Z</time>
      </trkpt>
      <trkpt lat="44.47556" lon="3.93146">
        <ele>850.42</ele>
        <time>2012-06-16T10:11:05Z</time>
      </trkpt>
      <trkpt lat="44.47538" lon="3.93148">
        <ele>849.94</ele>
        <time>2012-06-16T10:11:08Z</time>
      </trkpt>
      <trkpt lat="44.47531" lon="3.93149">
        <ele>849.46</ele>
        <time>2012-06-16T10:11:09Z</time>
      </trkpt>
      <trkpt lat="44.47512" lon="3.93152">
        <ele>848.5</ele>
        <time>2012-06-16T10:11:12Z</time>
      </trkpt>
      <trkpt lat="44.47494" lon="3.93157">
        <ele>848.5</ele>
        <time>2012-06-16T10:11:15Z</time>
      </trkpt>
      <trkpt lat="44.47488" lon="3.93158">
        <ele>848.5</ele>
        <time>2012-06-16T10:11:16Z</time>
      </trkpt>
      <trkpt lat="44.47447" lon="3.93167">
        <ele>847.06</ele>
        <time>2012-06-16T10:11:24Z</time>
      </trkpt>
      <trkpt lat="44.47438" lon="3.93171">
        <ele>847.54</ele>
        <time>2012-06-16T10:11:26Z</time>
      </trkpt>
      <trkpt lat="44.47432" lon="3.93172">
        <ele>847.54</ele>
        <time>2012-06-16T10:11:27Z</time>
      </trkpt>
      <trkpt lat="44.47427" lon="3.93173">
        <ele>847.54</ele>
        <time>2012-06-16T10:11:28Z</time>
      </trkpt>
      <trkpt lat="44.47381" lon="3.93181">
        <ele>845.62</ele>
        <time>2012-06-16T10:11:41Z</time>
      </trkpt>
      <trkpt lat="44.4738" lon="3.9318">
        <ele>845.14</ele>
        <time>2012-06-16T10:11:55Z</time>
      </trkpt>
      <trkpt lat="44.47376" lon="3.93181">
        <ele>845.14</ele>
        <time>2012-06-16T10:12:09Z</time>
      </trkpt>
      <trkpt lat="44.47372" lon="3.93182">
        <ele>845.62</ele>
        <time>2012-06-16T10:12:22Z</time>
      </trkpt>
      <trkpt lat="44.47355" lon="3.93186">
        <ele>845.62</ele>
        <time>2012-06-16T10:12:32Z</time>
      </trkpt>
      <trkpt lat="44.47307" lon="3.93189">
        <ele>844.66</ele>
        <time>2012-06-16T10:12:45Z</time>
      </trkpt>
      <trkpt lat="44.47281" lon="3.93192">
        <ele>843.69</ele>
        <time>2012-06-16T10:12:52Z</time>
      </trkpt>
      <trkpt lat="44.47231" lon="3.93195">
        <ele>841.77</ele>
        <time>2012-06-16T10:13:03Z</time>
      </trkpt>
      <trkpt lat="44.47226" lon="3.93196">
        <ele>841.77</ele>
        <time>2012-06-16T10:13:04Z</time>
      </trkpt>
      <trkpt lat="44.47222" lon="3.93196">
        <ele>841.77</ele>
        <time>2012-06-16T10:13:05Z</time>
      </trkpt>
      <trkpt lat="44.47217" lon="3.93198">
        <ele>841.77</ele>
        <time>2012-06-16T10:13:06Z</time>
      </trkpt>
      <trkpt lat="44.47213" lon="3.932">
        <ele>841.29</ele>
        <time>2012-06-16T10:13:07Z</time>
      </trkpt>
      <trkpt lat="44.47194" lon="3.93208">
        <ele>840.81</ele>
        <time>2012-06-16T10:13:11Z</time>
      </trkpt>
      <trkpt lat="44.47189" lon="3.9321">
        <ele>840.33</ele>
        <time>2012-06-16T10:13:12Z</time>
      </trkpt>
      <trkpt lat="44.47185" lon="3.93212">
        <ele>839.85</ele>
        <time>2012-06-16T10:13:13Z</time>
      </trkpt>
      <trkpt lat="44.47181" lon="3.93214">
        <ele>839.85</ele>
        <time>2012-06-16T10:13:14Z</time>
      </trkpt>
      <trkpt lat="44.47177" lon="3.93216">
        <ele>839.85</ele>
        <time>2012-06-16T10:13:15Z</time>
      </trkpt>
      <trkpt lat="44.47174" lon="3.93218">
        <ele>838.89</ele>
        <time>2012-06-16T10:13:16Z</time>
      </trkpt>
      <trkpt lat="44.4717" lon="3.93219">
        <ele>838.89</ele>
        <time>2012-06-16T10:13:17Z</time>
      </trkpt>
      <trkpt lat="44.47142" lon="3.93236">
        <ele>837.93</ele>
        <time>2012-06-16T10:13:26Z</time>
      </trkpt>
      <trkpt lat="44.47137" lon="3.93242">
        <ele>836.96</ele>
        <time>2012-06-16T10:13:29Z</time>
      </trkpt>
      <trkpt lat="44.4712" lon="3.93259">
        <ele>835.52</ele>
        <time>2012-06-16T10:13:40Z</time>
      </trkpt>
      <trkpt lat="44.47113" lon="3.93266">
        <ele>833.6</ele>
        <time>2012-06-16T10:13:45Z</time>
      </trkpt>
      <trkpt lat="44.47093" lon="3.93271">
        <ele>833.6</ele>
        <time>2012-06-16T10:13:54Z</time>
      </trkpt>
      <trkpt lat="44.47091" lon="3.93272">
        <ele>833.6</ele>
        <time>2012-06-16T10:13:55Z</time>
      </trkpt>
      <trkpt lat="44.47088" lon="3.93272">
        <ele>833.6</ele>
        <time>2012-06-16T10:13:56Z</time>
      </trkpt>
      <trkpt lat="44.47085" lon="3.93272">
        <ele>833.6</ele>
        <time>2012-06-16T10:13:57Z</time>
      </trkpt>
      <trkpt lat="44.47082" lon="3.93271">
        <ele>833.6</ele>
        <time>2012-06-16T10:13:58Z</time>
      </trkpt>
      <trkpt lat="44.47079" lon="3.93271">
        <ele>833.6</ele>
        <time>2012-06-16T10:13:59Z</time>
      </trkpt>
      <trkpt lat="44.47045" lon="3.93259">
        <ele>835.04</ele>
        <time>2012-06-16T10:14:11Z</time>
      </trkpt>
      <trkpt lat="44.47038" lon="3.93253">
        <ele>835.04</ele>
        <time>2012-06-16T10:14:14Z</time>
      </trkpt>
      <trkpt lat="44.47036" lon="3.9325">
        <ele>835.04</ele>
        <time>2012-06-16T10:14:15Z</time>
      </trkpt>
      <trkpt lat="44.47034" lon="3.93247">
        <ele>835.04</ele>
        <time>2012-06-16T10:14:16Z</time>
      </trkpt>
      <trkpt lat="44.47032" lon="3.93245">
        <ele>835.04</ele>
        <time>2012-06-16T10:14:17Z</time>
      </trkpt>
      <trkpt lat="44.4703" lon="3.93243">
        <ele>836</ele>
        <time>2012-06-16T10:14:18Z</time>
      </trkpt>
      <trkpt lat="44.47013" lon="3.93215">
        <ele>836.96</ele>
        <time>2012-06-16T10:14:28Z</time>
      </trkpt>
      <trkpt lat="44.46989" lon="3.93195">
        <ele>838.41</ele>
        <time>2012-06-16T10:14:40Z</time>
      </trkpt>
      <trkpt lat="44.46957" lon="3.93191">
        <ele>838.89</ele>
        <time>2012-06-16T10:14:52Z</time>
      </trkpt>
      <trkpt lat="44.46917" lon="3.93188">
        <ele>837.93</ele>
        <time>2012-06-16T10:15:04Z</time>
      </trkpt>
      <trkpt lat="44.4688" lon="3.9318">
        <ele>836.96</ele>
        <time>2012-06-16T10:15:16Z</time>
      </trkpt>
      <trkpt lat="44.46865" lon="3.93181">
        <ele>836.48</ele>
        <time>2012-06-16T10:15:21Z</time>
      </trkpt>
      <trkpt lat="44.46862" lon="3.93181">
        <ele>836</ele>
        <time>2012-06-16T10:15:22Z</time>
      </trkpt>
      <trkpt lat="44.46859" lon="3.93181">
        <ele>836</ele>
        <time>2012-06-16T10:15:23Z</time>
      </trkpt>
      <trkpt lat="44.46856" lon="3.9318">
        <ele>836</ele>
        <time>2012-06-16T10:15:24Z</time>
      </trkpt>
      <trkpt lat="44.46853" lon="3.9318">
        <ele>835.52</ele>
        <time>2012-06-16T10:15:25Z</time>
      </trkpt>
      <trkpt lat="44.46843" lon="3.93183">
        <ele>834.08</ele>
        <time>2012-06-16T10:15:30Z</time>
      </trkpt>
      <trkpt lat="44.46841" lon="3.93182">
        <ele>834.08</ele>
        <time>2012-06-16T10:15:31Z</time>
      </trkpt>
      <trkpt lat="44.46839" lon="3.93182">
        <ele>833.6</ele>
        <time>2012-06-16T10:15:32Z</time>
      </trkpt>
      <trkpt lat="44.46826" lon="3.93187">
        <ele>832.16</ele>
        <time>2012-06-16T10:15:39Z</time>
      </trkpt>
      <trkpt lat="44.46824" lon="3.93189">
        <ele>832.16</ele>
        <time>2012-06-16T10:15:43Z</time>
      </trkpt>
      <trkpt lat="44.46823" lon="3.93189">
        <ele>831.68</ele>
        <time>2012-06-16T10:15:44Z</time>
      </trkpt>
      <trkpt lat="44.46821" lon="3.9319">
        <ele>831.2</ele>
        <time>2012-06-16T10:15:54Z</time>
      </trkpt>
      <trkpt lat="44.46822" lon="3.93191">
        <ele>831.68</ele>
        <time>2012-06-16T10:16:34Z</time>
      </trkpt>
      <trkpt lat="44.46821" lon="3.93191">
        <ele>831.68</ele>
        <time>2012-06-16T10:17:14Z</time>
      </trkpt>
      <trkpt lat="44.4682" lon="3.93191">
        <ele>831.68</ele>
        <time>2012-06-16T10:17:56Z</time>
      </trkpt>
      <trkpt lat="44.46821" lon="3.93191">
        <ele>831.68</ele>
        <time>2012-06-16T10:18:42Z</time>
      </trkpt>
      <trkpt lat="44.46821" lon="3.93191">
        <ele>832.16</ele>
        <time>2012-06-16T10:19:23Z</time>
      </trkpt>
      <trkpt lat="44.46821" lon="3.93191">
        <ele>831.68</ele>
        <time>2012-06-16T10:20:03Z</time>
      </trkpt>
      <trkpt lat="44.46821" lon="3.93191">
        <ele>832.16</ele>
        <time>2012-06-16T10:20:38Z</time>
      </trkpt>
      <trkpt lat="44.4682" lon="3.93191">
        <ele>832.16</ele>
        <time>2012-06-16T10:21:17Z</time>
      </trkpt>
      <trkpt lat="44.4682" lon="3.93192">
        <ele>832.16</ele>
        <time>2012-06-16T10:21:59Z</time>
      </trkpt>
      <trkpt lat="44.46821" lon="3.93191">
        <ele>832.64</ele>
        <time>2012-06-16T10:22:39Z</time>
      </trkpt>
      <trkpt lat="44.46822" lon="3.93191">
        <ele>832.16</ele>
        <time>2012-06-16T10:23:22Z</time>
      </trkpt>
      <trkpt lat="44.46822" lon="3.9319">
        <ele>832.16</ele>
        <time>2012-06-16T10:23:59Z</time>
      </trkpt>
      <trkpt lat="44.46821" lon="3.93191">
        <ele>831.68</ele>
        <time>2012-06-16T10:24:39Z</time>
      </trkpt>
      <trkpt lat="44.46822" lon="3.9319">
        <ele>832.16</ele>
        <time>2012-06-16T10:25:20Z</time>
      </trkpt>
      <trkpt lat="44.46822" lon="3.93191">
        <ele>831.68</ele>
        <time>2012-06-16T10:25:59Z</time>
      </trkpt>
      <trkpt lat="44.46821" lon="3.9319">
        <ele>831.68</ele>
        <time>2012-06-16T10:26:46Z</time>
      </trkpt>
      <trkpt lat="44.46821" lon="3.93189">
        <ele>832.16</ele>
        <time>2012-06-16T10:27:25Z</time>
      </trkpt>
      <trkpt lat="44.4682" lon="3.93189">
        <ele>831.68</ele>
        <time>2012-06-16T10:27:53Z</time>
      </trkpt>
      <trkpt lat="44.46819" lon="3.93189">
        <ele>830.72</ele>
        <time>2012-06-16T10:28:07Z</time>
      </trkpt>
      <trkpt lat="44.46812" lon="3.93194">
        <ele>830.24</ele>
        <time>2012-06-16T10:28:19Z</time>
      </trkpt>
      <trkpt lat="44.46809" lon="3.93199">
        <ele>829.76</ele>
        <time>2012-06-16T10:28:31Z</time>
      </trkpt>
      <trkpt lat="44.46804" lon="3.93199">
        <ele>830.24</ele>
        <time>2012-06-16T10:28:36Z</time>
      </trkpt>
      <trkpt lat="44.46802" lon="3.932">
        <ele>829.76</ele>
        <time>2012-06-16T10:28:37Z</time>
      </trkpt>
      <trkpt lat="44.468" lon="3.932">
        <ele>829.76</ele>
        <time>2012-06-16T10:28:38Z</time>
      </trkpt>
      <trkpt lat="44.46798" lon="3.93201">
        <ele>829.27</ele>
        <time>2012-06-16T10:28:39Z</time>
      </trkpt>
      <trkpt lat="44.46797" lon="3.93201">
        <ele>829.27</ele>
        <time>2012-06-16T10:28:45Z</time>
      </trkpt>
      <trkpt lat="44.46793" lon="3.93204">
        <ele>828.79</ele>
        <time>2012-06-16T10:28:47Z</time>
      </trkpt>
      <trkpt lat="44.46791" lon="3.93205">
        <ele>828.79</ele>
        <time>2012-06-16T10:28:48Z</time>
      </trkpt>
      <trkpt lat="44.46789" lon="3.93206">
        <ele>828.31</ele>
        <time>2012-06-16T10:28:49Z</time>
      </trkpt>
      <trkpt lat="44.46788" lon="3.93208">
        <ele>828.79</ele>
        <time>2012-06-16T10:28:50Z</time>
      </trkpt>
      <trkpt lat="44.46787" lon="3.93209">
        <ele>827.83</ele>
        <time>2012-06-16T10:28:51Z</time>
      </trkpt>
      <trkpt lat="44.46785" lon="3.93211">
        <ele>828.31</ele>
        <time>2012-06-16T10:28:52Z</time>
      </trkpt>
      <trkpt lat="44.46783" lon="3.93211">
        <ele>827.83</ele>
        <time>2012-06-16T10:28:53Z</time>
      </trkpt>
      <trkpt lat="44.46765" lon="3.9322">
        <ele>825.43</ele>
        <time>2012-06-16T10:29:03Z</time>
      </trkpt>
      <trkpt lat="44.46746" lon="3.93229">
        <ele>823.51</ele>
        <time>2012-06-16T10:29:13Z</time>
      </trkpt>
      <trkpt lat="44.46745" lon="3.9323">
        <ele>823.51</ele>
        <time>2012-06-16T10:29:39Z</time>
      </trkpt>
      <trkpt lat="44.46745" lon="3.9323">
        <ele>823.99</ele>
        <time>2012-06-16T10:30:13Z</time>
      </trkpt>
      <trkpt lat="44.46745" lon="3.9323">
        <ele>823.51</ele>
        <time>2012-06-16T10:30:30Z</time>
      </trkpt>
      <trkpt lat="44.46742" lon="3.93232">
        <ele>823.51</ele>
        <time>2012-06-16T10:30:32Z</time>
      </trkpt>
      <trkpt lat="44.4674" lon="3.93233">
        <ele>823.03</ele>
        <time>2012-06-16T10:30:33Z</time>
      </trkpt>
      <trkpt lat="44.46737" lon="3.93235">
        <ele>823.51</ele>
        <time>2012-06-16T10:30:34Z</time>
      </trkpt>
      <trkpt lat="44.46704" lon="3.93248">
        <ele>821.1</ele>
        <time>2012-06-16T10:30:44Z</time>
      </trkpt>
      <trkpt lat="44.46697" lon="3.93252">
        <ele>820.62</ele>
        <time>2012-06-16T10:30:46Z</time>
      </trkpt>
      <trkpt lat="44.46677" lon="3.9326">
        <ele>819.18</ele>
        <time>2012-06-16T10:30:52Z</time>
      </trkpt>
      <trkpt lat="44.46675" lon="3.9326">
        <ele>819.18</ele>
        <time>2012-06-16T10:30:53Z</time>
      </trkpt>
      <trkpt lat="44.46673" lon="3.93259">
        <ele>819.18</ele>
        <time>2012-06-16T10:30:54Z</time>
      </trkpt>
      <trkpt lat="44.46671" lon="3.93258">
        <ele>818.7</ele>
        <time>2012-06-16T10:30:55Z</time>
      </trkpt>
      <trkpt lat="44.4667" lon="3.93258">
        <ele>818.7</ele>
        <time>2012-06-16T10:30:56Z</time>
      </trkpt>
      <trkpt lat="44.46668" lon="3.93259">
        <ele>818.7</ele>
        <time>2012-06-16T10:30:57Z</time>
      </trkpt>
      <trkpt lat="44.46666" lon="3.9326">
        <ele>818.7</ele>
        <time>2012-06-16T10:30:58Z</time>
      </trkpt>
      <trkpt lat="44.46664" lon="3.93261">
        <ele>818.7</ele>
        <time>2012-06-16T10:30:59Z</time>
      </trkpt>
      <trkpt lat="44.46661" lon="3.93261">
        <ele>818.22</ele>
        <time>2012-06-16T10:31:00Z</time>
      </trkpt>
      <trkpt lat="44.46659" lon="3.93262">
        <ele>818.22</ele>
        <time>2012-06-16T10:31:01Z</time>
      </trkpt>
      <trkpt lat="44.46657" lon="3.93263">
        <ele>818.22</ele>
        <time>2012-06-16T10:31:02Z</time>
      </trkpt>
      <trkpt lat="44.46655" lon="3.93264">
        <ele>817.74</ele>
        <time>2012-06-16T10:31:03Z</time>
      </trkpt>
      <trkpt lat="44.46654" lon="3.93265">
        <ele>817.74</ele>
        <time>2012-06-16T10:31:04Z</time>
      </trkpt>
      <trkpt lat="44.46652" lon="3.93265">
        <ele>817.26</ele>
        <time>2012-06-16T10:31:05Z</time>
      </trkpt>
      <trkpt lat="44.46651" lon="3.93264">
        <ele>817.26</ele>
        <time>2012-06-16T10:31:06Z</time>
      </trkpt>
      <trkpt lat="44.46649" lon="3.93263">
        <ele>816.78</ele>
        <time>2012-06-16T10:31:07Z</time>
      </trkpt>
      <trkpt lat="44.46647" lon="3.93262">
        <ele>816.78</ele>
        <time>2012-06-16T10:31:08Z</time>
      </trkpt>
      <trkpt lat="44.46645" lon="3.93261">
        <ele>816.3</ele>
        <time>2012-06-16T10:31:09Z</time>
      </trkpt>
      <trkpt lat="44.46643" lon="3.93261">
        <ele>816.3</ele>
        <time>2012-06-16T10:31:10Z</time>
      </trkpt>
      <trkpt lat="44.4664" lon="3.93261">
        <ele>816.78</ele>
        <time>2012-06-16T10:31:11Z</time>
      </trkpt>
      <trkpt lat="44.46635" lon="3.93262">
        <ele>816.3</ele>
        <time>2012-06-16T10:31:20Z</time>
      </trkpt>
      <trkpt lat="44.46634" lon="3.93261">
        <ele>816.3</ele>
        <time>2012-06-16T10:31:55Z</time>
      </trkpt>
      <trkpt lat="44.46634" lon="3.93261">
        <ele>816.3</ele>
        <time>2012-06-16T10:32:30Z</time>
      </trkpt>
      <trkpt lat="44.46633" lon="3.93261">
        <ele>816.3</ele>
        <time>2012-06-16T10:33:07Z</time>
      </trkpt>
      <trkpt lat="44.46633" lon="3.9326">
        <ele>816.3</ele>
        <time>2012-06-16T10:33:46Z</time>
      </trkpt>
      <trkpt lat="44.46633" lon="3.9326">
        <ele>815.82</ele>
        <time>2012-06-16T10:34:19Z</time>
      </trkpt>
      <trkpt lat="44.46633" lon="3.93261">
        <ele>815.82</ele>
        <time>2012-06-16T10:34:55Z</time>
      </trkpt>
      <trkpt lat="44.46633" lon="3.93262">
        <ele>816.3</ele>
        <time>2012-06-16T10:35:32Z</time>
      </trkpt>
      <trkpt lat="44.46635" lon="3.93258">
        <ele>816.3</ele>
        <time>2012-06-16T10:35:45Z</time>
      </trkpt>
      <trkpt lat="44.46629" lon="3.93241">
        <ele>816.3</ele>
        <time>2012-06-16T10:35:53Z</time>
      </trkpt>
      <trkpt lat="44.46611" lon="3.93206">
        <ele>814.37</ele>
        <time>2012-06-16T10:36:04Z</time>
      </trkpt>
      <trkpt lat="44.46569" lon="3.93189">
        <ele>811.01</ele>
        <time>2012-06-16T10:36:15Z</time>
      </trkpt>
      <trkpt lat="44.46551" lon="3.93183">
        <ele>809.57</ele>
        <time>2012-06-16T10:36:19Z</time>
      </trkpt>
      <trkpt lat="44.46547" lon="3.93182">
        <ele>810.05</ele>
        <time>2012-06-16T10:36:20Z</time>
      </trkpt>
      <trkpt lat="44.46542" lon="3.93183">
        <ele>809.57</ele>
        <time>2012-06-16T10:36:21Z</time>
      </trkpt>
      <trkpt lat="44.46538" lon="3.93183">
        <ele>810.05</ele>
        <time>2012-06-16T10:36:22Z</time>
      </trkpt>
      <trkpt lat="44.46534" lon="3.93182">
        <ele>809.57</ele>
        <time>2012-06-16T10:36:23Z</time>
      </trkpt>
      <trkpt lat="44.46486" lon="3.93184">
        <ele>807.16</ele>
        <time>2012-06-16T10:36:36Z</time>
      </trkpt>
      <trkpt lat="44.46465" lon="3.93188">
        <ele>805.24</ele>
        <time>2012-06-16T10:36:44Z</time>
      </trkpt>
      <trkpt lat="44.46463" lon="3.93187">
        <ele>805.24</ele>
        <time>2012-06-16T10:36:45Z</time>
      </trkpt>
      <trkpt lat="44.46462" lon="3.93185">
        <ele>805.24</ele>
        <time>2012-06-16T10:36:46Z</time>
      </trkpt>
      <trkpt lat="44.46462" lon="3.93179">
        <ele>804.28</ele>
        <time>2012-06-16T10:36:49Z</time>
      </trkpt>
      <trkpt lat="44.46463" lon="3.93178">
        <ele>804.28</ele>
        <time>2012-06-16T10:36:50Z</time>
      </trkpt>
      <trkpt lat="44.46465" lon="3.93176">
        <ele>804.28</ele>
        <time>2012-06-16T10:36:51Z</time>
      </trkpt>
      <trkpt lat="44.46479" lon="3.93171">
        <ele>802.36</ele>
        <time>2012-06-16T10:36:59Z</time>
      </trkpt>
      <trkpt lat="44.46481" lon="3.93171">
        <ele>802.36</ele>
        <time>2012-06-16T10:37:00Z</time>
      </trkpt>
      <trkpt lat="44.46483" lon="3.9317">
        <ele>802.36</ele>
        <time>2012-06-16T10:37:01Z</time>
      </trkpt>
      <trkpt lat="44.46485" lon="3.9317">
        <ele>801.88</ele>
        <time>2012-06-16T10:37:02Z</time>
      </trkpt>
      <trkpt lat="44.46487" lon="3.9317">
        <ele>801.88</ele>
        <time>2012-06-16T10:37:03Z</time>
      </trkpt>
      <trkpt lat="44.46488" lon="3.93169">
        <ele>801.88</ele>
        <time>2012-06-16T10:37:04Z</time>
      </trkpt>
      <trkpt lat="44.46491" lon="3.93168">
        <ele>801.4</ele>
        <time>2012-06-16T10:37:06Z</time>
      </trkpt>
      <trkpt lat="44.46492" lon="3.93166">
        <ele>801.4</ele>
        <time>2012-06-16T10:37:07Z</time>
      </trkpt>
      <trkpt lat="44.46494" lon="3.93163">
        <ele>801.4</ele>
        <time>2012-06-16T10:37:08Z</time>
      </trkpt>
      <trkpt lat="44.46496" lon="3.93161">
        <ele>800.92</ele>
        <time>2012-06-16T10:37:09Z</time>
      </trkpt>
      <trkpt lat="44.46498" lon="3.9316">
        <ele>801.4</ele>
        <time>2012-06-16T10:37:10Z</time>
      </trkpt>
      <trkpt lat="44.46507" lon="3.93152">
        <ele>800.44</ele>
        <time>2012-06-16T10:37:13Z</time>
      </trkpt>
      <trkpt lat="44.46532" lon="3.93136">
        <ele>798.03</ele>
        <time>2012-06-16T10:37:21Z</time>
      </trkpt>
      <trkpt lat="44.46559" lon="3.93122">
        <ele>796.11</ele>
        <time>2012-06-16T10:37:31Z</time>
      </trkpt>
      <trkpt lat="44.46568" lon="3.9312">
        <ele>794.67</ele>
        <time>2012-06-16T10:37:36Z</time>
      </trkpt>
      <trkpt lat="44.46569" lon="3.93118">
        <ele>793.71</ele>
        <time>2012-06-16T10:37:37Z</time>
      </trkpt>
      <trkpt lat="44.46569" lon="3.93116">
        <ele>793.22</ele>
        <time>2012-06-16T10:37:38Z</time>
      </trkpt>
      <trkpt lat="44.46569" lon="3.93113">
        <ele>793.22</ele>
        <time>2012-06-16T10:37:39Z</time>
      </trkpt>
      <trkpt lat="44.46569" lon="3.9311">
        <ele>793.22</ele>
        <time>2012-06-16T10:37:40Z</time>
      </trkpt>
      <trkpt lat="44.46569" lon="3.93108">
        <ele>792.74</ele>
        <time>2012-06-16T10:37:41Z</time>
      </trkpt>
      <trkpt lat="44.46568" lon="3.93106">
        <ele>792.26</ele>
        <time>2012-06-16T10:37:42Z</time>
      </trkpt>
      <trkpt lat="44.46566" lon="3.93104">
        <ele>792.26</ele>
        <time>2012-06-16T10:37:43Z</time>
      </trkpt>
      <trkpt lat="44.46564" lon="3.93102">
        <ele>791.78</ele>
        <time>2012-06-16T10:37:44Z</time>
      </trkpt>
      <trkpt lat="44.46561" lon="3.93101">
        <ele>791.78</ele>
        <time>2012-06-16T10:37:45Z</time>
      </trkpt>
      <trkpt lat="44.46559" lon="3.931">
        <ele>791.78</ele>
        <time>2012-06-16T10:37:46Z</time>
      </trkpt>
      <trkpt lat="44.46556" lon="3.931">
        <ele>790.82</ele>
        <time>2012-06-16T10:37:47Z</time>
      </trkpt>
      <trkpt lat="44.46554" lon="3.931">
        <ele>790.82</ele>
        <time>2012-06-16T10:37:48Z</time>
      </trkpt>
      <trkpt lat="44.46552" lon="3.93101">
        <ele>790.34</ele>
        <time>2012-06-16T10:37:49Z</time>
      </trkpt>
      <trkpt lat="44.46549" lon="3.93102">
        <ele>790.34</ele>
        <time>2012-06-16T10:37:50Z</time>
      </trkpt>
      <trkpt lat="44.46543" lon="3.93102">
        <ele>788.9</ele>
        <time>2012-06-16T10:38:00Z</time>
      </trkpt>
      <trkpt lat="44.46541" lon="3.93101">
        <ele>788.9</ele>
        <time>2012-06-16T10:38:06Z</time>
      </trkpt>
      <trkpt lat="44.4654" lon="3.931">
        <ele>788.42</ele>
        <time>2012-06-16T10:38:07Z</time>
      </trkpt>
      <trkpt lat="44.46537" lon="3.93099">
        <ele>787.46</ele>
        <time>2012-06-16T10:38:08Z</time>
      </trkpt>
      <trkpt lat="44.46535" lon="3.93099">
        <ele>787.46</ele>
        <time>2012-06-16T10:38:09Z</time>
      </trkpt>
      <trkpt lat="44.46534" lon="3.93099">
        <ele>787.46</ele>
        <time>2012-06-16T10:38:10Z</time>
      </trkpt>
      <trkpt lat="44.46532" lon="3.93099">
        <ele>786.98</ele>
        <time>2012-06-16T10:38:11Z</time>
      </trkpt>
      <trkpt lat="44.46524" lon="3.931">
        <ele>786.02</ele>
        <time>2012-06-16T10:38:20Z</time>
      </trkpt>
      <trkpt lat="44.46522" lon="3.931">
        <ele>785.53</ele>
        <time>2012-06-16T10:38:21Z</time>
      </trkpt>
      <trkpt lat="44.46521" lon="3.931">
        <ele>785.05</ele>
        <time>2012-06-16T10:38:22Z</time>
      </trkpt>
      <trkpt lat="44.46519" lon="3.931">
        <ele>785.53</ele>
        <time>2012-06-16T10:38:23Z</time>
      </trkpt>
      <trkpt lat="44.46514" lon="3.93099">
        <ele>783.61</ele>
        <time>2012-06-16T10:38:33Z</time>
      </trkpt>
      <trkpt lat="44.46506" lon="3.93099">
        <ele>783.13</ele>
        <time>2012-06-16T10:38:45Z</time>
      </trkpt>
      <trkpt lat="44.46496" lon="3.93099">
        <ele>781.69</ele>
        <time>2012-06-16T10:38:56Z</time>
      </trkpt>
      <trkpt lat="44.46486" lon="3.93099">
        <ele>780.73</ele>
        <time>2012-06-16T10:39:07Z</time>
      </trkpt>
      <trkpt lat="44.46485" lon="3.931">
        <ele>780.25</ele>
        <time>2012-06-16T10:39:08Z</time>
      </trkpt>
      <trkpt lat="44.46475" lon="3.93099">
        <ele>779.29</ele>
        <time>2012-06-16T10:39:19Z</time>
      </trkpt>
      <trkpt lat="44.46467" lon="3.93098">
        <ele>778.32</ele>
        <time>2012-06-16T10:39:29Z</time>
      </trkpt>
      <trkpt lat="44.46462" lon="3.93096">
        <ele>776.4</ele>
        <time>2012-06-16T10:39:40Z</time>
      </trkpt>
      <trkpt lat="44.4645" lon="3.93097">
        <ele>775.44</ele>
        <time>2012-06-16T10:39:52Z</time>
      </trkpt>
      <trkpt lat="44.46443" lon="3.93095">
        <ele>774.96</ele>
        <time>2012-06-16T10:40:00Z</time>
      </trkpt>
      <trkpt lat="44.46442" lon="3.93095">
        <ele>774.96</ele>
        <time>2012-06-16T10:40:01Z</time>
      </trkpt>
      <trkpt lat="44.4644" lon="3.93094">
        <ele>774.48</ele>
        <time>2012-06-16T10:40:02Z</time>
      </trkpt>
      <trkpt lat="44.46439" lon="3.93093">
        <ele>774.48</ele>
        <time>2012-06-16T10:40:03Z</time>
      </trkpt>
      <trkpt lat="44.46438" lon="3.93093">
        <ele>774.48</ele>
        <time>2012-06-16T10:40:04Z</time>
      </trkpt>
      <trkpt lat="44.46437" lon="3.93093">
        <ele>774.48</ele>
        <time>2012-06-16T10:40:05Z</time>
      </trkpt>
      <trkpt lat="44.46436" lon="3.93093">
        <ele>774.48</ele>
        <time>2012-06-16T10:40:06Z</time>
      </trkpt>
      <trkpt lat="44.46425" lon="3.93096">
        <ele>772.08</ele>
        <time>2012-06-16T10:40:18Z</time>
      </trkpt>
      <trkpt lat="44.46423" lon="3.93095">
        <ele>772.08</ele>
        <time>2012-06-16T10:40:20Z</time>
      </trkpt>
      <trkpt lat="44.46422" lon="3.93095">
        <ele>771.6</ele>
        <time>2012-06-16T10:40:21Z</time>
      </trkpt>
      <trkpt lat="44.46414" lon="3.93094">
        <ele>770.15</ele>
        <time>2012-06-16T10:40:30Z</time>
      </trkpt>
      <trkpt lat="44.46413" lon="3.93094">
        <ele>769.67</ele>
        <time>2012-06-16T10:40:31Z</time>
      </trkpt>
      <trkpt lat="44.46412" lon="3.93093">
        <ele>770.15</ele>
        <time>2012-06-16T10:40:32Z</time>
      </trkpt>
      <trkpt lat="44.46402" lon="3.93088">
        <ele>769.19</ele>
        <time>2012-06-16T10:40:44Z</time>
      </trkpt>
      <trkpt lat="44.46397" lon="3.93084">
        <ele>768.23</ele>
        <time>2012-06-16T10:40:49Z</time>
      </trkpt>
      <trkpt lat="44.46396" lon="3.93084">
        <ele>767.75</ele>
        <time>2012-06-16T10:40:50Z</time>
      </trkpt>
      <trkpt lat="44.46391" lon="3.93083">
        <ele>766.79</ele>
        <time>2012-06-16T10:40:56Z</time>
      </trkpt>
      <trkpt lat="44.4639" lon="3.93084">
        <ele>766.79</ele>
        <time>2012-06-16T10:40:57Z</time>
      </trkpt>
      <trkpt lat="44.46387" lon="3.93084">
        <ele>766.31</ele>
        <time>2012-06-16T10:41:00Z</time>
      </trkpt>
      <trkpt lat="44.46382" lon="3.93085">
        <ele>765.35</ele>
        <time>2012-06-16T10:41:05Z</time>
      </trkpt>
      <trkpt lat="44.46377" lon="3.93085">
        <ele>764.87</ele>
        <time>2012-06-16T10:41:09Z</time>
      </trkpt>
      <trkpt lat="44.46376" lon="3.93084">
        <ele>765.35</ele>
        <time>2012-06-16T10:41:10Z</time>
      </trkpt>
      <trkpt lat="44.46366" lon="3.93085">
        <ele>763.9</ele>
        <time>2012-06-16T10:41:20Z</time>
      </trkpt>
      <trkpt lat="44.46355" lon="3.93083">
        <ele>761.98</ele>
        <time>2012-06-16T10:41:31Z</time>
      </trkpt>
      <trkpt lat="44.46349" lon="3.93082">
        <ele>760.54</ele>
        <time>2012-06-16T10:41:41Z</time>
      </trkpt>
      <trkpt lat="44.46341" lon="3.9308">
        <ele>759.58</ele>
        <time>2012-06-16T10:41:53Z</time>
      </trkpt>
      <trkpt lat="44.46338" lon="3.9308">
        <ele>759.1</ele>
        <time>2012-06-16T10:41:56Z</time>
      </trkpt>
      <trkpt lat="44.46336" lon="3.93079">
        <ele>759.1</ele>
        <time>2012-06-16T10:41:58Z</time>
      </trkpt>
      <trkpt lat="44.46335" lon="3.9308">
        <ele>759.1</ele>
        <time>2012-06-16T10:41:59Z</time>
      </trkpt>
      <trkpt lat="44.46319" lon="3.93079">
        <ele>757.18</ele>
        <time>2012-06-16T10:42:14Z</time>
      </trkpt>
      <trkpt lat="44.46318" lon="3.93079">
        <ele>756.69</ele>
        <time>2012-06-16T10:42:15Z</time>
      </trkpt>
      <trkpt lat="44.46316" lon="3.93079">
        <ele>756.21</ele>
        <time>2012-06-16T10:42:17Z</time>
      </trkpt>
      <trkpt lat="44.46314" lon="3.93079">
        <ele>755.73</ele>
        <time>2012-06-16T10:42:18Z</time>
      </trkpt>
      <trkpt lat="44.46313" lon="3.93079">
        <ele>755.73</ele>
        <time>2012-06-16T10:42:19Z</time>
      </trkpt>
      <trkpt lat="44.46302" lon="3.9308">
        <ele>753.81</ele>
        <time>2012-06-16T10:42:30Z</time>
      </trkpt>
      <trkpt lat="44.46291" lon="3.93081">
        <ele>752.37</ele>
        <time>2012-06-16T10:42:41Z</time>
      </trkpt>
      <trkpt lat="44.46288" lon="3.93081">
        <ele>751.89</ele>
        <time>2012-06-16T10:42:44Z</time>
      </trkpt>
      <trkpt lat="44.46287" lon="3.93081">
        <ele>751.89</ele>
        <time>2012-06-16T10:42:45Z</time>
      </trkpt>
      <trkpt lat="44.46286" lon="3.93081">
        <ele>751.41</ele>
        <time>2012-06-16T10:42:46Z</time>
      </trkpt>
      <trkpt lat="44.46284" lon="3.9308">
        <ele>751.89</ele>
        <time>2012-06-16T10:42:47Z</time>
      </trkpt>
      <trkpt lat="44.46283" lon="3.9308">
        <ele>750.93</ele>
        <time>2012-06-16T10:42:48Z</time>
      </trkpt>
      <trkpt lat="44.46278" lon="3.9308">
        <ele>750.93</ele>
        <time>2012-06-16T10:42:52Z</time>
      </trkpt>
      <trkpt lat="44.46277" lon="3.9308">
        <ele>750.93</ele>
        <time>2012-06-16T10:42:53Z</time>
      </trkpt>
      <trkpt lat="44.46276" lon="3.93079">
        <ele>750.45</ele>
        <time>2012-06-16T10:42:54Z</time>
      </trkpt>
      <trkpt lat="44.46269" lon="3.93084">
        <ele>749</ele>
        <time>2012-06-16T10:43:04Z</time>
      </trkpt>
      <trkpt lat="44.46263" lon="3.93086">
        <ele>748.52</ele>
        <time>2012-06-16T10:43:10Z</time>
      </trkpt>
      <trkpt lat="44.46261" lon="3.93085">
        <ele>748.52</ele>
        <time>2012-06-16T10:43:11Z</time>
      </trkpt>
      <trkpt lat="44.46259" lon="3.93085">
        <ele>748.52</ele>
        <time>2012-06-16T10:43:12Z</time>
      </trkpt>
      <trkpt lat="44.46256" lon="3.93085">
        <ele>748.04</ele>
        <time>2012-06-16T10:43:13Z</time>
      </trkpt>
      <trkpt lat="44.46254" lon="3.93085">
        <ele>747.56</ele>
        <time>2012-06-16T10:43:14Z</time>
      </trkpt>
      <trkpt lat="44.46252" lon="3.93085">
        <ele>747.08</ele>
        <time>2012-06-16T10:43:15Z</time>
      </trkpt>
      <trkpt lat="44.4625" lon="3.93086">
        <ele>746.6</ele>
        <time>2012-06-16T10:43:16Z</time>
      </trkpt>
      <trkpt lat="44.46248" lon="3.93087">
        <ele>746.12</ele>
        <time>2012-06-16T10:43:17Z</time>
      </trkpt>
      <trkpt lat="44.46242" lon="3.93089">
        <ele>744.68</ele>
        <time>2012-06-16T10:43:20Z</time>
      </trkpt>
      <trkpt lat="44.46235" lon="3.93092">
        <ele>743.24</ele>
        <time>2012-06-16T10:43:23Z</time>
      </trkpt>
      <trkpt lat="44.46221" lon="3.93098">
        <ele>739.87</ele>
        <time>2012-06-16T10:43:33Z</time>
      </trkpt>
      <trkpt lat="44.46214" lon="3.93102">
        <ele>738.91</ele>
        <time>2012-06-16T10:43:42Z</time>
      </trkpt>
      <trkpt lat="44.4621" lon="3.93105">
        <ele>738.43</ele>
        <time>2012-06-16T10:43:46Z</time>
      </trkpt>
      <trkpt lat="44.46199" lon="3.93111">
        <ele>736.51</ele>
        <time>2012-06-16T10:43:56Z</time>
      </trkpt>
      <trkpt lat="44.46198" lon="3.93111">
        <ele>736.51</ele>
        <time>2012-06-16T10:43:57Z</time>
      </trkpt>
      <trkpt lat="44.4619" lon="3.93117">
        <ele>735.07</ele>
        <time>2012-06-16T10:44:02Z</time>
      </trkpt>
      <trkpt lat="44.46189" lon="3.93117">
        <ele>735.07</ele>
        <time>2012-06-16T10:44:03Z</time>
      </trkpt>
      <trkpt lat="44.46187" lon="3.93117">
        <ele>734.58</ele>
        <time>2012-06-16T10:44:04Z</time>
      </trkpt>
      <trkpt lat="44.46185" lon="3.93118">
        <ele>734.1</ele>
        <time>2012-06-16T10:44:05Z</time>
      </trkpt>
      <trkpt lat="44.46183" lon="3.93118">
        <ele>734.58</ele>
        <time>2012-06-16T10:44:06Z</time>
      </trkpt>
      <trkpt lat="44.46174" lon="3.93123">
        <ele>733.62</ele>
        <time>2012-06-16T10:44:12Z</time>
      </trkpt>
      <trkpt lat="44.46165" lon="3.93126">
        <ele>732.18</ele>
        <time>2012-06-16T10:44:23Z</time>
      </trkpt>
      <trkpt lat="44.46157" lon="3.93126">
        <ele>731.7</ele>
        <time>2012-06-16T10:44:32Z</time>
      </trkpt>
      <trkpt lat="44.46146" lon="3.93127">
        <ele>730.26</ele>
        <time>2012-06-16T10:44:42Z</time>
      </trkpt>
      <trkpt lat="44.46132" lon="3.93125">
        <ele>729.3</ele>
        <time>2012-06-16T10:44:54Z</time>
      </trkpt>
      <trkpt lat="44.4613" lon="3.93125">
        <ele>729.3</ele>
        <time>2012-06-16T10:44:55Z</time>
      </trkpt>
      <trkpt lat="44.46116" lon="3.93122">
        <ele>728.34</ele>
        <time>2012-06-16T10:45:08Z</time>
      </trkpt>
      <trkpt lat="44.4611" lon="3.93124">
        <ele>728.34</ele>
        <time>2012-06-16T10:45:13Z</time>
      </trkpt>
      <trkpt lat="44.46101" lon="3.93123">
        <ele>725.93</ele>
        <time>2012-06-16T10:45:25Z</time>
      </trkpt>
      <trkpt lat="44.46096" lon="3.93121">
        <ele>725.45</ele>
        <time>2012-06-16T10:45:29Z</time>
      </trkpt>
      <trkpt lat="44.46085" lon="3.9312">
        <ele>723.05</ele>
        <time>2012-06-16T10:45:40Z</time>
      </trkpt>
      <trkpt lat="44.46073" lon="3.93115">
        <ele>721.13</ele>
        <time>2012-06-16T10:45:52Z</time>
      </trkpt>
      <trkpt lat="44.46069" lon="3.93114">
        <ele>720.65</ele>
        <time>2012-06-16T10:45:55Z</time>
      </trkpt>
      <trkpt lat="44.46067" lon="3.93113">
        <ele>719.68</ele>
        <time>2012-06-16T10:45:56Z</time>
      </trkpt>
      <trkpt lat="44.46057" lon="3.9311">
        <ele>718.72</ele>
        <time>2012-06-16T10:46:07Z</time>
      </trkpt>
      <trkpt lat="44.46049" lon="3.93105">
        <ele>717.28</ele>
        <time>2012-06-16T10:46:14Z</time>
      </trkpt>
      <trkpt lat="44.46048" lon="3.93104">
        <ele>716.8</ele>
        <time>2012-06-16T10:46:15Z</time>
      </trkpt>
      <trkpt lat="44.46046" lon="3.93103">
        <ele>716.8</ele>
        <time>2012-06-16T10:46:16Z</time>
      </trkpt>
      <trkpt lat="44.46044" lon="3.93103">
        <ele>717.28</ele>
        <time>2012-06-16T10:46:17Z</time>
      </trkpt>
      <trkpt lat="44.46041" lon="3.931">
        <ele>716.32</ele>
        <time>2012-06-16T10:46:20Z</time>
      </trkpt>
      <trkpt lat="44.46038" lon="3.93099">
        <ele>716.32</ele>
        <time>2012-06-16T10:46:32Z</time>
      </trkpt>
      <trkpt lat="44.46036" lon="3.93096">
        <ele>716.32</ele>
        <time>2012-06-16T10:46:35Z</time>
      </trkpt>
      <trkpt lat="44.4603" lon="3.93093">
        <ele>715.84</ele>
        <time>2012-06-16T10:46:41Z</time>
      </trkpt>
      <trkpt lat="44.46029" lon="3.93092">
        <ele>715.36</ele>
        <time>2012-06-16T10:46:42Z</time>
      </trkpt>
      <trkpt lat="44.46028" lon="3.9309">
        <ele>715.84</ele>
        <time>2012-06-16T10:46:43Z</time>
      </trkpt>
      <trkpt lat="44.46026" lon="3.93089">
        <ele>715.36</ele>
        <time>2012-06-16T10:46:44Z</time>
      </trkpt>
      <trkpt lat="44.46025" lon="3.93087">
        <ele>714.88</ele>
        <time>2012-06-16T10:46:46Z</time>
      </trkpt>
      <trkpt lat="44.46024" lon="3.93086">
        <ele>714.88</ele>
        <time>2012-06-16T10:46:47Z</time>
      </trkpt>
      <trkpt lat="44.46023" lon="3.93085">
        <ele>714.88</ele>
        <time>2012-06-16T10:46:48Z</time>
      </trkpt>
      <trkpt lat="44.46017" lon="3.93081">
        <ele>713.92</ele>
        <time>2012-06-16T10:47:02Z</time>
      </trkpt>
      <trkpt lat="44.46015" lon="3.93079">
        <ele>713.44</ele>
        <time>2012-06-16T10:47:28Z</time>
      </trkpt>
      <trkpt lat="44.46013" lon="3.93079">
        <ele>713.92</ele>
        <time>2012-06-16T10:47:48Z</time>
      </trkpt>
      <trkpt lat="44.46012" lon="3.93079">
        <ele>713.44</ele>
        <time>2012-06-16T10:48:12Z</time>
      </trkpt>
      <trkpt lat="44.46012" lon="3.93078">
        <ele>713.44</ele>
        <time>2012-06-16T10:48:40Z</time>
      </trkpt>
      <trkpt lat="44.46009" lon="3.93079">
        <ele>713.44</ele>
        <time>2012-06-16T10:48:52Z</time>
      </trkpt>
      <trkpt lat="44.46008" lon="3.93079">
        <ele>713.92</ele>
        <time>2012-06-16T10:48:53Z</time>
      </trkpt>
      <trkpt lat="44.46006" lon="3.93079">
        <ele>713.44</ele>
        <time>2012-06-16T10:48:55Z</time>
      </trkpt>
      <trkpt lat="44.46001" lon="3.93078">
        <ele>712.47</ele>
        <time>2012-06-16T10:49:03Z</time>
      </trkpt>
      <trkpt lat="44.45993" lon="3.93077">
        <ele>711.51</ele>
        <time>2012-06-16T10:49:14Z</time>
      </trkpt>
      <trkpt lat="44.45989" lon="3.93077">
        <ele>710.55</ele>
        <time>2012-06-16T10:49:25Z</time>
      </trkpt>
      <trkpt lat="44.45988" lon="3.93079">
        <ele>710.55</ele>
        <time>2012-06-16T10:49:51Z</time>
      </trkpt>
      <trkpt lat="44.45985" lon="3.93076">
        <ele>710.07</ele>
        <time>2012-06-16T10:50:14Z</time>
      </trkpt>
      <trkpt lat="44.45982" lon="3.93076">
        <ele>709.59</ele>
        <time>2012-06-16T10:50:18Z</time>
      </trkpt>
      <trkpt lat="44.45977" lon="3.93074">
        <ele>708.15</ele>
        <time>2012-06-16T10:50:25Z</time>
      </trkpt>
      <trkpt lat="44.45967" lon="3.93073">
        <ele>707.67</ele>
        <time>2012-06-16T10:50:37Z</time>
      </trkpt>
      <trkpt lat="44.45966" lon="3.93072">
        <ele>707.19</ele>
        <time>2012-06-16T10:50:38Z</time>
      </trkpt>
      <trkpt lat="44.45958" lon="3.93063">
        <ele>706.23</ele>
        <time>2012-06-16T10:50:49Z</time>
      </trkpt>
      <trkpt lat="44.45957" lon="3.93061">
        <ele>705.75</ele>
        <time>2012-06-16T10:50:51Z</time>
      </trkpt>
      <trkpt lat="44.45956" lon="3.93061">
        <ele>705.75</ele>
        <time>2012-06-16T10:50:52Z</time>
      </trkpt>
      <trkpt lat="44.45952" lon="3.93056">
        <ele>705.26</ele>
        <time>2012-06-16T10:50:57Z</time>
      </trkpt>
      <trkpt lat="44.4595" lon="3.93054">
        <ele>704.78</ele>
        <time>2012-06-16T10:51:00Z</time>
      </trkpt>
      <trkpt lat="44.45949" lon="3.93053">
        <ele>704.3</ele>
        <time>2012-06-16T10:51:01Z</time>
      </trkpt>
      <trkpt lat="44.45949" lon="3.93052">
        <ele>704.3</ele>
        <time>2012-06-16T10:51:02Z</time>
      </trkpt>
      <trkpt lat="44.45948" lon="3.93052">
        <ele>704.3</ele>
        <time>2012-06-16T10:51:03Z</time>
      </trkpt>
      <trkpt lat="44.45947" lon="3.9305">
        <ele>704.3</ele>
        <time>2012-06-16T10:51:04Z</time>
      </trkpt>
      <trkpt lat="44.4594" lon="3.93033">
        <ele>701.9</ele>
        <time>2012-06-16T10:51:16Z</time>
      </trkpt>
      <trkpt lat="44.45932" lon="3.93024">
        <ele>700.46</ele>
        <time>2012-06-16T10:51:25Z</time>
      </trkpt>
      <trkpt lat="44.45931" lon="3.93023">
        <ele>700.46</ele>
        <time>2012-06-16T10:51:26Z</time>
      </trkpt>
      <trkpt lat="44.4593" lon="3.93022">
        <ele>699.98</ele>
        <time>2012-06-16T10:51:27Z</time>
      </trkpt>
      <trkpt lat="44.45928" lon="3.93021">
        <ele>699.98</ele>
        <time>2012-06-16T10:51:28Z</time>
      </trkpt>
      <trkpt lat="44.45925" lon="3.93021">
        <ele>699.02</ele>
        <time>2012-06-16T10:51:32Z</time>
      </trkpt>
      <trkpt lat="44.45919" lon="3.93018">
        <ele>698.05</ele>
        <time>2012-06-16T10:51:39Z</time>
      </trkpt>
      <trkpt lat="44.4591" lon="3.93014">
        <ele>696.61</ele>
        <time>2012-06-16T10:51:51Z</time>
      </trkpt>
      <trkpt lat="44.45906" lon="3.93013">
        <ele>696.13</ele>
        <time>2012-06-16T10:51:54Z</time>
      </trkpt>
      <trkpt lat="44.45895" lon="3.93017">
        <ele>693.73</ele>
        <time>2012-06-16T10:52:09Z</time>
      </trkpt>
      <trkpt lat="44.45885" lon="3.93022">
        <ele>692.29</ele>
        <time>2012-06-16T10:52:23Z</time>
      </trkpt>
      <trkpt lat="44.45874" lon="3.93026">
        <ele>690.36</ele>
        <time>2012-06-16T10:52:37Z</time>
      </trkpt>
      <trkpt lat="44.45866" lon="3.93031">
        <ele>689.4</ele>
        <time>2012-06-16T10:52:50Z</time>
      </trkpt>
      <trkpt lat="44.45856" lon="3.93037">
        <ele>687.96</ele>
        <time>2012-06-16T10:53:04Z</time>
      </trkpt>
      <trkpt lat="44.45848" lon="3.93039">
        <ele>685.56</ele>
        <time>2012-06-16T10:53:18Z</time>
      </trkpt>
      <trkpt lat="44.45847" lon="3.93039">
        <ele>685.56</ele>
        <time>2012-06-16T10:53:35Z</time>
      </trkpt>
      <trkpt lat="44.45848" lon="3.93039">
        <ele>685.56</ele>
        <time>2012-06-16T10:54:01Z</time>
      </trkpt>
      <trkpt lat="44.45848" lon="3.93038">
        <ele>685.56</ele>
        <time>2012-06-16T10:54:14Z</time>
      </trkpt>
      <trkpt lat="44.45849" lon="3.93037">
        <ele>685.08</ele>
        <time>2012-06-16T10:54:32Z</time>
      </trkpt>
      <trkpt lat="44.4585" lon="3.93036">
        <ele>685.08</ele>
        <time>2012-06-16T10:54:45Z</time>
      </trkpt>
      <trkpt lat="44.4585" lon="3.93034">
        <ele>685.56</ele>
        <time>2012-06-16T10:54:46Z</time>
      </trkpt>
      <trkpt lat="44.45851" lon="3.93032">
        <ele>685.08</ele>
        <time>2012-06-16T10:54:47Z</time>
      </trkpt>
      <trkpt lat="44.45856" lon="3.93024">
        <ele>684.12</ele>
        <time>2012-06-16T10:54:57Z</time>
      </trkpt>
      <trkpt lat="44.45862" lon="3.93007">
        <ele>683.63</ele>
        <time>2012-06-16T10:55:14Z</time>
      </trkpt>
      <trkpt lat="44.45888" lon="3.92977">
        <ele>682.19</ele>
        <time>2012-06-16T10:55:25Z</time>
      </trkpt>
      <trkpt lat="44.45893" lon="3.92972">
        <ele>681.23</ele>
        <time>2012-06-16T10:55:37Z</time>
      </trkpt>
      <trkpt lat="44.45895" lon="3.9297">
        <ele>681.23</ele>
        <time>2012-06-16T10:55:49Z</time>
      </trkpt>
      <trkpt lat="44.45908" lon="3.92959">
        <ele>680.75</ele>
        <time>2012-06-16T10:56:03Z</time>
      </trkpt>
      <trkpt lat="44.45927" lon="3.92949">
        <ele>679.79</ele>
        <time>2012-06-16T10:56:17Z</time>
      </trkpt>
      <trkpt lat="44.45948" lon="3.92958">
        <ele>677.87</ele>
        <time>2012-06-16T10:56:31Z</time>
      </trkpt>
      <trkpt lat="44.45965" lon="3.92983">
        <ele>677.39</ele>
        <time>2012-06-16T10:56:50Z</time>
      </trkpt>
      <trkpt lat="44.45987" lon="3.93002">
        <ele>674.5</ele>
        <time>2012-06-16T10:57:08Z</time>
      </trkpt>
      <trkpt lat="44.4601" lon="3.93018">
        <ele>672.58</ele>
        <time>2012-06-16T10:57:27Z</time>
      </trkpt>
      <trkpt lat="44.46012" lon="3.93019">
        <ele>672.58</ele>
        <time>2012-06-16T10:57:29Z</time>
      </trkpt>
      <trkpt lat="44.46015" lon="3.93021">
        <ele>672.58</ele>
        <time>2012-06-16T10:57:33Z</time>
      </trkpt>
      <trkpt lat="44.46036" lon="3.93024">
        <ele>672.1</ele>
        <time>2012-06-16T10:57:44Z</time>
      </trkpt>
      <trkpt lat="44.46046" lon="3.9301">
        <ele>670.66</ele>
        <time>2012-06-16T10:57:58Z</time>
      </trkpt>
      <trkpt lat="44.46047" lon="3.93008">
        <ele>671.14</ele>
        <time>2012-06-16T10:58:22Z</time>
      </trkpt>
      <trkpt lat="44.46047" lon="3.93006">
        <ele>671.14</ele>
        <time>2012-06-16T10:58:23Z</time>
      </trkpt>
      <trkpt lat="44.46047" lon="3.93003">
        <ele>670.18</ele>
        <time>2012-06-16T10:58:24Z</time>
      </trkpt>
      <trkpt lat="44.46046" lon="3.93001">
        <ele>670.18</ele>
        <time>2012-06-16T10:58:25Z</time>
      </trkpt>
      <trkpt lat="44.46047" lon="3.92998">
        <ele>670.18</ele>
        <time>2012-06-16T10:58:26Z</time>
      </trkpt>
      <trkpt lat="44.46047" lon="3.92996">
        <ele>669.7</ele>
        <time>2012-06-16T10:58:27Z</time>
      </trkpt>
      <trkpt lat="44.46048" lon="3.92994">
        <ele>669.22</ele>
        <time>2012-06-16T10:58:28Z</time>
      </trkpt>
      <trkpt lat="44.46049" lon="3.92992">
        <ele>668.73</ele>
        <time>2012-06-16T10:58:29Z</time>
      </trkpt>
      <trkpt lat="44.4605" lon="3.92991">
        <ele>669.22</ele>
        <time>2012-06-16T10:58:30Z</time>
      </trkpt>
      <trkpt lat="44.46051" lon="3.92989">
        <ele>668.73</ele>
        <time>2012-06-16T10:58:31Z</time>
      </trkpt>
      <trkpt lat="44.46052" lon="3.92987">
        <ele>669.22</ele>
        <time>2012-06-16T10:58:32Z</time>
      </trkpt>
      <trkpt lat="44.46056" lon="3.92978">
        <ele>668.73</ele>
        <time>2012-06-16T10:58:38Z</time>
      </trkpt>
      <trkpt lat="44.46055" lon="3.9297">
        <ele>669.22</ele>
        <time>2012-06-16T10:58:50Z</time>
      </trkpt>
      <trkpt lat="44.46055" lon="3.9297">
        <ele>669.22</ele>
        <time>2012-06-16T10:59:07Z</time>
      </trkpt>
      <trkpt lat="44.46056" lon="3.92971">
        <ele>669.7</ele>
        <time>2012-06-16T10:59:36Z</time>
      </trkpt>
      <trkpt lat="44.46056" lon="3.9297">
        <ele>669.7</ele>
        <time>2012-06-16T10:59:57Z</time>
      </trkpt>
      <trkpt lat="44.46056" lon="3.92969">
        <ele>669.7</ele>
        <time>2012-06-16T11:00:24Z</time>
      </trkpt>
      <trkpt lat="44.46056" lon="3.9297">
        <ele>669.7</ele>
        <time>2012-06-16T11:00:52Z</time>
      </trkpt>
      <trkpt lat="44.46056" lon="3.9297">
        <ele>669.22</ele>
        <time>2012-06-16T11:01:19Z</time>
      </trkpt>
      <trkpt lat="44.46056" lon="3.92969">
        <ele>669.22</ele>
        <time>2012-06-16T11:01:41Z</time>
      </trkpt>
      <trkpt lat="44.46056" lon="3.92969">
        <ele>669.22</ele>
        <time>2012-06-16T11:02:05Z</time>
      </trkpt>
      <trkpt lat="44.46055" lon="3.92969">
        <ele>668.73</ele>
        <time>2012-06-16T11:02:28Z</time>
      </trkpt>
      <trkpt lat="44.46055" lon="3.92969">
        <ele>668.73</ele>
        <time>2012-06-16T11:02:48Z</time>
      </trkpt>
      <trkpt lat="44.46056" lon="3.92969">
        <ele>669.22</ele>
        <time>2012-06-16T11:03:14Z</time>
      </trkpt>
      <trkpt lat="44.46054" lon="3.9297">
        <ele>668.73</ele>
        <time>2012-06-16T11:03:39Z</time>
      </trkpt>
      <trkpt lat="44.46054" lon="3.92971">
        <ele>668.73</ele>
        <time>2012-06-16T11:04:03Z</time>
      </trkpt>
      <trkpt lat="44.46054" lon="3.92969">
        <ele>669.22</ele>
        <time>2012-06-16T11:04:35Z</time>
      </trkpt>
      <trkpt lat="44.46053" lon="3.92968">
        <ele>669.22</ele>
        <time>2012-06-16T11:05:08Z</time>
      </trkpt>
      <trkpt lat="44.46051" lon="3.92969">
        <ele>669.22</ele>
        <time>2012-06-16T11:05:45Z</time>
      </trkpt>
      <trkpt lat="44.46053" lon="3.92966">
        <ele>669.22</ele>
        <time>2012-06-16T11:06:18Z</time>
      </trkpt>
      <trkpt lat="44.46053" lon="3.92965">
        <ele>669.22</ele>
        <time>2012-06-16T11:06:49Z</time>
      </trkpt>
      <trkpt lat="44.46054" lon="3.92966">
        <ele>669.22</ele>
        <time>2012-06-16T11:07:23Z</time>
      </trkpt>
      <trkpt lat="44.46054" lon="3.92969">
        <ele>669.22</ele>
        <time>2012-06-16T11:07:49Z</time>
      </trkpt>
      <trkpt lat="44.46054" lon="3.92969">
        <ele>668.73</ele>
        <time>2012-06-16T11:08:19Z</time>
      </trkpt>
      <trkpt lat="44.46054" lon="3.92966">
        <ele>669.22</ele>
        <time>2012-06-16T11:08:42Z</time>
      </trkpt>
      <trkpt lat="44.46054" lon="3.92966">
        <ele>669.22</ele>
        <time>2012-06-16T11:08:43Z</time>
      </trkpt>
      <trkpt lat="44.46055" lon="3.92965">
        <ele>669.22</ele>
        <time>2012-06-16T11:08:44Z</time>
      </trkpt>
      <trkpt lat="44.46056" lon="3.92965">
        <ele>669.22</ele>
        <time>2012-06-16T11:08:45Z</time>
      </trkpt>
      <trkpt lat="44.46058" lon="3.92966">
        <ele>669.7</ele>
        <time>2012-06-16T11:08:46Z</time>
      </trkpt>
      <trkpt lat="44.46058" lon="3.92969">
        <ele>669.22</ele>
        <time>2012-06-16T11:08:47Z</time>
      </trkpt>
      <trkpt lat="44.46058" lon="3.92971">
        <ele>669.7</ele>
        <time>2012-06-16T11:08:48Z</time>
      </trkpt>
      <trkpt lat="44.46057" lon="3.92973">
        <ele>669.22</ele>
        <time>2012-06-16T11:08:49Z</time>
      </trkpt>
      <trkpt lat="44.46056" lon="3.92974">
        <ele>669.22</ele>
        <time>2012-06-16T11:08:50Z</time>
      </trkpt>
      <trkpt lat="44.46054" lon="3.92976">
        <ele>669.7</ele>
        <time>2012-06-16T11:08:51Z</time>
      </trkpt>
      <trkpt lat="44.4605" lon="3.92977">
        <ele>669.7</ele>
        <time>2012-06-16T11:08:53Z</time>
      </trkpt>
      <trkpt lat="44.46049" lon="3.92975">
        <ele>669.22</ele>
        <time>2012-06-16T11:08:54Z</time>
      </trkpt>
      <trkpt lat="44.46039" lon="3.9296">
        <ele>668.73</ele>
        <time>2012-06-16T11:08:58Z</time>
      </trkpt>
      <trkpt lat="44.46035" lon="3.92956">
        <ele>669.22</ele>
        <time>2012-06-16T11:08:59Z</time>
      </trkpt>
      <trkpt lat="44.4603" lon="3.92952">
        <ele>668.73</ele>
        <time>2012-06-16T11:09:00Z</time>
      </trkpt>
      <trkpt lat="44.45979" lon="3.9292">
        <ele>666.81</ele>
        <time>2012-06-16T11:09:08Z</time>
      </trkpt>
      <trkpt lat="44.4595" lon="3.92904">
        <ele>663.93</ele>
        <time>2012-06-16T11:09:12Z</time>
      </trkpt>
      <trkpt lat="44.45942" lon="3.92901">
        <ele>663.45</ele>
        <time>2012-06-16T11:09:13Z</time>
      </trkpt>
      <trkpt lat="44.45934" lon="3.92899">
        <ele>663.45</ele>
        <time>2012-06-16T11:09:14Z</time>
      </trkpt>
      <trkpt lat="44.45925" lon="3.92897">
        <ele>662.97</ele>
        <time>2012-06-16T11:09:15Z</time>
      </trkpt>
      <trkpt lat="44.45917" lon="3.92897">
        <ele>662.01</ele>
        <time>2012-06-16T11:09:16Z</time>
      </trkpt>
      <trkpt lat="44.45898" lon="3.92899">
        <ele>660.56</ele>
        <time>2012-06-16T11:09:18Z</time>
      </trkpt>
      <trkpt lat="44.45889" lon="3.92902">
        <ele>659.6</ele>
        <time>2012-06-16T11:09:19Z</time>
      </trkpt>
      <trkpt lat="44.4588" lon="3.92907">
        <ele>659.6</ele>
        <time>2012-06-16T11:09:20Z</time>
      </trkpt>
      <trkpt lat="44.45871" lon="3.92913">
        <ele>658.64</ele>
        <time>2012-06-16T11:09:21Z</time>
      </trkpt>
      <trkpt lat="44.45862" lon="3.9292">
        <ele>658.16</ele>
        <time>2012-06-16T11:09:22Z</time>
      </trkpt>
      <trkpt lat="44.45853" lon="3.92928">
        <ele>657.2</ele>
        <time>2012-06-16T11:09:23Z</time>
      </trkpt>
      <trkpt lat="44.45835" lon="3.92943">
        <ele>655.76</ele>
        <time>2012-06-16T11:09:25Z</time>
      </trkpt>
      <trkpt lat="44.45788" lon="3.92981">
        <ele>651.91</ele>
        <time>2012-06-16T11:09:30Z</time>
      </trkpt>
      <trkpt lat="44.45769" lon="3.92993">
        <ele>649.99</ele>
        <time>2012-06-16T11:09:32Z</time>
      </trkpt>
      <trkpt lat="44.45758" lon="3.92997">
        <ele>649.99</ele>
        <time>2012-06-16T11:09:33Z</time>
      </trkpt>
      <trkpt lat="44.45748" lon="3.92998">
        <ele>649.03</ele>
        <time>2012-06-16T11:09:34Z</time>
      </trkpt>
      <trkpt lat="44.45737" lon="3.92998">
        <ele>648.07</ele>
        <time>2012-06-16T11:09:35Z</time>
      </trkpt>
      <trkpt lat="44.45726" lon="3.92996">
        <ele>647.59</ele>
        <time>2012-06-16T11:09:36Z</time>
      </trkpt>
      <trkpt lat="44.45715" lon="3.92994">
        <ele>646.62</ele>
        <time>2012-06-16T11:09:37Z</time>
      </trkpt>
      <trkpt lat="44.45674" lon="3.92988">
        <ele>643.26</ele>
        <time>2012-06-16T11:09:41Z</time>
      </trkpt>
      <trkpt lat="44.45664" lon="3.92989">
        <ele>643.26</ele>
        <time>2012-06-16T11:09:42Z</time>
      </trkpt>
      <trkpt lat="44.45654" lon="3.92992">
        <ele>641.82</ele>
        <time>2012-06-16T11:09:43Z</time>
      </trkpt>
      <trkpt lat="44.45644" lon="3.92997">
        <ele>641.34</ele>
        <time>2012-06-16T11:09:44Z</time>
      </trkpt>
      <trkpt lat="44.45634" lon="3.93004">
        <ele>640.86</ele>
        <time>2012-06-16T11:09:45Z</time>
      </trkpt>
      <trkpt lat="44.45625" lon="3.93012">
        <ele>639.89</ele>
        <time>2012-06-16T11:09:46Z</time>
      </trkpt>
      <trkpt lat="44.45617" lon="3.93022">
        <ele>638.93</ele>
        <time>2012-06-16T11:09:47Z</time>
      </trkpt>
      <trkpt lat="44.45581" lon="3.93061">
        <ele>635.57</ele>
        <time>2012-06-16T11:09:51Z</time>
      </trkpt>
      <trkpt lat="44.45532" lon="3.9312">
        <ele>632.2</ele>
        <time>2012-06-16T11:09:57Z</time>
      </trkpt>
      <trkpt lat="44.45527" lon="3.93133">
        <ele>631.24</ele>
        <time>2012-06-16T11:09:58Z</time>
      </trkpt>
      <trkpt lat="44.45523" lon="3.93147">
        <ele>630.28</ele>
        <time>2012-06-16T11:09:59Z</time>
      </trkpt>
      <trkpt lat="44.45512" lon="3.9319">
        <ele>626.44</ele>
        <time>2012-06-16T11:10:02Z</time>
      </trkpt>
      <trkpt lat="44.45504" lon="3.93201">
        <ele>625.47</ele>
        <time>2012-06-16T11:10:03Z</time>
      </trkpt>
      <trkpt lat="44.45494" lon="3.93207">
        <ele>624.51</ele>
        <time>2012-06-16T11:10:04Z</time>
      </trkpt>
      <trkpt lat="44.45484" lon="3.9321">
        <ele>624.03</ele>
        <time>2012-06-16T11:10:05Z</time>
      </trkpt>
      <trkpt lat="44.45474" lon="3.93208">
        <ele>624.51</ele>
        <time>2012-06-16T11:10:06Z</time>
      </trkpt>
      <trkpt lat="44.45465" lon="3.93203">
        <ele>624.99</ele>
        <time>2012-06-16T11:10:07Z</time>
      </trkpt>
      <trkpt lat="44.45456" lon="3.93195">
        <ele>624.99</ele>
        <time>2012-06-16T11:10:08Z</time>
      </trkpt>
      <trkpt lat="44.45448" lon="3.93188">
        <ele>624.99</ele>
        <time>2012-06-16T11:10:09Z</time>
      </trkpt>
      <trkpt lat="44.4544" lon="3.93182">
        <ele>624.51</ele>
        <time>2012-06-16T11:10:10Z</time>
      </trkpt>
      <trkpt lat="44.45432" lon="3.93176">
        <ele>624.51</ele>
        <time>2012-06-16T11:10:11Z</time>
      </trkpt>
      <trkpt lat="44.45424" lon="3.93172">
        <ele>624.51</ele>
        <time>2012-06-16T11:10:12Z</time>
      </trkpt>
      <trkpt lat="44.45415" lon="3.93169">
        <ele>624.51</ele>
        <time>2012-06-16T11:10:13Z</time>
      </trkpt>
      <trkpt lat="44.45407" lon="3.93167">
        <ele>624.03</ele>
        <time>2012-06-16T11:10:14Z</time>
      </trkpt>
      <trkpt lat="44.45399" lon="3.93166">
        <ele>624.03</ele>
        <time>2012-06-16T11:10:15Z</time>
      </trkpt>
      <trkpt lat="44.45391" lon="3.93166">
        <ele>624.03</ele>
        <time>2012-06-16T11:10:16Z</time>
      </trkpt>
      <trkpt lat="44.45383" lon="3.93167">
        <ele>624.51</ele>
        <time>2012-06-16T11:10:17Z</time>
      </trkpt>
      <trkpt lat="44.45336" lon="3.93167">
        <ele>624.51</ele>
        <time>2012-06-16T11:10:23Z</time>
      </trkpt>
      <trkpt lat="44.45307" lon="3.93158">
        <ele>624.51</ele>
        <time>2012-06-16T11:10:27Z</time>
      </trkpt>
      <trkpt lat="44.453" lon="3.93158">
        <ele>624.03</ele>
        <time>2012-06-16T11:10:28Z</time>
      </trkpt>
      <trkpt lat="44.45293" lon="3.93158">
        <ele>624.03</ele>
        <time>2012-06-16T11:10:29Z</time>
      </trkpt>
      <trkpt lat="44.45286" lon="3.9316">
        <ele>624.03</ele>
        <time>2012-06-16T11:10:30Z</time>
      </trkpt>
      <trkpt lat="44.4528" lon="3.93162">
        <ele>624.03</ele>
        <time>2012-06-16T11:10:31Z</time>
      </trkpt>
      <trkpt lat="44.4524" lon="3.93182">
        <ele>622.59</ele>
        <time>2012-06-16T11:10:37Z</time>
      </trkpt>
      <trkpt lat="44.45234" lon="3.93186">
        <ele>622.59</ele>
        <time>2012-06-16T11:10:38Z</time>
      </trkpt>
      <trkpt lat="44.45229" lon="3.93191">
        <ele>622.59</ele>
        <time>2012-06-16T11:10:39Z</time>
      </trkpt>
      <trkpt lat="44.45223" lon="3.93197">
        <ele>622.11</ele>
        <time>2012-06-16T11:10:40Z</time>
      </trkpt>
      <trkpt lat="44.45217" lon="3.93202">
        <ele>622.59</ele>
        <time>2012-06-16T11:10:41Z</time>
      </trkpt>
      <trkpt lat="44.45199" lon="3.93216">
        <ele>622.59</ele>
        <time>2012-06-16T11:10:44Z</time>
      </trkpt>
      <trkpt lat="44.45192" lon="3.9322">
        <ele>622.59</ele>
        <time>2012-06-16T11:10:45Z</time>
      </trkpt>
      <trkpt lat="44.45184" lon="3.93222">
        <ele>622.59</ele>
        <time>2012-06-16T11:10:46Z</time>
      </trkpt>
      <trkpt lat="44.45163" lon="3.93224">
        <ele>622.59</ele>
        <time>2012-06-16T11:10:49Z</time>
      </trkpt>
      <trkpt lat="44.45156" lon="3.93223">
        <ele>622.59</ele>
        <time>2012-06-16T11:10:50Z</time>
      </trkpt>
      <trkpt lat="44.45148" lon="3.93221">
        <ele>623.07</ele>
        <time>2012-06-16T11:10:51Z</time>
      </trkpt>
      <trkpt lat="44.45141" lon="3.93218">
        <ele>623.07</ele>
        <time>2012-06-16T11:10:52Z</time>
      </trkpt>
      <trkpt lat="44.45135" lon="3.93214">
        <ele>623.55</ele>
        <time>2012-06-16T11:10:53Z</time>
      </trkpt>
      <trkpt lat="44.45128" lon="3.9321">
        <ele>623.07</ele>
        <time>2012-06-16T11:10:54Z</time>
      </trkpt>
      <trkpt lat="44.45027" lon="3.93128">
        <ele>623.55</ele>
        <time>2012-06-16T11:11:10Z</time>
      </trkpt>
      <trkpt lat="44.44922" lon="3.93059">
        <ele>623.07</ele>
        <time>2012-06-16T11:11:27Z</time>
      </trkpt>
      <trkpt lat="44.44884" lon="3.93037">
        <ele>623.55</ele>
        <time>2012-06-16T11:11:34Z</time>
      </trkpt>
      <trkpt lat="44.4488" lon="3.93031">
        <ele>622.59</ele>
        <time>2012-06-16T11:11:35Z</time>
      </trkpt>
      <trkpt lat="44.44876" lon="3.93024">
        <ele>622.59</ele>
        <time>2012-06-16T11:11:36Z</time>
      </trkpt>
      <trkpt lat="44.44866" lon="3.93002">
        <ele>622.11</ele>
        <time>2012-06-16T11:11:39Z</time>
      </trkpt>
      <trkpt lat="44.44865" lon="3.92993">
        <ele>621.63</ele>
        <time>2012-06-16T11:11:40Z</time>
      </trkpt>
      <trkpt lat="44.44866" lon="3.92985">
        <ele>622.11</ele>
        <time>2012-06-16T11:11:41Z</time>
      </trkpt>
      <trkpt lat="44.44867" lon="3.92976">
        <ele>621.63</ele>
        <time>2012-06-16T11:11:42Z</time>
      </trkpt>
      <trkpt lat="44.4487" lon="3.92967">
        <ele>622.11</ele>
        <time>2012-06-16T11:11:43Z</time>
      </trkpt>
      <trkpt lat="44.44896" lon="3.92886">
        <ele>624.03</ele>
        <time>2012-06-16T11:11:55Z</time>
      </trkpt>
      <trkpt lat="44.44898" lon="3.92883">
        <ele>624.03</ele>
        <time>2012-06-16T11:11:56Z</time>
      </trkpt>
      <trkpt lat="44.449" lon="3.92881">
        <ele>624.03</ele>
        <time>2012-06-16T11:11:57Z</time>
      </trkpt>
      <trkpt lat="44.44901" lon="3.9288">
        <ele>624.03</ele>
        <time>2012-06-16T11:11:58Z</time>
      </trkpt>
      <trkpt lat="44.44903" lon="3.92879">
        <ele>624.51</ele>
        <time>2012-06-16T11:11:59Z</time>
      </trkpt>
      <trkpt lat="44.44905" lon="3.92879">
        <ele>624.03</ele>
        <time>2012-06-16T11:12:00Z</time>
      </trkpt>
      <trkpt lat="44.44906" lon="3.9288">
        <ele>624.03</ele>
        <time>2012-06-16T11:12:01Z</time>
      </trkpt>
      <trkpt lat="44.44909" lon="3.92879">
        <ele>624.51</ele>
        <time>2012-06-16T11:12:12Z</time>
      </trkpt>
      <trkpt lat="44.4491" lon="3.92878">
        <ele>624.03</ele>
        <time>2012-06-16T11:12:35Z</time>
      </trkpt>
      <trkpt lat="44.44911" lon="3.9288">
        <ele>623.55</ele>
        <time>2012-06-16T11:13:04Z</time>
      </trkpt>
      <trkpt lat="44.4491" lon="3.9288">
        <ele>623.55</ele>
        <time>2012-06-16T11:13:31Z</time>
      </trkpt>
      <trkpt lat="44.44907" lon="3.92879">
        <ele>622.59</ele>
        <time>2012-06-16T11:13:58Z</time>
      </trkpt>
      <trkpt lat="44.44909" lon="3.9288">
        <ele>623.07</ele>
        <time>2012-06-16T11:14:28Z</time>
      </trkpt>
      <trkpt lat="44.44909" lon="3.92879">
        <ele>623.55</ele>
        <time>2012-06-16T11:15:02Z</time>
      </trkpt>
      <trkpt lat="44.44909" lon="3.92878">
        <ele>623.55</ele>
        <time>2012-06-16T11:15:35Z</time>
      </trkpt>
      <trkpt lat="44.44909" lon="3.92881">
        <ele>623.55</ele>
        <time>2012-06-16T11:16:06Z</time>
      </trkpt>
      <trkpt lat="44.44909" lon="3.92882">
        <ele>623.55</ele>
        <time>2012-06-16T11:16:40Z</time>
      </trkpt>
      <trkpt lat="44.4491" lon="3.9288">
        <ele>623.55</ele>
        <time>2012-06-16T11:17:12Z</time>
      </trkpt>
      <trkpt lat="44.44911" lon="3.9288">
        <ele>624.03</ele>
        <time>2012-06-16T11:17:47Z</time>
      </trkpt>
      <trkpt lat="44.44911" lon="3.92879">
        <ele>624.03</ele>
        <time>2012-06-16T11:18:14Z</time>
      </trkpt>
      <trkpt lat="44.4491" lon="3.9288">
        <ele>623.07</ele>
        <time>2012-06-16T11:18:47Z</time>
      </trkpt>
      <trkpt lat="44.44911" lon="3.92878">
        <ele>624.03</ele>
        <time>2012-06-16T11:19:20Z</time>
      </trkpt>
      <trkpt lat="44.44911" lon="3.92877">
        <ele>623.55</ele>
        <time>2012-06-16T11:19:53Z</time>
      </trkpt>
      <trkpt lat="44.44913" lon="3.9288">
        <ele>623.55</ele>
        <time>2012-06-16T11:20:30Z</time>
      </trkpt>
      <trkpt lat="44.44911" lon="3.92882">
        <ele>623.55</ele>
        <time>2012-06-16T11:21:00Z</time>
      </trkpt>
      <trkpt lat="44.4491" lon="3.92881">
        <ele>623.07</ele>
        <time>2012-06-16T11:21:30Z</time>
      </trkpt>
      <trkpt lat="44.44911" lon="3.92881">
        <ele>623.07</ele>
        <time>2012-06-16T11:22:08Z</time>
      </trkpt>
      <trkpt lat="44.44912" lon="3.92879">
        <ele>623.07</ele>
        <time>2012-06-16T11:22:37Z</time>
      </trkpt>
      <trkpt lat="44.44913" lon="3.9288">
        <ele>623.55</ele>
        <time>2012-06-16T11:23:05Z</time>
      </trkpt>
      <trkpt lat="44.44915" lon="3.92882">
        <ele>623.55</ele>
        <time>2012-06-16T11:23:37Z</time>
      </trkpt>
      <trkpt lat="44.44913" lon="3.92881">
        <ele>623.07</ele>
        <time>2012-06-16T11:24:03Z</time>
      </trkpt>
      <trkpt lat="44.44913" lon="3.92882">
        <ele>623.55</ele>
        <time>2012-06-16T11:24:34Z</time>
      </trkpt>
      <trkpt lat="44.44912" lon="3.92881">
        <ele>623.07</ele>
        <time>2012-06-16T11:25:07Z</time>
      </trkpt>
      <trkpt lat="44.44912" lon="3.92882">
        <ele>623.07</ele>
        <time>2012-06-16T11:25:39Z</time>
      </trkpt>
      <trkpt lat="44.44911" lon="3.9288">
        <ele>623.55</ele>
        <time>2012-06-16T11:26:11Z</time>
      </trkpt>
      <trkpt lat="44.44912" lon="3.92881">
        <ele>623.55</ele>
        <time>2012-06-16T11:26:45Z</time>
      </trkpt>
      <trkpt lat="44.44911" lon="3.92881">
        <ele>623.07</ele>
        <time>2012-06-16T11:27:15Z</time>
      </trkpt>
      <trkpt lat="44.44912" lon="3.9288">
        <ele>623.07</ele>
        <time>2012-06-16T11:27:42Z</time>
      </trkpt>
      <trkpt lat="44.44912" lon="3.9288">
        <ele>624.03</ele>
        <time>2012-06-16T11:28:13Z</time>
      </trkpt>
      <trkpt lat="44.44911" lon="3.9288">
        <ele>623.07</ele>
        <time>2012-06-16T11:28:49Z</time>
      </trkpt>
      <trkpt lat="44.44912" lon="3.92881">
        <ele>623.07</ele>
        <time>2012-06-16T11:29:20Z</time>
      </trkpt>
      <trkpt lat="44.44912" lon="3.9288">
        <ele>623.07</ele>
        <time>2012-06-16T11:29:54Z</time>
      </trkpt>
      <trkpt lat="44.44911" lon="3.9288">
        <ele>623.07</ele>
        <time>2012-06-16T11:30:23Z</time>
      </trkpt>
      <trkpt lat="44.44912" lon="3.92882">
        <ele>623.07</ele>
        <time>2012-06-16T11:30:55Z</time>
      </trkpt>
      <trkpt lat="44.44911" lon="3.9288">
        <ele>623.07</ele>
        <time>2012-06-16T11:31:29Z</time>
      </trkpt>
      <trkpt lat="44.4491" lon="3.9288">
        <ele>624.03</ele>
        <time>2012-06-16T11:32:11Z</time>
      </trkpt>
      <trkpt lat="44.44909" lon="3.92881">
        <ele>623.55</ele>
        <time>2012-06-16T11:32:40Z</time>
      </trkpt>
      <trkpt lat="44.44909" lon="3.92881">
        <ele>623.55</ele>
        <time>2012-06-16T11:33:14Z</time>
      </trkpt>
      <trkpt lat="44.44909" lon="3.92882">
        <ele>623.07</ele>
        <time>2012-06-16T11:33:47Z</time>
      </trkpt>
      <trkpt lat="44.44909" lon="3.92881">
        <ele>623.07</ele>
        <time>2012-06-16T11:34:18Z</time>
      </trkpt>
      <trkpt lat="44.44909" lon="3.92879">
        <ele>623.07</ele>
        <time>2012-06-16T11:34:48Z</time>
      </trkpt>
      <trkpt lat="44.44911" lon="3.92879">
        <ele>623.07</ele>
        <time>2012-06-16T11:35:25Z</time>
      </trkpt>
      <trkpt lat="44.4491" lon="3.92879">
        <ele>623.55</ele>
        <time>2012-06-16T11:35:57Z</time>
      </trkpt>
      <trkpt lat="44.4491" lon="3.92879">
        <ele>623.55</ele>
        <time>2012-06-16T11:36:33Z</time>
      </trkpt>
      <trkpt lat="44.44912" lon="3.9288">
        <ele>623.55</ele>
        <time>2012-06-16T11:37:05Z</time>
      </trkpt>
      <trkpt lat="44.44911" lon="3.92881">
        <ele>623.55</ele>
        <time>2012-06-16T11:37:41Z</time>
      </trkpt>
      <trkpt lat="44.44912" lon="3.92882">
        <ele>623.07</ele>
        <time>2012-06-16T11:38:18Z</time>
      </trkpt>
      <trkpt lat="44.44909" lon="3.92881">
        <ele>623.55</ele>
        <time>2012-06-16T11:38:55Z</time>
      </trkpt>
      <trkpt lat="44.4491" lon="3.92881">
        <ele>623.55</ele>
        <time>2012-06-16T11:39:30Z</time>
      </trkpt>
      <trkpt lat="44.44909" lon="3.92884">
        <ele>623.55</ele>
        <time>2012-06-16T11:40:05Z</time>
      </trkpt>
      <trkpt lat="44.44908" lon="3.92882">
        <ele>623.07</ele>
        <time>2012-06-16T11:40:40Z</time>
      </trkpt>
      <trkpt lat="44.44908" lon="3.92881">
        <ele>622.59</ele>
        <time>2012-06-16T11:41:14Z</time>
      </trkpt>
      <trkpt lat="44.44908" lon="3.9288">
        <ele>623.07</ele>
        <time>2012-06-16T11:41:47Z</time>
      </trkpt>
      <trkpt lat="44.44909" lon="3.92883">
        <ele>623.07</ele>
        <time>2012-06-16T11:42:24Z</time>
      </trkpt>
      <trkpt lat="44.44909" lon="3.92883">
        <ele>623.07</ele>
        <time>2012-06-16T11:43:00Z</time>
      </trkpt>
      <trkpt lat="44.4491" lon="3.92883">
        <ele>622.59</ele>
        <time>2012-06-16T11:43:29Z</time>
      </trkpt>
      <trkpt lat="44.4491" lon="3.92881">
        <ele>623.07</ele>
        <time>2012-06-16T11:44:00Z</time>
      </trkpt>
      <trkpt lat="44.4491" lon="3.92883">
        <ele>622.59</ele>
        <time>2012-06-16T11:44:34Z</time>
      </trkpt>
      <trkpt lat="44.44912" lon="3.92883">
        <ele>622.59</ele>
        <time>2012-06-16T11:45:04Z</time>
      </trkpt>
      <trkpt lat="44.44912" lon="3.92882">
        <ele>623.07</ele>
        <time>2012-06-16T11:45:35Z</time>
      </trkpt>
      <trkpt lat="44.4491" lon="3.92883">
        <ele>622.59</ele>
        <time>2012-06-16T11:46:09Z</time>
      </trkpt>
      <trkpt lat="44.4491" lon="3.92882">
        <ele>622.59</ele>
        <time>2012-06-16T11:46:38Z</time>
      </trkpt>
      <trkpt lat="44.4491" lon="3.9288">
        <ele>622.59</ele>
        <time>2012-06-16T11:47:10Z</time>
      </trkpt>
      <trkpt lat="44.44912" lon="3.9288">
        <ele>622.11</ele>
        <time>2012-06-16T11:47:45Z</time>
      </trkpt>
      <trkpt lat="44.44912" lon="3.9288">
        <ele>622.59</ele>
        <time>2012-06-16T11:48:19Z</time>
      </trkpt>
      <trkpt lat="44.44911" lon="3.92879">
        <ele>623.55</ele>
        <time>2012-06-16T11:48:52Z</time>
      </trkpt>
      <trkpt lat="44.44911" lon="3.9288">
        <ele>623.55</ele>
        <time>2012-06-16T11:49:30Z</time>
      </trkpt>
      <trkpt lat="44.44912" lon="3.9288">
        <ele>623.07</ele>
        <time>2012-06-16T11:50:06Z</time>
      </trkpt>
      <trkpt lat="44.44911" lon="3.92881">
        <ele>623.07</ele>
        <time>2012-06-16T11:50:45Z</time>
      </trkpt>
      <trkpt lat="44.44911" lon="3.92881">
        <ele>622.59</ele>
        <time>2012-06-16T11:51:22Z</time>
      </trkpt>
      <trkpt lat="44.44912" lon="3.9288">
        <ele>623.07</ele>
        <time>2012-06-16T11:51:52Z</time>
      </trkpt>
      <trkpt lat="44.44912" lon="3.92881">
        <ele>623.07</ele>
        <time>2012-06-16T11:52:30Z</time>
      </trkpt>
      <trkpt lat="44.44911" lon="3.92881">
        <ele>623.55</ele>
        <time>2012-06-16T11:52:57Z</time>
      </trkpt>
      <trkpt lat="44.44911" lon="3.9288">
        <ele>622.59</ele>
        <time>2012-06-16T11:53:30Z</time>
      </trkpt>
      <trkpt lat="44.4491" lon="3.92881">
        <ele>623.07</ele>
        <time>2012-06-16T11:54:06Z</time>
      </trkpt>
      <trkpt lat="44.44909" lon="3.9288">
        <ele>622.59</ele>
        <time>2012-06-16T11:54:43Z</time>
      </trkpt>
      <trkpt lat="44.44909" lon="3.92881">
        <ele>622.59</ele>
        <time>2012-06-16T11:55:21Z</time>
      </trkpt>
      <trkpt lat="44.44908" lon="3.92881">
        <ele>623.07</ele>
        <time>2012-06-16T11:55:59Z</time>
      </trkpt>
      <trkpt lat="44.44907" lon="3.92881">
        <ele>623.07</ele>
        <time>2012-06-16T11:56:36Z</time>
      </trkpt>
      <trkpt lat="44.44909" lon="3.92882">
        <ele>622.59</ele>
        <time>2012-06-16T11:57:10Z</time>
      </trkpt>
      <trkpt lat="44.44909" lon="3.92882">
        <ele>622.11</ele>
        <time>2012-06-16T11:57:53Z</time>
      </trkpt>
      <trkpt lat="44.44909" lon="3.92879">
        <ele>622.59</ele>
        <time>2012-06-16T11:58:31Z</time>
      </trkpt>
      <trkpt lat="44.44908" lon="3.9288">
        <ele>621.63</ele>
        <time>2012-06-16T11:59:02Z</time>
      </trkpt>
      <trkpt lat="44.44908" lon="3.9288">
        <ele>622.11</ele>
        <time>2012-06-16T11:59:39Z</time>
      </trkpt>
      <trkpt lat="44.44908" lon="3.92879">
        <ele>622.11</ele>
        <time>2012-06-16T12:00:16Z</time>
      </trkpt>
      <trkpt lat="44.44908" lon="3.92879">
        <ele>622.11</ele>
        <time>2012-06-16T12:00:46Z</time>
      </trkpt>
      <trkpt lat="44.44907" lon="3.92879">
        <ele>622.11</ele>
        <time>2012-06-16T12:01:15Z</time>
      </trkpt>
      <trkpt lat="44.44907" lon="3.92879">
        <ele>621.63</ele>
        <time>2012-06-16T12:01:46Z</time>
      </trkpt>
      <trkpt lat="44.44907" lon="3.92877">
        <ele>622.11</ele>
        <time>2012-06-16T12:02:15Z</time>
      </trkpt>
      <trkpt lat="44.44907" lon="3.92877">
        <ele>621.63</ele>
        <time>2012-06-16T12:02:44Z</time>
      </trkpt>
      <trkpt lat="44.44908" lon="3.92878">
        <ele>621.63</ele>
        <time>2012-06-16T12:03:12Z</time>
      </trkpt>
      <trkpt lat="44.44909" lon="3.92877">
        <ele>621.63</ele>
        <time>2012-06-16T12:03:46Z</time>
      </trkpt>
      <trkpt lat="44.44909" lon="3.92879">
        <ele>620.67</ele>
        <time>2012-06-16T12:04:23Z</time>
      </trkpt>
      <trkpt lat="44.4491" lon="3.92879">
        <ele>620.67</ele>
        <time>2012-06-16T12:04:56Z</time>
      </trkpt>
      <trkpt lat="44.4491" lon="3.9288">
        <ele>620.67</ele>
        <time>2012-06-16T12:05:33Z</time>
      </trkpt>
      <trkpt lat="44.44908" lon="3.92879">
        <ele>620.19</ele>
        <time>2012-06-16T12:06:05Z</time>
      </trkpt>
      <trkpt lat="44.44908" lon="3.92879">
        <ele>620.19</ele>
        <time>2012-06-16T12:06:37Z</time>
      </trkpt>
      <trkpt lat="44.44909" lon="3.92879">
        <ele>620.19</ele>
        <time>2012-06-16T12:07:10Z</time>
      </trkpt>
      <trkpt lat="44.44908" lon="3.9288">
        <ele>620.19</ele>
        <time>2012-06-16T12:07:44Z</time>
      </trkpt>
      <trkpt lat="44.44907" lon="3.92879">
        <ele>620.19</ele>
        <time>2012-06-16T12:08:20Z</time>
      </trkpt>
      <trkpt lat="44.44908" lon="3.9288">
        <ele>620.67</ele>
        <time>2012-06-16T12:08:54Z</time>
      </trkpt>
      <trkpt lat="44.44908" lon="3.92879">
        <ele>620.19</ele>
        <time>2012-06-16T12:09:25Z</time>
      </trkpt>
      <trkpt lat="44.44908" lon="3.92879">
        <ele>620.67</ele>
        <time>2012-06-16T12:10:00Z</time>
      </trkpt>
      <trkpt lat="44.44908" lon="3.92878">
        <ele>620.67</ele>
        <time>2012-06-16T12:10:33Z</time>
      </trkpt>
      <trkpt lat="44.44908" lon="3.9288">
        <ele>620.19</ele>
        <time>2012-06-16T12:11:08Z</time>
      </trkpt>
      <trkpt lat="44.44908" lon="3.92881">
        <ele>620.19</ele>
        <time>2012-06-16T12:11:42Z</time>
      </trkpt>
      <trkpt lat="44.44908" lon="3.92881">
        <ele>620.19</ele>
        <time>2012-06-16T12:12:09Z</time>
      </trkpt>
      <trkpt lat="44.44908" lon="3.92879">
        <ele>620.19</ele>
        <time>2012-06-16T12:12:40Z</time>
      </trkpt>
      <trkpt lat="44.44907" lon="3.9288">
        <ele>620.67</ele>
        <time>2012-06-16T12:13:14Z</time>
      </trkpt>
      <trkpt lat="44.44908" lon="3.92881">
        <ele>620.19</ele>
        <time>2012-06-16T12:13:47Z</time>
      </trkpt>
      <trkpt lat="44.44908" lon="3.92881">
        <ele>621.15</ele>
        <time>2012-06-16T12:14:16Z</time>
      </trkpt>
      <trkpt lat="44.44907" lon="3.92883">
        <ele>620.67</ele>
        <time>2012-06-16T12:14:53Z</time>
      </trkpt>
      <trkpt lat="44.44907" lon="3.92882">
        <ele>621.15</ele>
        <time>2012-06-16T12:15:29Z</time>
      </trkpt>
      <trkpt lat="44.44907" lon="3.92881">
        <ele>620.19</ele>
        <time>2012-06-16T12:16:05Z</time>
      </trkpt>
      <trkpt lat="44.44908" lon="3.92879">
        <ele>620.67</ele>
        <time>2012-06-16T12:16:39Z</time>
      </trkpt>
      <trkpt lat="44.44907" lon="3.9288">
        <ele>620.67</ele>
        <time>2012-06-16T12:17:09Z</time>
      </trkpt>
      <trkpt lat="44.44907" lon="3.92879">
        <ele>620.19</ele>
        <time>2012-06-16T12:17:35Z</time>
      </trkpt>
      <trkpt lat="44.44907" lon="3.9288">
        <ele>620.67</ele>
        <time>2012-06-16T12:18:01Z</time>
      </trkpt>
      <trkpt lat="44.44906" lon="3.92882">
        <ele>620.19</ele>
        <time>2012-06-16T12:18:38Z</time>
      </trkpt>
      <trkpt lat="44.44907" lon="3.92883">
        <ele>619.71</ele>
        <time>2012-06-16T12:19:08Z</time>
      </trkpt>
      <trkpt lat="44.44907" lon="3.92883">
        <ele>620.19</ele>
        <time>2012-06-16T12:19:42Z</time>
      </trkpt>
      <trkpt lat="44.44906" lon="3.92882">
        <ele>621.15</ele>
        <time>2012-06-16T12:20:18Z</time>
      </trkpt>
      <trkpt lat="44.44907" lon="3.92882">
        <ele>620.67</ele>
        <time>2012-06-16T12:20:46Z</time>
      </trkpt>
      <trkpt lat="44.44908" lon="3.92881">
        <ele>620.67</ele>
        <time>2012-06-16T12:21:21Z</time>
      </trkpt>
      <trkpt lat="44.44906" lon="3.92881">
        <ele>619.71</ele>
        <time>2012-06-16T12:21:53Z</time>
      </trkpt>
      <trkpt lat="44.44906" lon="3.9288">
        <ele>620.19</ele>
        <time>2012-06-16T12:22:25Z</time>
      </trkpt>
      <trkpt lat="44.44907" lon="3.9288">
        <ele>620.19</ele>
        <time>2012-06-16T12:22:57Z</time>
      </trkpt>
      <trkpt lat="44.44908" lon="3.92879">
        <ele>620.19</ele>
        <time>2012-06-16T12:23:31Z</time>
      </trkpt>
      <trkpt lat="44.44908" lon="3.92878">
        <ele>620.19</ele>
        <time>2012-06-16T12:24:07Z</time>
      </trkpt>
      <trkpt lat="44.44909" lon="3.92879">
        <ele>620.19</ele>
        <time>2012-06-16T12:24:39Z</time>
      </trkpt>
      <trkpt lat="44.44907" lon="3.92879">
        <ele>619.71</ele>
        <time>2012-06-16T12:25:10Z</time>
      </trkpt>
      <trkpt lat="44.44906" lon="3.9288">
        <ele>619.71</ele>
        <time>2012-06-16T12:25:48Z</time>
      </trkpt>
      <trkpt lat="44.44906" lon="3.92881">
        <ele>620.19</ele>
        <time>2012-06-16T12:26:20Z</time>
      </trkpt>
      <trkpt lat="44.44906" lon="3.9288">
        <ele>620.19</ele>
        <time>2012-06-16T12:26:49Z</time>
      </trkpt>
      <trkpt lat="44.44906" lon="3.92879">
        <ele>619.71</ele>
        <time>2012-06-16T12:27:18Z</time>
      </trkpt>
      <trkpt lat="44.44906" lon="3.92878">
        <ele>619.71</ele>
        <time>2012-06-16T12:27:49Z</time>
      </trkpt>
      <trkpt lat="44.44907" lon="3.9288">
        <ele>620.67</ele>
        <time>2012-06-16T12:28:20Z</time>
      </trkpt>
      <trkpt lat="44.44907" lon="3.92879">
        <ele>621.15</ele>
        <time>2012-06-16T12:28:50Z</time>
      </trkpt>
      <trkpt lat="44.44907" lon="3.92879">
        <ele>620.19</ele>
        <time>2012-06-16T12:29:14Z</time>
      </trkpt>
      <trkpt lat="44.44906" lon="3.92879">
        <ele>620.19</ele>
        <time>2012-06-16T12:29:38Z</time>
      </trkpt>
      <trkpt lat="44.44905" lon="3.92878">
        <ele>621.15</ele>
        <time>2012-06-16T12:30:04Z</time>
      </trkpt>
      <trkpt lat="44.44906" lon="3.92878">
        <ele>620.67</ele>
        <time>2012-06-16T12:30:36Z</time>
      </trkpt>
      <trkpt lat="44.44908" lon="3.92875">
        <ele>621.15</ele>
        <time>2012-06-16T12:31:06Z</time>
      </trkpt>
      <trkpt lat="44.44908" lon="3.92877">
        <ele>620.19</ele>
        <time>2012-06-16T12:31:38Z</time>
      </trkpt>
      <trkpt lat="44.44907" lon="3.92877">
        <ele>620.19</ele>
        <time>2012-06-16T12:32:10Z</time>
      </trkpt>
      <trkpt lat="44.44906" lon="3.92878">
        <ele>620.67</ele>
        <time>2012-06-16T12:32:41Z</time>
      </trkpt>
      <trkpt lat="44.44906" lon="3.92879">
        <ele>620.19</ele>
        <time>2012-06-16T12:33:10Z</time>
      </trkpt>
      <trkpt lat="44.44905" lon="3.92879">
        <ele>620.19</ele>
        <time>2012-06-16T12:33:44Z</time>
      </trkpt>
      <trkpt lat="44.44906" lon="3.92879">
        <ele>620.67</ele>
        <time>2012-06-16T12:34:11Z</time>
      </trkpt>
      <trkpt lat="44.44906" lon="3.92877">
        <ele>620.67</ele>
        <time>2012-06-16T12:34:38Z</time>
      </trkpt>
      <trkpt lat="44.44907" lon="3.92877">
        <ele>620.67</ele>
        <time>2012-06-16T12:35:08Z</time>
      </trkpt>
      <trkpt lat="44.44908" lon="3.92876">
        <ele>620.19</ele>
        <time>2012-06-16T12:35:43Z</time>
      </trkpt>
      <trkpt lat="44.44908" lon="3.92876">
        <ele>620.67</ele>
        <time>2012-06-16T12:36:15Z</time>
      </trkpt>
      <trkpt lat="44.4491" lon="3.92876">
        <ele>620.67</ele>
        <time>2012-06-16T12:36:46Z</time>
      </trkpt>
      <trkpt lat="44.44909" lon="3.92877">
        <ele>620.67</ele>
        <time>2012-06-16T12:37:16Z</time>
      </trkpt>
      <trkpt lat="44.44909" lon="3.92878">
        <ele>620.67</ele>
        <time>2012-06-16T12:37:54Z</time>
      </trkpt>
      <trkpt lat="44.44909" lon="3.92879">
        <ele>621.15</ele>
        <time>2012-06-16T12:38:30Z</time>
      </trkpt>
      <trkpt lat="44.44909" lon="3.92878">
        <ele>621.15</ele>
        <time>2012-06-16T12:39:04Z</time>
      </trkpt>
      <trkpt lat="44.44908" lon="3.92881">
        <ele>621.15</ele>
        <time>2012-06-16T12:39:41Z</time>
      </trkpt>
      <trkpt lat="44.44907" lon="3.92881">
        <ele>620.67</ele>
        <time>2012-06-16T12:40:15Z</time>
      </trkpt>
      <trkpt lat="44.44908" lon="3.92882">
        <ele>620.19</ele>
        <time>2012-06-16T12:40:49Z</time>
      </trkpt>
      <trkpt lat="44.44908" lon="3.92882">
        <ele>620.19</ele>
        <time>2012-06-16T12:41:23Z</time>
      </trkpt>
      <trkpt lat="44.44907" lon="3.92884">
        <ele>620.67</ele>
        <time>2012-06-16T12:41:53Z</time>
      </trkpt>
      <trkpt lat="44.44907" lon="3.92883">
        <ele>621.15</ele>
        <time>2012-06-16T12:42:25Z</time>
      </trkpt>
      <trkpt lat="44.44907" lon="3.92882">
        <ele>620.19</ele>
        <time>2012-06-16T12:42:51Z</time>
      </trkpt>
      <trkpt lat="44.44908" lon="3.92882">
        <ele>620.67</ele>
        <time>2012-06-16T12:43:25Z</time>
      </trkpt>
      <trkpt lat="44.44907" lon="3.9288">
        <ele>620.19</ele>
        <time>2012-06-16T12:43:58Z</time>
      </trkpt>
      <trkpt lat="44.44907" lon="3.92878">
        <ele>620.19</ele>
        <time>2012-06-16T12:44:34Z</time>
      </trkpt>
      <trkpt lat="44.44907" lon="3.92878">
        <ele>620.67</ele>
        <time>2012-06-16T12:45:11Z</time>
      </trkpt>
      <trkpt lat="44.44908" lon="3.92879">
        <ele>620.67</ele>
        <time>2012-06-16T12:45:41Z</time>
      </trkpt>
      <trkpt lat="44.44907" lon="3.9288">
        <ele>620.67</ele>
        <time>2012-06-16T12:46:10Z</time>
      </trkpt>
      <trkpt lat="44.44906" lon="3.92881">
        <ele>621.15</ele>
        <time>2012-06-16T12:46:34Z</time>
      </trkpt>
      <trkpt lat="44.44906" lon="3.92881">
        <ele>620.19</ele>
        <time>2012-06-16T12:46:48Z</time>
      </trkpt>
      <trkpt lat="44.44905" lon="3.92882">
        <ele>620.67</ele>
        <time>2012-06-16T12:46:55Z</time>
      </trkpt>
      <trkpt lat="44.449" lon="3.92881">
        <ele>620.67</ele>
        <time>2012-06-16T12:46:59Z</time>
      </trkpt>
      <trkpt lat="44.44898" lon="3.92882">
        <ele>620.67</ele>
        <time>2012-06-16T12:47:00Z</time>
      </trkpt>
      <trkpt lat="44.4489" lon="3.92887">
        <ele>620.67</ele>
        <time>2012-06-16T12:47:04Z</time>
      </trkpt>
      <trkpt lat="44.44889" lon="3.9289">
        <ele>620.67</ele>
        <time>2012-06-16T12:47:05Z</time>
      </trkpt>
      <trkpt lat="44.44872" lon="3.92938">
        <ele>620.19</ele>
        <time>2012-06-16T12:47:16Z</time>
      </trkpt>
      <trkpt lat="44.4487" lon="3.92944">
        <ele>620.19</ele>
        <time>2012-06-16T12:47:17Z</time>
      </trkpt>
      <trkpt lat="44.44869" lon="3.92949">
        <ele>620.19</ele>
        <time>2012-06-16T12:47:18Z</time>
      </trkpt>
      <trkpt lat="44.44868" lon="3.92955">
        <ele>620.19</ele>
        <time>2012-06-16T12:47:19Z</time>
      </trkpt>
      <trkpt lat="44.44866" lon="3.9296">
        <ele>620.19</ele>
        <time>2012-06-16T12:47:20Z</time>
      </trkpt>
      <trkpt lat="44.44865" lon="3.92966">
        <ele>620.19</ele>
        <time>2012-06-16T12:47:21Z</time>
      </trkpt>
      <trkpt lat="44.44864" lon="3.92971">
        <ele>620.19</ele>
        <time>2012-06-16T12:47:22Z</time>
      </trkpt>
      <trkpt lat="44.44863" lon="3.92976">
        <ele>620.19</ele>
        <time>2012-06-16T12:47:23Z</time>
      </trkpt>
      <trkpt lat="44.44858" lon="3.92999">
        <ele>619.23</ele>
        <time>2012-06-16T12:47:27Z</time>
      </trkpt>
      <trkpt lat="44.44857" lon="3.93004">
        <ele>620.19</ele>
        <time>2012-06-16T12:47:28Z</time>
      </trkpt>
      <trkpt lat="44.44855" lon="3.93009">
        <ele>619.23</ele>
        <time>2012-06-16T12:47:29Z</time>
      </trkpt>
      <trkpt lat="44.44838" lon="3.93039">
        <ele>617.3</ele>
        <time>2012-06-16T12:47:37Z</time>
      </trkpt>
      <trkpt lat="44.44817" lon="3.93048">
        <ele>615.38</ele>
        <time>2012-06-16T12:47:48Z</time>
      </trkpt>
      <trkpt lat="44.44817" lon="3.9305">
        <ele>614.9</ele>
        <time>2012-06-16T12:48:04Z</time>
      </trkpt>
      <trkpt lat="44.44818" lon="3.93049">
        <ele>615.86</ele>
        <time>2012-06-16T12:48:08Z</time>
      </trkpt>
      <trkpt lat="44.44816" lon="3.9305">
        <ele>614.9</ele>
        <time>2012-06-16T12:48:14Z</time>
      </trkpt>
      <trkpt lat="44.44813" lon="3.9305">
        <ele>615.38</ele>
        <time>2012-06-16T12:48:15Z</time>
      </trkpt>
      <trkpt lat="44.4479" lon="3.93049">
        <ele>614.9</ele>
        <time>2012-06-16T12:48:19Z</time>
      </trkpt>
      <trkpt lat="44.44726" lon="3.93036">
        <ele>611.54</ele>
        <time>2012-06-16T12:48:26Z</time>
      </trkpt>
      <trkpt lat="44.4467" lon="3.93015">
        <ele>607.21</ele>
        <time>2012-06-16T12:48:32Z</time>
      </trkpt>
      <trkpt lat="44.44661" lon="3.93009">
        <ele>606.25</ele>
        <time>2012-06-16T12:48:33Z</time>
      </trkpt>
      <trkpt lat="44.44626" lon="3.92986">
        <ele>603.36</ele>
        <time>2012-06-16T12:48:37Z</time>
      </trkpt>
      <trkpt lat="44.44589" lon="3.92966">
        <ele>600</ele>
        <time>2012-06-16T12:48:41Z</time>
      </trkpt>
      <trkpt lat="44.44578" lon="3.92963">
        <ele>599.04</ele>
        <time>2012-06-16T12:48:42Z</time>
      </trkpt>
      <trkpt lat="44.44568" lon="3.92961">
        <ele>598.08</ele>
        <time>2012-06-16T12:48:43Z</time>
      </trkpt>
      <trkpt lat="44.44556" lon="3.92961">
        <ele>597.12</ele>
        <time>2012-06-16T12:48:44Z</time>
      </trkpt>
      <trkpt lat="44.44545" lon="3.92961">
        <ele>596.64</ele>
        <time>2012-06-16T12:48:45Z</time>
      </trkpt>
      <trkpt lat="44.44533" lon="3.92963">
        <ele>595.67</ele>
        <time>2012-06-16T12:48:46Z</time>
      </trkpt>
      <trkpt lat="44.44521" lon="3.92965">
        <ele>594.71</ele>
        <time>2012-06-16T12:48:47Z</time>
      </trkpt>
      <trkpt lat="44.44487" lon="3.92979">
        <ele>591.83</ele>
        <time>2012-06-16T12:48:50Z</time>
      </trkpt>
      <trkpt lat="44.44476" lon="3.92989">
        <ele>590.39</ele>
        <time>2012-06-16T12:48:51Z</time>
      </trkpt>
      <trkpt lat="44.44466" lon="3.93">
        <ele>590.39</ele>
        <time>2012-06-16T12:48:52Z</time>
      </trkpt>
      <trkpt lat="44.44457" lon="3.93013">
        <ele>590.39</ele>
        <time>2012-06-16T12:48:53Z</time>
      </trkpt>
      <trkpt lat="44.44441" lon="3.93043">
        <ele>589.43</ele>
        <time>2012-06-16T12:48:55Z</time>
      </trkpt>
      <trkpt lat="44.44435" lon="3.9306">
        <ele>588.95</ele>
        <time>2012-06-16T12:48:56Z</time>
      </trkpt>
      <trkpt lat="44.44431" lon="3.93078">
        <ele>587.98</ele>
        <time>2012-06-16T12:48:57Z</time>
      </trkpt>
      <trkpt lat="44.44428" lon="3.93097">
        <ele>587.5</ele>
        <time>2012-06-16T12:48:58Z</time>
      </trkpt>
      <trkpt lat="44.44418" lon="3.93227">
        <ele>583.66</ele>
        <time>2012-06-16T12:49:05Z</time>
      </trkpt>
      <trkpt lat="44.44418" lon="3.93243">
        <ele>583.66</ele>
        <time>2012-06-16T12:49:06Z</time>
      </trkpt>
      <trkpt lat="44.4441" lon="3.93317">
        <ele>581.25</ele>
        <time>2012-06-16T12:49:12Z</time>
      </trkpt>
      <trkpt lat="44.44407" lon="3.93337">
        <ele>582.7</ele>
        <time>2012-06-16T12:49:14Z</time>
      </trkpt>
      <trkpt lat="44.44403" lon="3.93345">
        <ele>582.22</ele>
        <time>2012-06-16T12:49:15Z</time>
      </trkpt>
      <trkpt lat="44.44399" lon="3.93349">
        <ele>581.73</ele>
        <time>2012-06-16T12:49:16Z</time>
      </trkpt>
      <trkpt lat="44.44394" lon="3.93352">
        <ele>581.73</ele>
        <time>2012-06-16T12:49:17Z</time>
      </trkpt>
      <trkpt lat="44.44388" lon="3.93351">
        <ele>581.73</ele>
        <time>2012-06-16T12:49:18Z</time>
      </trkpt>
      <trkpt lat="44.44382" lon="3.9335">
        <ele>581.73</ele>
        <time>2012-06-16T12:49:19Z</time>
      </trkpt>
      <trkpt lat="44.44377" lon="3.93349">
        <ele>581.73</ele>
        <time>2012-06-16T12:49:20Z</time>
      </trkpt>
      <trkpt lat="44.44347" lon="3.9334">
        <ele>582.22</ele>
        <time>2012-06-16T12:49:25Z</time>
      </trkpt>
      <trkpt lat="44.44342" lon="3.93336">
        <ele>582.7</ele>
        <time>2012-06-16T12:49:26Z</time>
      </trkpt>
      <trkpt lat="44.44337" lon="3.93332">
        <ele>582.7</ele>
        <time>2012-06-16T12:49:27Z</time>
      </trkpt>
      <trkpt lat="44.44272" lon="3.93265">
        <ele>584.14</ele>
        <time>2012-06-16T12:49:41Z</time>
      </trkpt>
      <trkpt lat="44.44223" lon="3.93211">
        <ele>585.1</ele>
        <time>2012-06-16T12:49:52Z</time>
      </trkpt>
      <trkpt lat="44.44199" lon="3.9319">
        <ele>586.06</ele>
        <time>2012-06-16T12:49:57Z</time>
      </trkpt>
      <trkpt lat="44.44194" lon="3.93187">
        <ele>586.06</ele>
        <time>2012-06-16T12:49:58Z</time>
      </trkpt>
      <trkpt lat="44.44189" lon="3.93185">
        <ele>586.54</ele>
        <time>2012-06-16T12:49:59Z</time>
      </trkpt>
      <trkpt lat="44.44184" lon="3.93183">
        <ele>586.54</ele>
        <time>2012-06-16T12:50:00Z</time>
      </trkpt>
      <trkpt lat="44.44178" lon="3.93182">
        <ele>586.54</ele>
        <time>2012-06-16T12:50:01Z</time>
      </trkpt>
      <trkpt lat="44.44173" lon="3.93182">
        <ele>586.54</ele>
        <time>2012-06-16T12:50:02Z</time>
      </trkpt>
      <trkpt lat="44.44126" lon="3.93188">
        <ele>587.02</ele>
        <time>2012-06-16T12:50:11Z</time>
      </trkpt>
      <trkpt lat="44.44121" lon="3.93189">
        <ele>586.54</ele>
        <time>2012-06-16T12:50:12Z</time>
      </trkpt>
      <trkpt lat="44.44112" lon="3.9319">
        <ele>587.02</ele>
        <time>2012-06-16T12:50:14Z</time>
      </trkpt>
      <trkpt lat="44.44107" lon="3.93191">
        <ele>587.02</ele>
        <time>2012-06-16T12:50:15Z</time>
      </trkpt>
      <trkpt lat="44.44103" lon="3.93192">
        <ele>587.5</ele>
        <time>2012-06-16T12:50:16Z</time>
      </trkpt>
      <trkpt lat="44.44098" lon="3.93193">
        <ele>587.02</ele>
        <time>2012-06-16T12:50:17Z</time>
      </trkpt>
      <trkpt lat="44.44094" lon="3.93193">
        <ele>587.5</ele>
        <time>2012-06-16T12:50:18Z</time>
      </trkpt>
      <trkpt lat="44.44075" lon="3.93195">
        <ele>587.5</ele>
        <time>2012-06-16T12:50:22Z</time>
      </trkpt>
      <trkpt lat="44.44071" lon="3.93195">
        <ele>587.5</ele>
        <time>2012-06-16T12:50:23Z</time>
      </trkpt>
      <trkpt lat="44.4405" lon="3.932">
        <ele>588.46</ele>
        <time>2012-06-16T12:50:28Z</time>
      </trkpt>
      <trkpt lat="44.44046" lon="3.93201">
        <ele>587.98</ele>
        <time>2012-06-16T12:50:29Z</time>
      </trkpt>
      <trkpt lat="44.44003" lon="3.93206">
        <ele>588.95</ele>
        <time>2012-06-16T12:50:43Z</time>
      </trkpt>
      <trkpt lat="44.43966" lon="3.93209">
        <ele>589.43</ele>
        <time>2012-06-16T12:50:55Z</time>
      </trkpt>
      <trkpt lat="44.43931" lon="3.93217">
        <ele>589.43</ele>
        <time>2012-06-16T12:51:07Z</time>
      </trkpt>
      <trkpt lat="44.43883" lon="3.93221">
        <ele>589.91</ele>
        <time>2012-06-16T12:51:21Z</time>
      </trkpt>
      <trkpt lat="44.43842" lon="3.93236">
        <ele>591.83</ele>
        <time>2012-06-16T12:51:35Z</time>
      </trkpt>
      <trkpt lat="44.43806" lon="3.93259">
        <ele>593.75</ele>
        <time>2012-06-16T12:51:49Z</time>
      </trkpt>
      <trkpt lat="44.43781" lon="3.93291">
        <ele>594.71</ele>
        <time>2012-06-16T12:52:01Z</time>
      </trkpt>
      <trkpt lat="44.43774" lon="3.93306">
        <ele>595.19</ele>
        <time>2012-06-16T12:52:06Z</time>
      </trkpt>
      <trkpt lat="44.43772" lon="3.93307">
        <ele>595.67</ele>
        <time>2012-06-16T12:52:07Z</time>
      </trkpt>
      <trkpt lat="44.4375" lon="3.93319">
        <ele>596.64</ele>
        <time>2012-06-16T12:52:16Z</time>
      </trkpt>
      <trkpt lat="44.43718" lon="3.93323">
        <ele>597.6</ele>
        <time>2012-06-16T12:52:28Z</time>
      </trkpt>
      <trkpt lat="44.43716" lon="3.93323">
        <ele>598.08</ele>
        <time>2012-06-16T12:52:29Z</time>
      </trkpt>
      <trkpt lat="44.43714" lon="3.93324">
        <ele>598.08</ele>
        <time>2012-06-16T12:52:30Z</time>
      </trkpt>
      <trkpt lat="44.43685" lon="3.93323">
        <ele>600.48</ele>
        <time>2012-06-16T12:52:43Z</time>
      </trkpt>
      <trkpt lat="44.43653" lon="3.93321">
        <ele>602.4</ele>
        <time>2012-06-16T12:52:57Z</time>
      </trkpt>
      <trkpt lat="44.43622" lon="3.9332">
        <ele>605.29</ele>
        <time>2012-06-16T12:53:12Z</time>
      </trkpt>
      <trkpt lat="44.43594" lon="3.93318">
        <ele>606.73</ele>
        <time>2012-06-16T12:53:26Z</time>
      </trkpt>
      <trkpt lat="44.43566" lon="3.93316">
        <ele>609.13</ele>
        <time>2012-06-16T12:53:39Z</time>
      </trkpt>
      <trkpt lat="44.43533" lon="3.93315">
        <ele>611.06</ele>
        <time>2012-06-16T12:53:56Z</time>
      </trkpt>
      <trkpt lat="44.4351" lon="3.93313">
        <ele>613.46</ele>
        <time>2012-06-16T12:54:07Z</time>
      </trkpt>
      <trkpt lat="44.43486" lon="3.93314">
        <ele>614.9</ele>
        <time>2012-06-16T12:54:20Z</time>
      </trkpt>
      <trkpt lat="44.43484" lon="3.93315">
        <ele>615.38</ele>
        <time>2012-06-16T12:54:21Z</time>
      </trkpt>
      <trkpt lat="44.43482" lon="3.93315">
        <ele>615.38</ele>
        <time>2012-06-16T12:54:22Z</time>
      </trkpt>
      <trkpt lat="44.43454" lon="3.93321">
        <ele>618.26</ele>
        <time>2012-06-16T12:54:37Z</time>
      </trkpt>
      <trkpt lat="44.4343" lon="3.93326">
        <ele>619.71</ele>
        <time>2012-06-16T12:54:51Z</time>
      </trkpt>
      <trkpt lat="44.43413" lon="3.93331">
        <ele>620.67</ele>
        <time>2012-06-16T12:55:00Z</time>
      </trkpt>
      <trkpt lat="44.43411" lon="3.93331">
        <ele>621.15</ele>
        <time>2012-06-16T12:55:01Z</time>
      </trkpt>
      <trkpt lat="44.4341" lon="3.93332">
        <ele>621.15</ele>
        <time>2012-06-16T12:55:02Z</time>
      </trkpt>
      <trkpt lat="44.43408" lon="3.93333">
        <ele>621.15</ele>
        <time>2012-06-16T12:55:03Z</time>
      </trkpt>
      <trkpt lat="44.43406" lon="3.93333">
        <ele>621.15</ele>
        <time>2012-06-16T12:55:04Z</time>
      </trkpt>
      <trkpt lat="44.43404" lon="3.93333">
        <ele>621.15</ele>
        <time>2012-06-16T12:55:05Z</time>
      </trkpt>
      <trkpt lat="44.43395" lon="3.93334">
        <ele>622.59</ele>
        <time>2012-06-16T12:55:10Z</time>
      </trkpt>
      <trkpt lat="44.43366" lon="3.9333">
        <ele>625.47</ele>
        <time>2012-06-16T12:55:24Z</time>
      </trkpt>
      <trkpt lat="44.4336" lon="3.93327">
        <ele>626.44</ele>
        <time>2012-06-16T12:55:26Z</time>
      </trkpt>
      <trkpt lat="44.43356" lon="3.93326">
        <ele>626.92</ele>
        <time>2012-06-16T12:55:27Z</time>
      </trkpt>
      <trkpt lat="44.43351" lon="3.93325">
        <ele>627.4</ele>
        <time>2012-06-16T12:55:28Z</time>
      </trkpt>
      <trkpt lat="44.4333" lon="3.93319">
        <ele>628.84</ele>
        <time>2012-06-16T12:55:37Z</time>
      </trkpt>
      <trkpt lat="44.43308" lon="3.93314">
        <ele>631.72</ele>
        <time>2012-06-16T12:55:50Z</time>
      </trkpt>
      <trkpt lat="44.43285" lon="3.93304">
        <ele>633.65</ele>
        <time>2012-06-16T12:56:04Z</time>
      </trkpt>
      <trkpt lat="44.43263" lon="3.93289">
        <ele>636.05</ele>
        <time>2012-06-16T12:56:19Z</time>
      </trkpt>
      <trkpt lat="44.43262" lon="3.93286">
        <ele>636.53</ele>
        <time>2012-06-16T12:56:21Z</time>
      </trkpt>
      <trkpt lat="44.43262" lon="3.93285">
        <ele>636.53</ele>
        <time>2012-06-16T12:56:22Z</time>
      </trkpt>
      <trkpt lat="44.43261" lon="3.93283">
        <ele>636.53</ele>
        <time>2012-06-16T12:56:23Z</time>
      </trkpt>
      <trkpt lat="44.43261" lon="3.93282">
        <ele>636.53</ele>
        <time>2012-06-16T12:56:24Z</time>
      </trkpt>
      <trkpt lat="44.4326" lon="3.9328">
        <ele>636.53</ele>
        <time>2012-06-16T12:56:25Z</time>
      </trkpt>
      <trkpt lat="44.43259" lon="3.93279">
        <ele>637.01</ele>
        <time>2012-06-16T12:56:26Z</time>
      </trkpt>
      <trkpt lat="44.43258" lon="3.93278">
        <ele>636.53</ele>
        <time>2012-06-16T12:56:27Z</time>
      </trkpt>
      <trkpt lat="44.43257" lon="3.93277">
        <ele>637.49</ele>
        <time>2012-06-16T12:56:28Z</time>
      </trkpt>
      <trkpt lat="44.43253" lon="3.93276">
        <ele>637.01</ele>
        <time>2012-06-16T12:56:40Z</time>
      </trkpt>
      <trkpt lat="44.43253" lon="3.93277">
        <ele>637.49</ele>
        <time>2012-06-16T12:57:09Z</time>
      </trkpt>
      <trkpt lat="44.43252" lon="3.93278">
        <ele>637.49</ele>
        <time>2012-06-16T12:57:37Z</time>
      </trkpt>
      <trkpt lat="44.43253" lon="3.93276">
        <ele>637.01</ele>
        <time>2012-06-16T12:58:00Z</time>
      </trkpt>
      <trkpt lat="44.43253" lon="3.93277">
        <ele>637.01</ele>
        <time>2012-06-16T12:58:24Z</time>
      </trkpt>
      <trkpt lat="44.43252" lon="3.93279">
        <ele>637.01</ele>
        <time>2012-06-16T12:58:48Z</time>
      </trkpt>
      <trkpt lat="44.43253" lon="3.9328">
        <ele>637.01</ele>
        <time>2012-06-16T12:59:16Z</time>
      </trkpt>
      <trkpt lat="44.43254" lon="3.93278">
        <ele>637.01</ele>
        <time>2012-06-16T12:59:39Z</time>
      </trkpt>
      <trkpt lat="44.43254" lon="3.93278">
        <ele>636.53</ele>
        <time>2012-06-16T13:00:04Z</time>
      </trkpt>
      <trkpt lat="44.43255" lon="3.93277">
        <ele>637.01</ele>
        <time>2012-06-16T13:00:32Z</time>
      </trkpt>
      <trkpt lat="44.43255" lon="3.93277">
        <ele>637.49</ele>
        <time>2012-06-16T13:00:57Z</time>
      </trkpt>
      <trkpt lat="44.43256" lon="3.93275">
        <ele>637.01</ele>
        <time>2012-06-16T13:01:17Z</time>
      </trkpt>
      <trkpt lat="44.43257" lon="3.93274">
        <ele>637.01</ele>
        <time>2012-06-16T13:01:18Z</time>
      </trkpt>
      <trkpt lat="44.43258" lon="3.93272">
        <ele>637.49</ele>
        <time>2012-06-16T13:01:19Z</time>
      </trkpt>
      <trkpt lat="44.43262" lon="3.93268">
        <ele>637.97</ele>
        <time>2012-06-16T13:01:23Z</time>
      </trkpt>
      <trkpt lat="44.43263" lon="3.93266">
        <ele>637.49</ele>
        <time>2012-06-16T13:01:24Z</time>
      </trkpt>
      <trkpt lat="44.43264" lon="3.93264">
        <ele>638.45</ele>
        <time>2012-06-16T13:01:25Z</time>
      </trkpt>
      <trkpt lat="44.43266" lon="3.9326">
        <ele>638.45</ele>
        <time>2012-06-16T13:01:27Z</time>
      </trkpt>
      <trkpt lat="44.43286" lon="3.93254">
        <ele>640.86</ele>
        <time>2012-06-16T13:01:40Z</time>
      </trkpt>
      <trkpt lat="44.43301" lon="3.93257">
        <ele>642.3</ele>
        <time>2012-06-16T13:01:48Z</time>
      </trkpt>
      <trkpt lat="44.43302" lon="3.93257">
        <ele>642.3</ele>
        <time>2012-06-16T13:01:49Z</time>
      </trkpt>
      <trkpt lat="44.43304" lon="3.93257">
        <ele>641.82</ele>
        <time>2012-06-16T13:01:50Z</time>
      </trkpt>
      <trkpt lat="44.43306" lon="3.93256">
        <ele>642.3</ele>
        <time>2012-06-16T13:01:51Z</time>
      </trkpt>
      <trkpt lat="44.43307" lon="3.93256">
        <ele>641.82</ele>
        <time>2012-06-16T13:01:52Z</time>
      </trkpt>
      <trkpt lat="44.43325" lon="3.93246">
        <ele>643.26</ele>
        <time>2012-06-16T13:02:04Z</time>
      </trkpt>
      <trkpt lat="44.43334" lon="3.93232">
        <ele>645.66</ele>
        <time>2012-06-16T13:02:11Z</time>
      </trkpt>
      <trkpt lat="44.43338" lon="3.93208">
        <ele>648.07</ele>
        <time>2012-06-16T13:02:21Z</time>
      </trkpt>
      <trkpt lat="44.43338" lon="3.93205">
        <ele>648.07</ele>
        <time>2012-06-16T13:02:22Z</time>
      </trkpt>
      <trkpt lat="44.43338" lon="3.93203">
        <ele>648.07</ele>
        <time>2012-06-16T13:02:23Z</time>
      </trkpt>
      <trkpt lat="44.43339" lon="3.93201">
        <ele>648.55</ele>
        <time>2012-06-16T13:02:24Z</time>
      </trkpt>
      <trkpt lat="44.43339" lon="3.93198">
        <ele>648.55</ele>
        <time>2012-06-16T13:02:25Z</time>
      </trkpt>
      <trkpt lat="44.43339" lon="3.93196">
        <ele>648.55</ele>
        <time>2012-06-16T13:02:26Z</time>
      </trkpt>
      <trkpt lat="44.43339" lon="3.93194">
        <ele>648.55</ele>
        <time>2012-06-16T13:02:27Z</time>
      </trkpt>
      <trkpt lat="44.4334" lon="3.93192">
        <ele>649.51</ele>
        <time>2012-06-16T13:02:28Z</time>
      </trkpt>
      <trkpt lat="44.4334" lon="3.93189">
        <ele>649.03</ele>
        <time>2012-06-16T13:02:29Z</time>
      </trkpt>
      <trkpt lat="44.4334" lon="3.93188">
        <ele>649.51</ele>
        <time>2012-06-16T13:02:30Z</time>
      </trkpt>
      <trkpt lat="44.43339" lon="3.93186">
        <ele>649.51</ele>
        <time>2012-06-16T13:02:31Z</time>
      </trkpt>
      <trkpt lat="44.4334" lon="3.93184">
        <ele>648.55</ele>
        <time>2012-06-16T13:02:32Z</time>
      </trkpt>
      <trkpt lat="44.43341" lon="3.93182">
        <ele>650.95</ele>
        <time>2012-06-16T13:02:33Z</time>
      </trkpt>
      <trkpt lat="44.43342" lon="3.93179">
        <ele>650.47</ele>
        <time>2012-06-16T13:02:35Z</time>
      </trkpt>
      <trkpt lat="44.43342" lon="3.93178">
        <ele>649.99</ele>
        <time>2012-06-16T13:02:36Z</time>
      </trkpt>
      <trkpt lat="44.43345" lon="3.93161">
        <ele>650.47</ele>
        <time>2012-06-16T13:02:47Z</time>
      </trkpt>
      <trkpt lat="44.43345" lon="3.93159">
        <ele>651.43</ele>
        <time>2012-06-16T13:02:48Z</time>
      </trkpt>
      <trkpt lat="44.43351" lon="3.93139">
        <ele>651.91</ele>
        <time>2012-06-16T13:02:57Z</time>
      </trkpt>
      <trkpt lat="44.43364" lon="3.9311">
        <ele>652.87</ele>
        <time>2012-06-16T13:03:11Z</time>
      </trkpt>
      <trkpt lat="44.43378" lon="3.93095">
        <ele>652.39</ele>
        <time>2012-06-16T13:03:25Z</time>
      </trkpt>
      <trkpt lat="44.43387" lon="3.93092">
        <ele>653.35</ele>
        <time>2012-06-16T13:03:30Z</time>
      </trkpt>
      <trkpt lat="44.43388" lon="3.93092">
        <ele>652.87</ele>
        <time>2012-06-16T13:03:31Z</time>
      </trkpt>
      <trkpt lat="44.4339" lon="3.93091">
        <ele>653.35</ele>
        <time>2012-06-16T13:03:32Z</time>
      </trkpt>
      <trkpt lat="44.43391" lon="3.93091">
        <ele>653.35</ele>
        <time>2012-06-16T13:03:33Z</time>
      </trkpt>
      <trkpt lat="44.43393" lon="3.9309">
        <ele>653.83</ele>
        <time>2012-06-16T13:03:34Z</time>
      </trkpt>
      <trkpt lat="44.43395" lon="3.9309">
        <ele>653.83</ele>
        <time>2012-06-16T13:03:35Z</time>
      </trkpt>
      <trkpt lat="44.43403" lon="3.93092">
        <ele>654.8</ele>
        <time>2012-06-16T13:03:39Z</time>
      </trkpt>
      <trkpt lat="44.43405" lon="3.93094">
        <ele>655.28</ele>
        <time>2012-06-16T13:03:40Z</time>
      </trkpt>
      <trkpt lat="44.43406" lon="3.93095">
        <ele>655.28</ele>
        <time>2012-06-16T13:03:41Z</time>
      </trkpt>
      <trkpt lat="44.43408" lon="3.93096">
        <ele>655.28</ele>
        <time>2012-06-16T13:03:42Z</time>
      </trkpt>
      <trkpt lat="44.4341" lon="3.93098">
        <ele>655.28</ele>
        <time>2012-06-16T13:03:43Z</time>
      </trkpt>
      <trkpt lat="44.43422" lon="3.93106">
        <ele>657.68</ele>
        <time>2012-06-16T13:03:49Z</time>
      </trkpt>
      <trkpt lat="44.43424" lon="3.93106">
        <ele>657.2</ele>
        <time>2012-06-16T13:03:50Z</time>
      </trkpt>
      <trkpt lat="44.43426" lon="3.93105">
        <ele>657.68</ele>
        <time>2012-06-16T13:03:51Z</time>
      </trkpt>
      <trkpt lat="44.43428" lon="3.93104">
        <ele>657.68</ele>
        <time>2012-06-16T13:03:52Z</time>
      </trkpt>
      <trkpt lat="44.43429" lon="3.93103">
        <ele>657.68</ele>
        <time>2012-06-16T13:03:53Z</time>
      </trkpt>
      <trkpt lat="44.43431" lon="3.93101">
        <ele>658.16</ele>
        <time>2012-06-16T13:03:54Z</time>
      </trkpt>
      <trkpt lat="44.43432" lon="3.93099">
        <ele>658.16</ele>
        <time>2012-06-16T13:03:55Z</time>
      </trkpt>
      <trkpt lat="44.43433" lon="3.93096">
        <ele>659.6</ele>
        <time>2012-06-16T13:03:56Z</time>
      </trkpt>
      <trkpt lat="44.43433" lon="3.93095">
        <ele>658.64</ele>
        <time>2012-06-16T13:03:57Z</time>
      </trkpt>
      <trkpt lat="44.43435" lon="3.93093">
        <ele>660.08</ele>
        <time>2012-06-16T13:03:58Z</time>
      </trkpt>
      <trkpt lat="44.43437" lon="3.9309">
        <ele>659.6</ele>
        <time>2012-06-16T13:03:59Z</time>
      </trkpt>
      <trkpt lat="44.43439" lon="3.93087">
        <ele>660.08</ele>
        <time>2012-06-16T13:04:00Z</time>
      </trkpt>
      <trkpt lat="44.43441" lon="3.93084">
        <ele>660.08</ele>
        <time>2012-06-16T13:04:01Z</time>
      </trkpt>
      <trkpt lat="44.4345" lon="3.93069">
        <ele>663.45</ele>
        <time>2012-06-16T13:04:09Z</time>
      </trkpt>
      <trkpt lat="44.43451" lon="3.93066">
        <ele>663.93</ele>
        <time>2012-06-16T13:04:11Z</time>
      </trkpt>
      <trkpt lat="44.43452" lon="3.93065">
        <ele>663.93</ele>
        <time>2012-06-16T13:04:12Z</time>
      </trkpt>
      <trkpt lat="44.43456" lon="3.93058">
        <ele>664.41</ele>
        <time>2012-06-16T13:04:17Z</time>
      </trkpt>
      <trkpt lat="44.43457" lon="3.93057">
        <ele>664.89</ele>
        <time>2012-06-16T13:04:18Z</time>
      </trkpt>
      <trkpt lat="44.43469" lon="3.93037">
        <ele>667.77</ele>
        <time>2012-06-16T13:04:30Z</time>
      </trkpt>
      <trkpt lat="44.43475" lon="3.93025">
        <ele>670.18</ele>
        <time>2012-06-16T13:04:37Z</time>
      </trkpt>
      <trkpt lat="44.43487" lon="3.93011">
        <ele>672.1</ele>
        <time>2012-06-16T13:04:47Z</time>
      </trkpt>
      <trkpt lat="44.43502" lon="3.92994">
        <ele>674.02</ele>
        <time>2012-06-16T13:04:56Z</time>
      </trkpt>
      <trkpt lat="44.43506" lon="3.92988">
        <ele>674.5</ele>
        <time>2012-06-16T13:05:01Z</time>
      </trkpt>
      <trkpt lat="44.43507" lon="3.92988">
        <ele>674.5</ele>
        <time>2012-06-16T13:05:02Z</time>
      </trkpt>
      <trkpt lat="44.43508" lon="3.92988">
        <ele>674.02</ele>
        <time>2012-06-16T13:05:03Z</time>
      </trkpt>
      <trkpt lat="44.43511" lon="3.92988">
        <ele>674.02</ele>
        <time>2012-06-16T13:05:06Z</time>
      </trkpt>
      <trkpt lat="44.43512" lon="3.92989">
        <ele>674.5</ele>
        <time>2012-06-16T13:05:07Z</time>
      </trkpt>
      <trkpt lat="44.43514" lon="3.92989">
        <ele>675.46</ele>
        <time>2012-06-16T13:05:08Z</time>
      </trkpt>
      <trkpt lat="44.43515" lon="3.92989">
        <ele>674.98</ele>
        <time>2012-06-16T13:05:09Z</time>
      </trkpt>
      <trkpt lat="44.43516" lon="3.9299">
        <ele>674.98</ele>
        <time>2012-06-16T13:05:10Z</time>
      </trkpt>
      <trkpt lat="44.43517" lon="3.92991">
        <ele>675.46</ele>
        <time>2012-06-16T13:05:11Z</time>
      </trkpt>
      <trkpt lat="44.43519" lon="3.92992">
        <ele>675.46</ele>
        <time>2012-06-16T13:05:12Z</time>
      </trkpt>
      <trkpt lat="44.4352" lon="3.92993">
        <ele>675.46</ele>
        <time>2012-06-16T13:05:13Z</time>
      </trkpt>
      <trkpt lat="44.43522" lon="3.92994">
        <ele>675.94</ele>
        <time>2012-06-16T13:05:14Z</time>
      </trkpt>
      <trkpt lat="44.43523" lon="3.92996">
        <ele>676.42</ele>
        <time>2012-06-16T13:05:15Z</time>
      </trkpt>
      <trkpt lat="44.43524" lon="3.92997">
        <ele>676.42</ele>
        <time>2012-06-16T13:05:16Z</time>
      </trkpt>
      <trkpt lat="44.43529" lon="3.93005">
        <ele>676.91</ele>
        <time>2012-06-16T13:05:22Z</time>
      </trkpt>
      <trkpt lat="44.4353" lon="3.93007">
        <ele>676.91</ele>
        <time>2012-06-16T13:05:23Z</time>
      </trkpt>
      <trkpt lat="44.43531" lon="3.9301">
        <ele>677.39</ele>
        <time>2012-06-16T13:05:24Z</time>
      </trkpt>
      <trkpt lat="44.43541" lon="3.93021">
        <ele>679.31</ele>
        <time>2012-06-16T13:05:32Z</time>
      </trkpt>
      <trkpt lat="44.43557" lon="3.93027">
        <ele>681.23</ele>
        <time>2012-06-16T13:05:41Z</time>
      </trkpt>
      <trkpt lat="44.43564" lon="3.93028">
        <ele>682.67</ele>
        <time>2012-06-16T13:05:47Z</time>
      </trkpt>
      <trkpt lat="44.43567" lon="3.93028">
        <ele>682.67</ele>
        <time>2012-06-16T13:05:50Z</time>
      </trkpt>
      <trkpt lat="44.43569" lon="3.93028">
        <ele>683.15</ele>
        <time>2012-06-16T13:05:51Z</time>
      </trkpt>
      <trkpt lat="44.4357" lon="3.93027">
        <ele>682.67</ele>
        <time>2012-06-16T13:05:52Z</time>
      </trkpt>
      <trkpt lat="44.43571" lon="3.93027">
        <ele>683.15</ele>
        <time>2012-06-16T13:05:53Z</time>
      </trkpt>
      <trkpt lat="44.43576" lon="3.93024">
        <ele>684.12</ele>
        <time>2012-06-16T13:05:57Z</time>
      </trkpt>
      <trkpt lat="44.43578" lon="3.93022">
        <ele>684.6</ele>
        <time>2012-06-16T13:05:58Z</time>
      </trkpt>
      <trkpt lat="44.43579" lon="3.93021">
        <ele>685.08</ele>
        <time>2012-06-16T13:05:59Z</time>
      </trkpt>
      <trkpt lat="44.43582" lon="3.93017">
        <ele>685.56</ele>
        <time>2012-06-16T13:06:02Z</time>
      </trkpt>
      <trkpt lat="44.43587" lon="3.93008">
        <ele>687</ele>
        <time>2012-06-16T13:06:08Z</time>
      </trkpt>
      <trkpt lat="44.43586" lon="3.93003">
        <ele>687.48</ele>
        <time>2012-06-16T13:06:14Z</time>
      </trkpt>
      <trkpt lat="44.43585" lon="3.93003">
        <ele>687.48</ele>
        <time>2012-06-16T13:06:15Z</time>
      </trkpt>
      <trkpt lat="44.43584" lon="3.93003">
        <ele>687.48</ele>
        <time>2012-06-16T13:06:16Z</time>
      </trkpt>
      <trkpt lat="44.43581" lon="3.93002">
        <ele>687</ele>
        <time>2012-06-16T13:06:20Z</time>
      </trkpt>
      <trkpt lat="44.4358" lon="3.93001">
        <ele>687.96</ele>
        <time>2012-06-16T13:06:21Z</time>
      </trkpt>
      <trkpt lat="44.43579" lon="3.93001">
        <ele>688.44</ele>
        <time>2012-06-16T13:06:22Z</time>
      </trkpt>
      <trkpt lat="44.43577" lon="3.93001">
        <ele>688.44</ele>
        <time>2012-06-16T13:06:24Z</time>
      </trkpt>
      <trkpt lat="44.43576" lon="3.93001">
        <ele>688.44</ele>
        <time>2012-06-16T13:06:25Z</time>
      </trkpt>
      <trkpt lat="44.43574" lon="3.93001">
        <ele>688.44</ele>
        <time>2012-06-16T13:06:26Z</time>
      </trkpt>
      <trkpt lat="44.43573" lon="3.93">
        <ele>688.44</ele>
        <time>2012-06-16T13:06:27Z</time>
      </trkpt>
      <trkpt lat="44.43572" lon="3.93">
        <ele>688.44</ele>
        <time>2012-06-16T13:06:28Z</time>
      </trkpt>
      <trkpt lat="44.43557" lon="3.9299">
        <ele>689.88</ele>
        <time>2012-06-16T13:06:40Z</time>
      </trkpt>
      <trkpt lat="44.43557" lon="3.92987">
        <ele>689.88</ele>
        <time>2012-06-16T13:06:41Z</time>
      </trkpt>
      <trkpt lat="44.43556" lon="3.92985">
        <ele>689.88</ele>
        <time>2012-06-16T13:06:42Z</time>
      </trkpt>
      <trkpt lat="44.43556" lon="3.92983">
        <ele>689.88</ele>
        <time>2012-06-16T13:06:43Z</time>
      </trkpt>
      <trkpt lat="44.43555" lon="3.92981">
        <ele>690.36</ele>
        <time>2012-06-16T13:06:44Z</time>
      </trkpt>
      <trkpt lat="44.43554" lon="3.92979">
        <ele>690.84</ele>
        <time>2012-06-16T13:06:45Z</time>
      </trkpt>
      <trkpt lat="44.43554" lon="3.92976">
        <ele>690.84</ele>
        <time>2012-06-16T13:06:46Z</time>
      </trkpt>
      <trkpt lat="44.43554" lon="3.92974">
        <ele>690.84</ele>
        <time>2012-06-16T13:06:47Z</time>
      </trkpt>
      <trkpt lat="44.43554" lon="3.92972">
        <ele>691.33</ele>
        <time>2012-06-16T13:06:48Z</time>
      </trkpt>
      <trkpt lat="44.43551" lon="3.92953">
        <ele>693.25</ele>
        <time>2012-06-16T13:06:56Z</time>
      </trkpt>
      <trkpt lat="44.4355" lon="3.92952">
        <ele>693.25</ele>
        <time>2012-06-16T13:06:57Z</time>
      </trkpt>
      <trkpt lat="44.43548" lon="3.92947">
        <ele>693.25</ele>
        <time>2012-06-16T13:06:59Z</time>
      </trkpt>
      <trkpt lat="44.43548" lon="3.92945">
        <ele>693.73</ele>
        <time>2012-06-16T13:07:00Z</time>
      </trkpt>
      <trkpt lat="44.43545" lon="3.92937">
        <ele>694.69</ele>
        <time>2012-06-16T13:07:04Z</time>
      </trkpt>
      <trkpt lat="44.43545" lon="3.92936">
        <ele>695.17</ele>
        <time>2012-06-16T13:07:05Z</time>
      </trkpt>
      <trkpt lat="44.43538" lon="3.92919">
        <ele>696.61</ele>
        <time>2012-06-16T13:07:12Z</time>
      </trkpt>
      <trkpt lat="44.43531" lon="3.92907">
        <ele>698.05</ele>
        <time>2012-06-16T13:07:19Z</time>
      </trkpt>
      <trkpt lat="44.43519" lon="3.92898">
        <ele>699.02</ele>
        <time>2012-06-16T13:07:30Z</time>
      </trkpt>
      <trkpt lat="44.43514" lon="3.92889">
        <ele>699.5</ele>
        <time>2012-06-16T13:07:42Z</time>
      </trkpt>
      <trkpt lat="44.4351" lon="3.92895">
        <ele>699.98</ele>
        <time>2012-06-16T13:07:49Z</time>
      </trkpt>
      <trkpt lat="44.43502" lon="3.92901">
        <ele>701.9</ele>
        <time>2012-06-16T13:07:56Z</time>
      </trkpt>
      <trkpt lat="44.43494" lon="3.92908">
        <ele>703.34</ele>
        <time>2012-06-16T13:08:02Z</time>
      </trkpt>
      <trkpt lat="44.43492" lon="3.92909">
        <ele>703.34</ele>
        <time>2012-06-16T13:08:03Z</time>
      </trkpt>
      <trkpt lat="44.43489" lon="3.92909">
        <ele>703.34</ele>
        <time>2012-06-16T13:08:04Z</time>
      </trkpt>
      <trkpt lat="44.43486" lon="3.9291">
        <ele>703.82</ele>
        <time>2012-06-16T13:08:05Z</time>
      </trkpt>
      <trkpt lat="44.43477" lon="3.92912">
        <ele>703.82</ele>
        <time>2012-06-16T13:08:10Z</time>
      </trkpt>
      <trkpt lat="44.43463" lon="3.92915">
        <ele>705.75</ele>
        <time>2012-06-16T13:08:22Z</time>
      </trkpt>
      <trkpt lat="44.43453" lon="3.92911">
        <ele>706.71</ele>
        <time>2012-06-16T13:08:29Z</time>
      </trkpt>
      <trkpt lat="44.4345" lon="3.92911">
        <ele>706.71</ele>
        <time>2012-06-16T13:08:30Z</time>
      </trkpt>
      <trkpt lat="44.43448" lon="3.9291">
        <ele>707.19</ele>
        <time>2012-06-16T13:08:31Z</time>
      </trkpt>
      <trkpt lat="44.43446" lon="3.92909">
        <ele>707.19</ele>
        <time>2012-06-16T13:08:32Z</time>
      </trkpt>
      <trkpt lat="44.43444" lon="3.92909">
        <ele>707.67</ele>
        <time>2012-06-16T13:08:33Z</time>
      </trkpt>
      <trkpt lat="44.43442" lon="3.92908">
        <ele>707.67</ele>
        <time>2012-06-16T13:08:34Z</time>
      </trkpt>
      <trkpt lat="44.43438" lon="3.92905">
        <ele>708.15</ele>
        <time>2012-06-16T13:08:38Z</time>
      </trkpt>
      <trkpt lat="44.43436" lon="3.92904">
        <ele>708.15</ele>
        <time>2012-06-16T13:08:39Z</time>
      </trkpt>
      <trkpt lat="44.43433" lon="3.92902">
        <ele>708.63</ele>
        <time>2012-06-16T13:08:41Z</time>
      </trkpt>
      <trkpt lat="44.43431" lon="3.92894">
        <ele>710.07</ele>
        <time>2012-06-16T13:08:47Z</time>
      </trkpt>
      <trkpt lat="44.43435" lon="3.92889">
        <ele>705.26</ele>
        <time>2012-06-16T13:08:55Z</time>
      </trkpt>
      <trkpt lat="44.43435" lon="3.92888">
        <ele>711.99</ele>
        <time>2012-06-16T13:08:56Z</time>
      </trkpt>
      <trkpt lat="44.43435" lon="3.92887">
        <ele>716.8</ele>
        <time>2012-06-16T13:08:58Z</time>
      </trkpt>
      <trkpt lat="44.43435" lon="3.92886">
        <ele>713.92</ele>
        <time>2012-06-16T13:08:59Z</time>
      </trkpt>
      <trkpt lat="44.43436" lon="3.92883">
        <ele>711.99</ele>
        <time>2012-06-16T13:09:01Z</time>
      </trkpt>
      <trkpt lat="44.43444" lon="3.92868">
        <ele>714.4</ele>
        <time>2012-06-16T13:09:14Z</time>
      </trkpt>
      <trkpt lat="44.4345" lon="3.92855">
        <ele>715.84</ele>
        <time>2012-06-16T13:09:20Z</time>
      </trkpt>
      <trkpt lat="44.43457" lon="3.92849">
        <ele>716.8</ele>
        <time>2012-06-16T13:09:26Z</time>
      </trkpt>
      <trkpt lat="44.43467" lon="3.92843">
        <ele>718.72</ele>
        <time>2012-06-16T13:09:34Z</time>
      </trkpt>
      <trkpt lat="44.43459" lon="3.92836">
        <ele>720.65</ele>
        <time>2012-06-16T13:09:44Z</time>
      </trkpt>
      <trkpt lat="44.43454" lon="3.92835">
        <ele>721.61</ele>
        <time>2012-06-16T13:09:48Z</time>
      </trkpt>
      <trkpt lat="44.43447" lon="3.92835">
        <ele>721.13</ele>
        <time>2012-06-16T13:09:53Z</time>
      </trkpt>
      <trkpt lat="44.43444" lon="3.92836">
        <ele>722.09</ele>
        <time>2012-06-16T13:09:55Z</time>
      </trkpt>
      <trkpt lat="44.43442" lon="3.92835">
        <ele>723.05</ele>
        <time>2012-06-16T13:09:57Z</time>
      </trkpt>
      <trkpt lat="44.43435" lon="3.92835">
        <ele>723.05</ele>
        <time>2012-06-16T13:10:02Z</time>
      </trkpt>
      <trkpt lat="44.43423" lon="3.92836">
        <ele>724.97</ele>
        <time>2012-06-16T13:10:13Z</time>
      </trkpt>
      <trkpt lat="44.43413" lon="3.9283">
        <ele>726.41</ele>
        <time>2012-06-16T13:10:23Z</time>
      </trkpt>
      <trkpt lat="44.43411" lon="3.92832">
        <ele>722.09</ele>
        <time>2012-06-16T13:10:24Z</time>
      </trkpt>
      <trkpt lat="44.43407" lon="3.92832">
        <ele>733.62</ele>
        <time>2012-06-16T13:10:26Z</time>
      </trkpt>
      <trkpt lat="44.43406" lon="3.92832">
        <ele>727.86</ele>
        <time>2012-06-16T13:10:27Z</time>
      </trkpt>
      <trkpt lat="44.43401" lon="3.9283">
        <ele>727.86</ele>
        <time>2012-06-16T13:10:31Z</time>
      </trkpt>
      <trkpt lat="44.43398" lon="3.92827">
        <ele>726.89</ele>
        <time>2012-06-16T13:10:34Z</time>
      </trkpt>
      <trkpt lat="44.43393" lon="3.92819">
        <ele>727.86</ele>
        <time>2012-06-16T13:10:39Z</time>
      </trkpt>
      <trkpt lat="44.43381" lon="3.92817">
        <ele>729.3</ele>
        <time>2012-06-16T13:10:46Z</time>
      </trkpt>
      <trkpt lat="44.43382" lon="3.92806">
        <ele>731.22</ele>
        <time>2012-06-16T13:10:54Z</time>
      </trkpt>
      <trkpt lat="44.43386" lon="3.92809">
        <ele>732.18</ele>
        <time>2012-06-16T13:10:58Z</time>
      </trkpt>
      <trkpt lat="44.43392" lon="3.92811">
        <ele>733.14</ele>
        <time>2012-06-16T13:11:08Z</time>
      </trkpt>
      <trkpt lat="44.43403" lon="3.92809">
        <ele>735.55</ele>
        <time>2012-06-16T13:11:20Z</time>
      </trkpt>
      <trkpt lat="44.43406" lon="3.92806">
        <ele>735.07</ele>
        <time>2012-06-16T13:11:24Z</time>
      </trkpt>
      <trkpt lat="44.43406" lon="3.92798">
        <ele>736.03</ele>
        <time>2012-06-16T13:11:29Z</time>
      </trkpt>
      <trkpt lat="44.43402" lon="3.92795">
        <ele>736.99</ele>
        <time>2012-06-16T13:11:34Z</time>
      </trkpt>
      <trkpt lat="44.434" lon="3.92795">
        <ele>737.47</ele>
        <time>2012-06-16T13:11:36Z</time>
      </trkpt>
      <trkpt lat="44.43398" lon="3.92795">
        <ele>738.43</ele>
        <time>2012-06-16T13:11:40Z</time>
      </trkpt>
      <trkpt lat="44.43397" lon="3.92797">
        <ele>738.91</ele>
        <time>2012-06-16T13:11:42Z</time>
      </trkpt>
      <trkpt lat="44.43394" lon="3.92795">
        <ele>739.39</ele>
        <time>2012-06-16T13:11:48Z</time>
      </trkpt>
      <trkpt lat="44.43375" lon="3.92789">
        <ele>740.83</ele>
        <time>2012-06-16T13:12:01Z</time>
      </trkpt>
      <trkpt lat="44.43366" lon="3.9279">
        <ele>741.31</ele>
        <time>2012-06-16T13:12:05Z</time>
      </trkpt>
      <trkpt lat="44.43363" lon="3.92786">
        <ele>741.31</ele>
        <time>2012-06-16T13:12:08Z</time>
      </trkpt>
      <trkpt lat="44.43354" lon="3.92785">
        <ele>742.76</ele>
        <time>2012-06-16T13:12:12Z</time>
      </trkpt>
      <trkpt lat="44.43345" lon="3.92785">
        <ele>743.24</ele>
        <time>2012-06-16T13:12:17Z</time>
      </trkpt>
      <trkpt lat="44.43343" lon="3.92785">
        <ele>743.24</ele>
        <time>2012-06-16T13:12:18Z</time>
      </trkpt>
      <trkpt lat="44.43328" lon="3.92787">
        <ele>745.16</ele>
        <time>2012-06-16T13:12:27Z</time>
      </trkpt>
      <trkpt lat="44.4332" lon="3.92791">
        <ele>746.12</ele>
        <time>2012-06-16T13:12:30Z</time>
      </trkpt>
      <trkpt lat="44.433" lon="3.9278">
        <ele>748.52</ele>
        <time>2012-06-16T13:12:42Z</time>
      </trkpt>
      <trkpt lat="44.43289" lon="3.92775">
        <ele>750.93</ele>
        <time>2012-06-16T13:12:53Z</time>
      </trkpt>
      <trkpt lat="44.43289" lon="3.92774">
        <ele>751.41</ele>
        <time>2012-06-16T13:13:08Z</time>
      </trkpt>
      <trkpt lat="44.43286" lon="3.92772">
        <ele>750.45</ele>
        <time>2012-06-16T13:13:31Z</time>
      </trkpt>
      <trkpt lat="44.43284" lon="3.92774">
        <ele>750.93</ele>
        <time>2012-06-16T13:13:57Z</time>
      </trkpt>
      <trkpt lat="44.43278" lon="3.9277">
        <ele>751.41</ele>
        <time>2012-06-16T13:14:10Z</time>
      </trkpt>
      <trkpt lat="44.43268" lon="3.92761">
        <ele>752.85</ele>
        <time>2012-06-16T13:14:17Z</time>
      </trkpt>
      <trkpt lat="44.43264" lon="3.92756">
        <ele>753.33</ele>
        <time>2012-06-16T13:14:21Z</time>
      </trkpt>
      <trkpt lat="44.4326" lon="3.9275">
        <ele>754.29</ele>
        <time>2012-06-16T13:14:25Z</time>
      </trkpt>
      <trkpt lat="44.43254" lon="3.92742">
        <ele>756.21</ele>
        <time>2012-06-16T13:14:31Z</time>
      </trkpt>
      <trkpt lat="44.43249" lon="3.92737">
        <ele>756.69</ele>
        <time>2012-06-16T13:14:37Z</time>
      </trkpt>
      <trkpt lat="44.43248" lon="3.92731">
        <ele>756.69</ele>
        <time>2012-06-16T13:14:40Z</time>
      </trkpt>
      <trkpt lat="44.43246" lon="3.92723">
        <ele>758.14</ele>
        <time>2012-06-16T13:14:44Z</time>
      </trkpt>
      <trkpt lat="44.43233" lon="3.92708">
        <ele>759.58</ele>
        <time>2012-06-16T13:14:54Z</time>
      </trkpt>
      <trkpt lat="44.43224" lon="3.92693">
        <ele>760.54</ele>
        <time>2012-06-16T13:15:04Z</time>
      </trkpt>
      <trkpt lat="44.43221" lon="3.92686">
        <ele>761.02</ele>
        <time>2012-06-16T13:15:08Z</time>
      </trkpt>
      <trkpt lat="44.43213" lon="3.92674">
        <ele>762.94</ele>
        <time>2012-06-16T13:15:17Z</time>
      </trkpt>
      <trkpt lat="44.43203" lon="3.92664">
        <ele>764.87</ele>
        <time>2012-06-16T13:15:27Z</time>
      </trkpt>
      <trkpt lat="44.43199" lon="3.92661">
        <ele>765.83</ele>
        <time>2012-06-16T13:15:30Z</time>
      </trkpt>
      <trkpt lat="44.43194" lon="3.92662">
        <ele>766.79</ele>
        <time>2012-06-16T13:15:33Z</time>
      </trkpt>
      <trkpt lat="44.43187" lon="3.92658">
        <ele>766.79</ele>
        <time>2012-06-16T13:15:37Z</time>
      </trkpt>
      <trkpt lat="44.43184" lon="3.92659">
        <ele>766.79</ele>
        <time>2012-06-16T13:15:39Z</time>
      </trkpt>
      <trkpt lat="44.43175" lon="3.92657">
        <ele>769.67</ele>
        <time>2012-06-16T13:15:47Z</time>
      </trkpt>
      <trkpt lat="44.43171" lon="3.92657">
        <ele>770.15</ele>
        <time>2012-06-16T13:15:50Z</time>
      </trkpt>
      <trkpt lat="44.43165" lon="3.92659">
        <ele>771.6</ele>
        <time>2012-06-16T13:15:54Z</time>
      </trkpt>
      <trkpt lat="44.43156" lon="3.92663">
        <ele>774.48</ele>
        <time>2012-06-16T13:16:03Z</time>
      </trkpt>
      <trkpt lat="44.43137" lon="3.92667">
        <ele>774.96</ele>
        <time>2012-06-16T13:16:08Z</time>
      </trkpt>
      <trkpt lat="44.43135" lon="3.92667">
        <ele>775.44</ele>
        <time>2012-06-16T13:16:09Z</time>
      </trkpt>
      <trkpt lat="44.43132" lon="3.92668">
        <ele>775.44</ele>
        <time>2012-06-16T13:16:10Z</time>
      </trkpt>
      <trkpt lat="44.43128" lon="3.92668">
        <ele>775.44</ele>
        <time>2012-06-16T13:16:12Z</time>
      </trkpt>
      <trkpt lat="44.43116" lon="3.92671">
        <ele>776.88</ele>
        <time>2012-06-16T13:16:20Z</time>
      </trkpt>
      <trkpt lat="44.43111" lon="3.92673">
        <ele>776.88</ele>
        <time>2012-06-16T13:16:23Z</time>
      </trkpt>
      <trkpt lat="44.43096" lon="3.92668">
        <ele>779.29</ele>
        <time>2012-06-16T13:16:34Z</time>
      </trkpt>
      <trkpt lat="44.43083" lon="3.92673">
        <ele>781.69</ele>
        <time>2012-06-16T13:16:46Z</time>
      </trkpt>
      <trkpt lat="44.43078" lon="3.92677">
        <ele>782.65</ele>
        <time>2012-06-16T13:16:50Z</time>
      </trkpt>
      <trkpt lat="44.43067" lon="3.92685">
        <ele>784.09</ele>
        <time>2012-06-16T13:16:57Z</time>
      </trkpt>
      <trkpt lat="44.43054" lon="3.92691">
        <ele>784.57</ele>
        <time>2012-06-16T13:17:02Z</time>
      </trkpt>
      <trkpt lat="44.43018" lon="3.92691">
        <ele>786.5</ele>
        <time>2012-06-16T13:17:17Z</time>
      </trkpt>
      <trkpt lat="44.4301" lon="3.92697">
        <ele>787.46</ele>
        <time>2012-06-16T13:17:19Z</time>
      </trkpt>
      <trkpt lat="44.42996" lon="3.92696">
        <ele>789.38</ele>
        <time>2012-06-16T13:17:33Z</time>
      </trkpt>
      <trkpt lat="44.42985" lon="3.92693">
        <ele>790.82</ele>
        <time>2012-06-16T13:17:42Z</time>
      </trkpt>
      <trkpt lat="44.4297" lon="3.92691">
        <ele>792.74</ele>
        <time>2012-06-16T13:17:53Z</time>
      </trkpt>
      <trkpt lat="44.42958" lon="3.92691">
        <ele>794.67</ele>
        <time>2012-06-16T13:18:05Z</time>
      </trkpt>
      <trkpt lat="44.42945" lon="3.92694">
        <ele>796.59</ele>
        <time>2012-06-16T13:18:17Z</time>
      </trkpt>
      <trkpt lat="44.42934" lon="3.927">
        <ele>798.51</ele>
        <time>2012-06-16T13:18:27Z</time>
      </trkpt>
      <trkpt lat="44.42933" lon="3.92701">
        <ele>798.51</ele>
        <time>2012-06-16T13:18:28Z</time>
      </trkpt>
      <trkpt lat="44.42932" lon="3.92704">
        <ele>798.51</ele>
        <time>2012-06-16T13:18:30Z</time>
      </trkpt>
      <trkpt lat="44.42921" lon="3.92718">
        <ele>799.95</ele>
        <time>2012-06-16T13:18:40Z</time>
      </trkpt>
      <trkpt lat="44.42909" lon="3.9274">
        <ele>800.92</ele>
        <time>2012-06-16T13:18:54Z</time>
      </trkpt>
      <trkpt lat="44.42897" lon="3.92753">
        <ele>804.28</ele>
        <time>2012-06-16T13:19:08Z</time>
      </trkpt>
      <trkpt lat="44.42885" lon="3.92772">
        <ele>805.24</ele>
        <time>2012-06-16T13:19:18Z</time>
      </trkpt>
      <trkpt lat="44.42873" lon="3.92791">
        <ele>808.13</ele>
        <time>2012-06-16T13:19:30Z</time>
      </trkpt>
      <trkpt lat="44.42866" lon="3.92796">
        <ele>809.09</ele>
        <time>2012-06-16T13:19:35Z</time>
      </trkpt>
      <trkpt lat="44.42858" lon="3.92804">
        <ele>810.05</ele>
        <time>2012-06-16T13:19:43Z</time>
      </trkpt>
      <trkpt lat="44.42853" lon="3.92806">
        <ele>811.01</ele>
        <time>2012-06-16T13:19:48Z</time>
      </trkpt>
      <trkpt lat="44.42845" lon="3.92808">
        <ele>811.01</ele>
        <time>2012-06-16T13:19:53Z</time>
      </trkpt>
      <trkpt lat="44.42845" lon="3.92795">
        <ele>812.93</ele>
        <time>2012-06-16T13:20:00Z</time>
      </trkpt>
      <trkpt lat="44.42852" lon="3.92783">
        <ele>814.37</ele>
        <time>2012-06-16T13:20:09Z</time>
      </trkpt>
      <trkpt lat="44.4285" lon="3.92776">
        <ele>814.37</ele>
        <time>2012-06-16T13:20:15Z</time>
      </trkpt>
      <trkpt lat="44.4285" lon="3.92771">
        <ele>815.34</ele>
        <time>2012-06-16T13:20:19Z</time>
      </trkpt>
      <trkpt lat="44.42849" lon="3.92759">
        <ele>815.82</ele>
        <time>2012-06-16T13:20:29Z</time>
      </trkpt>
      <trkpt lat="44.42851" lon="3.92751">
        <ele>815.82</ele>
        <time>2012-06-16T13:20:35Z</time>
      </trkpt>
      <trkpt lat="44.42851" lon="3.92733">
        <ele>817.74</ele>
        <time>2012-06-16T13:20:46Z</time>
      </trkpt>
      <trkpt lat="44.42854" lon="3.92713">
        <ele>819.18</ele>
        <time>2012-06-16T13:20:58Z</time>
      </trkpt>
      <trkpt lat="44.42855" lon="3.92701">
        <ele>819.66</ele>
        <time>2012-06-16T13:21:06Z</time>
      </trkpt>
      <trkpt lat="44.42857" lon="3.92695">
        <ele>820.14</ele>
        <time>2012-06-16T13:21:09Z</time>
      </trkpt>
      <trkpt lat="44.42857" lon="3.92692">
        <ele>820.62</ele>
        <time>2012-06-16T13:21:11Z</time>
      </trkpt>
      <trkpt lat="44.42864" lon="3.92673">
        <ele>821.1</ele>
        <time>2012-06-16T13:21:23Z</time>
      </trkpt>
      <trkpt lat="44.42864" lon="3.9267">
        <ele>821.58</ele>
        <time>2012-06-16T13:21:25Z</time>
      </trkpt>
      <trkpt lat="44.42871" lon="3.92646">
        <ele>823.51</ele>
        <time>2012-06-16T13:21:39Z</time>
      </trkpt>
      <trkpt lat="44.42879" lon="3.92634">
        <ele>824.95</ele>
        <time>2012-06-16T13:21:46Z</time>
      </trkpt>
      <trkpt lat="44.42886" lon="3.92622">
        <ele>825.91</ele>
        <time>2012-06-16T13:21:51Z</time>
      </trkpt>
      <trkpt lat="44.42892" lon="3.92612">
        <ele>827.35</ele>
        <time>2012-06-16T13:21:56Z</time>
      </trkpt>
      <trkpt lat="44.42893" lon="3.92609">
        <ele>827.35</ele>
        <time>2012-06-16T13:21:58Z</time>
      </trkpt>
      <trkpt lat="44.4291" lon="3.92579">
        <ele>830.24</ele>
        <time>2012-06-16T13:22:13Z</time>
      </trkpt>
      <trkpt lat="44.42911" lon="3.92577">
        <ele>830.24</ele>
        <time>2012-06-16T13:22:14Z</time>
      </trkpt>
      <trkpt lat="44.42921" lon="3.92567">
        <ele>832.16</ele>
        <time>2012-06-16T13:22:21Z</time>
      </trkpt>
      <trkpt lat="44.42927" lon="3.92547">
        <ele>834.56</ele>
        <time>2012-06-16T13:22:33Z</time>
      </trkpt>
      <trkpt lat="44.42931" lon="3.92536">
        <ele>835.04</ele>
        <time>2012-06-16T13:22:42Z</time>
      </trkpt>
      <trkpt lat="44.42954" lon="3.92522">
        <ele>836.48</ele>
        <time>2012-06-16T13:22:54Z</time>
      </trkpt>
      <trkpt lat="44.42955" lon="3.92521">
        <ele>836.48</ele>
        <time>2012-06-16T13:22:55Z</time>
      </trkpt>
      <trkpt lat="44.42963" lon="3.92517">
        <ele>836.96</ele>
        <time>2012-06-16T13:22:59Z</time>
      </trkpt>
      <trkpt lat="44.42986" lon="3.92508">
        <ele>837.93</ele>
        <time>2012-06-16T13:23:10Z</time>
      </trkpt>
      <trkpt lat="44.43011" lon="3.92496">
        <ele>838.41</ele>
        <time>2012-06-16T13:23:23Z</time>
      </trkpt>
      <trkpt lat="44.43013" lon="3.92496">
        <ele>837.93</ele>
        <time>2012-06-16T13:23:37Z</time>
      </trkpt>
      <trkpt lat="44.43017" lon="3.92494">
        <ele>837.93</ele>
        <time>2012-06-16T13:23:59Z</time>
      </trkpt>
      <trkpt lat="44.43022" lon="3.92491">
        <ele>838.89</ele>
        <time>2012-06-16T13:24:04Z</time>
      </trkpt>
      <trkpt lat="44.43039" lon="3.92484">
        <ele>840.33</ele>
        <time>2012-06-16T13:24:09Z</time>
      </trkpt>
      <trkpt lat="44.43044" lon="3.92482">
        <ele>839.85</ele>
        <time>2012-06-16T13:24:10Z</time>
      </trkpt>
      <trkpt lat="44.4307" lon="3.92469">
        <ele>841.77</ele>
        <time>2012-06-16T13:24:19Z</time>
      </trkpt>
      <trkpt lat="44.43087" lon="3.92454">
        <ele>845.62</ele>
        <time>2012-06-16T13:24:26Z</time>
      </trkpt>
      <trkpt lat="44.43118" lon="3.92437">
        <ele>847.54</ele>
        <time>2012-06-16T13:24:36Z</time>
      </trkpt>
      <trkpt lat="44.43156" lon="3.92415">
        <ele>848.98</ele>
        <time>2012-06-16T13:24:48Z</time>
      </trkpt>
      <trkpt lat="44.43156" lon="3.92412">
        <ele>848.5</ele>
        <time>2012-06-16T13:24:49Z</time>
      </trkpt>
      <trkpt lat="44.43155" lon="3.92409">
        <ele>849.94</ele>
        <time>2012-06-16T13:24:50Z</time>
      </trkpt>
      <trkpt lat="44.43154" lon="3.92406">
        <ele>849.46</ele>
        <time>2012-06-16T13:24:51Z</time>
      </trkpt>
      <trkpt lat="44.43153" lon="3.92405">
        <ele>849.94</ele>
        <time>2012-06-16T13:24:52Z</time>
      </trkpt>
      <trkpt lat="44.43152" lon="3.92404">
        <ele>849.94</ele>
        <time>2012-06-16T13:24:53Z</time>
      </trkpt>
      <trkpt lat="44.4315" lon="3.92403">
        <ele>850.42</ele>
        <time>2012-06-16T13:24:54Z</time>
      </trkpt>
      <trkpt lat="44.43148" lon="3.92402">
        <ele>850.42</ele>
        <time>2012-06-16T13:24:55Z</time>
      </trkpt>
      <trkpt lat="44.43147" lon="3.92403">
        <ele>850.9</ele>
        <time>2012-06-16T13:24:56Z</time>
      </trkpt>
      <trkpt lat="44.43145" lon="3.92404">
        <ele>850.9</ele>
        <time>2012-06-16T13:24:57Z</time>
      </trkpt>
      <trkpt lat="44.43144" lon="3.92404">
        <ele>850.9</ele>
        <time>2012-06-16T13:24:58Z</time>
      </trkpt>
      <trkpt lat="44.43136" lon="3.92407">
        <ele>852.83</ele>
        <time>2012-06-16T13:25:03Z</time>
      </trkpt>
      <trkpt lat="44.43134" lon="3.92408">
        <ele>853.79</ele>
        <time>2012-06-16T13:25:04Z</time>
      </trkpt>
      <trkpt lat="44.43132" lon="3.92408">
        <ele>853.79</ele>
        <time>2012-06-16T13:25:05Z</time>
      </trkpt>
      <trkpt lat="44.43131" lon="3.92409">
        <ele>853.31</ele>
        <time>2012-06-16T13:25:06Z</time>
      </trkpt>
      <trkpt lat="44.43129" lon="3.9241">
        <ele>854.27</ele>
        <time>2012-06-16T13:25:07Z</time>
      </trkpt>
      <trkpt lat="44.43127" lon="3.9241">
        <ele>854.27</ele>
        <time>2012-06-16T13:25:08Z</time>
      </trkpt>
      <trkpt lat="44.43125" lon="3.9241">
        <ele>854.75</ele>
        <time>2012-06-16T13:25:09Z</time>
      </trkpt>
      <trkpt lat="44.43123" lon="3.9241">
        <ele>855.23</ele>
        <time>2012-06-16T13:25:10Z</time>
      </trkpt>
      <trkpt lat="44.43121" lon="3.9241">
        <ele>854.75</ele>
        <time>2012-06-16T13:25:11Z</time>
      </trkpt>
      <trkpt lat="44.43098" lon="3.92413">
        <ele>857.15</ele>
        <time>2012-06-16T13:25:26Z</time>
      </trkpt>
      <trkpt lat="44.43089" lon="3.92415">
        <ele>858.59</ele>
        <time>2012-06-16T13:25:36Z</time>
      </trkpt>
      <trkpt lat="44.43088" lon="3.92415">
        <ele>858.59</ele>
        <time>2012-06-16T13:25:37Z</time>
      </trkpt>
      <trkpt lat="44.43086" lon="3.92415">
        <ele>859.08</ele>
        <time>2012-06-16T13:25:38Z</time>
      </trkpt>
      <trkpt lat="44.43085" lon="3.92415">
        <ele>859.08</ele>
        <time>2012-06-16T13:25:39Z</time>
      </trkpt>
      <trkpt lat="44.43084" lon="3.92415">
        <ele>859.08</ele>
        <time>2012-06-16T13:25:40Z</time>
      </trkpt>
      <trkpt lat="44.43083" lon="3.92415">
        <ele>859.08</ele>
        <time>2012-06-16T13:25:41Z</time>
      </trkpt>
      <trkpt lat="44.43082" lon="3.92415">
        <ele>859.08</ele>
        <time>2012-06-16T13:25:42Z</time>
      </trkpt>
      <trkpt lat="44.43065" lon="3.92414">
        <ele>860.04</ele>
        <time>2012-06-16T13:25:57Z</time>
      </trkpt>
      <trkpt lat="44.43061" lon="3.92414">
        <ele>859.56</ele>
        <time>2012-06-16T13:26:01Z</time>
      </trkpt>
      <trkpt lat="44.43044" lon="3.92414">
        <ele>860.52</ele>
        <time>2012-06-16T13:26:17Z</time>
      </trkpt>
      <trkpt lat="44.43028" lon="3.92413">
        <ele>861.96</ele>
        <time>2012-06-16T13:26:31Z</time>
      </trkpt>
      <trkpt lat="44.43024" lon="3.92413">
        <ele>862.44</ele>
        <time>2012-06-16T13:26:44Z</time>
      </trkpt>
      <trkpt lat="44.43014" lon="3.92413">
        <ele>862.92</ele>
        <time>2012-06-16T13:26:58Z</time>
      </trkpt>
      <trkpt lat="44.42998" lon="3.92414">
        <ele>865.32</ele>
        <time>2012-06-16T13:27:11Z</time>
      </trkpt>
      <trkpt lat="44.42991" lon="3.92413">
        <ele>866.77</ele>
        <time>2012-06-16T13:27:18Z</time>
      </trkpt>
      <trkpt lat="44.42989" lon="3.92412">
        <ele>867.25</ele>
        <time>2012-06-16T13:27:19Z</time>
      </trkpt>
      <trkpt lat="44.42988" lon="3.92412">
        <ele>866.77</ele>
        <time>2012-06-16T13:27:20Z</time>
      </trkpt>
      <trkpt lat="44.42981" lon="3.92411">
        <ele>867.73</ele>
        <time>2012-06-16T13:27:26Z</time>
      </trkpt>
      <trkpt lat="44.42976" lon="3.9241">
        <ele>869.17</ele>
        <time>2012-06-16T13:27:31Z</time>
      </trkpt>
      <trkpt lat="44.42973" lon="3.9241">
        <ele>869.17</ele>
        <time>2012-06-16T13:27:43Z</time>
      </trkpt>
      <trkpt lat="44.42972" lon="3.92411">
        <ele>869.17</ele>
        <time>2012-06-16T13:28:11Z</time>
      </trkpt>
      <trkpt lat="44.42972" lon="3.9241">
        <ele>869.65</ele>
        <time>2012-06-16T13:28:42Z</time>
      </trkpt>
      <trkpt lat="44.42972" lon="3.92409">
        <ele>869.17</ele>
        <time>2012-06-16T13:29:07Z</time>
      </trkpt>
      <trkpt lat="44.42972" lon="3.92409">
        <ele>869.65</ele>
        <time>2012-06-16T13:29:34Z</time>
      </trkpt>
      <trkpt lat="44.42972" lon="3.92409">
        <ele>869.65</ele>
        <time>2012-06-16T13:29:52Z</time>
      </trkpt>
      <trkpt lat="44.42971" lon="3.92409">
        <ele>869.65</ele>
        <time>2012-06-16T13:30:10Z</time>
      </trkpt>
      <trkpt lat="44.4297" lon="3.92409">
        <ele>870.13</ele>
        <time>2012-06-16T13:30:16Z</time>
      </trkpt>
      <trkpt lat="44.42968" lon="3.92409">
        <ele>871.09</ele>
        <time>2012-06-16T13:30:17Z</time>
      </trkpt>
      <trkpt lat="44.42967" lon="3.9241">
        <ele>871.09</ele>
        <time>2012-06-16T13:30:18Z</time>
      </trkpt>
      <trkpt lat="44.42965" lon="3.9241">
        <ele>871.57</ele>
        <time>2012-06-16T13:30:19Z</time>
      </trkpt>
      <trkpt lat="44.42963" lon="3.9241">
        <ele>872.05</ele>
        <time>2012-06-16T13:30:20Z</time>
      </trkpt>
      <trkpt lat="44.42959" lon="3.92411">
        <ele>873.01</ele>
        <time>2012-06-16T13:30:23Z</time>
      </trkpt>
      <trkpt lat="44.42957" lon="3.92411">
        <ele>873.01</ele>
        <time>2012-06-16T13:30:24Z</time>
      </trkpt>
      <trkpt lat="44.42956" lon="3.92412">
        <ele>873.5</ele>
        <time>2012-06-16T13:30:25Z</time>
      </trkpt>
      <trkpt lat="44.42955" lon="3.92412">
        <ele>873.98</ele>
        <time>2012-06-16T13:30:26Z</time>
      </trkpt>
      <trkpt lat="44.42953" lon="3.92412">
        <ele>873.5</ele>
        <time>2012-06-16T13:30:27Z</time>
      </trkpt>
      <trkpt lat="44.42952" lon="3.92412">
        <ele>873.98</ele>
        <time>2012-06-16T13:30:28Z</time>
      </trkpt>
      <trkpt lat="44.4295" lon="3.92413">
        <ele>874.46</ele>
        <time>2012-06-16T13:30:29Z</time>
      </trkpt>
      <trkpt lat="44.42948" lon="3.92411">
        <ele>874.94</ele>
        <time>2012-06-16T13:30:38Z</time>
      </trkpt>
      <trkpt lat="44.42949" lon="3.92412">
        <ele>874.94</ele>
        <time>2012-06-16T13:31:00Z</time>
      </trkpt>
      <trkpt lat="44.42946" lon="3.92412">
        <ele>875.42</ele>
        <time>2012-06-16T13:31:12Z</time>
      </trkpt>
      <trkpt lat="44.42935" lon="3.92413">
        <ele>876.86</ele>
        <time>2012-06-16T13:31:22Z</time>
      </trkpt>
      <trkpt lat="44.42931" lon="3.92413">
        <ele>877.34</ele>
        <time>2012-06-16T13:31:25Z</time>
      </trkpt>
      <trkpt lat="44.4293" lon="3.92413">
        <ele>877.82</ele>
        <time>2012-06-16T13:31:26Z</time>
      </trkpt>
      <trkpt lat="44.42927" lon="3.92412">
        <ele>878.78</ele>
        <time>2012-06-16T13:31:28Z</time>
      </trkpt>
      <trkpt lat="44.42914" lon="3.92411">
        <ele>881.67</ele>
        <time>2012-06-16T13:31:37Z</time>
      </trkpt>
      <trkpt lat="44.429" lon="3.92408">
        <ele>885.03</ele>
        <time>2012-06-16T13:31:46Z</time>
      </trkpt>
      <trkpt lat="44.42898" lon="3.92408">
        <ele>885.51</ele>
        <time>2012-06-16T13:31:47Z</time>
      </trkpt>
      <trkpt lat="44.42897" lon="3.92407">
        <ele>885.51</ele>
        <time>2012-06-16T13:31:48Z</time>
      </trkpt>
      <trkpt lat="44.42896" lon="3.92406">
        <ele>885.99</ele>
        <time>2012-06-16T13:31:49Z</time>
      </trkpt>
      <trkpt lat="44.42894" lon="3.92406">
        <ele>885.99</ele>
        <time>2012-06-16T13:31:50Z</time>
      </trkpt>
      <trkpt lat="44.42893" lon="3.92405">
        <ele>885.99</ele>
        <time>2012-06-16T13:31:51Z</time>
      </trkpt>
      <trkpt lat="44.4288" lon="3.92405">
        <ele>889.84</ele>
        <time>2012-06-16T13:31:59Z</time>
      </trkpt>
      <trkpt lat="44.42878" lon="3.92405">
        <ele>890.32</ele>
        <time>2012-06-16T13:32:00Z</time>
      </trkpt>
      <trkpt lat="44.42866" lon="3.92405">
        <ele>893.2</ele>
        <time>2012-06-16T13:32:08Z</time>
      </trkpt>
      <trkpt lat="44.42864" lon="3.92406">
        <ele>893.2</ele>
        <time>2012-06-16T13:32:25Z</time>
      </trkpt>
      <trkpt lat="44.42865" lon="3.92405">
        <ele>892.72</ele>
        <time>2012-06-16T13:32:39Z</time>
      </trkpt>
      <trkpt lat="44.42856" lon="3.92403">
        <ele>896.09</ele>
        <time>2012-06-16T13:32:51Z</time>
      </trkpt>
      <trkpt lat="44.42842" lon="3.92403">
        <ele>898.97</ele>
        <time>2012-06-16T13:33:01Z</time>
      </trkpt>
      <trkpt lat="44.42829" lon="3.92401">
        <ele>902.82</ele>
        <time>2012-06-16T13:33:09Z</time>
      </trkpt>
      <trkpt lat="44.42816" lon="3.92401">
        <ele>905.7</ele>
        <time>2012-06-16T13:33:17Z</time>
      </trkpt>
      <trkpt lat="44.42809" lon="3.924">
        <ele>908.1</ele>
        <time>2012-06-16T13:33:28Z</time>
      </trkpt>
      <trkpt lat="44.42808" lon="3.924">
        <ele>908.1</ele>
        <time>2012-06-16T13:33:50Z</time>
      </trkpt>
      <trkpt lat="44.42808" lon="3.92401">
        <ele>908.1</ele>
        <time>2012-06-16T13:34:20Z</time>
      </trkpt>
      <trkpt lat="44.42808" lon="3.92402">
        <ele>908.1</ele>
        <time>2012-06-16T13:34:38Z</time>
      </trkpt>
      <trkpt lat="44.42802" lon="3.92402">
        <ele>909.54</ele>
        <time>2012-06-16T13:34:48Z</time>
      </trkpt>
      <trkpt lat="44.42799" lon="3.92402">
        <ele>910.03</ele>
        <time>2012-06-16T13:34:50Z</time>
      </trkpt>
      <trkpt lat="44.4279" lon="3.92401">
        <ele>913.87</ele>
        <time>2012-06-16T13:34:57Z</time>
      </trkpt>
      <trkpt lat="44.42788" lon="3.924">
        <ele>913.87</ele>
        <time>2012-06-16T13:34:58Z</time>
      </trkpt>
      <trkpt lat="44.42779" lon="3.92398">
        <ele>916.75</ele>
        <time>2012-06-16T13:35:04Z</time>
      </trkpt>
      <trkpt lat="44.42777" lon="3.92398">
        <ele>917.24</ele>
        <time>2012-06-16T13:35:05Z</time>
      </trkpt>
      <trkpt lat="44.42765" lon="3.92396">
        <ele>920.12</ele>
        <time>2012-06-16T13:35:13Z</time>
      </trkpt>
      <trkpt lat="44.42764" lon="3.92396">
        <ele>921.08</ele>
        <time>2012-06-16T13:35:14Z</time>
      </trkpt>
      <trkpt lat="44.42762" lon="3.92396">
        <ele>921.08</ele>
        <time>2012-06-16T13:35:15Z</time>
      </trkpt>
      <trkpt lat="44.42757" lon="3.92396">
        <ele>922.52</ele>
        <time>2012-06-16T13:35:19Z</time>
      </trkpt>
      <trkpt lat="44.42757" lon="3.92395">
        <ele>923</ele>
        <time>2012-06-16T13:35:32Z</time>
      </trkpt>
      <trkpt lat="44.42756" lon="3.92396">
        <ele>922.52</ele>
        <time>2012-06-16T13:35:59Z</time>
      </trkpt>
      <trkpt lat="44.42756" lon="3.92395">
        <ele>922.52</ele>
        <time>2012-06-16T13:36:17Z</time>
      </trkpt>
      <trkpt lat="44.4275" lon="3.92395">
        <ele>924.45</ele>
        <time>2012-06-16T13:36:35Z</time>
      </trkpt>
      <trkpt lat="44.42739" lon="3.92395">
        <ele>927.81</ele>
        <time>2012-06-16T13:36:48Z</time>
      </trkpt>
      <trkpt lat="44.42729" lon="3.92394">
        <ele>929.73</ele>
        <time>2012-06-16T13:37:02Z</time>
      </trkpt>
      <trkpt lat="44.42719" lon="3.92392">
        <ele>932.62</ele>
        <time>2012-06-16T13:37:14Z</time>
      </trkpt>
      <trkpt lat="44.4271" lon="3.92392">
        <ele>935.02</ele>
        <time>2012-06-16T13:37:26Z</time>
      </trkpt>
      <trkpt lat="44.42698" lon="3.9239">
        <ele>937.9</ele>
        <time>2012-06-16T13:37:40Z</time>
      </trkpt>
      <trkpt lat="44.42689" lon="3.92388">
        <ele>939.83</ele>
        <time>2012-06-16T13:37:54Z</time>
      </trkpt>
      <trkpt lat="44.42681" lon="3.92388">
        <ele>943.19</ele>
        <time>2012-06-16T13:38:06Z</time>
      </trkpt>
      <trkpt lat="44.42671" lon="3.9239">
        <ele>946.07</ele>
        <time>2012-06-16T13:38:20Z</time>
      </trkpt>
      <trkpt lat="44.42665" lon="3.92388">
        <ele>948</ele>
        <time>2012-06-16T13:38:32Z</time>
      </trkpt>
      <trkpt lat="44.42659" lon="3.92389">
        <ele>948.48</ele>
        <time>2012-06-16T13:38:46Z</time>
      </trkpt>
      <trkpt lat="44.4266" lon="3.92388">
        <ele>948.96</ele>
        <time>2012-06-16T13:39:12Z</time>
      </trkpt>
      <trkpt lat="44.42659" lon="3.92388">
        <ele>948.96</ele>
        <time>2012-06-16T13:39:43Z</time>
      </trkpt>
      <trkpt lat="44.42659" lon="3.92388">
        <ele>949.92</ele>
        <time>2012-06-16T13:40:12Z</time>
      </trkpt>
      <trkpt lat="44.42659" lon="3.92388">
        <ele>948.96</ele>
        <time>2012-06-16T13:40:38Z</time>
      </trkpt>
      <trkpt lat="44.42659" lon="3.92388">
        <ele>948.48</ele>
        <time>2012-06-16T13:41:12Z</time>
      </trkpt>
      <trkpt lat="44.4266" lon="3.92388">
        <ele>948.96</ele>
        <time>2012-06-16T13:41:42Z</time>
      </trkpt>
      <trkpt lat="44.42661" lon="3.92387">
        <ele>949.44</ele>
        <time>2012-06-16T13:42:05Z</time>
      </trkpt>
      <trkpt lat="44.4266" lon="3.92389">
        <ele>949.92</ele>
        <time>2012-06-16T13:42:36Z</time>
      </trkpt>
      <trkpt lat="44.4266" lon="3.92389">
        <ele>949.44</ele>
        <time>2012-06-16T13:43:05Z</time>
      </trkpt>
      <trkpt lat="44.42659" lon="3.92388">
        <ele>950.4</ele>
        <time>2012-06-16T13:43:36Z</time>
      </trkpt>
      <trkpt lat="44.42659" lon="3.92387">
        <ele>950.4</ele>
        <time>2012-06-16T13:44:03Z</time>
      </trkpt>
      <trkpt lat="44.42658" lon="3.92386">
        <ele>950.88</ele>
        <time>2012-06-16T13:44:20Z</time>
      </trkpt>
      <trkpt lat="44.42659" lon="3.92386">
        <ele>950.88</ele>
        <time>2012-06-16T13:44:44Z</time>
      </trkpt>
      <trkpt lat="44.42657" lon="3.92386">
        <ele>950.88</ele>
        <time>2012-06-16T13:44:51Z</time>
      </trkpt>
      <trkpt lat="44.42656" lon="3.92385">
        <ele>950.88</ele>
        <time>2012-06-16T13:44:52Z</time>
      </trkpt>
      <trkpt lat="44.42655" lon="3.92384">
        <ele>951.84</ele>
        <time>2012-06-16T13:44:53Z</time>
      </trkpt>
      <trkpt lat="44.42653" lon="3.92384">
        <ele>951.36</ele>
        <time>2012-06-16T13:44:54Z</time>
      </trkpt>
      <trkpt lat="44.42652" lon="3.92383">
        <ele>951.84</ele>
        <time>2012-06-16T13:44:55Z</time>
      </trkpt>
      <trkpt lat="44.42651" lon="3.92383">
        <ele>952.32</ele>
        <time>2012-06-16T13:44:56Z</time>
      </trkpt>
      <trkpt lat="44.42649" lon="3.92382">
        <ele>952.32</ele>
        <time>2012-06-16T13:44:57Z</time>
      </trkpt>
      <trkpt lat="44.42648" lon="3.92381">
        <ele>952.32</ele>
        <time>2012-06-16T13:44:58Z</time>
      </trkpt>
      <trkpt lat="44.42646" lon="3.9238">
        <ele>952.8</ele>
        <time>2012-06-16T13:44:59Z</time>
      </trkpt>
      <trkpt lat="44.42645" lon="3.92379">
        <ele>953.28</ele>
        <time>2012-06-16T13:45:00Z</time>
      </trkpt>
      <trkpt lat="44.42643" lon="3.92379">
        <ele>953.28</ele>
        <time>2012-06-16T13:45:01Z</time>
      </trkpt>
      <trkpt lat="44.42642" lon="3.92379">
        <ele>953.77</ele>
        <time>2012-06-16T13:45:02Z</time>
      </trkpt>
      <trkpt lat="44.42641" lon="3.92378">
        <ele>954.25</ele>
        <time>2012-06-16T13:45:03Z</time>
      </trkpt>
      <trkpt lat="44.42639" lon="3.92378">
        <ele>954.73</ele>
        <time>2012-06-16T13:45:04Z</time>
      </trkpt>
      <trkpt lat="44.42637" lon="3.92377">
        <ele>955.21</ele>
        <time>2012-06-16T13:45:05Z</time>
      </trkpt>
      <trkpt lat="44.42636" lon="3.92375">
        <ele>955.21</ele>
        <time>2012-06-16T13:45:06Z</time>
      </trkpt>
      <trkpt lat="44.42634" lon="3.92374">
        <ele>955.69</ele>
        <time>2012-06-16T13:45:07Z</time>
      </trkpt>
      <trkpt lat="44.42632" lon="3.92373">
        <ele>955.69</ele>
        <time>2012-06-16T13:45:08Z</time>
      </trkpt>
      <trkpt lat="44.42629" lon="3.92372">
        <ele>955.69</ele>
        <time>2012-06-16T13:45:09Z</time>
      </trkpt>
      <trkpt lat="44.42627" lon="3.92371">
        <ele>956.65</ele>
        <time>2012-06-16T13:45:10Z</time>
      </trkpt>
      <trkpt lat="44.42617" lon="3.92365">
        <ele>959.05</ele>
        <time>2012-06-16T13:45:16Z</time>
      </trkpt>
      <trkpt lat="44.42615" lon="3.92364">
        <ele>959.05</ele>
        <time>2012-06-16T13:45:17Z</time>
      </trkpt>
      <trkpt lat="44.42606" lon="3.92355">
        <ele>959.53</ele>
        <time>2012-06-16T13:45:25Z</time>
      </trkpt>
      <trkpt lat="44.42586" lon="3.92344">
        <ele>962.9</ele>
        <time>2012-06-16T13:45:38Z</time>
      </trkpt>
      <trkpt lat="44.42584" lon="3.92343">
        <ele>962.9</ele>
        <time>2012-06-16T13:45:39Z</time>
      </trkpt>
      <trkpt lat="44.42569" lon="3.92333">
        <ele>966.26</ele>
        <time>2012-06-16T13:45:47Z</time>
      </trkpt>
      <trkpt lat="44.42567" lon="3.92332">
        <ele>967.22</ele>
        <time>2012-06-16T13:45:48Z</time>
      </trkpt>
      <trkpt lat="44.42566" lon="3.9233">
        <ele>967.7</ele>
        <time>2012-06-16T13:45:49Z</time>
      </trkpt>
      <trkpt lat="44.42564" lon="3.92329">
        <ele>968.18</ele>
        <time>2012-06-16T13:45:50Z</time>
      </trkpt>
      <trkpt lat="44.42564" lon="3.92327">
        <ele>969.15</ele>
        <time>2012-06-16T13:45:51Z</time>
      </trkpt>
      <trkpt lat="44.42563" lon="3.92325">
        <ele>969.63</ele>
        <time>2012-06-16T13:45:52Z</time>
      </trkpt>
      <trkpt lat="44.42561" lon="3.92324">
        <ele>969.15</ele>
        <time>2012-06-16T13:45:53Z</time>
      </trkpt>
      <trkpt lat="44.4256" lon="3.92323">
        <ele>969.15</ele>
        <time>2012-06-16T13:45:54Z</time>
      </trkpt>
      <trkpt lat="44.42559" lon="3.92323">
        <ele>969.63</ele>
        <time>2012-06-16T13:45:55Z</time>
      </trkpt>
      <trkpt lat="44.42557" lon="3.92322">
        <ele>970.11</ele>
        <time>2012-06-16T13:45:56Z</time>
      </trkpt>
      <trkpt lat="44.42556" lon="3.92321">
        <ele>970.59</ele>
        <time>2012-06-16T13:45:57Z</time>
      </trkpt>
      <trkpt lat="44.42554" lon="3.92321">
        <ele>971.07</ele>
        <time>2012-06-16T13:45:58Z</time>
      </trkpt>
      <trkpt lat="44.42553" lon="3.9232">
        <ele>971.07</ele>
        <time>2012-06-16T13:45:59Z</time>
      </trkpt>
      <trkpt lat="44.42531" lon="3.92316">
        <ele>972.51</ele>
        <time>2012-06-16T13:46:15Z</time>
      </trkpt>
      <trkpt lat="44.4251" lon="3.92313">
        <ele>973.95</ele>
        <time>2012-06-16T13:46:32Z</time>
      </trkpt>
      <trkpt lat="44.42508" lon="3.92311">
        <ele>974.43</ele>
        <time>2012-06-16T13:46:58Z</time>
      </trkpt>
      <trkpt lat="44.42504" lon="3.92312">
        <ele>974.43</ele>
        <time>2012-06-16T13:47:01Z</time>
      </trkpt>
      <trkpt lat="44.42503" lon="3.92311">
        <ele>974.43</ele>
        <time>2012-06-16T13:47:02Z</time>
      </trkpt>
      <trkpt lat="44.42501" lon="3.9231">
        <ele>973.95</ele>
        <time>2012-06-16T13:47:03Z</time>
      </trkpt>
      <trkpt lat="44.42498" lon="3.92309">
        <ele>973.95</ele>
        <time>2012-06-16T13:47:04Z</time>
      </trkpt>
      <trkpt lat="44.42496" lon="3.92308">
        <ele>974.43</ele>
        <time>2012-06-16T13:47:05Z</time>
      </trkpt>
      <trkpt lat="44.42493" lon="3.92308">
        <ele>973.95</ele>
        <time>2012-06-16T13:47:06Z</time>
      </trkpt>
      <trkpt lat="44.42452" lon="3.923">
        <ele>972.99</ele>
        <time>2012-06-16T13:47:18Z</time>
      </trkpt>
      <trkpt lat="44.42423" lon="3.92285">
        <ele>972.03</ele>
        <time>2012-06-16T13:47:30Z</time>
      </trkpt>
      <trkpt lat="44.4239" lon="3.92257">
        <ele>970.59</ele>
        <time>2012-06-16T13:47:39Z</time>
      </trkpt>
      <trkpt lat="44.42363" lon="3.92238">
        <ele>970.11</ele>
        <time>2012-06-16T13:47:45Z</time>
      </trkpt>
      <trkpt lat="44.42358" lon="3.92237">
        <ele>970.11</ele>
        <time>2012-06-16T13:47:46Z</time>
      </trkpt>
      <trkpt lat="44.42326" lon="3.92234">
        <ele>970.59</ele>
        <time>2012-06-16T13:47:57Z</time>
      </trkpt>
      <trkpt lat="44.42309" lon="3.92231">
        <ele>970.11</ele>
        <time>2012-06-16T13:48:10Z</time>
      </trkpt>
      <trkpt lat="44.42309" lon="3.92229">
        <ele>970.59</ele>
        <time>2012-06-16T13:48:37Z</time>
      </trkpt>
      <trkpt lat="44.42308" lon="3.92229">
        <ele>970.11</ele>
        <time>2012-06-16T13:49:05Z</time>
      </trkpt>
      <trkpt lat="44.42308" lon="3.92229">
        <ele>970.59</ele>
        <time>2012-06-16T13:49:43Z</time>
      </trkpt>
      <trkpt lat="44.42309" lon="3.92229">
        <ele>972.03</ele>
        <time>2012-06-16T13:50:17Z</time>
      </trkpt>
      <trkpt lat="44.42308" lon="3.92229">
        <ele>971.55</ele>
        <time>2012-06-16T13:50:51Z</time>
      </trkpt>
      <trkpt lat="44.42308" lon="3.92229">
        <ele>972.51</ele>
        <time>2012-06-16T13:51:18Z</time>
      </trkpt>
      <trkpt lat="44.42308" lon="3.92229">
        <ele>971.55</ele>
        <time>2012-06-16T13:51:50Z</time>
      </trkpt>
      <trkpt lat="44.42308" lon="3.92229">
        <ele>971.55</ele>
        <time>2012-06-16T13:52:11Z</time>
      </trkpt>
      <trkpt lat="44.42308" lon="3.92229">
        <ele>971.55</ele>
        <time>2012-06-16T13:52:51Z</time>
      </trkpt>
      <trkpt lat="44.4229" lon="3.92207">
        <ele>969.63</ele>
        <time>2012-06-16T13:53:02Z</time>
      </trkpt>
      <trkpt lat="44.42269" lon="3.92179">
        <ele>965.78</ele>
        <time>2012-06-16T13:53:06Z</time>
      </trkpt>
      <trkpt lat="44.42262" lon="3.92173">
        <ele>964.34</ele>
        <time>2012-06-16T13:53:07Z</time>
      </trkpt>
      <trkpt lat="44.42254" lon="3.92167">
        <ele>963.86</ele>
        <time>2012-06-16T13:53:08Z</time>
      </trkpt>
      <trkpt lat="44.42221" lon="3.9214">
        <ele>964.82</ele>
        <time>2012-06-16T13:53:14Z</time>
      </trkpt>
      <trkpt lat="44.42201" lon="3.92115">
        <ele>966.74</ele>
        <time>2012-06-16T13:53:24Z</time>
      </trkpt>
      <trkpt lat="44.42182" lon="3.92094">
        <ele>967.7</ele>
        <time>2012-06-16T13:53:36Z</time>
      </trkpt>
      <trkpt lat="44.4215" lon="3.92061">
        <ele>965.78</ele>
        <time>2012-06-16T13:53:47Z</time>
      </trkpt>
      <trkpt lat="44.42125" lon="3.92038">
        <ele>968.18</ele>
        <time>2012-06-16T13:53:58Z</time>
      </trkpt>
      <trkpt lat="44.42112" lon="3.92029">
        <ele>971.55</ele>
        <time>2012-06-16T13:54:05Z</time>
      </trkpt>
      <trkpt lat="44.4211" lon="3.92028">
        <ele>971.55</ele>
        <time>2012-06-16T13:54:06Z</time>
      </trkpt>
      <trkpt lat="44.42092" lon="3.92016">
        <ele>974.43</ele>
        <time>2012-06-16T13:54:18Z</time>
      </trkpt>
      <trkpt lat="44.42074" lon="3.92">
        <ele>977.32</ele>
        <time>2012-06-16T13:54:32Z</time>
      </trkpt>
      <trkpt lat="44.42062" lon="3.91983">
        <ele>979.72</ele>
        <time>2012-06-16T13:54:45Z</time>
      </trkpt>
      <trkpt lat="44.42054" lon="3.91976">
        <ele>981.64</ele>
        <time>2012-06-16T13:54:50Z</time>
      </trkpt>
      <trkpt lat="44.42053" lon="3.91974">
        <ele>982.12</ele>
        <time>2012-06-16T13:54:51Z</time>
      </trkpt>
      <trkpt lat="44.42052" lon="3.91972">
        <ele>982.6</ele>
        <time>2012-06-16T13:54:52Z</time>
      </trkpt>
      <trkpt lat="44.42051" lon="3.91971">
        <ele>983.57</ele>
        <time>2012-06-16T13:54:53Z</time>
      </trkpt>
      <trkpt lat="44.4205" lon="3.91971">
        <ele>983.09</ele>
        <time>2012-06-16T13:54:54Z</time>
      </trkpt>
      <trkpt lat="44.42048" lon="3.9197">
        <ele>984.05</ele>
        <time>2012-06-16T13:54:55Z</time>
      </trkpt>
      <trkpt lat="44.42047" lon="3.91969">
        <ele>984.05</ele>
        <time>2012-06-16T13:54:56Z</time>
      </trkpt>
      <trkpt lat="44.42045" lon="3.91967">
        <ele>985.01</ele>
        <time>2012-06-16T13:54:57Z</time>
      </trkpt>
      <trkpt lat="44.42044" lon="3.91965">
        <ele>985.49</ele>
        <time>2012-06-16T13:54:58Z</time>
      </trkpt>
      <trkpt lat="44.42029" lon="3.9195">
        <ele>988.37</ele>
        <time>2012-06-16T13:55:11Z</time>
      </trkpt>
      <trkpt lat="44.42026" lon="3.91946">
        <ele>988.37</ele>
        <time>2012-06-16T13:55:15Z</time>
      </trkpt>
      <trkpt lat="44.42025" lon="3.91946">
        <ele>988.37</ele>
        <time>2012-06-16T13:55:16Z</time>
      </trkpt>
      <trkpt lat="44.42024" lon="3.91945">
        <ele>988.85</ele>
        <time>2012-06-16T13:55:17Z</time>
      </trkpt>
      <trkpt lat="44.42023" lon="3.91944">
        <ele>988.85</ele>
        <time>2012-06-16T13:55:18Z</time>
      </trkpt>
      <trkpt lat="44.42022" lon="3.91944">
        <ele>988.85</ele>
        <time>2012-06-16T13:55:19Z</time>
      </trkpt>
      <trkpt lat="44.42021" lon="3.91943">
        <ele>988.85</ele>
        <time>2012-06-16T13:55:20Z</time>
      </trkpt>
      <trkpt lat="44.4202" lon="3.91942">
        <ele>989.33</ele>
        <time>2012-06-16T13:55:21Z</time>
      </trkpt>
      <trkpt lat="44.42018" lon="3.91938">
        <ele>989.81</ele>
        <time>2012-06-16T13:55:25Z</time>
      </trkpt>
      <trkpt lat="44.42017" lon="3.91937">
        <ele>989.33</ele>
        <time>2012-06-16T13:55:26Z</time>
      </trkpt>
      <trkpt lat="44.42016" lon="3.91936">
        <ele>989.33</ele>
        <time>2012-06-16T13:55:27Z</time>
      </trkpt>
      <trkpt lat="44.42015" lon="3.91936">
        <ele>989.81</ele>
        <time>2012-06-16T13:55:28Z</time>
      </trkpt>
      <trkpt lat="44.42014" lon="3.91935">
        <ele>990.3</ele>
        <time>2012-06-16T13:55:29Z</time>
      </trkpt>
      <trkpt lat="44.42013" lon="3.91934">
        <ele>990.3</ele>
        <time>2012-06-16T13:55:30Z</time>
      </trkpt>
      <trkpt lat="44.42012" lon="3.91933">
        <ele>990.3</ele>
        <time>2012-06-16T13:55:31Z</time>
      </trkpt>
      <trkpt lat="44.42011" lon="3.91932">
        <ele>989.81</ele>
        <time>2012-06-16T13:55:32Z</time>
      </trkpt>
      <trkpt lat="44.4201" lon="3.91931">
        <ele>990.3</ele>
        <time>2012-06-16T13:55:33Z</time>
      </trkpt>
      <trkpt lat="44.42009" lon="3.9193">
        <ele>990.78</ele>
        <time>2012-06-16T13:55:34Z</time>
      </trkpt>
      <trkpt lat="44.42008" lon="3.91929">
        <ele>990.3</ele>
        <time>2012-06-16T13:55:35Z</time>
      </trkpt>
      <trkpt lat="44.42007" lon="3.91928">
        <ele>990.3</ele>
        <time>2012-06-16T13:55:36Z</time>
      </trkpt>
      <trkpt lat="44.41991" lon="3.91915">
        <ele>992.22</ele>
        <time>2012-06-16T13:55:53Z</time>
      </trkpt>
      <trkpt lat="44.41976" lon="3.91899">
        <ele>994.62</ele>
        <time>2012-06-16T13:56:07Z</time>
      </trkpt>
      <trkpt lat="44.41974" lon="3.91898">
        <ele>995.1</ele>
        <time>2012-06-16T13:56:08Z</time>
      </trkpt>
      <trkpt lat="44.41973" lon="3.91897">
        <ele>995.1</ele>
        <time>2012-06-16T13:56:09Z</time>
      </trkpt>
      <trkpt lat="44.41972" lon="3.91896">
        <ele>995.1</ele>
        <time>2012-06-16T13:56:10Z</time>
      </trkpt>
      <trkpt lat="44.41971" lon="3.91895">
        <ele>995.1</ele>
        <time>2012-06-16T13:56:11Z</time>
      </trkpt>
      <trkpt lat="44.41967" lon="3.91893">
        <ele>996.06</ele>
        <time>2012-06-16T13:56:14Z</time>
      </trkpt>
      <trkpt lat="44.41966" lon="3.91892">
        <ele>996.06</ele>
        <time>2012-06-16T13:56:15Z</time>
      </trkpt>
      <trkpt lat="44.41964" lon="3.91891">
        <ele>996.06</ele>
        <time>2012-06-16T13:56:16Z</time>
      </trkpt>
      <trkpt lat="44.41963" lon="3.91891">
        <ele>996.54</ele>
        <time>2012-06-16T13:56:17Z</time>
      </trkpt>
      <trkpt lat="44.41962" lon="3.9189">
        <ele>996.54</ele>
        <time>2012-06-16T13:56:18Z</time>
      </trkpt>
      <trkpt lat="44.41961" lon="3.9189">
        <ele>996.54</ele>
        <time>2012-06-16T13:56:19Z</time>
      </trkpt>
      <trkpt lat="44.4196" lon="3.91889">
        <ele>997.02</ele>
        <time>2012-06-16T13:56:20Z</time>
      </trkpt>
      <trkpt lat="44.41958" lon="3.91889">
        <ele>997.02</ele>
        <time>2012-06-16T13:56:21Z</time>
      </trkpt>
      <trkpt lat="44.41957" lon="3.91889">
        <ele>997.02</ele>
        <time>2012-06-16T13:56:22Z</time>
      </trkpt>
      <trkpt lat="44.41946" lon="3.91884">
        <ele>998.47</ele>
        <time>2012-06-16T13:56:36Z</time>
      </trkpt>
      <trkpt lat="44.41945" lon="3.91884">
        <ele>998.95</ele>
        <time>2012-06-16T13:57:07Z</time>
      </trkpt>
      <trkpt lat="44.41944" lon="3.91884">
        <ele>998.95</ele>
        <time>2012-06-16T13:57:28Z</time>
      </trkpt>
      <trkpt lat="44.41943" lon="3.91885">
        <ele>998.95</ele>
        <time>2012-06-16T13:57:29Z</time>
      </trkpt>
      <trkpt lat="44.41941" lon="3.91885">
        <ele>998.95</ele>
        <time>2012-06-16T13:57:30Z</time>
      </trkpt>
      <trkpt lat="44.41939" lon="3.91884">
        <ele>998.95</ele>
        <time>2012-06-16T13:57:31Z</time>
      </trkpt>
      <trkpt lat="44.41936" lon="3.91884">
        <ele>998.47</ele>
        <time>2012-06-16T13:57:32Z</time>
      </trkpt>
      <trkpt lat="44.41933" lon="3.91884">
        <ele>997.99</ele>
        <time>2012-06-16T13:57:33Z</time>
      </trkpt>
      <trkpt lat="44.41929" lon="3.91884">
        <ele>998.95</ele>
        <time>2012-06-16T13:57:34Z</time>
      </trkpt>
      <trkpt lat="44.41925" lon="3.91884">
        <ele>998.95</ele>
        <time>2012-06-16T13:57:35Z</time>
      </trkpt>
      <trkpt lat="44.41869" lon="3.91889">
        <ele>995.58</ele>
        <time>2012-06-16T13:57:46Z</time>
      </trkpt>
      <trkpt lat="44.41859" lon="3.91889">
        <ele>996.06</ele>
        <time>2012-06-16T13:57:48Z</time>
      </trkpt>
      <trkpt lat="44.41835" lon="3.91886">
        <ele>994.14</ele>
        <time>2012-06-16T13:57:52Z</time>
      </trkpt>
      <trkpt lat="44.41808" lon="3.9188">
        <ele>992.22</ele>
        <time>2012-06-16T13:57:56Z</time>
      </trkpt>
      <trkpt lat="44.41769" lon="3.91862">
        <ele>992.7</ele>
        <time>2012-06-16T13:58:05Z</time>
      </trkpt>
      <trkpt lat="44.4172" lon="3.9184">
        <ele>991.74</ele>
        <time>2012-06-16T13:58:18Z</time>
      </trkpt>
      <trkpt lat="44.41683" lon="3.91833">
        <ele>992.7</ele>
        <time>2012-06-16T13:58:31Z</time>
      </trkpt>
      <trkpt lat="44.41638" lon="3.91827">
        <ele>992.7</ele>
        <time>2012-06-16T13:58:44Z</time>
      </trkpt>
      <trkpt lat="44.4158" lon="3.91813">
        <ele>991.26</ele>
        <time>2012-06-16T13:58:59Z</time>
      </trkpt>
      <trkpt lat="44.41542" lon="3.91807">
        <ele>992.22</ele>
        <time>2012-06-16T13:59:12Z</time>
      </trkpt>
      <trkpt lat="44.41517" lon="3.91802">
        <ele>993.18</ele>
        <time>2012-06-16T13:59:22Z</time>
      </trkpt>
      <trkpt lat="44.41495" lon="3.91797">
        <ele>995.1</ele>
        <time>2012-06-16T13:59:36Z</time>
      </trkpt>
      <trkpt lat="44.41485" lon="3.91793">
        <ele>997.02</ele>
        <time>2012-06-16T13:59:44Z</time>
      </trkpt>
      <trkpt lat="44.41484" lon="3.91793">
        <ele>997.02</ele>
        <time>2012-06-16T13:59:45Z</time>
      </trkpt>
      <trkpt lat="44.41483" lon="3.91793">
        <ele>997.51</ele>
        <time>2012-06-16T13:59:46Z</time>
      </trkpt>
      <trkpt lat="44.41482" lon="3.91793">
        <ele>997.51</ele>
        <time>2012-06-16T13:59:47Z</time>
      </trkpt>
      <trkpt lat="44.41481" lon="3.91793">
        <ele>997.99</ele>
        <time>2012-06-16T13:59:48Z</time>
      </trkpt>
      <trkpt lat="44.4148" lon="3.91793">
        <ele>998.47</ele>
        <time>2012-06-16T13:59:49Z</time>
      </trkpt>
      <trkpt lat="44.41476" lon="3.91793">
        <ele>998.95</ele>
        <time>2012-06-16T13:59:53Z</time>
      </trkpt>
      <trkpt lat="44.41475" lon="3.91792">
        <ele>998.95</ele>
        <time>2012-06-16T13:59:54Z</time>
      </trkpt>
      <trkpt lat="44.41457" lon="3.9179">
        <ele>1002.31</ele>
        <time>2012-06-16T14:00:07Z</time>
      </trkpt>
      <trkpt lat="44.41438" lon="3.91789">
        <ele>1005.68</ele>
        <time>2012-06-16T14:00:19Z</time>
      </trkpt>
      <trkpt lat="44.41434" lon="3.91788">
        <ele>1006.64</ele>
        <time>2012-06-16T14:00:22Z</time>
      </trkpt>
      <trkpt lat="44.41428" lon="3.91789">
        <ele>1009.52</ele>
        <time>2012-06-16T14:00:34Z</time>
      </trkpt>
      <trkpt lat="44.41419" lon="3.9179">
        <ele>1010.96</ele>
        <time>2012-06-16T14:00:48Z</time>
      </trkpt>
      <trkpt lat="44.41409" lon="3.91793">
        <ele>1013.37</ele>
        <time>2012-06-16T14:01:02Z</time>
      </trkpt>
      <trkpt lat="44.41398" lon="3.91795">
        <ele>1016.25</ele>
        <time>2012-06-16T14:01:15Z</time>
      </trkpt>
      <trkpt lat="44.41387" lon="3.91796">
        <ele>1019.62</ele>
        <time>2012-06-16T14:01:31Z</time>
      </trkpt>
      <trkpt lat="44.41376" lon="3.91797">
        <ele>1022.5</ele>
        <time>2012-06-16T14:01:47Z</time>
      </trkpt>
      <trkpt lat="44.41366" lon="3.91799">
        <ele>1024.42</ele>
        <time>2012-06-16T14:02:01Z</time>
      </trkpt>
      <trkpt lat="44.41355" lon="3.91802">
        <ele>1025.38</ele>
        <time>2012-06-16T14:02:18Z</time>
      </trkpt>
      <trkpt lat="44.41344" lon="3.91805">
        <ele>1028.75</ele>
        <time>2012-06-16T14:02:34Z</time>
      </trkpt>
      <trkpt lat="44.41329" lon="3.91806">
        <ele>1031.63</ele>
        <time>2012-06-16T14:02:50Z</time>
      </trkpt>
      <trkpt lat="44.41312" lon="3.91807">
        <ele>1034.52</ele>
        <time>2012-06-16T14:03:07Z</time>
      </trkpt>
      <trkpt lat="44.41296" lon="3.91808">
        <ele>1037.4</ele>
        <time>2012-06-16T14:03:23Z</time>
      </trkpt>
      <trkpt lat="44.41283" lon="3.9181">
        <ele>1039.8</ele>
        <time>2012-06-16T14:03:38Z</time>
      </trkpt>
      <trkpt lat="44.41267" lon="3.91809">
        <ele>1042.69</ele>
        <time>2012-06-16T14:03:53Z</time>
      </trkpt>
      <trkpt lat="44.41262" lon="3.91807">
        <ele>1044.13</ele>
        <time>2012-06-16T14:03:59Z</time>
      </trkpt>
      <trkpt lat="44.41249" lon="3.91809">
        <ele>1046.05</ele>
        <time>2012-06-16T14:04:13Z</time>
      </trkpt>
      <trkpt lat="44.41246" lon="3.9181">
        <ele>1047.01</ele>
        <time>2012-06-16T14:04:26Z</time>
      </trkpt>
      <trkpt lat="44.41247" lon="3.9181">
        <ele>1047.49</ele>
        <time>2012-06-16T14:05:02Z</time>
      </trkpt>
      <trkpt lat="44.41247" lon="3.9181">
        <ele>1047.01</ele>
        <time>2012-06-16T14:05:40Z</time>
      </trkpt>
      <trkpt lat="44.41247" lon="3.9181">
        <ele>1046.53</ele>
        <time>2012-06-16T14:06:16Z</time>
      </trkpt>
      <trkpt lat="44.41247" lon="3.9181">
        <ele>1046.53</ele>
        <time>2012-06-16T14:06:50Z</time>
      </trkpt>
      <trkpt lat="44.41247" lon="3.9181">
        <ele>1046.53</ele>
        <time>2012-06-16T14:07:29Z</time>
      </trkpt>
      <trkpt lat="44.41246" lon="3.91811">
        <ele>1046.53</ele>
        <time>2012-06-16T14:07:52Z</time>
      </trkpt>
      <trkpt lat="44.41246" lon="3.9181">
        <ele>1046.05</ele>
        <time>2012-06-16T14:08:19Z</time>
      </trkpt>
      <trkpt lat="44.41245" lon="3.9181">
        <ele>1046.05</ele>
        <time>2012-06-16T14:08:24Z</time>
      </trkpt>
      <trkpt lat="44.41244" lon="3.91811">
        <ele>1046.53</ele>
        <time>2012-06-16T14:08:25Z</time>
      </trkpt>
      <trkpt lat="44.41243" lon="3.91812">
        <ele>1046.53</ele>
        <time>2012-06-16T14:08:26Z</time>
      </trkpt>
      <trkpt lat="44.41241" lon="3.91813">
        <ele>1047.01</ele>
        <time>2012-06-16T14:08:27Z</time>
      </trkpt>
      <trkpt lat="44.41239" lon="3.91813">
        <ele>1046.53</ele>
        <time>2012-06-16T14:08:28Z</time>
      </trkpt>
      <trkpt lat="44.41237" lon="3.91814">
        <ele>1046.53</ele>
        <time>2012-06-16T14:08:29Z</time>
      </trkpt>
      <trkpt lat="44.41234" lon="3.91815">
        <ele>1046.05</ele>
        <time>2012-06-16T14:08:30Z</time>
      </trkpt>
      <trkpt lat="44.41231" lon="3.91816">
        <ele>1046.05</ele>
        <time>2012-06-16T14:08:31Z</time>
      </trkpt>
      <trkpt lat="44.41228" lon="3.91817">
        <ele>1046.05</ele>
        <time>2012-06-16T14:08:32Z</time>
      </trkpt>
      <trkpt lat="44.41224" lon="3.91819">
        <ele>1046.05</ele>
        <time>2012-06-16T14:08:33Z</time>
      </trkpt>
      <trkpt lat="44.4122" lon="3.91821">
        <ele>1046.05</ele>
        <time>2012-06-16T14:08:34Z</time>
      </trkpt>
      <trkpt lat="44.41199" lon="3.91833">
        <ele>1045.57</ele>
        <time>2012-06-16T14:08:39Z</time>
      </trkpt>
      <trkpt lat="44.41147" lon="3.91863">
        <ele>1042.69</ele>
        <time>2012-06-16T14:08:49Z</time>
      </trkpt>
      <trkpt lat="44.41128" lon="3.91874">
        <ele>1040.76</ele>
        <time>2012-06-16T14:08:52Z</time>
      </trkpt>
      <trkpt lat="44.41059" lon="3.91913">
        <ele>1041.25</ele>
        <time>2012-06-16T14:09:03Z</time>
      </trkpt>
      <trkpt lat="44.41044" lon="3.91921">
        <ele>1042.69</ele>
        <time>2012-06-16T14:09:07Z</time>
      </trkpt>
      <trkpt lat="44.41007" lon="3.91932">
        <ele>1045.09</ele>
        <time>2012-06-16T14:09:20Z</time>
      </trkpt>
      <trkpt lat="44.40978" lon="3.91944">
        <ele>1043.65</ele>
        <time>2012-06-16T14:09:30Z</time>
      </trkpt>
      <trkpt lat="44.40959" lon="3.91947">
        <ele>1041.73</ele>
        <time>2012-06-16T14:09:33Z</time>
      </trkpt>
      <trkpt lat="44.40937" lon="3.91946">
        <ele>1038.84</ele>
        <time>2012-06-16T14:09:36Z</time>
      </trkpt>
      <trkpt lat="44.40922" lon="3.91944">
        <ele>1037.4</ele>
        <time>2012-06-16T14:09:38Z</time>
      </trkpt>
      <trkpt lat="44.40909" lon="3.91942">
        <ele>1035.96</ele>
        <time>2012-06-16T14:09:40Z</time>
      </trkpt>
      <trkpt lat="44.40904" lon="3.91941">
        <ele>1036.44</ele>
        <time>2012-06-16T14:09:41Z</time>
      </trkpt>
      <trkpt lat="44.409" lon="3.91939">
        <ele>1036.44</ele>
        <time>2012-06-16T14:09:42Z</time>
      </trkpt>
      <trkpt lat="44.4088" lon="3.91927">
        <ele>1038.36</ele>
        <time>2012-06-16T14:09:50Z</time>
      </trkpt>
      <trkpt lat="44.40872" lon="3.91919">
        <ele>1040.76</ele>
        <time>2012-06-16T14:10:00Z</time>
      </trkpt>
      <trkpt lat="44.40869" lon="3.91917">
        <ele>1042.69</ele>
        <time>2012-06-16T14:10:11Z</time>
      </trkpt>
      <trkpt lat="44.40866" lon="3.91915">
        <ele>1042.69</ele>
        <time>2012-06-16T14:10:20Z</time>
      </trkpt>
      <trkpt lat="44.40863" lon="3.91912">
        <ele>1044.61</ele>
        <time>2012-06-16T14:10:32Z</time>
      </trkpt>
      <trkpt lat="44.40858" lon="3.91907">
        <ele>1046.53</ele>
        <time>2012-06-16T14:10:47Z</time>
      </trkpt>
      <trkpt lat="44.40851" lon="3.91902">
        <ele>1047.97</ele>
        <time>2012-06-16T14:11:01Z</time>
      </trkpt>
      <trkpt lat="44.40841" lon="3.91895">
        <ele>1049.9</ele>
        <time>2012-06-16T14:11:12Z</time>
      </trkpt>
      <trkpt lat="44.40831" lon="3.91889">
        <ele>1050.86</ele>
        <time>2012-06-16T14:11:24Z</time>
      </trkpt>
      <trkpt lat="44.40828" lon="3.91887">
        <ele>1051.34</ele>
        <time>2012-06-16T14:11:26Z</time>
      </trkpt>
      <trkpt lat="44.40807" lon="3.91867">
        <ele>1054.22</ele>
        <time>2012-06-16T14:11:39Z</time>
      </trkpt>
      <trkpt lat="44.40801" lon="3.91863">
        <ele>1056.15</ele>
        <time>2012-06-16T14:11:47Z</time>
      </trkpt>
      <trkpt lat="44.40801" lon="3.91861">
        <ele>1056.15</ele>
        <time>2012-06-16T14:11:48Z</time>
      </trkpt>
      <trkpt lat="44.40795" lon="3.91856">
        <ele>1057.11</ele>
        <time>2012-06-16T14:11:52Z</time>
      </trkpt>
      <trkpt lat="44.40781" lon="3.9184">
        <ele>1058.07</ele>
        <time>2012-06-16T14:12:05Z</time>
      </trkpt>
      <trkpt lat="44.40769" lon="3.91824">
        <ele>1059.99</ele>
        <time>2012-06-16T14:12:19Z</time>
      </trkpt>
      <trkpt lat="44.40767" lon="3.91822">
        <ele>1059.99</ele>
        <time>2012-06-16T14:12:33Z</time>
      </trkpt>
      <trkpt lat="44.40765" lon="3.91821">
        <ele>1060.95</ele>
        <time>2012-06-16T14:12:46Z</time>
      </trkpt>
      <trkpt lat="44.40764" lon="3.9182">
        <ele>1060.47</ele>
        <time>2012-06-16T14:13:09Z</time>
      </trkpt>
      <trkpt lat="44.40765" lon="3.91821">
        <ele>1061.43</ele>
        <time>2012-06-16T14:13:37Z</time>
      </trkpt>
      <trkpt lat="44.40765" lon="3.9182">
        <ele>1061.43</ele>
        <time>2012-06-16T14:13:40Z</time>
      </trkpt>
      <trkpt lat="44.40764" lon="3.91813">
        <ele>1061.91</ele>
        <time>2012-06-16T14:13:46Z</time>
      </trkpt>
      <trkpt lat="44.40761" lon="3.91808">
        <ele>1063.84</ele>
        <time>2012-06-16T14:13:58Z</time>
      </trkpt>
      <trkpt lat="44.40757" lon="3.91801">
        <ele>1064.32</ele>
        <time>2012-06-16T14:14:14Z</time>
      </trkpt>
      <trkpt lat="44.40751" lon="3.91794">
        <ele>1066.24</ele>
        <time>2012-06-16T14:14:20Z</time>
      </trkpt>
      <trkpt lat="44.4075" lon="3.91792">
        <ele>1066.24</ele>
        <time>2012-06-16T14:14:21Z</time>
      </trkpt>
      <trkpt lat="44.40749" lon="3.91791">
        <ele>1066.24</ele>
        <time>2012-06-16T14:14:22Z</time>
      </trkpt>
      <trkpt lat="44.40742" lon="3.9178">
        <ele>1069.12</ele>
        <time>2012-06-16T14:14:30Z</time>
      </trkpt>
      <trkpt lat="44.40726" lon="3.91763">
        <ele>1071.53</ele>
        <time>2012-06-16T14:14:45Z</time>
      </trkpt>
      <trkpt lat="44.40725" lon="3.91762">
        <ele>1071.53</ele>
        <time>2012-06-16T14:14:46Z</time>
      </trkpt>
      <trkpt lat="44.40724" lon="3.91761">
        <ele>1072.01</ele>
        <time>2012-06-16T14:14:47Z</time>
      </trkpt>
      <trkpt lat="44.40723" lon="3.9176">
        <ele>1072.01</ele>
        <time>2012-06-16T14:14:48Z</time>
      </trkpt>
      <trkpt lat="44.40722" lon="3.91759">
        <ele>1072.01</ele>
        <time>2012-06-16T14:14:49Z</time>
      </trkpt>
      <trkpt lat="44.40721" lon="3.91757">
        <ele>1072.01</ele>
        <time>2012-06-16T14:14:50Z</time>
      </trkpt>
      <trkpt lat="44.4072" lon="3.91756">
        <ele>1072.01</ele>
        <time>2012-06-16T14:14:51Z</time>
      </trkpt>
      <trkpt lat="44.40701" lon="3.91739">
        <ele>1072.97</ele>
        <time>2012-06-16T14:15:08Z</time>
      </trkpt>
      <trkpt lat="44.40685" lon="3.91728">
        <ele>1073.93</ele>
        <time>2012-06-16T14:15:22Z</time>
      </trkpt>
      <trkpt lat="44.40682" lon="3.91725">
        <ele>1074.89</ele>
        <time>2012-06-16T14:15:24Z</time>
      </trkpt>
      <trkpt lat="44.40664" lon="3.91718">
        <ele>1078.26</ele>
        <time>2012-06-16T14:15:37Z</time>
      </trkpt>
      <trkpt lat="44.40662" lon="3.91717">
        <ele>1078.74</ele>
        <time>2012-06-16T14:15:38Z</time>
      </trkpt>
      <trkpt lat="44.40645" lon="3.9171">
        <ele>1081.14</ele>
        <time>2012-06-16T14:15:52Z</time>
      </trkpt>
      <trkpt lat="44.40641" lon="3.91709">
        <ele>1082.1</ele>
        <time>2012-06-16T14:15:56Z</time>
      </trkpt>
      <trkpt lat="44.4064" lon="3.91708">
        <ele>1082.1</ele>
        <time>2012-06-16T14:15:57Z</time>
      </trkpt>
      <trkpt lat="44.40639" lon="3.91707">
        <ele>1082.1</ele>
        <time>2012-06-16T14:15:58Z</time>
      </trkpt>
      <trkpt lat="44.40617" lon="3.91694">
        <ele>1084.99</ele>
        <time>2012-06-16T14:16:15Z</time>
      </trkpt>
      <trkpt lat="44.40605" lon="3.91684">
        <ele>1088.35</ele>
        <time>2012-06-16T14:16:26Z</time>
      </trkpt>
      <trkpt lat="44.40604" lon="3.91684">
        <ele>1088.35</ele>
        <time>2012-06-16T14:16:27Z</time>
      </trkpt>
      <trkpt lat="44.40599" lon="3.91682">
        <ele>1089.31</ele>
        <time>2012-06-16T14:16:31Z</time>
      </trkpt>
      <trkpt lat="44.40589" lon="3.91671">
        <ele>1090.75</ele>
        <time>2012-06-16T14:16:45Z</time>
      </trkpt>
      <trkpt lat="44.40588" lon="3.91671">
        <ele>1089.31</ele>
        <time>2012-06-16T14:17:10Z</time>
      </trkpt>
      <trkpt lat="44.40588" lon="3.91671">
        <ele>1089.31</ele>
        <time>2012-06-16T14:17:34Z</time>
      </trkpt>
      <trkpt lat="44.40588" lon="3.91671">
        <ele>1089.31</ele>
        <time>2012-06-16T14:18:08Z</time>
      </trkpt>
      <trkpt lat="44.40589" lon="3.91671">
        <ele>1088.83</ele>
        <time>2012-06-16T14:18:45Z</time>
      </trkpt>
      <trkpt lat="44.40589" lon="3.91671">
        <ele>1089.79</ele>
        <time>2012-06-16T14:19:21Z</time>
      </trkpt>
      <trkpt lat="44.4059" lon="3.91671">
        <ele>1089.79</ele>
        <time>2012-06-16T14:19:51Z</time>
      </trkpt>
      <trkpt lat="44.40588" lon="3.91672">
        <ele>1090.27</ele>
        <time>2012-06-16T14:20:22Z</time>
      </trkpt>
      <trkpt lat="44.40586" lon="3.9167">
        <ele>1090.27</ele>
        <time>2012-06-16T14:20:38Z</time>
      </trkpt>
      <trkpt lat="44.40584" lon="3.91669">
        <ele>1090.27</ele>
        <time>2012-06-16T14:20:39Z</time>
      </trkpt>
      <trkpt lat="44.40583" lon="3.91669">
        <ele>1090.75</ele>
        <time>2012-06-16T14:20:40Z</time>
      </trkpt>
      <trkpt lat="44.40582" lon="3.91669">
        <ele>1090.75</ele>
        <time>2012-06-16T14:20:41Z</time>
      </trkpt>
      <trkpt lat="44.40581" lon="3.91668">
        <ele>1090.75</ele>
        <time>2012-06-16T14:20:42Z</time>
      </trkpt>
      <trkpt lat="44.40579" lon="3.91667">
        <ele>1090.27</ele>
        <time>2012-06-16T14:20:43Z</time>
      </trkpt>
      <trkpt lat="44.40578" lon="3.91667">
        <ele>1090.75</ele>
        <time>2012-06-16T14:20:44Z</time>
      </trkpt>
      <trkpt lat="44.4056" lon="3.91655">
        <ele>1091.71</ele>
        <time>2012-06-16T14:20:57Z</time>
      </trkpt>
      <trkpt lat="44.40543" lon="3.91639">
        <ele>1093.16</ele>
        <time>2012-06-16T14:21:11Z</time>
      </trkpt>
      <trkpt lat="44.40529" lon="3.91624">
        <ele>1094.6</ele>
        <time>2012-06-16T14:21:22Z</time>
      </trkpt>
      <trkpt lat="44.40529" lon="3.91613">
        <ele>1094.12</ele>
        <time>2012-06-16T14:21:30Z</time>
      </trkpt>
      <trkpt lat="44.4053" lon="3.9161">
        <ele>1094.12</ele>
        <time>2012-06-16T14:21:41Z</time>
      </trkpt>
      <trkpt lat="44.40529" lon="3.91606">
        <ele>1094.12</ele>
        <time>2012-06-16T14:21:43Z</time>
      </trkpt>
      <trkpt lat="44.40529" lon="3.91601">
        <ele>1094.12</ele>
        <time>2012-06-16T14:21:55Z</time>
      </trkpt>
      <trkpt lat="44.40522" lon="3.91586">
        <ele>1092.68</ele>
        <time>2012-06-16T14:22:11Z</time>
      </trkpt>
      <trkpt lat="44.40509" lon="3.91567">
        <ele>1093.16</ele>
        <time>2012-06-16T14:22:22Z</time>
      </trkpt>
      <trkpt lat="44.40497" lon="3.91546">
        <ele>1093.16</ele>
        <time>2012-06-16T14:22:36Z</time>
      </trkpt>
      <trkpt lat="44.40495" lon="3.91541">
        <ele>1092.68</ele>
        <time>2012-06-16T14:22:39Z</time>
      </trkpt>
      <trkpt lat="44.40494" lon="3.9154">
        <ele>1093.16</ele>
        <time>2012-06-16T14:22:40Z</time>
      </trkpt>
      <trkpt lat="44.40493" lon="3.91539">
        <ele>1093.16</ele>
        <time>2012-06-16T14:22:41Z</time>
      </trkpt>
      <trkpt lat="44.40492" lon="3.91538">
        <ele>1093.16</ele>
        <time>2012-06-16T14:22:42Z</time>
      </trkpt>
      <trkpt lat="44.40491" lon="3.91537">
        <ele>1093.16</ele>
        <time>2012-06-16T14:22:43Z</time>
      </trkpt>
      <trkpt lat="44.40491" lon="3.91535">
        <ele>1093.64</ele>
        <time>2012-06-16T14:22:44Z</time>
      </trkpt>
      <trkpt lat="44.4049" lon="3.91533">
        <ele>1093.64</ele>
        <time>2012-06-16T14:22:45Z</time>
      </trkpt>
      <trkpt lat="44.40489" lon="3.91531">
        <ele>1093.64</ele>
        <time>2012-06-16T14:22:46Z</time>
      </trkpt>
      <trkpt lat="44.40486" lon="3.91522">
        <ele>1093.16</ele>
        <time>2012-06-16T14:22:52Z</time>
      </trkpt>
      <trkpt lat="44.40478" lon="3.91515">
        <ele>1093.64</ele>
        <time>2012-06-16T14:22:59Z</time>
      </trkpt>
      <trkpt lat="44.40474" lon="3.9151">
        <ele>1093.16</ele>
        <time>2012-06-16T14:23:08Z</time>
      </trkpt>
      <trkpt lat="44.40469" lon="3.91503">
        <ele>1093.16</ele>
        <time>2012-06-16T14:23:21Z</time>
      </trkpt>
      <trkpt lat="44.40468" lon="3.91502">
        <ele>1093.16</ele>
        <time>2012-06-16T14:23:22Z</time>
      </trkpt>
      <trkpt lat="44.40467" lon="3.915">
        <ele>1093.16</ele>
        <time>2012-06-16T14:23:23Z</time>
      </trkpt>
      <trkpt lat="44.40467" lon="3.91499">
        <ele>1093.16</ele>
        <time>2012-06-16T14:23:24Z</time>
      </trkpt>
      <trkpt lat="44.40466" lon="3.91497">
        <ele>1092.2</ele>
        <time>2012-06-16T14:23:25Z</time>
      </trkpt>
      <trkpt lat="44.40465" lon="3.91495">
        <ele>1092.68</ele>
        <time>2012-06-16T14:23:26Z</time>
      </trkpt>
      <trkpt lat="44.40464" lon="3.91493">
        <ele>1093.16</ele>
        <time>2012-06-16T14:23:27Z</time>
      </trkpt>
      <trkpt lat="44.40454" lon="3.91471">
        <ele>1090.75</ele>
        <time>2012-06-16T14:23:39Z</time>
      </trkpt>
      <trkpt lat="44.40452" lon="3.91464">
        <ele>1089.79</ele>
        <time>2012-06-16T14:23:43Z</time>
      </trkpt>
      <trkpt lat="44.40447" lon="3.91453">
        <ele>1087.87</ele>
        <time>2012-06-16T14:23:49Z</time>
      </trkpt>
      <trkpt lat="44.40446" lon="3.91449">
        <ele>1086.43</ele>
        <time>2012-06-16T14:23:51Z</time>
      </trkpt>
      <trkpt lat="44.40445" lon="3.91448">
        <ele>1086.43</ele>
        <time>2012-06-16T14:23:52Z</time>
      </trkpt>
      <trkpt lat="44.40444" lon="3.91446">
        <ele>1085.47</ele>
        <time>2012-06-16T14:23:54Z</time>
      </trkpt>
      <trkpt lat="44.40444" lon="3.91444">
        <ele>1084.99</ele>
        <time>2012-06-16T14:23:55Z</time>
      </trkpt>
      <trkpt lat="44.40444" lon="3.91438">
        <ele>1084.99</ele>
        <time>2012-06-16T14:24:05Z</time>
      </trkpt>
      <trkpt lat="44.40443" lon="3.91435">
        <ele>1084.5</ele>
        <time>2012-06-16T14:24:11Z</time>
      </trkpt>
      <trkpt lat="44.40442" lon="3.91433">
        <ele>1084.5</ele>
        <time>2012-06-16T14:24:12Z</time>
      </trkpt>
      <trkpt lat="44.40442" lon="3.91432">
        <ele>1083.54</ele>
        <time>2012-06-16T14:24:13Z</time>
      </trkpt>
      <trkpt lat="44.40439" lon="3.91425">
        <ele>1081.62</ele>
        <time>2012-06-16T14:24:23Z</time>
      </trkpt>
      <trkpt lat="44.40439" lon="3.91424">
        <ele>1081.14</ele>
        <time>2012-06-16T14:24:24Z</time>
      </trkpt>
      <trkpt lat="44.40435" lon="3.91414">
        <ele>1081.14</ele>
        <time>2012-06-16T14:24:31Z</time>
      </trkpt>
      <trkpt lat="44.40433" lon="3.91408">
        <ele>1080.18</ele>
        <time>2012-06-16T14:24:36Z</time>
      </trkpt>
      <trkpt lat="44.40433" lon="3.91406">
        <ele>1080.18</ele>
        <time>2012-06-16T14:24:37Z</time>
      </trkpt>
      <trkpt lat="44.40434" lon="3.91404">
        <ele>1079.7</ele>
        <time>2012-06-16T14:24:38Z</time>
      </trkpt>
      <trkpt lat="44.40434" lon="3.91402">
        <ele>1079.7</ele>
        <time>2012-06-16T14:24:39Z</time>
      </trkpt>
      <trkpt lat="44.40434" lon="3.91399">
        <ele>1079.22</ele>
        <time>2012-06-16T14:24:40Z</time>
      </trkpt>
      <trkpt lat="44.40433" lon="3.91398">
        <ele>1079.22</ele>
        <time>2012-06-16T14:24:41Z</time>
      </trkpt>
      <trkpt lat="44.40433" lon="3.91396">
        <ele>1079.22</ele>
        <time>2012-06-16T14:24:42Z</time>
      </trkpt>
      <trkpt lat="44.40432" lon="3.91395">
        <ele>1079.22</ele>
        <time>2012-06-16T14:24:43Z</time>
      </trkpt>
      <trkpt lat="44.40432" lon="3.91394">
        <ele>1079.22</ele>
        <time>2012-06-16T14:24:44Z</time>
      </trkpt>
      <trkpt lat="44.40427" lon="3.91383">
        <ele>1081.14</ele>
        <time>2012-06-16T14:24:55Z</time>
      </trkpt>
      <trkpt lat="44.40422" lon="3.91375">
        <ele>1082.1</ele>
        <time>2012-06-16T14:25:04Z</time>
      </trkpt>
      <trkpt lat="44.4041" lon="3.91361">
        <ele>1084.02</ele>
        <time>2012-06-16T14:25:21Z</time>
      </trkpt>
      <trkpt lat="44.40407" lon="3.91354">
        <ele>1084.5</ele>
        <time>2012-06-16T14:25:36Z</time>
      </trkpt>
      <trkpt lat="44.40408" lon="3.91353">
        <ele>1084.5</ele>
        <time>2012-06-16T14:25:48Z</time>
      </trkpt>
      <trkpt lat="44.40409" lon="3.91351">
        <ele>1084.99</ele>
        <time>2012-06-16T14:25:49Z</time>
      </trkpt>
      <trkpt lat="44.40409" lon="3.91349">
        <ele>1085.47</ele>
        <time>2012-06-16T14:25:50Z</time>
      </trkpt>
      <trkpt lat="44.40409" lon="3.91346">
        <ele>1085.47</ele>
        <time>2012-06-16T14:25:51Z</time>
      </trkpt>
      <trkpt lat="44.40409" lon="3.91343">
        <ele>1085.95</ele>
        <time>2012-06-16T14:25:52Z</time>
      </trkpt>
      <trkpt lat="44.4041" lon="3.9134">
        <ele>1085.95</ele>
        <time>2012-06-16T14:25:53Z</time>
      </trkpt>
      <trkpt lat="44.4041" lon="3.91338">
        <ele>1085.95</ele>
        <time>2012-06-16T14:25:54Z</time>
      </trkpt>
      <trkpt lat="44.4041" lon="3.91335">
        <ele>1086.43</ele>
        <time>2012-06-16T14:25:55Z</time>
      </trkpt>
      <trkpt lat="44.40409" lon="3.91332">
        <ele>1086.43</ele>
        <time>2012-06-16T14:25:56Z</time>
      </trkpt>
      <trkpt lat="44.4041" lon="3.9133">
        <ele>1086.43</ele>
        <time>2012-06-16T14:25:57Z</time>
      </trkpt>
      <trkpt lat="44.4041" lon="3.91327">
        <ele>1086.43</ele>
        <time>2012-06-16T14:25:58Z</time>
      </trkpt>
      <trkpt lat="44.40412" lon="3.91302">
        <ele>1088.83</ele>
        <time>2012-06-16T14:26:08Z</time>
      </trkpt>
      <trkpt lat="44.40412" lon="3.913">
        <ele>1088.35</ele>
        <time>2012-06-16T14:26:09Z</time>
      </trkpt>
      <trkpt lat="44.40413" lon="3.91298">
        <ele>1088.35</ele>
        <time>2012-06-16T14:26:10Z</time>
      </trkpt>
      <trkpt lat="44.4042" lon="3.91268">
        <ele>1090.27</ele>
        <time>2012-06-16T14:26:26Z</time>
      </trkpt>
      <trkpt lat="44.40418" lon="3.91247">
        <ele>1092.2</ele>
        <time>2012-06-16T14:26:37Z</time>
      </trkpt>
      <trkpt lat="44.40418" lon="3.91245">
        <ele>1092.2</ele>
        <time>2012-06-16T14:26:38Z</time>
      </trkpt>
      <trkpt lat="44.40419" lon="3.91218">
        <ele>1094.12</ele>
        <time>2012-06-16T14:26:51Z</time>
      </trkpt>
      <trkpt lat="44.40419" lon="3.9121">
        <ele>1093.64</ele>
        <time>2012-06-16T14:26:56Z</time>
      </trkpt>
      <trkpt lat="44.40419" lon="3.91206">
        <ele>1094.6</ele>
        <time>2012-06-16T14:27:09Z</time>
      </trkpt>
      <trkpt lat="44.40419" lon="3.91206">
        <ele>1090.27</ele>
        <time>2012-06-16T14:27:18Z</time>
      </trkpt>
      <trkpt lat="44.40419" lon="3.91206">
        <ele>1096.04</ele>
        <time>2012-06-16T14:27:19Z</time>
      </trkpt>
      <trkpt lat="44.40419" lon="3.91206">
        <ele>1095.08</ele>
        <time>2012-06-16T14:27:20Z</time>
      </trkpt>
      <trkpt lat="44.40419" lon="3.91206">
        <ele>1098.44</ele>
        <time>2012-06-16T14:27:21Z</time>
      </trkpt>
      <trkpt lat="44.40419" lon="3.91206">
        <ele>1095.56</ele>
        <time>2012-06-16T14:27:22Z</time>
      </trkpt>
      <trkpt lat="44.40419" lon="3.91205">
        <ele>1095.56</ele>
        <time>2012-06-16T14:27:51Z</time>
      </trkpt>
      <trkpt lat="44.40419" lon="3.91209">
        <ele>1093.64</ele>
        <time>2012-06-16T14:27:55Z</time>
      </trkpt>
      <trkpt lat="44.40419" lon="3.91225">
        <ele>1094.12</ele>
        <time>2012-06-16T14:28:00Z</time>
      </trkpt>
      <trkpt lat="44.40419" lon="3.91248">
        <ele>1092.2</ele>
        <time>2012-06-16T14:28:03Z</time>
      </trkpt>
      <trkpt lat="44.40419" lon="3.91256">
        <ele>1091.23</ele>
        <time>2012-06-16T14:28:04Z</time>
      </trkpt>
      <trkpt lat="44.4042" lon="3.91264">
        <ele>1090.75</ele>
        <time>2012-06-16T14:28:05Z</time>
      </trkpt>
      <trkpt lat="44.4042" lon="3.9128">
        <ele>1090.27</ele>
        <time>2012-06-16T14:28:08Z</time>
      </trkpt>
      <trkpt lat="44.40419" lon="3.91284">
        <ele>1089.31</ele>
        <time>2012-06-16T14:28:09Z</time>
      </trkpt>
      <trkpt lat="44.40418" lon="3.91288">
        <ele>1089.31</ele>
        <time>2012-06-16T14:28:10Z</time>
      </trkpt>
      <trkpt lat="44.40416" lon="3.91292">
        <ele>1089.31</ele>
        <time>2012-06-16T14:28:11Z</time>
      </trkpt>
      <trkpt lat="44.40415" lon="3.91297">
        <ele>1088.35</ele>
        <time>2012-06-16T14:28:12Z</time>
      </trkpt>
      <trkpt lat="44.40414" lon="3.91301">
        <ele>1088.83</ele>
        <time>2012-06-16T14:28:13Z</time>
      </trkpt>
      <trkpt lat="44.40412" lon="3.91343">
        <ele>1086.43</ele>
        <time>2012-06-16T14:28:23Z</time>
      </trkpt>
      <trkpt lat="44.40407" lon="3.91363">
        <ele>1085.47</ele>
        <time>2012-06-16T14:28:33Z</time>
      </trkpt>
      <trkpt lat="44.40406" lon="3.91363">
        <ele>1084.99</ele>
        <time>2012-06-16T14:28:43Z</time>
      </trkpt>
      <trkpt lat="44.40405" lon="3.91362">
        <ele>1084.99</ele>
        <time>2012-06-16T14:29:10Z</time>
      </trkpt>
      <trkpt lat="44.40406" lon="3.91362">
        <ele>1084.02</ele>
        <time>2012-06-16T14:29:34Z</time>
      </trkpt>
      <trkpt lat="44.40407" lon="3.9136">
        <ele>1084.02</ele>
        <time>2012-06-16T14:29:35Z</time>
      </trkpt>
      <trkpt lat="44.40408" lon="3.91358">
        <ele>1083.54</ele>
        <time>2012-06-16T14:29:36Z</time>
      </trkpt>
      <trkpt lat="44.40408" lon="3.91357">
        <ele>1084.02</ele>
        <time>2012-06-16T14:29:37Z</time>
      </trkpt>
      <trkpt lat="44.40409" lon="3.91345">
        <ele>1084.5</ele>
        <time>2012-06-16T14:29:49Z</time>
      </trkpt>
      <trkpt lat="44.4041" lon="3.91333">
        <ele>1085.95</ele>
        <time>2012-06-16T14:29:54Z</time>
      </trkpt>
      <trkpt lat="44.40409" lon="3.91331">
        <ele>1086.43</ele>
        <time>2012-06-16T14:29:55Z</time>
      </trkpt>
      <trkpt lat="44.40409" lon="3.91328">
        <ele>1086.43</ele>
        <time>2012-06-16T14:29:56Z</time>
      </trkpt>
      <trkpt lat="44.40409" lon="3.91326">
        <ele>1086.91</ele>
        <time>2012-06-16T14:29:57Z</time>
      </trkpt>
      <trkpt lat="44.40409" lon="3.91323">
        <ele>1087.39</ele>
        <time>2012-06-16T14:29:58Z</time>
      </trkpt>
      <trkpt lat="44.40409" lon="3.9132">
        <ele>1087.39</ele>
        <time>2012-06-16T14:29:59Z</time>
      </trkpt>
      <trkpt lat="44.40409" lon="3.91318">
        <ele>1087.87</ele>
        <time>2012-06-16T14:30:00Z</time>
      </trkpt>
      <trkpt lat="44.40409" lon="3.91315">
        <ele>1088.35</ele>
        <time>2012-06-16T14:30:01Z</time>
      </trkpt>
      <trkpt lat="44.40409" lon="3.91312">
        <ele>1088.83</ele>
        <time>2012-06-16T14:30:02Z</time>
      </trkpt>
      <trkpt lat="44.4041" lon="3.91307">
        <ele>1088.83</ele>
        <time>2012-06-16T14:30:04Z</time>
      </trkpt>
      <trkpt lat="44.4041" lon="3.91304">
        <ele>1088.83</ele>
        <time>2012-06-16T14:30:05Z</time>
      </trkpt>
      <trkpt lat="44.4041" lon="3.91302">
        <ele>1088.83</ele>
        <time>2012-06-16T14:30:06Z</time>
      </trkpt>
      <trkpt lat="44.4041" lon="3.91299">
        <ele>1089.31</ele>
        <time>2012-06-16T14:30:07Z</time>
      </trkpt>
      <trkpt lat="44.4041" lon="3.91297">
        <ele>1088.83</ele>
        <time>2012-06-16T14:30:08Z</time>
      </trkpt>
      <trkpt lat="44.40411" lon="3.91295">
        <ele>1089.31</ele>
        <time>2012-06-16T14:30:09Z</time>
      </trkpt>
      <trkpt lat="44.40413" lon="3.91289">
        <ele>1089.31</ele>
        <time>2012-06-16T14:30:12Z</time>
      </trkpt>
      <trkpt lat="44.40416" lon="3.91276">
        <ele>1089.79</ele>
        <time>2012-06-16T14:30:24Z</time>
      </trkpt>
      <trkpt lat="44.40419" lon="3.91277">
        <ele>1088.83</ele>
        <time>2012-06-16T14:30:41Z</time>
      </trkpt>
      <trkpt lat="44.40419" lon="3.91277">
        <ele>1089.31</ele>
        <time>2012-06-16T14:31:04Z</time>
      </trkpt>
      <trkpt lat="44.4042" lon="3.91274">
        <ele>1089.79</ele>
        <time>2012-06-16T14:31:10Z</time>
      </trkpt>
      <trkpt lat="44.4042" lon="3.91272">
        <ele>1089.31</ele>
        <time>2012-06-16T14:31:11Z</time>
      </trkpt>
      <trkpt lat="44.40422" lon="3.91264">
        <ele>1089.31</ele>
        <time>2012-06-16T14:31:21Z</time>
      </trkpt>
      <trkpt lat="44.40421" lon="3.91266">
        <ele>1089.79</ele>
        <time>2012-06-16T14:31:22Z</time>
      </trkpt>
      <trkpt lat="44.40421" lon="3.91268">
        <ele>1089.79</ele>
        <time>2012-06-16T14:31:23Z</time>
      </trkpt>
      <trkpt lat="44.40421" lon="3.9127">
        <ele>1090.27</ele>
        <time>2012-06-16T14:31:24Z</time>
      </trkpt>
      <trkpt lat="44.40421" lon="3.91273">
        <ele>1091.71</ele>
        <time>2012-06-16T14:31:32Z</time>
      </trkpt>
      <trkpt lat="44.40421" lon="3.91273">
        <ele>1089.31</ele>
        <time>2012-06-16T14:31:34Z</time>
      </trkpt>
      <trkpt lat="44.40421" lon="3.91274">
        <ele>1090.27</ele>
        <time>2012-06-16T14:32:05Z</time>
      </trkpt>
      <trkpt lat="44.40419" lon="3.9127">
        <ele>1090.27</ele>
        <time>2012-06-16T14:32:16Z</time>
      </trkpt>
      <trkpt lat="44.40419" lon="3.9127">
        <ele>1090.75</ele>
        <time>2012-06-16T14:32:33Z</time>
      </trkpt>
      <trkpt lat="44.40419" lon="3.91269">
        <ele>1091.71</ele>
        <time>2012-06-16T14:32:47Z</time>
      </trkpt>
      <trkpt lat="44.40419" lon="3.91269">
        <ele>1090.27</ele>
        <time>2012-06-16T14:32:49Z</time>
      </trkpt>
      <trkpt lat="44.40419" lon="3.91269">
        <ele>1091.23</ele>
        <time>2012-06-16T14:33:08Z</time>
      </trkpt>
      <trkpt lat="44.40419" lon="3.91243">
        <ele>1092.2</ele>
        <time>2012-06-16T14:33:21Z</time>
      </trkpt>
      <trkpt lat="44.40419" lon="3.9123">
        <ele>1093.16</ele>
        <time>2012-06-16T14:33:26Z</time>
      </trkpt>
      <trkpt lat="44.40419" lon="3.91219">
        <ele>1093.64</ele>
        <time>2012-06-16T14:33:30Z</time>
      </trkpt>
      <trkpt lat="44.40419" lon="3.91212">
        <ele>1094.6</ele>
        <time>2012-06-16T14:33:33Z</time>
      </trkpt>
      <trkpt lat="44.40417" lon="3.91193">
        <ele>1096.52</ele>
        <time>2012-06-16T14:33:41Z</time>
      </trkpt>
      <trkpt lat="44.40416" lon="3.9118">
        <ele>1097.48</ele>
        <time>2012-06-16T14:33:46Z</time>
      </trkpt>
      <trkpt lat="44.40415" lon="3.91161">
        <ele>1098.44</ele>
        <time>2012-06-16T14:33:57Z</time>
      </trkpt>
      <trkpt lat="44.40413" lon="3.91161">
        <ele>1098.44</ele>
        <time>2012-06-16T14:34:19Z</time>
      </trkpt>
      <trkpt lat="44.40412" lon="3.91159">
        <ele>1098.92</ele>
        <time>2012-06-16T14:34:45Z</time>
      </trkpt>
      <trkpt lat="44.40411" lon="3.91156">
        <ele>1098.92</ele>
        <time>2012-06-16T14:34:50Z</time>
      </trkpt>
      <trkpt lat="44.40403" lon="3.91138">
        <ele>1098.92</ele>
        <time>2012-06-16T14:34:59Z</time>
      </trkpt>
      <trkpt lat="44.40392" lon="3.91119">
        <ele>1102.29</ele>
        <time>2012-06-16T14:35:09Z</time>
      </trkpt>
      <trkpt lat="44.40375" lon="3.91101">
        <ele>1105.17</ele>
        <time>2012-06-16T14:35:22Z</time>
      </trkpt>
      <trkpt lat="44.40369" lon="3.91094">
        <ele>1106.13</ele>
        <time>2012-06-16T14:35:27Z</time>
      </trkpt>
      <trkpt lat="44.40358" lon="3.91067">
        <ele>1107.1</ele>
        <time>2012-06-16T14:35:41Z</time>
      </trkpt>
      <trkpt lat="44.40356" lon="3.91058">
        <ele>1108.54</ele>
        <time>2012-06-16T14:35:45Z</time>
      </trkpt>
      <trkpt lat="44.40354" lon="3.91034">
        <ele>1110.46</ele>
        <time>2012-06-16T14:35:57Z</time>
      </trkpt>
      <trkpt lat="44.40353" lon="3.91031">
        <ele>1110.94</ele>
        <time>2012-06-16T14:36:13Z</time>
      </trkpt>
      <trkpt lat="44.40353" lon="3.91033">
        <ele>1110.46</ele>
        <time>2012-06-16T14:36:19Z</time>
      </trkpt>
      <trkpt lat="44.40353" lon="3.91042">
        <ele>1110.46</ele>
        <time>2012-06-16T14:36:23Z</time>
      </trkpt>
      <trkpt lat="44.40359" lon="3.91064">
        <ele>1109.5</ele>
        <time>2012-06-16T14:36:27Z</time>
      </trkpt>
      <trkpt lat="44.40361" lon="3.9107">
        <ele>1108.54</ele>
        <time>2012-06-16T14:36:28Z</time>
      </trkpt>
      <trkpt lat="44.40362" lon="3.91075">
        <ele>1108.06</ele>
        <time>2012-06-16T14:36:29Z</time>
      </trkpt>
      <trkpt lat="44.40364" lon="3.9108">
        <ele>1107.1</ele>
        <time>2012-06-16T14:36:30Z</time>
      </trkpt>
      <trkpt lat="44.40366" lon="3.91083">
        <ele>1107.1</ele>
        <time>2012-06-16T14:36:31Z</time>
      </trkpt>
      <trkpt lat="44.40367" lon="3.91086">
        <ele>1107.1</ele>
        <time>2012-06-16T14:36:32Z</time>
      </trkpt>
      <trkpt lat="44.40368" lon="3.91087">
        <ele>1107.1</ele>
        <time>2012-06-16T14:36:33Z</time>
      </trkpt>
      <trkpt lat="44.40368" lon="3.91087">
        <ele>1106.61</ele>
        <time>2012-06-16T14:36:43Z</time>
      </trkpt>
      <trkpt lat="44.40367" lon="3.91084">
        <ele>1106.61</ele>
        <time>2012-06-16T14:36:59Z</time>
      </trkpt>
      <trkpt lat="44.40366" lon="3.91082">
        <ele>1107.1</ele>
        <time>2012-06-16T14:37:01Z</time>
      </trkpt>
      <trkpt lat="44.40365" lon="3.9108">
        <ele>1107.1</ele>
        <time>2012-06-16T14:37:02Z</time>
      </trkpt>
      <trkpt lat="44.40364" lon="3.91078">
        <ele>1107.1</ele>
        <time>2012-06-16T14:37:03Z</time>
      </trkpt>
      <trkpt lat="44.40363" lon="3.91076">
        <ele>1107.1</ele>
        <time>2012-06-16T14:37:04Z</time>
      </trkpt>
      <trkpt lat="44.40362" lon="3.91074">
        <ele>1107.1</ele>
        <time>2012-06-16T14:37:05Z</time>
      </trkpt>
      <trkpt lat="44.40361" lon="3.91072">
        <ele>1107.1</ele>
        <time>2012-06-16T14:37:06Z</time>
      </trkpt>
      <trkpt lat="44.40354" lon="3.91049">
        <ele>1109.02</ele>
        <time>2012-06-16T14:37:17Z</time>
      </trkpt>
      <trkpt lat="44.40351" lon="3.91024">
        <ele>1109.98</ele>
        <time>2012-06-16T14:37:29Z</time>
      </trkpt>
      <trkpt lat="44.40345" lon="3.91007">
        <ele>1109.5</ele>
        <time>2012-06-16T14:37:36Z</time>
      </trkpt>
      <trkpt lat="44.40343" lon="3.91002">
        <ele>1109.98</ele>
        <time>2012-06-16T14:37:37Z</time>
      </trkpt>
      <trkpt lat="44.40334" lon="3.90985">
        <ele>1109.02</ele>
        <time>2012-06-16T14:37:40Z</time>
      </trkpt>
      <trkpt lat="44.40331" lon="3.90977">
        <ele>1107.58</ele>
        <time>2012-06-16T14:37:41Z</time>
      </trkpt>
      <trkpt lat="44.40329" lon="3.90969">
        <ele>1107.1</ele>
        <time>2012-06-16T14:37:42Z</time>
      </trkpt>
      <trkpt lat="44.40328" lon="3.90961">
        <ele>1107.1</ele>
        <time>2012-06-16T14:37:43Z</time>
      </trkpt>
      <trkpt lat="44.40328" lon="3.90955">
        <ele>1107.58</ele>
        <time>2012-06-16T14:37:44Z</time>
      </trkpt>
      <trkpt lat="44.40328" lon="3.90951">
        <ele>1108.54</ele>
        <time>2012-06-16T14:37:45Z</time>
      </trkpt>
      <trkpt lat="44.40328" lon="3.90948">
        <ele>1109.02</ele>
        <time>2012-06-16T14:37:46Z</time>
      </trkpt>
      <trkpt lat="44.40328" lon="3.90944">
        <ele>1109.02</ele>
        <time>2012-06-16T14:37:47Z</time>
      </trkpt>
      <trkpt lat="44.40327" lon="3.9094">
        <ele>1108.54</ele>
        <time>2012-06-16T14:37:48Z</time>
      </trkpt>
      <trkpt lat="44.40326" lon="3.90935">
        <ele>1108.06</ele>
        <time>2012-06-16T14:37:49Z</time>
      </trkpt>
      <trkpt lat="44.40324" lon="3.9093">
        <ele>1108.06</ele>
        <time>2012-06-16T14:37:50Z</time>
      </trkpt>
      <trkpt lat="44.40319" lon="3.90915">
        <ele>1106.61</ele>
        <time>2012-06-16T14:37:53Z</time>
      </trkpt>
      <trkpt lat="44.40312" lon="3.90898">
        <ele>1106.61</ele>
        <time>2012-06-16T14:37:57Z</time>
      </trkpt>
      <trkpt lat="44.4031" lon="3.90892">
        <ele>1106.13</ele>
        <time>2012-06-16T14:37:58Z</time>
      </trkpt>
      <trkpt lat="44.40309" lon="3.90886">
        <ele>1105.17</ele>
        <time>2012-06-16T14:37:59Z</time>
      </trkpt>
      <trkpt lat="44.40307" lon="3.9088">
        <ele>1105.17</ele>
        <time>2012-06-16T14:38:00Z</time>
      </trkpt>
      <trkpt lat="44.40305" lon="3.90874">
        <ele>1105.17</ele>
        <time>2012-06-16T14:38:01Z</time>
      </trkpt>
      <trkpt lat="44.40294" lon="3.90831">
        <ele>1106.13</ele>
        <time>2012-06-16T14:38:12Z</time>
      </trkpt>
      <trkpt lat="44.40287" lon="3.90804">
        <ele>1109.5</ele>
        <time>2012-06-16T14:38:23Z</time>
      </trkpt>
      <trkpt lat="44.40281" lon="3.90786">
        <ele>1110.94</ele>
        <time>2012-06-16T14:38:31Z</time>
      </trkpt>
      <trkpt lat="44.4028" lon="3.90784">
        <ele>1110.94</ele>
        <time>2012-06-16T14:38:32Z</time>
      </trkpt>
      <trkpt lat="44.40262" lon="3.9076">
        <ele>1109.98</ele>
        <time>2012-06-16T14:38:45Z</time>
      </trkpt>
      <trkpt lat="44.40248" lon="3.90746">
        <ele>1107.58</ele>
        <time>2012-06-16T14:38:48Z</time>
      </trkpt>
      <trkpt lat="44.40243" lon="3.90739">
        <ele>1106.61</ele>
        <time>2012-06-16T14:38:49Z</time>
      </trkpt>
      <trkpt lat="44.40239" lon="3.90733">
        <ele>1106.61</ele>
        <time>2012-06-16T14:38:50Z</time>
      </trkpt>
      <trkpt lat="44.40234" lon="3.90728">
        <ele>1106.61</ele>
        <time>2012-06-16T14:38:51Z</time>
      </trkpt>
      <trkpt lat="44.40231" lon="3.90726">
        <ele>1107.1</ele>
        <time>2012-06-16T14:38:52Z</time>
      </trkpt>
      <trkpt lat="44.40229" lon="3.90724">
        <ele>1107.1</ele>
        <time>2012-06-16T14:38:53Z</time>
      </trkpt>
      <trkpt lat="44.40226" lon="3.90722">
        <ele>1106.61</ele>
        <time>2012-06-16T14:38:54Z</time>
      </trkpt>
      <trkpt lat="44.40222" lon="3.90719">
        <ele>1106.13</ele>
        <time>2012-06-16T14:38:55Z</time>
      </trkpt>
      <trkpt lat="44.40218" lon="3.90716">
        <ele>1106.13</ele>
        <time>2012-06-16T14:38:56Z</time>
      </trkpt>
      <trkpt lat="44.40214" lon="3.90712">
        <ele>1104.69</ele>
        <time>2012-06-16T14:38:57Z</time>
      </trkpt>
      <trkpt lat="44.40208" lon="3.90709">
        <ele>1104.21</ele>
        <time>2012-06-16T14:38:58Z</time>
      </trkpt>
      <trkpt lat="44.40204" lon="3.90706">
        <ele>1103.25</ele>
        <time>2012-06-16T14:38:59Z</time>
      </trkpt>
      <trkpt lat="44.40201" lon="3.90704">
        <ele>1102.29</ele>
        <time>2012-06-16T14:39:00Z</time>
      </trkpt>
      <trkpt lat="44.40182" lon="3.90696">
        <ele>1099.89</ele>
        <time>2012-06-16T14:39:06Z</time>
      </trkpt>
      <trkpt lat="44.40178" lon="3.90694">
        <ele>1099.4</ele>
        <time>2012-06-16T14:39:07Z</time>
      </trkpt>
      <trkpt lat="44.40176" lon="3.90691">
        <ele>1098.44</ele>
        <time>2012-06-16T14:39:08Z</time>
      </trkpt>
      <trkpt lat="44.40149" lon="3.90689">
        <ele>1096.04</ele>
        <time>2012-06-16T14:39:18Z</time>
      </trkpt>
      <trkpt lat="44.40139" lon="3.907">
        <ele>1096.52</ele>
        <time>2012-06-16T14:39:23Z</time>
      </trkpt>
      <trkpt lat="44.40136" lon="3.90699">
        <ele>1096.52</ele>
        <time>2012-06-16T14:39:24Z</time>
      </trkpt>
      <trkpt lat="44.40132" lon="3.90698">
        <ele>1096.52</ele>
        <time>2012-06-16T14:39:25Z</time>
      </trkpt>
      <trkpt lat="44.40128" lon="3.90698">
        <ele>1096.04</ele>
        <time>2012-06-16T14:39:26Z</time>
      </trkpt>
      <trkpt lat="44.40123" lon="3.90696">
        <ele>1096.04</ele>
        <time>2012-06-16T14:39:27Z</time>
      </trkpt>
      <trkpt lat="44.40119" lon="3.90693">
        <ele>1095.08</ele>
        <time>2012-06-16T14:39:28Z</time>
      </trkpt>
      <trkpt lat="44.40115" lon="3.90691">
        <ele>1094.6</ele>
        <time>2012-06-16T14:39:29Z</time>
      </trkpt>
      <trkpt lat="44.40112" lon="3.90689">
        <ele>1094.12</ele>
        <time>2012-06-16T14:39:30Z</time>
      </trkpt>
      <trkpt lat="44.40111" lon="3.90689">
        <ele>1093.64</ele>
        <time>2012-06-16T14:39:41Z</time>
      </trkpt>
      <trkpt lat="44.40111" lon="3.9069">
        <ele>1093.64</ele>
        <time>2012-06-16T14:40:11Z</time>
      </trkpt>
      <trkpt lat="44.4011" lon="3.90686">
        <ele>1093.16</ele>
        <time>2012-06-16T14:40:25Z</time>
      </trkpt>
      <trkpt lat="44.40109" lon="3.90683">
        <ele>1093.16</ele>
        <time>2012-06-16T14:40:27Z</time>
      </trkpt>
      <trkpt lat="44.40109" lon="3.90663">
        <ele>1093.16</ele>
        <time>2012-06-16T14:40:33Z</time>
      </trkpt>
      <trkpt lat="44.40109" lon="3.90661">
        <ele>1094.12</ele>
        <time>2012-06-16T14:40:34Z</time>
      </trkpt>
      <trkpt lat="44.40107" lon="3.90657">
        <ele>1093.64</ele>
        <time>2012-06-16T14:40:36Z</time>
      </trkpt>
      <trkpt lat="44.40105" lon="3.90655">
        <ele>1094.12</ele>
        <time>2012-06-16T14:40:37Z</time>
      </trkpt>
      <trkpt lat="44.40105" lon="3.90653">
        <ele>1093.64</ele>
        <time>2012-06-16T14:40:38Z</time>
      </trkpt>
      <trkpt lat="44.40106" lon="3.90652">
        <ele>1093.64</ele>
        <time>2012-06-16T14:40:39Z</time>
      </trkpt>
      <trkpt lat="44.40107" lon="3.90652">
        <ele>1094.12</ele>
        <time>2012-06-16T14:40:40Z</time>
      </trkpt>
      <trkpt lat="44.40109" lon="3.90653">
        <ele>1094.6</ele>
        <time>2012-06-16T14:40:41Z</time>
      </trkpt>
      <trkpt lat="44.40109" lon="3.90656">
        <ele>1094.6</ele>
        <time>2012-06-16T14:40:42Z</time>
      </trkpt>
      <trkpt lat="44.4011" lon="3.90659">
        <ele>1094.6</ele>
        <time>2012-06-16T14:40:43Z</time>
      </trkpt>
      <trkpt lat="44.4011" lon="3.90662">
        <ele>1094.12</ele>
        <time>2012-06-16T14:40:44Z</time>
      </trkpt>
      <trkpt lat="44.40109" lon="3.90664">
        <ele>1094.12</ele>
        <time>2012-06-16T14:40:45Z</time>
      </trkpt>
      <trkpt lat="44.40109" lon="3.90666">
        <ele>1094.6</ele>
        <time>2012-06-16T14:40:46Z</time>
      </trkpt>
      <trkpt lat="44.40109" lon="3.90668">
        <ele>1094.12</ele>
        <time>2012-06-16T14:40:47Z</time>
      </trkpt>
      <trkpt lat="44.40109" lon="3.90671">
        <ele>1094.12</ele>
        <time>2012-06-16T14:40:48Z</time>
      </trkpt>
      <trkpt lat="44.40108" lon="3.90673">
        <ele>1094.12</ele>
        <time>2012-06-16T14:40:49Z</time>
      </trkpt>
      <trkpt lat="44.40109" lon="3.90676">
        <ele>1093.64</ele>
        <time>2012-06-16T14:40:50Z</time>
      </trkpt>
      <trkpt lat="44.40109" lon="3.90679">
        <ele>1093.64</ele>
        <time>2012-06-16T14:40:51Z</time>
      </trkpt>
      <trkpt lat="44.40111" lon="3.90684">
        <ele>1093.64</ele>
        <time>2012-06-16T14:40:53Z</time>
      </trkpt>
      <trkpt lat="44.40113" lon="3.90686">
        <ele>1093.16</ele>
        <time>2012-06-16T14:41:06Z</time>
      </trkpt>
      <trkpt lat="44.40112" lon="3.90688">
        <ele>1094.12</ele>
        <time>2012-06-16T14:41:38Z</time>
      </trkpt>
      <trkpt lat="44.40112" lon="3.90684">
        <ele>1093.64</ele>
        <time>2012-06-16T14:42:00Z</time>
      </trkpt>
      <trkpt lat="44.40112" lon="3.90681">
        <ele>1094.12</ele>
        <time>2012-06-16T14:42:02Z</time>
      </trkpt>
      <trkpt lat="44.40111" lon="3.90679">
        <ele>1094.12</ele>
        <time>2012-06-16T14:42:03Z</time>
      </trkpt>
      <trkpt lat="44.40111" lon="3.90676">
        <ele>1094.12</ele>
        <time>2012-06-16T14:42:04Z</time>
      </trkpt>
      <trkpt lat="44.40102" lon="3.90628">
        <ele>1095.56</ele>
        <time>2012-06-16T14:42:15Z</time>
      </trkpt>
      <trkpt lat="44.40096" lon="3.90581">
        <ele>1098.44</ele>
        <time>2012-06-16T14:42:30Z</time>
      </trkpt>
      <trkpt lat="44.4009" lon="3.90532">
        <ele>1101.33</ele>
        <time>2012-06-16T14:42:45Z</time>
      </trkpt>
      <trkpt lat="44.40086" lon="3.90485">
        <ele>1104.69</ele>
        <time>2012-06-16T14:42:58Z</time>
      </trkpt>
      <trkpt lat="44.40087" lon="3.90471">
        <ele>1104.69</ele>
        <time>2012-06-16T14:43:03Z</time>
      </trkpt>
      <trkpt lat="44.40087" lon="3.90464">
        <ele>1105.17</ele>
        <time>2012-06-16T14:43:07Z</time>
      </trkpt>
      <trkpt lat="44.40079" lon="3.90446">
        <ele>1106.13</ele>
        <time>2012-06-16T14:43:18Z</time>
      </trkpt>
      <trkpt lat="44.4008" lon="3.90444">
        <ele>1106.13</ele>
        <time>2012-06-16T14:43:19Z</time>
      </trkpt>
      <trkpt lat="44.40083" lon="3.90439">
        <ele>1106.61</ele>
        <time>2012-06-16T14:43:22Z</time>
      </trkpt>
      <trkpt lat="44.40083" lon="3.90436">
        <ele>1107.58</ele>
        <time>2012-06-16T14:43:23Z</time>
      </trkpt>
      <trkpt lat="44.40083" lon="3.90432">
        <ele>1107.1</ele>
        <time>2012-06-16T14:43:25Z</time>
      </trkpt>
      <trkpt lat="44.40083" lon="3.9043">
        <ele>1107.58</ele>
        <time>2012-06-16T14:43:26Z</time>
      </trkpt>
      <trkpt lat="44.40098" lon="3.90416">
        <ele>1107.58</ele>
        <time>2012-06-16T14:43:31Z</time>
      </trkpt>
      <trkpt lat="44.40118" lon="3.90381">
        <ele>1109.5</ele>
        <time>2012-06-16T14:43:45Z</time>
      </trkpt>
      <trkpt lat="44.40124" lon="3.90355">
        <ele>1110.94</ele>
        <time>2012-06-16T14:43:55Z</time>
      </trkpt>
      <trkpt lat="44.40127" lon="3.9034">
        <ele>1111.9</ele>
        <time>2012-06-16T14:44:00Z</time>
      </trkpt>
      <trkpt lat="44.40127" lon="3.9033">
        <ele>1112.38</ele>
        <time>2012-06-16T14:44:03Z</time>
      </trkpt>
      <trkpt lat="44.40122" lon="3.90307">
        <ele>1113.34</ele>
        <time>2012-06-16T14:44:11Z</time>
      </trkpt>
      <trkpt lat="44.40117" lon="3.90286">
        <ele>1114.79</ele>
        <time>2012-06-16T14:44:18Z</time>
      </trkpt>
      <trkpt lat="44.40105" lon="3.9024">
        <ele>1116.71</ele>
        <time>2012-06-16T14:44:31Z</time>
      </trkpt>
      <trkpt lat="44.40099" lon="3.90257">
        <ele>1117.67</ele>
        <time>2012-06-16T14:44:41Z</time>
      </trkpt>
      <trkpt lat="44.40101" lon="3.90259">
        <ele>1117.67</ele>
        <time>2012-06-16T14:44:42Z</time>
      </trkpt>
      <trkpt lat="44.40104" lon="3.90263">
        <ele>1118.15</ele>
        <time>2012-06-16T14:44:44Z</time>
      </trkpt>
      <trkpt lat="44.40109" lon="3.90276">
        <ele>1118.15</ele>
        <time>2012-06-16T14:44:51Z</time>
      </trkpt>
      <trkpt lat="44.40105" lon="3.90322">
        <ele>1119.59</ele>
        <time>2012-06-16T14:45:04Z</time>
      </trkpt>
      <trkpt lat="44.40103" lon="3.9033">
        <ele>1119.59</ele>
        <time>2012-06-16T14:45:06Z</time>
      </trkpt>
      <trkpt lat="44.40087" lon="3.90366">
        <ele>1122</ele>
        <time>2012-06-16T14:45:19Z</time>
      </trkpt>
      <trkpt lat="44.40066" lon="3.90396">
        <ele>1124.88</ele>
        <time>2012-06-16T14:45:30Z</time>
      </trkpt>
      <trkpt lat="44.4005" lon="3.90421">
        <ele>1127.28</ele>
        <time>2012-06-16T14:45:42Z</time>
      </trkpt>
      <trkpt lat="44.40045" lon="3.90429">
        <ele>1127.76</ele>
        <time>2012-06-16T14:45:47Z</time>
      </trkpt>
      <trkpt lat="44.40042" lon="3.90445">
        <ele>1128.73</ele>
        <time>2012-06-16T14:45:54Z</time>
      </trkpt>
      <trkpt lat="44.4004" lon="3.90455">
        <ele>1129.69</ele>
        <time>2012-06-16T14:45:58Z</time>
      </trkpt>
      <trkpt lat="44.40026" lon="3.90494">
        <ele>1131.13</ele>
        <time>2012-06-16T14:46:13Z</time>
      </trkpt>
      <trkpt lat="44.40015" lon="3.90523">
        <ele>1133.53</ele>
        <time>2012-06-16T14:46:25Z</time>
      </trkpt>
      <trkpt lat="44.39992" lon="3.90561">
        <ele>1136.9</ele>
        <time>2012-06-16T14:46:41Z</time>
      </trkpt>
      <trkpt lat="44.39962" lon="3.90584">
        <ele>1139.3</ele>
        <time>2012-06-16T14:46:55Z</time>
      </trkpt>
      <trkpt lat="44.39942" lon="3.90592">
        <ele>1140.74</ele>
        <time>2012-06-16T14:47:07Z</time>
      </trkpt>
      <trkpt lat="44.39925" lon="3.90587">
        <ele>1142.18</ele>
        <time>2012-06-16T14:47:19Z</time>
      </trkpt>
      <trkpt lat="44.3991" lon="3.90581">
        <ele>1143.14</ele>
        <time>2012-06-16T14:47:32Z</time>
      </trkpt>
      <trkpt lat="44.39903" lon="3.90575">
        <ele>1143.63</ele>
        <time>2012-06-16T14:47:43Z</time>
      </trkpt>
      <trkpt lat="44.39903" lon="3.90575">
        <ele>1143.63</ele>
        <time>2012-06-16T14:48:12Z</time>
      </trkpt>
      <trkpt lat="44.39903" lon="3.90576">
        <ele>1143.63</ele>
        <time>2012-06-16T14:48:41Z</time>
      </trkpt>
      <trkpt lat="44.39902" lon="3.90576">
        <ele>1143.63</ele>
        <time>2012-06-16T14:49:01Z</time>
      </trkpt>
      <trkpt lat="44.39895" lon="3.90575">
        <ele>1144.11</ele>
        <time>2012-06-16T14:49:16Z</time>
      </trkpt>
      <trkpt lat="44.39874" lon="3.90574">
        <ele>1145.07</ele>
        <time>2012-06-16T14:49:27Z</time>
      </trkpt>
      <trkpt lat="44.39858" lon="3.90574">
        <ele>1146.51</ele>
        <time>2012-06-16T14:49:36Z</time>
      </trkpt>
      <trkpt lat="44.39837" lon="3.90575">
        <ele>1147.95</ele>
        <time>2012-06-16T14:49:46Z</time>
      </trkpt>
      <trkpt lat="44.39834" lon="3.90575">
        <ele>1147.47</ele>
        <time>2012-06-16T14:49:47Z</time>
      </trkpt>
      <trkpt lat="44.3982" lon="3.90576">
        <ele>1147.95</ele>
        <time>2012-06-16T14:49:54Z</time>
      </trkpt>
      <trkpt lat="44.39799" lon="3.90572">
        <ele>1149.87</ele>
        <time>2012-06-16T14:50:06Z</time>
      </trkpt>
      <trkpt lat="44.39778" lon="3.90574">
        <ele>1151.32</ele>
        <time>2012-06-16T14:50:18Z</time>
      </trkpt>
      <trkpt lat="44.39764" lon="3.90574">
        <ele>1151.8</ele>
        <time>2012-06-16T14:50:26Z</time>
      </trkpt>
      <trkpt lat="44.39756" lon="3.90579">
        <ele>1152.76</ele>
        <time>2012-06-16T14:50:32Z</time>
      </trkpt>
      <trkpt lat="44.39753" lon="3.90582">
        <ele>1152.76</ele>
        <time>2012-06-16T14:50:34Z</time>
      </trkpt>
      <trkpt lat="44.39735" lon="3.90592">
        <ele>1154.2</ele>
        <time>2012-06-16T14:50:49Z</time>
      </trkpt>
      <trkpt lat="44.39711" lon="3.90608">
        <ele>1156.12</ele>
        <time>2012-06-16T14:50:59Z</time>
      </trkpt>
      <trkpt lat="44.39678" lon="3.90626">
        <ele>1158.05</ele>
        <time>2012-06-16T14:51:09Z</time>
      </trkpt>
      <trkpt lat="44.39647" lon="3.90636">
        <ele>1160.45</ele>
        <time>2012-06-16T14:51:19Z</time>
      </trkpt>
      <trkpt lat="44.39641" lon="3.90639">
        <ele>1160.93</ele>
        <time>2012-06-16T14:51:22Z</time>
      </trkpt>
      <trkpt lat="44.3962" lon="3.90638">
        <ele>1162.85</ele>
        <time>2012-06-16T14:51:29Z</time>
      </trkpt>
      <trkpt lat="44.39588" lon="3.90636">
        <ele>1164.77</ele>
        <time>2012-06-16T14:51:39Z</time>
      </trkpt>
      <trkpt lat="44.39564" lon="3.90637">
        <ele>1166.7</ele>
        <time>2012-06-16T14:51:47Z</time>
      </trkpt>
      <trkpt lat="44.39556" lon="3.90633">
        <ele>1167.66</ele>
        <time>2012-06-16T14:51:51Z</time>
      </trkpt>
      <trkpt lat="44.39549" lon="3.90631">
        <ele>1168.14</ele>
        <time>2012-06-16T14:51:53Z</time>
      </trkpt>
      <trkpt lat="44.39539" lon="3.9064">
        <ele>1168.14</ele>
        <time>2012-06-16T14:51:56Z</time>
      </trkpt>
      <trkpt lat="44.39504" lon="3.90649">
        <ele>1171.5</ele>
        <time>2012-06-16T14:52:07Z</time>
      </trkpt>
      <trkpt lat="44.39471" lon="3.90653">
        <ele>1173.91</ele>
        <time>2012-06-16T14:52:17Z</time>
      </trkpt>
      <trkpt lat="44.39454" lon="3.90642">
        <ele>1175.35</ele>
        <time>2012-06-16T14:52:26Z</time>
      </trkpt>
      <trkpt lat="44.39436" lon="3.90629">
        <ele>1176.31</ele>
        <time>2012-06-16T14:52:37Z</time>
      </trkpt>
      <trkpt lat="44.39431" lon="3.90624">
        <ele>1177.27</ele>
        <time>2012-06-16T14:52:41Z</time>
      </trkpt>
      <trkpt lat="44.39423" lon="3.90619">
        <ele>1177.75</ele>
        <time>2012-06-16T14:52:46Z</time>
      </trkpt>
      <trkpt lat="44.394" lon="3.90612">
        <ele>1179.19</ele>
        <time>2012-06-16T14:52:59Z</time>
      </trkpt>
      <trkpt lat="44.39395" lon="3.90611">
        <ele>1180.16</ele>
        <time>2012-06-16T14:53:02Z</time>
      </trkpt>
      <trkpt lat="44.39388" lon="3.90611">
        <ele>1180.64</ele>
        <time>2012-06-16T14:53:06Z</time>
      </trkpt>
      <trkpt lat="44.39384" lon="3.90612">
        <ele>1180.64</ele>
        <time>2012-06-16T14:53:09Z</time>
      </trkpt>
      <trkpt lat="44.39375" lon="3.90616">
        <ele>1181.12</ele>
        <time>2012-06-16T14:53:15Z</time>
      </trkpt>
      <trkpt lat="44.3937" lon="3.90628">
        <ele>1181.6</ele>
        <time>2012-06-16T14:53:20Z</time>
      </trkpt>
      <trkpt lat="44.39364" lon="3.90642">
        <ele>1182.08</ele>
        <time>2012-06-16T14:53:26Z</time>
      </trkpt>
      <trkpt lat="44.39346" lon="3.90667">
        <ele>1184</ele>
        <time>2012-06-16T14:53:39Z</time>
      </trkpt>
      <trkpt lat="44.3934" lon="3.90675">
        <ele>1184</ele>
        <time>2012-06-16T14:53:44Z</time>
      </trkpt>
      <trkpt lat="44.39335" lon="3.90678">
        <ele>1185.44</ele>
        <time>2012-06-16T14:53:47Z</time>
      </trkpt>
      <trkpt lat="44.39315" lon="3.90687">
        <ele>1187.37</ele>
        <time>2012-06-16T14:53:58Z</time>
      </trkpt>
      <trkpt lat="44.39288" lon="3.90667">
        <ele>1189.29</ele>
        <time>2012-06-16T14:54:13Z</time>
      </trkpt>
      <trkpt lat="44.3927" lon="3.90645">
        <ele>1189.29</ele>
        <time>2012-06-16T14:54:25Z</time>
      </trkpt>
      <trkpt lat="44.39248" lon="3.90622">
        <ele>1190.73</ele>
        <time>2012-06-16T14:54:38Z</time>
      </trkpt>
      <trkpt lat="44.39248" lon="3.90624">
        <ele>1190.25</ele>
        <time>2012-06-16T14:54:49Z</time>
      </trkpt>
      <trkpt lat="44.39244" lon="3.9062">
        <ele>1190.25</ele>
        <time>2012-06-16T14:55:01Z</time>
      </trkpt>
      <trkpt lat="44.39242" lon="3.90619">
        <ele>1190.73</ele>
        <time>2012-06-16T14:55:25Z</time>
      </trkpt>
      <trkpt lat="44.39231" lon="3.90618">
        <ele>1190.73</ele>
        <time>2012-06-16T14:55:36Z</time>
      </trkpt>
      <trkpt lat="44.39228" lon="3.90621">
        <ele>1191.21</ele>
        <time>2012-06-16T14:55:53Z</time>
      </trkpt>
      <trkpt lat="44.39225" lon="3.90625">
        <ele>1190.25</ele>
        <time>2012-06-16T14:56:07Z</time>
      </trkpt>
      <trkpt lat="44.39224" lon="3.90628">
        <ele>1189.77</ele>
        <time>2012-06-16T14:56:35Z</time>
      </trkpt>
      <trkpt lat="44.39225" lon="3.9063">
        <ele>1190.73</ele>
        <time>2012-06-16T14:57:03Z</time>
      </trkpt>
      <trkpt lat="44.39225" lon="3.90633">
        <ele>1191.21</ele>
        <time>2012-06-16T14:57:33Z</time>
      </trkpt>
      <trkpt lat="44.39224" lon="3.90635">
        <ele>1190.73</ele>
        <time>2012-06-16T14:58:01Z</time>
      </trkpt>
      <trkpt lat="44.39224" lon="3.90634">
        <ele>1192.17</ele>
        <time>2012-06-16T14:58:25Z</time>
      </trkpt>
      <trkpt lat="44.39224" lon="3.90634">
        <ele>1187.85</ele>
        <time>2012-06-16T14:58:30Z</time>
      </trkpt>
      <trkpt lat="44.39224" lon="3.90634">
        <ele>1193.61</ele>
        <time>2012-06-16T14:58:31Z</time>
      </trkpt>
      <trkpt lat="44.39224" lon="3.90634">
        <ele>1187.85</ele>
        <time>2012-06-16T14:58:34Z</time>
      </trkpt>
      <trkpt lat="44.39224" lon="3.90634">
        <ele>1196.98</ele>
        <time>2012-06-16T14:58:35Z</time>
      </trkpt>
      <trkpt lat="44.39224" lon="3.90634">
        <ele>1191.69</ele>
        <time>2012-06-16T14:58:36Z</time>
      </trkpt>
      <trkpt lat="44.39224" lon="3.90634">
        <ele>1196.98</ele>
        <time>2012-06-16T14:58:55Z</time>
      </trkpt>
      <trkpt lat="44.39224" lon="3.90634">
        <ele>1193.13</ele>
        <time>2012-06-16T14:58:56Z</time>
      </trkpt>
      <trkpt lat="44.39224" lon="3.90634">
        <ele>1188.81</ele>
        <time>2012-06-16T14:59:06Z</time>
      </trkpt>
      <trkpt lat="44.39224" lon="3.90634">
        <ele>1192.65</ele>
        <time>2012-06-16T14:59:07Z</time>
      </trkpt>
      <trkpt lat="44.39224" lon="3.90634">
        <ele>1191.69</ele>
        <time>2012-06-16T14:59:14Z</time>
      </trkpt>
      <trkpt lat="44.39223" lon="3.9067">
        <ele>1192.65</ele>
        <time>2012-06-16T14:59:33Z</time>
      </trkpt>
      <trkpt lat="44.39222" lon="3.90667">
        <ele>1192.17</ele>
        <time>2012-06-16T14:59:34Z</time>
      </trkpt>
      <trkpt lat="44.39217" lon="3.90638">
        <ele>1192.65</ele>
        <time>2012-06-16T15:00:00Z</time>
      </trkpt>
      <trkpt lat="44.39218" lon="3.90635">
        <ele>1192.17</ele>
        <time>2012-06-16T15:00:25Z</time>
      </trkpt>
      <trkpt lat="44.39219" lon="3.90636">
        <ele>1192.17</ele>
        <time>2012-06-16T15:00:30Z</time>
      </trkpt>
      <trkpt lat="44.39214" lon="3.90672">
        <ele>1193.13</ele>
        <time>2012-06-16T15:00:41Z</time>
      </trkpt>
      <trkpt lat="44.39191" lon="3.90713">
        <ele>1194.58</ele>
        <time>2012-06-16T15:00:53Z</time>
      </trkpt>
      <trkpt lat="44.39188" lon="3.90724">
        <ele>1194.09</ele>
        <time>2012-06-16T15:00:56Z</time>
      </trkpt>
      <trkpt lat="44.39179" lon="3.90748">
        <ele>1195.54</ele>
        <time>2012-06-16T15:01:07Z</time>
      </trkpt>
      <trkpt lat="44.39173" lon="3.90759">
        <ele>1196.02</ele>
        <time>2012-06-16T15:01:12Z</time>
      </trkpt>
      <trkpt lat="44.39159" lon="3.90799">
        <ele>1196.98</ele>
        <time>2012-06-16T15:01:23Z</time>
      </trkpt>
      <trkpt lat="44.3914" lon="3.90828">
        <ele>1198.42</ele>
        <time>2012-06-16T15:01:36Z</time>
      </trkpt>
      <trkpt lat="44.39131" lon="3.90835">
        <ele>1199.38</ele>
        <time>2012-06-16T15:01:41Z</time>
      </trkpt>
      <trkpt lat="44.39111" lon="3.90839">
        <ele>1199.38</ele>
        <time>2012-06-16T15:01:53Z</time>
      </trkpt>
      <trkpt lat="44.39109" lon="3.90841">
        <ele>1199.86</ele>
        <time>2012-06-16T15:01:54Z</time>
      </trkpt>
      <trkpt lat="44.39088" lon="3.90843">
        <ele>1201.3</ele>
        <time>2012-06-16T15:02:06Z</time>
      </trkpt>
      <trkpt lat="44.39084" lon="3.90842">
        <ele>1201.3</ele>
        <time>2012-06-16T15:02:08Z</time>
      </trkpt>
      <trkpt lat="44.39075" lon="3.90843">
        <ele>1201.79</ele>
        <time>2012-06-16T15:02:13Z</time>
      </trkpt>
      <trkpt lat="44.39066" lon="3.90845">
        <ele>1202.27</ele>
        <time>2012-06-16T15:02:18Z</time>
      </trkpt>
      <trkpt lat="44.39046" lon="3.90844">
        <ele>1203.71</ele>
        <time>2012-06-16T15:02:29Z</time>
      </trkpt>
      <trkpt lat="44.39033" lon="3.90848">
        <ele>1204.19</ele>
        <time>2012-06-16T15:02:36Z</time>
      </trkpt>
      <trkpt lat="44.39024" lon="3.90847">
        <ele>1203.71</ele>
        <time>2012-06-16T15:02:41Z</time>
      </trkpt>
      <trkpt lat="44.39024" lon="3.90848">
        <ele>1204.67</ele>
        <time>2012-06-16T15:02:42Z</time>
      </trkpt>
      <trkpt lat="44.39018" lon="3.90886">
        <ele>1205.63</ele>
        <time>2012-06-16T15:02:53Z</time>
      </trkpt>
      <trkpt lat="44.39009" lon="3.90924">
        <ele>1206.59</ele>
        <time>2012-06-16T15:03:05Z</time>
      </trkpt>
      <trkpt lat="44.39001" lon="3.90961">
        <ele>1207.55</ele>
        <time>2012-06-16T15:03:16Z</time>
      </trkpt>
      <trkpt lat="44.38996" lon="3.9099">
        <ele>1208.51</ele>
        <time>2012-06-16T15:03:26Z</time>
      </trkpt>
      <trkpt lat="44.38995" lon="3.90993">
        <ele>1208.51</ele>
        <time>2012-06-16T15:03:27Z</time>
      </trkpt>
      <trkpt lat="44.38989" lon="3.91016">
        <ele>1208.51</ele>
        <time>2012-06-16T15:03:38Z</time>
      </trkpt>
      <trkpt lat="44.38987" lon="3.91024">
        <ele>1209.48</ele>
        <time>2012-06-16T15:03:43Z</time>
      </trkpt>
      <trkpt lat="44.38984" lon="3.91032">
        <ele>1210.44</ele>
        <time>2012-06-16T15:03:47Z</time>
      </trkpt>
      <trkpt lat="44.38981" lon="3.91039">
        <ele>1210.92</ele>
        <time>2012-06-16T15:03:49Z</time>
      </trkpt>
      <trkpt lat="44.3898" lon="3.91046">
        <ele>1210.44</ele>
        <time>2012-06-16T15:03:53Z</time>
      </trkpt>
      <trkpt lat="44.38982" lon="3.9107">
        <ele>1211.88</ele>
        <time>2012-06-16T15:04:07Z</time>
      </trkpt>
      <trkpt lat="44.38986" lon="3.91077">
        <ele>1211.88</ele>
        <time>2012-06-16T15:04:12Z</time>
      </trkpt>
      <trkpt lat="44.38985" lon="3.91106">
        <ele>1213.32</ele>
        <time>2012-06-16T15:04:25Z</time>
      </trkpt>
      <trkpt lat="44.3898" lon="3.91132">
        <ele>1214.76</ele>
        <time>2012-06-16T15:04:36Z</time>
      </trkpt>
      <trkpt lat="44.38976" lon="3.91142">
        <ele>1215.24</ele>
        <time>2012-06-16T15:04:40Z</time>
      </trkpt>
      <trkpt lat="44.38966" lon="3.91181">
        <ele>1215.24</ele>
        <time>2012-06-16T15:04:57Z</time>
      </trkpt>
      <trkpt lat="44.38952" lon="3.91208">
        <ele>1217.17</ele>
        <time>2012-06-16T15:05:12Z</time>
      </trkpt>
      <trkpt lat="44.38931" lon="3.91246">
        <ele>1219.57</ele>
        <time>2012-06-16T15:05:28Z</time>
      </trkpt>
      <trkpt lat="44.38913" lon="3.91276">
        <ele>1221.97</ele>
        <time>2012-06-16T15:05:43Z</time>
      </trkpt>
      <trkpt lat="44.38896" lon="3.91305">
        <ele>1221.01</ele>
        <time>2012-06-16T15:05:58Z</time>
      </trkpt>
      <trkpt lat="44.38895" lon="3.91308">
        <ele>1221.01</ele>
        <time>2012-06-16T15:05:59Z</time>
      </trkpt>
      <trkpt lat="44.38876" lon="3.91341">
        <ele>1223.42</ele>
        <time>2012-06-16T15:06:16Z</time>
      </trkpt>
      <trkpt lat="44.38852" lon="3.91369">
        <ele>1225.34</ele>
        <time>2012-06-16T15:06:33Z</time>
      </trkpt>
      <trkpt lat="44.38824" lon="3.91385">
        <ele>1226.78</ele>
        <time>2012-06-16T15:06:47Z</time>
      </trkpt>
      <trkpt lat="44.38791" lon="3.91396">
        <ele>1228.7</ele>
        <time>2012-06-16T15:07:03Z</time>
      </trkpt>
      <trkpt lat="44.38758" lon="3.914">
        <ele>1229.66</ele>
        <time>2012-06-16T15:07:20Z</time>
      </trkpt>
      <trkpt lat="44.38729" lon="3.91397">
        <ele>1231.59</ele>
        <time>2012-06-16T15:07:35Z</time>
      </trkpt>
      <trkpt lat="44.38707" lon="3.91392">
        <ele>1232.07</ele>
        <time>2012-06-16T15:07:48Z</time>
      </trkpt>
      <trkpt lat="44.38696" lon="3.91387">
        <ele>1235.43</ele>
        <time>2012-06-16T15:07:55Z</time>
      </trkpt>
      <trkpt lat="44.38691" lon="3.91386">
        <ele>1233.03</ele>
        <time>2012-06-16T15:07:58Z</time>
      </trkpt>
      <trkpt lat="44.38687" lon="3.91385">
        <ele>1234.47</ele>
        <time>2012-06-16T15:08:00Z</time>
      </trkpt>
      <trkpt lat="44.38666" lon="3.91375">
        <ele>1234.95</ele>
        <time>2012-06-16T15:08:13Z</time>
      </trkpt>
      <trkpt lat="44.38661" lon="3.91372">
        <ele>1235.43</ele>
        <time>2012-06-16T15:08:16Z</time>
      </trkpt>
      <trkpt lat="44.38651" lon="3.91365">
        <ele>1235.43</ele>
        <time>2012-06-16T15:08:22Z</time>
      </trkpt>
      <trkpt lat="44.38625" lon="3.91356">
        <ele>1236.87</ele>
        <time>2012-06-16T15:08:37Z</time>
      </trkpt>
      <trkpt lat="44.38615" lon="3.9135">
        <ele>1239.76</ele>
        <time>2012-06-16T15:08:43Z</time>
      </trkpt>
      <trkpt lat="44.38612" lon="3.91349">
        <ele>1235.91</ele>
        <time>2012-06-16T15:08:45Z</time>
      </trkpt>
      <trkpt lat="44.38583" lon="3.91335">
        <ele>1240.24</ele>
        <time>2012-06-16T15:09:04Z</time>
      </trkpt>
      <trkpt lat="44.38581" lon="3.91334">
        <ele>1239.76</ele>
        <time>2012-06-16T15:09:05Z</time>
      </trkpt>
      <trkpt lat="44.38563" lon="3.91327">
        <ele>1240.72</ele>
        <time>2012-06-16T15:09:17Z</time>
      </trkpt>
      <trkpt lat="44.38546" lon="3.91321">
        <ele>1242.64</ele>
        <time>2012-06-16T15:09:26Z</time>
      </trkpt>
      <trkpt lat="44.38541" lon="3.91318">
        <ele>1242.64</ele>
        <time>2012-06-16T15:09:29Z</time>
      </trkpt>
      <trkpt lat="44.38524" lon="3.91315">
        <ele>1244.08</ele>
        <time>2012-06-16T15:09:38Z</time>
      </trkpt>
      <trkpt lat="44.38515" lon="3.91312">
        <ele>1244.08</ele>
        <time>2012-06-16T15:09:43Z</time>
      </trkpt>
      <trkpt lat="44.38494" lon="3.91305">
        <ele>1246.49</ele>
        <time>2012-06-16T15:09:59Z</time>
      </trkpt>
      <trkpt lat="44.38495" lon="3.91305">
        <ele>1246.97</ele>
        <time>2012-06-16T15:10:12Z</time>
      </trkpt>
      <trkpt lat="44.38496" lon="3.91307">
        <ele>1246.97</ele>
        <time>2012-06-16T15:10:32Z</time>
      </trkpt>
      <trkpt lat="44.38494" lon="3.91307">
        <ele>1247.45</ele>
        <time>2012-06-16T15:11:01Z</time>
      </trkpt>
      <trkpt lat="44.38496" lon="3.91307">
        <ele>1247.45</ele>
        <time>2012-06-16T15:11:25Z</time>
      </trkpt>
      <trkpt lat="44.38496" lon="3.91309">
        <ele>1246.97</ele>
        <time>2012-06-16T15:11:53Z</time>
      </trkpt>
      <trkpt lat="44.38494" lon="3.9131">
        <ele>1246.97</ele>
        <time>2012-06-16T15:12:14Z</time>
      </trkpt>
      <trkpt lat="44.38493" lon="3.9131">
        <ele>1246.97</ele>
        <time>2012-06-16T15:12:31Z</time>
      </trkpt>
      <trkpt lat="44.38491" lon="3.91312">
        <ele>1247.45</ele>
        <time>2012-06-16T15:12:59Z</time>
      </trkpt>
      <trkpt lat="44.38488" lon="3.91313">
        <ele>1246.97</ele>
        <time>2012-06-16T15:13:30Z</time>
      </trkpt>
      <trkpt lat="44.38488" lon="3.91314">
        <ele>1246.97</ele>
        <time>2012-06-16T15:13:58Z</time>
      </trkpt>
      <trkpt lat="44.38488" lon="3.91316">
        <ele>1247.45</ele>
        <time>2012-06-16T15:14:29Z</time>
      </trkpt>
      <trkpt lat="44.38487" lon="3.91318">
        <ele>1247.45</ele>
        <time>2012-06-16T15:14:56Z</time>
      </trkpt>
      <trkpt lat="44.38488" lon="3.91317">
        <ele>1247.93</ele>
        <time>2012-06-16T15:15:25Z</time>
      </trkpt>
      <trkpt lat="44.38488" lon="3.91316">
        <ele>1247.45</ele>
        <time>2012-06-16T15:15:53Z</time>
      </trkpt>
      <trkpt lat="44.38488" lon="3.91317">
        <ele>1248.41</ele>
        <time>2012-06-16T15:16:15Z</time>
      </trkpt>
      <trkpt lat="44.38488" lon="3.91317">
        <ele>1248.41</ele>
        <time>2012-06-16T15:16:19Z</time>
      </trkpt>
      <trkpt lat="44.38488" lon="3.91317">
        <ele>1248.41</ele>
        <time>2012-06-16T15:16:45Z</time>
      </trkpt>
      <trkpt lat="44.38485" lon="3.91318">
        <ele>1248.89</ele>
        <time>2012-06-16T15:16:49Z</time>
      </trkpt>
      <trkpt lat="44.3846" lon="3.91344">
        <ele>1248.89</ele>
        <time>2012-06-16T15:17:00Z</time>
      </trkpt>
      <trkpt lat="44.38445" lon="3.9137">
        <ele>1250.81</ele>
        <time>2012-06-16T15:17:09Z</time>
      </trkpt>
      <trkpt lat="44.38428" lon="3.91401">
        <ele>1252.74</ele>
        <time>2012-06-16T15:17:19Z</time>
      </trkpt>
      <trkpt lat="44.38426" lon="3.91405">
        <ele>1253.22</ele>
        <time>2012-06-16T15:17:21Z</time>
      </trkpt>
      <trkpt lat="44.38415" lon="3.91419">
        <ele>1254.18</ele>
        <time>2012-06-16T15:17:28Z</time>
      </trkpt>
      <trkpt lat="44.38408" lon="3.91424">
        <ele>1254.66</ele>
        <time>2012-06-16T15:17:33Z</time>
      </trkpt>
      <trkpt lat="44.3839" lon="3.91448">
        <ele>1256.58</ele>
        <time>2012-06-16T15:17:46Z</time>
      </trkpt>
      <trkpt lat="44.38375" lon="3.91468">
        <ele>1258.5</ele>
        <time>2012-06-16T15:17:58Z</time>
      </trkpt>
      <trkpt lat="44.38369" lon="3.91478">
        <ele>1258.5</ele>
        <time>2012-06-16T15:18:03Z</time>
      </trkpt>
      <trkpt lat="44.38357" lon="3.91493">
        <ele>1259.46</ele>
        <time>2012-06-16T15:18:12Z</time>
      </trkpt>
      <trkpt lat="44.38335" lon="3.91515">
        <ele>1260.91</ele>
        <time>2012-06-16T15:18:26Z</time>
      </trkpt>
      <trkpt lat="44.38307" lon="3.91543">
        <ele>1263.31</ele>
        <time>2012-06-16T15:18:40Z</time>
      </trkpt>
      <trkpt lat="44.38297" lon="3.91556">
        <ele>1263.79</ele>
        <time>2012-06-16T15:18:46Z</time>
      </trkpt>
      <trkpt lat="44.38294" lon="3.91559">
        <ele>1263.79</ele>
        <time>2012-06-16T15:18:48Z</time>
      </trkpt>
      <trkpt lat="44.38281" lon="3.91561">
        <ele>1265.71</ele>
        <time>2012-06-16T15:18:55Z</time>
      </trkpt>
      <trkpt lat="44.38279" lon="3.91562">
        <ele>1266.19</ele>
        <time>2012-06-16T15:18:56Z</time>
      </trkpt>
      <trkpt lat="44.38263" lon="3.91565">
        <ele>1267.64</ele>
        <time>2012-06-16T15:19:04Z</time>
      </trkpt>
      <trkpt lat="44.38246" lon="3.91568">
        <ele>1269.08</ele>
        <time>2012-06-16T15:19:11Z</time>
      </trkpt>
      <trkpt lat="44.38215" lon="3.91568">
        <ele>1271.96</ele>
        <time>2012-06-16T15:19:22Z</time>
      </trkpt>
      <trkpt lat="44.38191" lon="3.91568">
        <ele>1272.44</ele>
        <time>2012-06-16T15:19:33Z</time>
      </trkpt>
      <trkpt lat="44.3817" lon="3.91563">
        <ele>1274.36</ele>
        <time>2012-06-16T15:19:45Z</time>
      </trkpt>
      <trkpt lat="44.38149" lon="3.91555">
        <ele>1276.29</ele>
        <time>2012-06-16T15:19:54Z</time>
      </trkpt>
      <trkpt lat="44.38122" lon="3.91548">
        <ele>1277.73</ele>
        <time>2012-06-16T15:20:05Z</time>
      </trkpt>
      <trkpt lat="44.381" lon="3.91535">
        <ele>1280.13</ele>
        <time>2012-06-16T15:20:17Z</time>
      </trkpt>
      <trkpt lat="44.38084" lon="3.91528">
        <ele>1280.61</ele>
        <time>2012-06-16T15:20:24Z</time>
      </trkpt>
      <trkpt lat="44.38072" lon="3.91522">
        <ele>1279.65</ele>
        <time>2012-06-16T15:20:29Z</time>
      </trkpt>
      <trkpt lat="44.38039" lon="3.91506">
        <ele>1281.57</ele>
        <time>2012-06-16T15:20:43Z</time>
      </trkpt>
      <trkpt lat="44.38019" lon="3.91499">
        <ele>1282.06</ele>
        <time>2012-06-16T15:20:53Z</time>
      </trkpt>
      <trkpt lat="44.37993" lon="3.91503">
        <ele>1281.57</ele>
        <time>2012-06-16T15:21:03Z</time>
      </trkpt>
      <trkpt lat="44.37973" lon="3.91514">
        <ele>1282.06</ele>
        <time>2012-06-16T15:21:11Z</time>
      </trkpt>
      <trkpt lat="44.37941" lon="3.9152">
        <ele>1283.02</ele>
        <time>2012-06-16T15:21:24Z</time>
      </trkpt>
      <trkpt lat="44.37912" lon="3.91525">
        <ele>1284.46</ele>
        <time>2012-06-16T15:21:34Z</time>
      </trkpt>
      <trkpt lat="44.37879" lon="3.9154">
        <ele>1286.86</ele>
        <time>2012-06-16T15:21:44Z</time>
      </trkpt>
      <trkpt lat="44.37867" lon="3.91541">
        <ele>1288.3</ele>
        <time>2012-06-16T15:21:48Z</time>
      </trkpt>
      <trkpt lat="44.37833" lon="3.9155">
        <ele>1290.71</ele>
        <time>2012-06-16T15:21:59Z</time>
      </trkpt>
      <trkpt lat="44.37801" lon="3.91556">
        <ele>1292.15</ele>
        <time>2012-06-16T15:22:09Z</time>
      </trkpt>
      <trkpt lat="44.37766" lon="3.91542">
        <ele>1293.59</ele>
        <time>2012-06-16T15:22:21Z</time>
      </trkpt>
      <trkpt lat="44.37754" lon="3.91531">
        <ele>1294.55</ele>
        <time>2012-06-16T15:22:33Z</time>
      </trkpt>
      <trkpt lat="44.37745" lon="3.91524">
        <ele>1295.51</ele>
        <time>2012-06-16T15:22:44Z</time>
      </trkpt>
      <trkpt lat="44.37739" lon="3.9152">
        <ele>1295.99</ele>
        <time>2012-06-16T15:22:50Z</time>
      </trkpt>
      <trkpt lat="44.3772" lon="3.91501">
        <ele>1297.44</ele>
        <time>2012-06-16T15:23:03Z</time>
      </trkpt>
      <trkpt lat="44.37693" lon="3.91478">
        <ele>1300.8</ele>
        <time>2012-06-16T15:23:15Z</time>
      </trkpt>
      <trkpt lat="44.37681" lon="3.91468">
        <ele>1301.28</ele>
        <time>2012-06-16T15:23:21Z</time>
      </trkpt>
      <trkpt lat="44.37653" lon="3.91438">
        <ele>1303.69</ele>
        <time>2012-06-16T15:23:35Z</time>
      </trkpt>
      <trkpt lat="44.37641" lon="3.91428">
        <ele>1303.69</ele>
        <time>2012-06-16T15:23:42Z</time>
      </trkpt>
      <trkpt lat="44.37616" lon="3.91437">
        <ele>1305.61</ele>
        <time>2012-06-16T15:23:53Z</time>
      </trkpt>
      <trkpt lat="44.37588" lon="3.91447">
        <ele>1306.09</ele>
        <time>2012-06-16T15:24:06Z</time>
      </trkpt>
      <trkpt lat="44.37555" lon="3.9146">
        <ele>1307.05</ele>
        <time>2012-06-16T15:24:21Z</time>
      </trkpt>
      <trkpt lat="44.37539" lon="3.91461">
        <ele>1308.01</ele>
        <time>2012-06-16T15:24:28Z</time>
      </trkpt>
      <trkpt lat="44.37512" lon="3.91445">
        <ele>1309.93</ele>
        <time>2012-06-16T15:24:40Z</time>
      </trkpt>
      <trkpt lat="44.37486" lon="3.91429">
        <ele>1313.3</ele>
        <time>2012-06-16T15:24:53Z</time>
      </trkpt>
      <trkpt lat="44.37464" lon="3.91408">
        <ele>1317.14</ele>
        <time>2012-06-16T15:25:06Z</time>
      </trkpt>
      <trkpt lat="44.37441" lon="3.91401">
        <ele>1319.55</ele>
        <time>2012-06-16T15:25:18Z</time>
      </trkpt>
      <trkpt lat="44.37421" lon="3.91379">
        <ele>1322.43</ele>
        <time>2012-06-16T15:25:31Z</time>
      </trkpt>
      <trkpt lat="44.37408" lon="3.91361">
        <ele>1324.35</ele>
        <time>2012-06-16T15:25:41Z</time>
      </trkpt>
      <trkpt lat="44.37382" lon="3.91346">
        <ele>1326.28</ele>
        <time>2012-06-16T15:25:55Z</time>
      </trkpt>
      <trkpt lat="44.37371" lon="3.9134">
        <ele>1326.76</ele>
        <time>2012-06-16T15:26:01Z</time>
      </trkpt>
      <trkpt lat="44.37353" lon="3.91325">
        <ele>1327.72</ele>
        <time>2012-06-16T15:26:13Z</time>
      </trkpt>
      <trkpt lat="44.3734" lon="3.91316">
        <ele>1331.56</ele>
        <time>2012-06-16T15:26:22Z</time>
      </trkpt>
      <trkpt lat="44.37328" lon="3.91303">
        <ele>1332.52</ele>
        <time>2012-06-16T15:26:30Z</time>
      </trkpt>
      <trkpt lat="44.37313" lon="3.91292">
        <ele>1334.45</ele>
        <time>2012-06-16T15:26:41Z</time>
      </trkpt>
      <trkpt lat="44.37307" lon="3.91313">
        <ele>1335.41</ele>
        <time>2012-06-16T15:26:51Z</time>
      </trkpt>
      <trkpt lat="44.37291" lon="3.91358">
        <ele>1335.41</ele>
        <time>2012-06-16T15:27:05Z</time>
      </trkpt>
      <trkpt lat="44.37263" lon="3.91379">
        <ele>1336.37</ele>
        <time>2012-06-16T15:27:17Z</time>
      </trkpt>
      <trkpt lat="44.37235" lon="3.9139">
        <ele>1336.85</ele>
        <time>2012-06-16T15:27:31Z</time>
      </trkpt>
      <trkpt lat="44.37235" lon="3.91391">
        <ele>1337.33</ele>
        <time>2012-06-16T15:27:47Z</time>
      </trkpt>
      <trkpt lat="44.37235" lon="3.91391">
        <ele>1337.33</ele>
        <time>2012-06-16T15:28:10Z</time>
      </trkpt>
      <trkpt lat="44.37235" lon="3.91391">
        <ele>1337.33</ele>
        <time>2012-06-16T15:28:39Z</time>
      </trkpt>
      <trkpt lat="44.37235" lon="3.91391">
        <ele>1337.33</ele>
        <time>2012-06-16T15:29:07Z</time>
      </trkpt>
      <trkpt lat="44.37235" lon="3.91391">
        <ele>1337.81</ele>
        <time>2012-06-16T15:29:37Z</time>
      </trkpt>
      <trkpt lat="44.37235" lon="3.9139">
        <ele>1338.29</ele>
        <time>2012-06-16T15:30:03Z</time>
      </trkpt>
      <trkpt lat="44.37236" lon="3.9139">
        <ele>1337.81</ele>
        <time>2012-06-16T15:30:26Z</time>
      </trkpt>
      <trkpt lat="44.37235" lon="3.91388">
        <ele>1338.29</ele>
        <time>2012-06-16T15:30:57Z</time>
      </trkpt>
      <trkpt lat="44.37234" lon="3.91387">
        <ele>1338.29</ele>
        <time>2012-06-16T15:31:27Z</time>
      </trkpt>
      <trkpt lat="44.37236" lon="3.91388">
        <ele>1338.29</ele>
        <time>2012-06-16T15:31:56Z</time>
      </trkpt>
      <trkpt lat="44.37236" lon="3.91388">
        <ele>1338.77</ele>
        <time>2012-06-16T15:31:57Z</time>
      </trkpt>
      <trkpt lat="44.3724" lon="3.91383">
        <ele>1338.77</ele>
        <time>2012-06-16T15:32:02Z</time>
      </trkpt>
      <trkpt lat="44.37256" lon="3.91365">
        <ele>1339.73</ele>
        <time>2012-06-16T15:32:14Z</time>
      </trkpt>
      <trkpt lat="44.37259" lon="3.91359">
        <ele>1340.7</ele>
        <time>2012-06-16T15:32:18Z</time>
      </trkpt>
      <trkpt lat="44.37272" lon="3.9134">
        <ele>1342.14</ele>
        <time>2012-06-16T15:32:30Z</time>
      </trkpt>
      <trkpt lat="44.37276" lon="3.91331">
        <ele>1342.62</ele>
        <time>2012-06-16T15:32:34Z</time>
      </trkpt>
      <trkpt lat="44.37283" lon="3.91302">
        <ele>1345.02</ele>
        <time>2012-06-16T15:32:48Z</time>
      </trkpt>
      <trkpt lat="44.37285" lon="3.91291">
        <ele>1345.98</ele>
        <time>2012-06-16T15:32:55Z</time>
      </trkpt>
      <trkpt lat="44.37292" lon="3.91263">
        <ele>1347.43</ele>
        <time>2012-06-16T15:33:10Z</time>
      </trkpt>
      <trkpt lat="44.37302" lon="3.91253">
        <ele>1348.39</ele>
        <time>2012-06-16T15:33:18Z</time>
      </trkpt>
      <trkpt lat="44.37317" lon="3.91247">
        <ele>1349.35</ele>
        <time>2012-06-16T15:33:28Z</time>
      </trkpt>
      <trkpt lat="44.37328" lon="3.91244">
        <ele>1349.83</ele>
        <time>2012-06-16T15:33:36Z</time>
      </trkpt>
      <trkpt lat="44.37347" lon="3.91247">
        <ele>1351.27</ele>
        <time>2012-06-16T15:33:49Z</time>
      </trkpt>
      <trkpt lat="44.37355" lon="3.91251">
        <ele>1353.19</ele>
        <time>2012-06-16T15:33:55Z</time>
      </trkpt>
      <trkpt lat="44.3738" lon="3.91257">
        <ele>1354.63</ele>
        <time>2012-06-16T15:34:10Z</time>
      </trkpt>
      <trkpt lat="44.37406" lon="3.91259">
        <ele>1356.08</ele>
        <time>2012-06-16T15:34:26Z</time>
      </trkpt>
      <trkpt lat="44.37435" lon="3.91258">
        <ele>1358.48</ele>
        <time>2012-06-16T15:34:41Z</time>
      </trkpt>
      <trkpt lat="44.37475" lon="3.91257">
        <ele>1361.36</ele>
        <time>2012-06-16T15:34:53Z</time>
      </trkpt>
      <trkpt lat="44.37515" lon="3.91245">
        <ele>1364.73</ele>
        <time>2012-06-16T15:35:04Z</time>
      </trkpt>
      <trkpt lat="44.37532" lon="3.91233">
        <ele>1366.65</ele>
        <time>2012-06-16T15:35:09Z</time>
      </trkpt>
      <trkpt lat="44.37536" lon="3.9123">
        <ele>1366.17</ele>
        <time>2012-06-16T15:35:10Z</time>
      </trkpt>
      <trkpt lat="44.37539" lon="3.91228">
        <ele>1366.65</ele>
        <time>2012-06-16T15:35:11Z</time>
      </trkpt>
      <trkpt lat="44.37568" lon="3.91207">
        <ele>1369.05</ele>
        <time>2012-06-16T15:35:23Z</time>
      </trkpt>
      <trkpt lat="44.37587" lon="3.91193">
        <ele>1370.98</ele>
        <time>2012-06-16T15:35:35Z</time>
      </trkpt>
      <trkpt lat="44.37589" lon="3.91193">
        <ele>1370.98</ele>
        <time>2012-06-16T15:35:36Z</time>
      </trkpt>
      <trkpt lat="44.3759" lon="3.91192">
        <ele>1371.46</ele>
        <time>2012-06-16T15:35:37Z</time>
      </trkpt>
      <trkpt lat="44.37591" lon="3.91191">
        <ele>1371.46</ele>
        <time>2012-06-16T15:35:38Z</time>
      </trkpt>
      <trkpt lat="44.37592" lon="3.9119">
        <ele>1371.46</ele>
        <time>2012-06-16T15:35:39Z</time>
      </trkpt>
      <trkpt lat="44.37594" lon="3.9119">
        <ele>1371.94</ele>
        <time>2012-06-16T15:35:40Z</time>
      </trkpt>
      <trkpt lat="44.37595" lon="3.91188">
        <ele>1371.46</ele>
        <time>2012-06-16T15:35:41Z</time>
      </trkpt>
      <trkpt lat="44.37596" lon="3.91188">
        <ele>1372.42</ele>
        <time>2012-06-16T15:35:42Z</time>
      </trkpt>
      <trkpt lat="44.37598" lon="3.91187">
        <ele>1371.46</ele>
        <time>2012-06-16T15:35:43Z</time>
      </trkpt>
      <trkpt lat="44.37599" lon="3.91186">
        <ele>1371.94</ele>
        <time>2012-06-16T15:35:44Z</time>
      </trkpt>
      <trkpt lat="44.37601" lon="3.91185">
        <ele>1372.42</ele>
        <time>2012-06-16T15:35:45Z</time>
      </trkpt>
      <trkpt lat="44.37602" lon="3.91184">
        <ele>1372.42</ele>
        <time>2012-06-16T15:35:46Z</time>
      </trkpt>
      <trkpt lat="44.37604" lon="3.91184">
        <ele>1372.42</ele>
        <time>2012-06-16T15:35:47Z</time>
      </trkpt>
      <trkpt lat="44.37606" lon="3.91184">
        <ele>1372.9</ele>
        <time>2012-06-16T15:35:48Z</time>
      </trkpt>
      <trkpt lat="44.37608" lon="3.91183">
        <ele>1372.9</ele>
        <time>2012-06-16T15:35:49Z</time>
      </trkpt>
      <trkpt lat="44.3761" lon="3.91182">
        <ele>1372.9</ele>
        <time>2012-06-16T15:35:50Z</time>
      </trkpt>
      <trkpt lat="44.37612" lon="3.91182">
        <ele>1372.9</ele>
        <time>2012-06-16T15:35:51Z</time>
      </trkpt>
      <trkpt lat="44.37613" lon="3.91181">
        <ele>1372.9</ele>
        <time>2012-06-16T15:35:52Z</time>
      </trkpt>
      <trkpt lat="44.3764" lon="3.91176">
        <ele>1374.82</ele>
        <time>2012-06-16T15:36:04Z</time>
      </trkpt>
      <trkpt lat="44.37672" lon="3.91174">
        <ele>1378.19</ele>
        <time>2012-06-16T15:36:16Z</time>
      </trkpt>
      <trkpt lat="44.37683" lon="3.91176">
        <ele>1379.15</ele>
        <time>2012-06-16T15:36:22Z</time>
      </trkpt>
      <trkpt lat="44.37684" lon="3.91177">
        <ele>1378.67</ele>
        <time>2012-06-16T15:36:23Z</time>
      </trkpt>
      <trkpt lat="44.37703" lon="3.91194">
        <ele>1380.59</ele>
        <time>2012-06-16T15:36:35Z</time>
      </trkpt>
      <trkpt lat="44.37724" lon="3.91216">
        <ele>1382.51</ele>
        <time>2012-06-16T15:36:49Z</time>
      </trkpt>
      <trkpt lat="44.37735" lon="3.9123">
        <ele>1383.47</ele>
        <time>2012-06-16T15:36:57Z</time>
      </trkpt>
      <trkpt lat="44.37736" lon="3.91231">
        <ele>1383.47</ele>
        <time>2012-06-16T15:36:58Z</time>
      </trkpt>
      <trkpt lat="44.37738" lon="3.91233">
        <ele>1383.96</ele>
        <time>2012-06-16T15:36:59Z</time>
      </trkpt>
      <trkpt lat="44.37753" lon="3.91258">
        <ele>1385.4</ele>
        <time>2012-06-16T15:37:11Z</time>
      </trkpt>
      <trkpt lat="44.37775" lon="3.91281">
        <ele>1387.8</ele>
        <time>2012-06-16T15:37:24Z</time>
      </trkpt>
      <trkpt lat="44.37801" lon="3.91298">
        <ele>1389.72</ele>
        <time>2012-06-16T15:37:39Z</time>
      </trkpt>
      <trkpt lat="44.37832" lon="3.91299">
        <ele>1392.13</ele>
        <time>2012-06-16T15:37:54Z</time>
      </trkpt>
      <trkpt lat="44.37864" lon="3.91289">
        <ele>1395.49</ele>
        <time>2012-06-16T15:38:09Z</time>
      </trkpt>
      <trkpt lat="44.3788" lon="3.91265">
        <ele>1396.93</ele>
        <time>2012-06-16T15:38:21Z</time>
      </trkpt>
      <trkpt lat="44.37892" lon="3.91245">
        <ele>1398.37</ele>
        <time>2012-06-16T15:38:30Z</time>
      </trkpt>
      <trkpt lat="44.37894" lon="3.91243">
        <ele>1398.86</ele>
        <time>2012-06-16T15:38:31Z</time>
      </trkpt>
      <trkpt lat="44.37895" lon="3.91242">
        <ele>1398.86</ele>
        <time>2012-06-16T15:38:32Z</time>
      </trkpt>
      <trkpt lat="44.37917" lon="3.91221">
        <ele>1401.26</ele>
        <time>2012-06-16T15:38:46Z</time>
      </trkpt>
      <trkpt lat="44.37922" lon="3.91219">
        <ele>1401.26</ele>
        <time>2012-06-16T15:38:49Z</time>
      </trkpt>
      <trkpt lat="44.37924" lon="3.91216">
        <ele>1401.74</ele>
        <time>2012-06-16T15:38:50Z</time>
      </trkpt>
      <trkpt lat="44.37925" lon="3.91215">
        <ele>1401.26</ele>
        <time>2012-06-16T15:38:51Z</time>
      </trkpt>
      <trkpt lat="44.37927" lon="3.91213">
        <ele>1401.74</ele>
        <time>2012-06-16T15:38:52Z</time>
      </trkpt>
      <trkpt lat="44.37929" lon="3.91211">
        <ele>1402.22</ele>
        <time>2012-06-16T15:38:53Z</time>
      </trkpt>
      <trkpt lat="44.37931" lon="3.9121">
        <ele>1402.22</ele>
        <time>2012-06-16T15:38:54Z</time>
      </trkpt>
      <trkpt lat="44.37953" lon="3.91197">
        <ele>1403.66</ele>
        <time>2012-06-16T15:39:05Z</time>
      </trkpt>
      <trkpt lat="44.37982" lon="3.9118">
        <ele>1406.55</ele>
        <time>2012-06-16T15:39:19Z</time>
      </trkpt>
      <trkpt lat="44.38001" lon="3.91174">
        <ele>1408.47</ele>
        <time>2012-06-16T15:39:30Z</time>
      </trkpt>
      <trkpt lat="44.38003" lon="3.91174">
        <ele>1408.95</ele>
        <time>2012-06-16T15:39:31Z</time>
      </trkpt>
      <trkpt lat="44.38005" lon="3.91174">
        <ele>1408.47</ele>
        <time>2012-06-16T15:39:32Z</time>
      </trkpt>
      <trkpt lat="44.38007" lon="3.91173">
        <ele>1408.95</ele>
        <time>2012-06-16T15:39:33Z</time>
      </trkpt>
      <trkpt lat="44.38009" lon="3.91172">
        <ele>1408.95</ele>
        <time>2012-06-16T15:39:34Z</time>
      </trkpt>
      <trkpt lat="44.38012" lon="3.91171">
        <ele>1408.95</ele>
        <time>2012-06-16T15:39:35Z</time>
      </trkpt>
      <trkpt lat="44.38014" lon="3.9117">
        <ele>1409.43</ele>
        <time>2012-06-16T15:39:36Z</time>
      </trkpt>
      <trkpt lat="44.38016" lon="3.91169">
        <ele>1409.43</ele>
        <time>2012-06-16T15:39:37Z</time>
      </trkpt>
      <trkpt lat="44.38018" lon="3.91169">
        <ele>1409.43</ele>
        <time>2012-06-16T15:39:38Z</time>
      </trkpt>
      <trkpt lat="44.38044" lon="3.91163">
        <ele>1411.35</ele>
        <time>2012-06-16T15:39:51Z</time>
      </trkpt>
      <trkpt lat="44.38066" lon="3.91158">
        <ele>1413.28</ele>
        <time>2012-06-16T15:40:02Z</time>
      </trkpt>
      <trkpt lat="44.38068" lon="3.91157">
        <ele>1412.79</ele>
        <time>2012-06-16T15:40:03Z</time>
      </trkpt>
      <trkpt lat="44.38095" lon="3.91144">
        <ele>1415.2</ele>
        <time>2012-06-16T15:40:18Z</time>
      </trkpt>
      <trkpt lat="44.38103" lon="3.9114">
        <ele>1416.16</ele>
        <time>2012-06-16T15:40:24Z</time>
      </trkpt>
      <trkpt lat="44.38123" lon="3.91134">
        <ele>1417.6</ele>
        <time>2012-06-16T15:40:37Z</time>
      </trkpt>
      <trkpt lat="44.38124" lon="3.91133">
        <ele>1417.6</ele>
        <time>2012-06-16T15:40:38Z</time>
      </trkpt>
      <trkpt lat="44.38147" lon="3.91125">
        <ele>1420</ele>
        <time>2012-06-16T15:40:53Z</time>
      </trkpt>
      <trkpt lat="44.38172" lon="3.91112">
        <ele>1421.93</ele>
        <time>2012-06-16T15:41:07Z</time>
      </trkpt>
      <trkpt lat="44.38197" lon="3.91097">
        <ele>1424.33</ele>
        <time>2012-06-16T15:41:21Z</time>
      </trkpt>
      <trkpt lat="44.38227" lon="3.9108">
        <ele>1426.25</ele>
        <time>2012-06-16T15:41:39Z</time>
      </trkpt>
      <trkpt lat="44.38252" lon="3.91064">
        <ele>1428.18</ele>
        <time>2012-06-16T15:41:53Z</time>
      </trkpt>
      <trkpt lat="44.38273" lon="3.9104">
        <ele>1430.1</ele>
        <time>2012-06-16T15:42:07Z</time>
      </trkpt>
      <trkpt lat="44.38295" lon="3.9101">
        <ele>1432.5</ele>
        <time>2012-06-16T15:42:23Z</time>
      </trkpt>
      <trkpt lat="44.38317" lon="3.90977">
        <ele>1434.42</ele>
        <time>2012-06-16T15:42:40Z</time>
      </trkpt>
      <trkpt lat="44.38334" lon="3.90958">
        <ele>1435.87</ele>
        <time>2012-06-16T15:42:52Z</time>
      </trkpt>
      <trkpt lat="44.38354" lon="3.90945">
        <ele>1438.27</ele>
        <time>2012-06-16T15:43:04Z</time>
      </trkpt>
      <trkpt lat="44.3838" lon="3.90927">
        <ele>1440.19</ele>
        <time>2012-06-16T15:43:19Z</time>
      </trkpt>
      <trkpt lat="44.38385" lon="3.90923">
        <ele>1440.19</ele>
        <time>2012-06-16T15:43:22Z</time>
      </trkpt>
      <trkpt lat="44.38387" lon="3.90922">
        <ele>1441.15</ele>
        <time>2012-06-16T15:43:23Z</time>
      </trkpt>
      <trkpt lat="44.38388" lon="3.90921">
        <ele>1440.67</ele>
        <time>2012-06-16T15:43:24Z</time>
      </trkpt>
      <trkpt lat="44.3839" lon="3.9092">
        <ele>1440.67</ele>
        <time>2012-06-16T15:43:25Z</time>
      </trkpt>
      <trkpt lat="44.38391" lon="3.9092">
        <ele>1441.63</ele>
        <time>2012-06-16T15:43:26Z</time>
      </trkpt>
      <trkpt lat="44.38393" lon="3.90918">
        <ele>1441.63</ele>
        <time>2012-06-16T15:43:27Z</time>
      </trkpt>
      <trkpt lat="44.38395" lon="3.90916">
        <ele>1441.63</ele>
        <time>2012-06-16T15:43:28Z</time>
      </trkpt>
      <trkpt lat="44.38424" lon="3.90895">
        <ele>1443.56</ele>
        <time>2012-06-16T15:43:43Z</time>
      </trkpt>
      <trkpt lat="44.38446" lon="3.9088">
        <ele>1445</ele>
        <time>2012-06-16T15:43:56Z</time>
      </trkpt>
      <trkpt lat="44.38469" lon="3.90864">
        <ele>1446.44</ele>
        <time>2012-06-16T15:44:09Z</time>
      </trkpt>
      <trkpt lat="44.38486" lon="3.90851">
        <ele>1447.88</ele>
        <time>2012-06-16T15:44:25Z</time>
      </trkpt>
      <trkpt lat="44.38489" lon="3.90843">
        <ele>1448.36</ele>
        <time>2012-06-16T15:44:39Z</time>
      </trkpt>
      <trkpt lat="44.38488" lon="3.90842">
        <ele>1447.88</ele>
        <time>2012-06-16T15:45:02Z</time>
      </trkpt>
      <trkpt lat="44.38487" lon="3.90839">
        <ele>1447.88</ele>
        <time>2012-06-16T15:45:31Z</time>
      </trkpt>
      <trkpt lat="44.38488" lon="3.90838">
        <ele>1448.36</ele>
        <time>2012-06-16T15:46:03Z</time>
      </trkpt>
      <trkpt lat="44.38489" lon="3.90838">
        <ele>1448.36</ele>
        <time>2012-06-16T15:46:34Z</time>
      </trkpt>
      <trkpt lat="44.38489" lon="3.90838">
        <ele>1448.36</ele>
        <time>2012-06-16T15:47:03Z</time>
      </trkpt>
      <trkpt lat="44.38489" lon="3.90837">
        <ele>1449.32</ele>
        <time>2012-06-16T15:47:32Z</time>
      </trkpt>
      <trkpt lat="44.38489" lon="3.90838">
        <ele>1448.84</ele>
        <time>2012-06-16T15:48:00Z</time>
      </trkpt>
      <trkpt lat="44.38489" lon="3.90839">
        <ele>1448.84</ele>
        <time>2012-06-16T15:48:33Z</time>
      </trkpt>
      <trkpt lat="44.3849" lon="3.90838">
        <ele>1448.84</ele>
        <time>2012-06-16T15:49:06Z</time>
      </trkpt>
      <trkpt lat="44.3849" lon="3.90839">
        <ele>1448.84</ele>
        <time>2012-06-16T15:49:42Z</time>
      </trkpt>
      <trkpt lat="44.38489" lon="3.90839">
        <ele>1449.32</ele>
        <time>2012-06-16T15:50:19Z</time>
      </trkpt>
      <trkpt lat="44.38488" lon="3.9084">
        <ele>1449.32</ele>
        <time>2012-06-16T15:50:56Z</time>
      </trkpt>
      <trkpt lat="44.38488" lon="3.90841">
        <ele>1449.81</ele>
        <time>2012-06-16T15:51:35Z</time>
      </trkpt>
      <trkpt lat="44.38487" lon="3.90841">
        <ele>1450.77</ele>
        <time>2012-06-16T15:52:09Z</time>
      </trkpt>
      <trkpt lat="44.38487" lon="3.90841">
        <ele>1450.77</ele>
        <time>2012-06-16T15:52:12Z</time>
      </trkpt>
      <trkpt lat="44.38485" lon="3.90843">
        <ele>1450.77</ele>
        <time>2012-06-16T15:52:13Z</time>
      </trkpt>
      <trkpt lat="44.38484" lon="3.90844">
        <ele>1450.29</ele>
        <time>2012-06-16T15:52:14Z</time>
      </trkpt>
      <trkpt lat="44.38482" lon="3.90845">
        <ele>1450.29</ele>
        <time>2012-06-16T15:52:15Z</time>
      </trkpt>
      <trkpt lat="44.3848" lon="3.90846">
        <ele>1450.29</ele>
        <time>2012-06-16T15:52:16Z</time>
      </trkpt>
      <trkpt lat="44.38478" lon="3.90848">
        <ele>1450.29</ele>
        <time>2012-06-16T15:52:17Z</time>
      </trkpt>
      <trkpt lat="44.38475" lon="3.90851">
        <ele>1449.81</ele>
        <time>2012-06-16T15:52:18Z</time>
      </trkpt>
      <trkpt lat="44.38472" lon="3.90854">
        <ele>1449.81</ele>
        <time>2012-06-16T15:52:19Z</time>
      </trkpt>
      <trkpt lat="44.38469" lon="3.90857">
        <ele>1449.32</ele>
        <time>2012-06-16T15:52:20Z</time>
      </trkpt>
      <trkpt lat="44.38465" lon="3.9086">
        <ele>1449.81</ele>
        <time>2012-06-16T15:52:21Z</time>
      </trkpt>
      <trkpt lat="44.38461" lon="3.90864">
        <ele>1449.32</ele>
        <time>2012-06-16T15:52:22Z</time>
      </trkpt>
      <trkpt lat="44.38456" lon="3.90867">
        <ele>1448.84</ele>
        <time>2012-06-16T15:52:23Z</time>
      </trkpt>
      <trkpt lat="44.38451" lon="3.9087">
        <ele>1448.84</ele>
        <time>2012-06-16T15:52:24Z</time>
      </trkpt>
      <trkpt lat="44.38446" lon="3.90874">
        <ele>1448.36</ele>
        <time>2012-06-16T15:52:25Z</time>
      </trkpt>
      <trkpt lat="44.38414" lon="3.90896">
        <ele>1446.92</ele>
        <time>2012-06-16T15:52:30Z</time>
      </trkpt>
      <trkpt lat="44.38385" lon="3.90919">
        <ele>1445.48</ele>
        <time>2012-06-16T15:52:34Z</time>
      </trkpt>
      <trkpt lat="44.38363" lon="3.90936">
        <ele>1444.04</ele>
        <time>2012-06-16T15:52:37Z</time>
      </trkpt>
      <trkpt lat="44.38341" lon="3.9095">
        <ele>1440.67</ele>
        <time>2012-06-16T15:52:41Z</time>
      </trkpt>
      <trkpt lat="44.38337" lon="3.90953">
        <ele>1439.71</ele>
        <time>2012-06-16T15:52:46Z</time>
      </trkpt>
      <trkpt lat="44.38343" lon="3.90951">
        <ele>1439.71</ele>
        <time>2012-06-16T15:52:51Z</time>
      </trkpt>
      <trkpt lat="44.38349" lon="3.90946">
        <ele>1440.67</ele>
        <time>2012-06-16T15:52:55Z</time>
      </trkpt>
      <trkpt lat="44.38361" lon="3.90942">
        <ele>1441.15</ele>
        <time>2012-06-16T15:53:04Z</time>
      </trkpt>
      <trkpt lat="44.38368" lon="3.90937">
        <ele>1442.11</ele>
        <time>2012-06-16T15:53:09Z</time>
      </trkpt>
      <trkpt lat="44.38387" lon="3.90922">
        <ele>1443.56</ele>
        <time>2012-06-16T15:53:22Z</time>
      </trkpt>
      <trkpt lat="44.38394" lon="3.90916">
        <ele>1444.04</ele>
        <time>2012-06-16T15:53:27Z</time>
      </trkpt>
      <trkpt lat="44.38414" lon="3.90901">
        <ele>1445.96</ele>
        <time>2012-06-16T15:53:41Z</time>
      </trkpt>
      <trkpt lat="44.38421" lon="3.90896">
        <ele>1446.44</ele>
        <time>2012-06-16T15:53:46Z</time>
      </trkpt>
      <trkpt lat="44.38435" lon="3.90886">
        <ele>1447.4</ele>
        <time>2012-06-16T15:53:55Z</time>
      </trkpt>
      <trkpt lat="44.38453" lon="3.90874">
        <ele>1448.36</ele>
        <time>2012-06-16T15:54:07Z</time>
      </trkpt>
      <trkpt lat="44.38465" lon="3.90865">
        <ele>1449.32</ele>
        <time>2012-06-16T15:54:15Z</time>
      </trkpt>
      <trkpt lat="44.38477" lon="3.90858">
        <ele>1450.29</ele>
        <time>2012-06-16T15:54:25Z</time>
      </trkpt>
      <trkpt lat="44.3848" lon="3.90856">
        <ele>1450.29</ele>
        <time>2012-06-16T15:54:36Z</time>
      </trkpt>
      <trkpt lat="44.3848" lon="3.90853">
        <ele>1450.77</ele>
        <time>2012-06-16T15:54:57Z</time>
      </trkpt>
      <trkpt lat="44.38481" lon="3.90851">
        <ele>1451.25</ele>
        <time>2012-06-16T15:55:15Z</time>
      </trkpt>
      <trkpt lat="44.38483" lon="3.90851">
        <ele>1451.25</ele>
        <time>2012-06-16T15:55:35Z</time>
      </trkpt>
      <trkpt lat="44.38498" lon="3.90842">
        <ele>1452.21</ele>
        <time>2012-06-16T15:55:46Z</time>
      </trkpt>
      <trkpt lat="44.38524" lon="3.90826">
        <ele>1454.13</ele>
        <time>2012-06-16T15:55:58Z</time>
      </trkpt>
      <trkpt lat="44.38551" lon="3.90805">
        <ele>1456.53</ele>
        <time>2012-06-16T15:56:14Z</time>
      </trkpt>
      <trkpt lat="44.38554" lon="3.90801">
        <ele>1456.05</ele>
        <time>2012-06-16T15:56:16Z</time>
      </trkpt>
      <trkpt lat="44.38561" lon="3.9079">
        <ele>1457.5</ele>
        <time>2012-06-16T15:56:22Z</time>
      </trkpt>
      <trkpt lat="44.38575" lon="3.90765">
        <ele>1458.94</ele>
        <time>2012-06-16T15:56:35Z</time>
      </trkpt>
      <trkpt lat="44.3859" lon="3.90735">
        <ele>1461.34</ele>
        <time>2012-06-16T15:56:48Z</time>
      </trkpt>
      <trkpt lat="44.38602" lon="3.90701">
        <ele>1462.3</ele>
        <time>2012-06-16T15:57:01Z</time>
      </trkpt>
      <trkpt lat="44.38609" lon="3.90661">
        <ele>1463.26</ele>
        <time>2012-06-16T15:57:16Z</time>
      </trkpt>
      <trkpt lat="44.38614" lon="3.90628">
        <ele>1465.19</ele>
        <time>2012-06-16T15:57:28Z</time>
      </trkpt>
      <trkpt lat="44.3862" lon="3.90616">
        <ele>1465.67</ele>
        <time>2012-06-16T15:57:40Z</time>
      </trkpt>
      <trkpt lat="44.3862" lon="3.90617">
        <ele>1465.67</ele>
        <time>2012-06-16T15:57:56Z</time>
      </trkpt>
      <trkpt lat="44.38619" lon="3.90615">
        <ele>1465.67</ele>
        <time>2012-06-16T15:58:24Z</time>
      </trkpt>
      <trkpt lat="44.38618" lon="3.90614">
        <ele>1465.67</ele>
        <time>2012-06-16T15:58:30Z</time>
      </trkpt>
      <trkpt lat="44.38614" lon="3.90599">
        <ele>1467.11</ele>
        <time>2012-06-16T15:58:36Z</time>
      </trkpt>
      <trkpt lat="44.38605" lon="3.90547">
        <ele>1469.03</ele>
        <time>2012-06-16T15:58:50Z</time>
      </trkpt>
      <trkpt lat="44.38597" lon="3.90494">
        <ele>1470.47</ele>
        <time>2012-06-16T15:59:05Z</time>
      </trkpt>
      <trkpt lat="44.38591" lon="3.90431">
        <ele>1471.92</ele>
        <time>2012-06-16T15:59:22Z</time>
      </trkpt>
      <trkpt lat="44.38589" lon="3.90359">
        <ele>1472.4</ele>
        <time>2012-06-16T15:59:40Z</time>
      </trkpt>
      <trkpt lat="44.38587" lon="3.90271">
        <ele>1473.84</ele>
        <time>2012-06-16T15:59:57Z</time>
      </trkpt>
      <trkpt lat="44.38588" lon="3.90166">
        <ele>1474.32</ele>
        <time>2012-06-16T16:00:16Z</time>
      </trkpt>
      <trkpt lat="44.3859" lon="3.90148">
        <ele>1474.32</ele>
        <time>2012-06-16T16:00:19Z</time>
      </trkpt>
      <trkpt lat="44.38592" lon="3.90142">
        <ele>1474.32</ele>
        <time>2012-06-16T16:00:20Z</time>
      </trkpt>
      <trkpt lat="44.38631" lon="3.90061">
        <ele>1471.92</ele>
        <time>2012-06-16T16:00:34Z</time>
      </trkpt>
      <trkpt lat="44.38635" lon="3.90057">
        <ele>1472.4</ele>
        <time>2012-06-16T16:00:35Z</time>
      </trkpt>
      <trkpt lat="44.38712" lon="3.89966">
        <ele>1469.99</ele>
        <time>2012-06-16T16:00:52Z</time>
      </trkpt>
      <trkpt lat="44.3877" lon="3.89893">
        <ele>1467.11</ele>
        <time>2012-06-16T16:01:04Z</time>
      </trkpt>
      <trkpt lat="44.38845" lon="3.89774">
        <ele>1465.19</ele>
        <time>2012-06-16T16:01:18Z</time>
      </trkpt>
      <trkpt lat="44.38927" lon="3.89619">
        <ele>1461.82</ele>
        <time>2012-06-16T16:01:30Z</time>
      </trkpt>
      <trkpt lat="44.38973" lon="3.89539">
        <ele>1459.9</ele>
        <time>2012-06-16T16:01:36Z</time>
      </trkpt>
      <trkpt lat="44.39022" lon="3.89464">
        <ele>1456.53</ele>
        <time>2012-06-16T16:01:42Z</time>
      </trkpt>
      <trkpt lat="44.39069" lon="3.89394">
        <ele>1454.61</ele>
        <time>2012-06-16T16:01:48Z</time>
      </trkpt>
      <trkpt lat="44.39091" lon="3.89366">
        <ele>1453.17</ele>
        <time>2012-06-16T16:01:51Z</time>
      </trkpt>
      <trkpt lat="44.39171" lon="3.89294">
        <ele>1450.77</ele>
        <time>2012-06-16T16:02:03Z</time>
      </trkpt>
      <trkpt lat="44.39213" lon="3.89256">
        <ele>1450.29</ele>
        <time>2012-06-16T16:02:12Z</time>
      </trkpt>
      <trkpt lat="44.39217" lon="3.89251">
        <ele>1450.29</ele>
        <time>2012-06-16T16:02:13Z</time>
      </trkpt>
      <trkpt lat="44.3922" lon="3.89246">
        <ele>1450.77</ele>
        <time>2012-06-16T16:02:14Z</time>
      </trkpt>
      <trkpt lat="44.39222" lon="3.89239">
        <ele>1450.29</ele>
        <time>2012-06-16T16:02:15Z</time>
      </trkpt>
      <trkpt lat="44.39224" lon="3.89232">
        <ele>1450.29</ele>
        <time>2012-06-16T16:02:16Z</time>
      </trkpt>
      <trkpt lat="44.39225" lon="3.89225">
        <ele>1450.77</ele>
        <time>2012-06-16T16:02:17Z</time>
      </trkpt>
      <trkpt lat="44.39243" lon="3.8915">
        <ele>1448.36</ele>
        <time>2012-06-16T16:02:30Z</time>
      </trkpt>
      <trkpt lat="44.39251" lon="3.891">
        <ele>1447.88</ele>
        <time>2012-06-16T16:02:41Z</time>
      </trkpt>
      <trkpt lat="44.39251" lon="3.89099">
        <ele>1447.88</ele>
        <time>2012-06-16T16:02:42Z</time>
      </trkpt>
      <trkpt lat="44.39251" lon="3.89097">
        <ele>1447.88</ele>
        <time>2012-06-16T16:02:43Z</time>
      </trkpt>
      <trkpt lat="44.39251" lon="3.89095">
        <ele>1448.36</ele>
        <time>2012-06-16T16:02:44Z</time>
      </trkpt>
      <trkpt lat="44.39247" lon="3.89083">
        <ele>1446.92</ele>
        <time>2012-06-16T16:02:54Z</time>
      </trkpt>
      <trkpt lat="44.39245" lon="3.89082">
        <ele>1445.96</ele>
        <time>2012-06-16T16:02:55Z</time>
      </trkpt>
      <trkpt lat="44.39238" lon="3.89073">
        <ele>1445</ele>
        <time>2012-06-16T16:02:58Z</time>
      </trkpt>
      <trkpt lat="44.39236" lon="3.89067">
        <ele>1444.04</ele>
        <time>2012-06-16T16:02:59Z</time>
      </trkpt>
      <trkpt lat="44.39233" lon="3.89061">
        <ele>1443.56</ele>
        <time>2012-06-16T16:03:00Z</time>
      </trkpt>
      <trkpt lat="44.39221" lon="3.89034">
        <ele>1442.11</ele>
        <time>2012-06-16T16:03:04Z</time>
      </trkpt>
      <trkpt lat="44.39216" lon="3.89019">
        <ele>1441.15</ele>
        <time>2012-06-16T16:03:06Z</time>
      </trkpt>
      <trkpt lat="44.39214" lon="3.89012">
        <ele>1441.15</ele>
        <time>2012-06-16T16:03:07Z</time>
      </trkpt>
      <trkpt lat="44.39212" lon="3.89005">
        <ele>1439.71</ele>
        <time>2012-06-16T16:03:08Z</time>
      </trkpt>
      <trkpt lat="44.39207" lon="3.88991">
        <ele>1438.75</ele>
        <time>2012-06-16T16:03:10Z</time>
      </trkpt>
      <trkpt lat="44.39196" lon="3.8896">
        <ele>1436.83</ele>
        <time>2012-06-16T16:03:14Z</time>
      </trkpt>
      <trkpt lat="44.39193" lon="3.88955">
        <ele>1436.35</ele>
        <time>2012-06-16T16:03:15Z</time>
      </trkpt>
      <trkpt lat="44.39189" lon="3.88951">
        <ele>1435.87</ele>
        <time>2012-06-16T16:03:16Z</time>
      </trkpt>
      <trkpt lat="44.39185" lon="3.88949">
        <ele>1435.39</ele>
        <time>2012-06-16T16:03:17Z</time>
      </trkpt>
      <trkpt lat="44.39182" lon="3.88948">
        <ele>1435.39</ele>
        <time>2012-06-16T16:03:18Z</time>
      </trkpt>
      <trkpt lat="44.39156" lon="3.88941">
        <ele>1434.42</ele>
        <time>2012-06-16T16:03:23Z</time>
      </trkpt>
      <trkpt lat="44.39148" lon="3.8894">
        <ele>1434.42</ele>
        <time>2012-06-16T16:03:24Z</time>
      </trkpt>
      <trkpt lat="44.3914" lon="3.88938">
        <ele>1433.46</ele>
        <time>2012-06-16T16:03:25Z</time>
      </trkpt>
      <trkpt lat="44.39134" lon="3.88933">
        <ele>1433.94</ele>
        <time>2012-06-16T16:03:26Z</time>
      </trkpt>
      <trkpt lat="44.39128" lon="3.88929">
        <ele>1433.46</ele>
        <time>2012-06-16T16:03:27Z</time>
      </trkpt>
      <trkpt lat="44.39124" lon="3.88924">
        <ele>1432.98</ele>
        <time>2012-06-16T16:03:28Z</time>
      </trkpt>
      <trkpt lat="44.39119" lon="3.88919">
        <ele>1432.98</ele>
        <time>2012-06-16T16:03:29Z</time>
      </trkpt>
      <trkpt lat="44.39114" lon="3.88915">
        <ele>1432.98</ele>
        <time>2012-06-16T16:03:30Z</time>
      </trkpt>
      <trkpt lat="44.39076" lon="3.88884">
        <ele>1433.46</ele>
        <time>2012-06-16T16:03:39Z</time>
      </trkpt>
      <trkpt lat="44.39064" lon="3.88868">
        <ele>1433.46</ele>
        <time>2012-06-16T16:03:42Z</time>
      </trkpt>
      <trkpt lat="44.39055" lon="3.88849">
        <ele>1432.5</ele>
        <time>2012-06-16T16:03:45Z</time>
      </trkpt>
      <trkpt lat="44.39053" lon="3.88842">
        <ele>1432.5</ele>
        <time>2012-06-16T16:03:46Z</time>
      </trkpt>
      <trkpt lat="44.39051" lon="3.88835">
        <ele>1432.02</ele>
        <time>2012-06-16T16:03:47Z</time>
      </trkpt>
      <trkpt lat="44.39045" lon="3.88804">
        <ele>1430.1</ele>
        <time>2012-06-16T16:03:51Z</time>
      </trkpt>
      <trkpt lat="44.39042" lon="3.8879">
        <ele>1428.66</ele>
        <time>2012-06-16T16:03:54Z</time>
      </trkpt>
      <trkpt lat="44.39041" lon="3.88774">
        <ele>1427.7</ele>
        <time>2012-06-16T16:04:00Z</time>
      </trkpt>
      <trkpt lat="44.39039" lon="3.88771">
        <ele>1427.7</ele>
        <time>2012-06-16T16:04:01Z</time>
      </trkpt>
      <trkpt lat="44.39037" lon="3.88768">
        <ele>1427.7</ele>
        <time>2012-06-16T16:04:02Z</time>
      </trkpt>
      <trkpt lat="44.39029" lon="3.88755">
        <ele>1425.77</ele>
        <time>2012-06-16T16:04:07Z</time>
      </trkpt>
      <trkpt lat="44.39016" lon="3.88718">
        <ele>1422.89</ele>
        <time>2012-06-16T16:04:18Z</time>
      </trkpt>
      <trkpt lat="44.39015" lon="3.88717">
        <ele>1423.37</ele>
        <time>2012-06-16T16:04:19Z</time>
      </trkpt>
      <trkpt lat="44.39013" lon="3.88715">
        <ele>1422.89</ele>
        <time>2012-06-16T16:04:20Z</time>
      </trkpt>
      <trkpt lat="44.39012" lon="3.88713">
        <ele>1422.89</ele>
        <time>2012-06-16T16:04:21Z</time>
      </trkpt>
      <trkpt lat="44.39012" lon="3.88711">
        <ele>1422.41</ele>
        <time>2012-06-16T16:04:22Z</time>
      </trkpt>
      <trkpt lat="44.39011" lon="3.88709">
        <ele>1422.41</ele>
        <time>2012-06-16T16:04:23Z</time>
      </trkpt>
      <trkpt lat="44.38998" lon="3.88691">
        <ele>1421.45</ele>
        <time>2012-06-16T16:04:34Z</time>
      </trkpt>
      <trkpt lat="44.38998" lon="3.88688">
        <ele>1420.97</ele>
        <time>2012-06-16T16:04:35Z</time>
      </trkpt>
      <trkpt lat="44.38993" lon="3.88679">
        <ele>1419.04</ele>
        <time>2012-06-16T16:04:39Z</time>
      </trkpt>
      <trkpt lat="44.38991" lon="3.88678">
        <ele>1419.04</ele>
        <time>2012-06-16T16:04:40Z</time>
      </trkpt>
      <trkpt lat="44.3899" lon="3.88677">
        <ele>1418.56</ele>
        <time>2012-06-16T16:04:41Z</time>
      </trkpt>
      <trkpt lat="44.38988" lon="3.88674">
        <ele>1418.08</ele>
        <time>2012-06-16T16:04:42Z</time>
      </trkpt>
      <trkpt lat="44.38987" lon="3.88671">
        <ele>1418.08</ele>
        <time>2012-06-16T16:04:43Z</time>
      </trkpt>
      <trkpt lat="44.38985" lon="3.88668">
        <ele>1418.08</ele>
        <time>2012-06-16T16:04:44Z</time>
      </trkpt>
      <trkpt lat="44.38983" lon="3.88667">
        <ele>1417.6</ele>
        <time>2012-06-16T16:04:45Z</time>
      </trkpt>
      <trkpt lat="44.3896" lon="3.88632">
        <ele>1415.2</ele>
        <time>2012-06-16T16:04:56Z</time>
      </trkpt>
      <trkpt lat="44.38958" lon="3.88629">
        <ele>1415.2</ele>
        <time>2012-06-16T16:04:57Z</time>
      </trkpt>
      <trkpt lat="44.38957" lon="3.88627">
        <ele>1414.72</ele>
        <time>2012-06-16T16:04:58Z</time>
      </trkpt>
      <trkpt lat="44.38955" lon="3.88625">
        <ele>1414.24</ele>
        <time>2012-06-16T16:04:59Z</time>
      </trkpt>
      <trkpt lat="44.38954" lon="3.88623">
        <ele>1413.76</ele>
        <time>2012-06-16T16:05:00Z</time>
      </trkpt>
      <trkpt lat="44.38941" lon="3.88606">
        <ele>1411.35</ele>
        <time>2012-06-16T16:05:06Z</time>
      </trkpt>
      <trkpt lat="44.38936" lon="3.88595">
        <ele>1409.91</ele>
        <time>2012-06-16T16:05:09Z</time>
      </trkpt>
      <trkpt lat="44.38934" lon="3.88593">
        <ele>1409.91</ele>
        <time>2012-06-16T16:05:10Z</time>
      </trkpt>
      <trkpt lat="44.38928" lon="3.88583">
        <ele>1408.47</ele>
        <time>2012-06-16T16:05:14Z</time>
      </trkpt>
      <trkpt lat="44.38922" lon="3.88553">
        <ele>1407.99</ele>
        <time>2012-06-16T16:05:26Z</time>
      </trkpt>
      <trkpt lat="44.38921" lon="3.8855">
        <ele>1407.99</ele>
        <time>2012-06-16T16:05:28Z</time>
      </trkpt>
      <trkpt lat="44.38921" lon="3.88548">
        <ele>1407.99</ele>
        <time>2012-06-16T16:05:29Z</time>
      </trkpt>
      <trkpt lat="44.38919" lon="3.88533">
        <ele>1407.51</ele>
        <time>2012-06-16T16:05:40Z</time>
      </trkpt>
      <trkpt lat="44.38919" lon="3.88524">
        <ele>1407.51</ele>
        <time>2012-06-16T16:06:10Z</time>
      </trkpt>
      <trkpt lat="44.38919" lon="3.8852">
        <ele>1407.51</ele>
        <time>2012-06-16T16:06:12Z</time>
      </trkpt>
      <trkpt lat="44.3892" lon="3.88516">
        <ele>1407.03</ele>
        <time>2012-06-16T16:06:13Z</time>
      </trkpt>
      <trkpt lat="44.38921" lon="3.88505">
        <ele>1406.55</ele>
        <time>2012-06-16T16:06:16Z</time>
      </trkpt>
      <trkpt lat="44.38922" lon="3.88502">
        <ele>1406.07</ele>
        <time>2012-06-16T16:06:17Z</time>
      </trkpt>
      <trkpt lat="44.38923" lon="3.88498">
        <ele>1405.58</ele>
        <time>2012-06-16T16:06:18Z</time>
      </trkpt>
      <trkpt lat="44.38925" lon="3.88488">
        <ele>1403.66</ele>
        <time>2012-06-16T16:06:23Z</time>
      </trkpt>
      <trkpt lat="44.38927" lon="3.88479">
        <ele>1402.22</ele>
        <time>2012-06-16T16:06:26Z</time>
      </trkpt>
      <trkpt lat="44.38925" lon="3.88474">
        <ele>1401.74</ele>
        <time>2012-06-16T16:06:27Z</time>
      </trkpt>
      <trkpt lat="44.38924" lon="3.88469">
        <ele>1401.26</ele>
        <time>2012-06-16T16:06:28Z</time>
      </trkpt>
      <trkpt lat="44.38924" lon="3.88465">
        <ele>1400.78</ele>
        <time>2012-06-16T16:06:29Z</time>
      </trkpt>
      <trkpt lat="44.38922" lon="3.88461">
        <ele>1400.78</ele>
        <time>2012-06-16T16:06:30Z</time>
      </trkpt>
      <trkpt lat="44.38921" lon="3.88456">
        <ele>1400.3</ele>
        <time>2012-06-16T16:06:31Z</time>
      </trkpt>
      <trkpt lat="44.3892" lon="3.88434">
        <ele>1397.89</ele>
        <time>2012-06-16T16:06:35Z</time>
      </trkpt>
      <trkpt lat="44.38921" lon="3.88429">
        <ele>1397.41</ele>
        <time>2012-06-16T16:06:36Z</time>
      </trkpt>
      <trkpt lat="44.38921" lon="3.884">
        <ele>1395.49</ele>
        <time>2012-06-16T16:06:41Z</time>
      </trkpt>
      <trkpt lat="44.38917" lon="3.88382">
        <ele>1393.09</ele>
        <time>2012-06-16T16:06:51Z</time>
      </trkpt>
      <trkpt lat="44.38915" lon="3.88373">
        <ele>1393.09</ele>
        <time>2012-06-16T16:07:00Z</time>
      </trkpt>
      <trkpt lat="44.3891" lon="3.88367">
        <ele>1394.05</ele>
        <time>2012-06-16T16:07:09Z</time>
      </trkpt>
      <trkpt lat="44.38906" lon="3.88361">
        <ele>1394.53</ele>
        <time>2012-06-16T16:07:21Z</time>
      </trkpt>
      <trkpt lat="44.38905" lon="3.8836">
        <ele>1395.49</ele>
        <time>2012-06-16T16:07:23Z</time>
      </trkpt>
      <trkpt lat="44.38897" lon="3.88358">
        <ele>1395.01</ele>
        <time>2012-06-16T16:07:33Z</time>
      </trkpt>
      <trkpt lat="44.38896" lon="3.88357">
        <ele>1394.53</ele>
        <time>2012-06-16T16:07:34Z</time>
      </trkpt>
      <trkpt lat="44.38895" lon="3.88357">
        <ele>1394.53</ele>
        <time>2012-06-16T16:07:35Z</time>
      </trkpt>
      <trkpt lat="44.38893" lon="3.88357">
        <ele>1395.01</ele>
        <time>2012-06-16T16:07:36Z</time>
      </trkpt>
      <trkpt lat="44.3889" lon="3.88355">
        <ele>1395.01</ele>
        <time>2012-06-16T16:07:38Z</time>
      </trkpt>
      <trkpt lat="44.38888" lon="3.88354">
        <ele>1395.01</ele>
        <time>2012-06-16T16:07:39Z</time>
      </trkpt>
      <trkpt lat="44.38884" lon="3.88347">
        <ele>1394.53</ele>
        <time>2012-06-16T16:07:42Z</time>
      </trkpt>
      <trkpt lat="44.38883" lon="3.88345">
        <ele>1395.01</ele>
        <time>2012-06-16T16:07:43Z</time>
      </trkpt>
      <trkpt lat="44.38881" lon="3.88342">
        <ele>1395.01</ele>
        <time>2012-06-16T16:07:44Z</time>
      </trkpt>
      <trkpt lat="44.38878" lon="3.88339">
        <ele>1394.53</ele>
        <time>2012-06-16T16:07:45Z</time>
      </trkpt>
      <trkpt lat="44.38876" lon="3.88337">
        <ele>1394.05</ele>
        <time>2012-06-16T16:07:46Z</time>
      </trkpt>
      <trkpt lat="44.38875" lon="3.88335">
        <ele>1394.05</ele>
        <time>2012-06-16T16:07:47Z</time>
      </trkpt>
      <trkpt lat="44.3887" lon="3.88331">
        <ele>1393.57</ele>
        <time>2012-06-16T16:07:50Z</time>
      </trkpt>
      <trkpt lat="44.38868" lon="3.88331">
        <ele>1393.09</ele>
        <time>2012-06-16T16:07:51Z</time>
      </trkpt>
      <trkpt lat="44.38866" lon="3.88329">
        <ele>1393.57</ele>
        <time>2012-06-16T16:07:52Z</time>
      </trkpt>
      <trkpt lat="44.38865" lon="3.88326">
        <ele>1393.57</ele>
        <time>2012-06-16T16:07:55Z</time>
      </trkpt>
      <trkpt lat="44.38865" lon="3.88323">
        <ele>1393.09</ele>
        <time>2012-06-16T16:07:56Z</time>
      </trkpt>
      <trkpt lat="44.38865" lon="3.88319">
        <ele>1393.57</ele>
        <time>2012-06-16T16:07:59Z</time>
      </trkpt>
      <trkpt lat="44.38865" lon="3.88315">
        <ele>1394.05</ele>
        <time>2012-06-16T16:08:01Z</time>
      </trkpt>
      <trkpt lat="44.38864" lon="3.88312">
        <ele>1393.57</ele>
        <time>2012-06-16T16:08:02Z</time>
      </trkpt>
      <trkpt lat="44.38862" lon="3.8831">
        <ele>1393.57</ele>
        <time>2012-06-16T16:08:03Z</time>
      </trkpt>
      <trkpt lat="44.38861" lon="3.88305">
        <ele>1393.57</ele>
        <time>2012-06-16T16:08:05Z</time>
      </trkpt>
      <trkpt lat="44.38859" lon="3.88295">
        <ele>1393.57</ele>
        <time>2012-06-16T16:08:08Z</time>
      </trkpt>
      <trkpt lat="44.38858" lon="3.88291">
        <ele>1394.53</ele>
        <time>2012-06-16T16:08:09Z</time>
      </trkpt>
      <trkpt lat="44.38859" lon="3.88286">
        <ele>1394.53</ele>
        <time>2012-06-16T16:08:10Z</time>
      </trkpt>
      <trkpt lat="44.3886" lon="3.88281">
        <ele>1394.53</ele>
        <time>2012-06-16T16:08:11Z</time>
      </trkpt>
      <trkpt lat="44.38861" lon="3.88277">
        <ele>1394.53</ele>
        <time>2012-06-16T16:08:12Z</time>
      </trkpt>
      <trkpt lat="44.38863" lon="3.88275">
        <ele>1395.01</ele>
        <time>2012-06-16T16:08:13Z</time>
      </trkpt>
      <trkpt lat="44.38873" lon="3.88256">
        <ele>1396.93</ele>
        <time>2012-06-16T16:08:19Z</time>
      </trkpt>
      <trkpt lat="44.38873" lon="3.88253">
        <ele>1396.93</ele>
        <time>2012-06-16T16:08:20Z</time>
      </trkpt>
      <trkpt lat="44.38874" lon="3.88249">
        <ele>1397.41</ele>
        <time>2012-06-16T16:08:21Z</time>
      </trkpt>
      <trkpt lat="44.38872" lon="3.88238">
        <ele>1397.41</ele>
        <time>2012-06-16T16:08:25Z</time>
      </trkpt>
      <trkpt lat="44.38865" lon="3.88234">
        <ele>1397.89</ele>
        <time>2012-06-16T16:08:29Z</time>
      </trkpt>
      <trkpt lat="44.38849" lon="3.88238">
        <ele>1397.41</ele>
        <time>2012-06-16T16:08:38Z</time>
      </trkpt>
      <trkpt lat="44.38834" lon="3.88253">
        <ele>1395.49</ele>
        <time>2012-06-16T16:08:43Z</time>
      </trkpt>
      <trkpt lat="44.38831" lon="3.88257">
        <ele>1395.49</ele>
        <time>2012-06-16T16:08:44Z</time>
      </trkpt>
      <trkpt lat="44.38813" lon="3.88278">
        <ele>1393.09</ele>
        <time>2012-06-16T16:08:49Z</time>
      </trkpt>
      <trkpt lat="44.3881" lon="3.88283">
        <ele>1392.61</ele>
        <time>2012-06-16T16:08:50Z</time>
      </trkpt>
      <trkpt lat="44.38807" lon="3.88288">
        <ele>1391.65</ele>
        <time>2012-06-16T16:08:51Z</time>
      </trkpt>
      <trkpt lat="44.38788" lon="3.88303">
        <ele>1390.2</ele>
        <time>2012-06-16T16:08:56Z</time>
      </trkpt>
      <trkpt lat="44.38776" lon="3.88311">
        <ele>1390.2</ele>
        <time>2012-06-16T16:08:59Z</time>
      </trkpt>
      <trkpt lat="44.38774" lon="3.88314">
        <ele>1389.72</ele>
        <time>2012-06-16T16:09:00Z</time>
      </trkpt>
      <trkpt lat="44.38771" lon="3.88318">
        <ele>1389.72</ele>
        <time>2012-06-16T16:09:01Z</time>
      </trkpt>
      <trkpt lat="44.3876" lon="3.88338">
        <ele>1387.8</ele>
        <time>2012-06-16T16:09:06Z</time>
      </trkpt>
      <trkpt lat="44.38758" lon="3.88343">
        <ele>1388.28</ele>
        <time>2012-06-16T16:09:07Z</time>
      </trkpt>
      <trkpt lat="44.38756" lon="3.88346">
        <ele>1387.8</ele>
        <time>2012-06-16T16:09:08Z</time>
      </trkpt>
      <trkpt lat="44.38753" lon="3.88349">
        <ele>1387.32</ele>
        <time>2012-06-16T16:09:09Z</time>
      </trkpt>
      <trkpt lat="44.38752" lon="3.88351">
        <ele>1386.84</ele>
        <time>2012-06-16T16:09:10Z</time>
      </trkpt>
      <trkpt lat="44.3875" lon="3.88355">
        <ele>1386.84</ele>
        <time>2012-06-16T16:09:11Z</time>
      </trkpt>
      <trkpt lat="44.3875" lon="3.88358">
        <ele>1386.36</ele>
        <time>2012-06-16T16:09:12Z</time>
      </trkpt>
      <trkpt lat="44.38748" lon="3.88363">
        <ele>1386.36</ele>
        <time>2012-06-16T16:09:13Z</time>
      </trkpt>
      <trkpt lat="44.38745" lon="3.88368">
        <ele>1385.88</ele>
        <time>2012-06-16T16:09:14Z</time>
      </trkpt>
      <trkpt lat="44.38741" lon="3.88373">
        <ele>1385.88</ele>
        <time>2012-06-16T16:09:15Z</time>
      </trkpt>
      <trkpt lat="44.38736" lon="3.88377">
        <ele>1384.92</ele>
        <time>2012-06-16T16:09:16Z</time>
      </trkpt>
      <trkpt lat="44.38729" lon="3.88384">
        <ele>1384.92</ele>
        <time>2012-06-16T16:09:18Z</time>
      </trkpt>
      <trkpt lat="44.38726" lon="3.88389">
        <ele>1384.44</ele>
        <time>2012-06-16T16:09:19Z</time>
      </trkpt>
      <trkpt lat="44.38723" lon="3.88394">
        <ele>1383.96</ele>
        <time>2012-06-16T16:09:20Z</time>
      </trkpt>
      <trkpt lat="44.3872" lon="3.884">
        <ele>1383.47</ele>
        <time>2012-06-16T16:09:21Z</time>
      </trkpt>
      <trkpt lat="44.38718" lon="3.88405">
        <ele>1383.96</ele>
        <time>2012-06-16T16:09:22Z</time>
      </trkpt>
      <trkpt lat="44.38715" lon="3.8841">
        <ele>1382.99</ele>
        <time>2012-06-16T16:09:23Z</time>
      </trkpt>
      <trkpt lat="44.38713" lon="3.88414">
        <ele>1382.99</ele>
        <time>2012-06-16T16:09:24Z</time>
      </trkpt>
      <trkpt lat="44.38711" lon="3.88418">
        <ele>1382.99</ele>
        <time>2012-06-16T16:09:25Z</time>
      </trkpt>
      <trkpt lat="44.38709" lon="3.88422">
        <ele>1382.51</ele>
        <time>2012-06-16T16:09:26Z</time>
      </trkpt>
      <trkpt lat="44.38708" lon="3.88425">
        <ele>1382.51</ele>
        <time>2012-06-16T16:09:27Z</time>
      </trkpt>
      <trkpt lat="44.38707" lon="3.88429">
        <ele>1382.99</ele>
        <time>2012-06-16T16:09:28Z</time>
      </trkpt>
      <trkpt lat="44.38706" lon="3.88431">
        <ele>1382.03</ele>
        <time>2012-06-16T16:09:29Z</time>
      </trkpt>
      <trkpt lat="44.38704" lon="3.88436">
        <ele>1381.55</ele>
        <time>2012-06-16T16:09:31Z</time>
      </trkpt>
      <trkpt lat="44.38703" lon="3.88437">
        <ele>1381.55</ele>
        <time>2012-06-16T16:09:32Z</time>
      </trkpt>
      <trkpt lat="44.3869" lon="3.88453">
        <ele>1380.11</ele>
        <time>2012-06-16T16:09:38Z</time>
      </trkpt>
      <trkpt lat="44.38686" lon="3.88456">
        <ele>1379.63</ele>
        <time>2012-06-16T16:09:41Z</time>
      </trkpt>
      <trkpt lat="44.38684" lon="3.88456">
        <ele>1379.63</ele>
        <time>2012-06-16T16:09:42Z</time>
      </trkpt>
      <trkpt lat="44.38682" lon="3.88456">
        <ele>1380.11</ele>
        <time>2012-06-16T16:09:43Z</time>
      </trkpt>
      <trkpt lat="44.38677" lon="3.88457">
        <ele>1380.59</ele>
        <time>2012-06-16T16:09:44Z</time>
      </trkpt>
      <trkpt lat="44.38673" lon="3.88456">
        <ele>1381.55</ele>
        <time>2012-06-16T16:09:45Z</time>
      </trkpt>
      <trkpt lat="44.3867" lon="3.88455">
        <ele>1381.55</ele>
        <time>2012-06-16T16:09:46Z</time>
      </trkpt>
      <trkpt lat="44.38666" lon="3.88453">
        <ele>1381.55</ele>
        <time>2012-06-16T16:09:47Z</time>
      </trkpt>
      <trkpt lat="44.38663" lon="3.88451">
        <ele>1381.55</ele>
        <time>2012-06-16T16:09:48Z</time>
      </trkpt>
      <trkpt lat="44.38659" lon="3.8845">
        <ele>1382.03</ele>
        <time>2012-06-16T16:09:49Z</time>
      </trkpt>
      <trkpt lat="44.38634" lon="3.88451">
        <ele>1383.96</ele>
        <time>2012-06-16T16:09:59Z</time>
      </trkpt>
      <trkpt lat="44.38633" lon="3.88452">
        <ele>1383.96</ele>
        <time>2012-06-16T16:10:18Z</time>
      </trkpt>
      <trkpt lat="44.38632" lon="3.88453">
        <ele>1383.96</ele>
        <time>2012-06-16T16:10:20Z</time>
      </trkpt>
      <trkpt lat="44.38631" lon="3.88453">
        <ele>1383.96</ele>
        <time>2012-06-16T16:10:21Z</time>
      </trkpt>
      <trkpt lat="44.38628" lon="3.88453">
        <ele>1383.96</ele>
        <time>2012-06-16T16:10:22Z</time>
      </trkpt>
      <trkpt lat="44.38626" lon="3.88454">
        <ele>1384.44</ele>
        <time>2012-06-16T16:10:23Z</time>
      </trkpt>
      <trkpt lat="44.38623" lon="3.88455">
        <ele>1384.92</ele>
        <time>2012-06-16T16:10:24Z</time>
      </trkpt>
      <trkpt lat="44.38608" lon="3.88457">
        <ele>1385.88</ele>
        <time>2012-06-16T16:10:29Z</time>
      </trkpt>
      <trkpt lat="44.38606" lon="3.88457">
        <ele>1385.88</ele>
        <time>2012-06-16T16:10:30Z</time>
      </trkpt>
      <trkpt lat="44.38575" lon="3.88462">
        <ele>1386.84</ele>
        <time>2012-06-16T16:10:45Z</time>
      </trkpt>
      <trkpt lat="44.38574" lon="3.88461">
        <ele>1387.32</ele>
        <time>2012-06-16T16:10:46Z</time>
      </trkpt>
      <trkpt lat="44.38572" lon="3.88461">
        <ele>1387.32</ele>
        <time>2012-06-16T16:10:47Z</time>
      </trkpt>
      <trkpt lat="44.38571" lon="3.8846">
        <ele>1388.28</ele>
        <time>2012-06-16T16:10:48Z</time>
      </trkpt>
      <trkpt lat="44.38568" lon="3.88459">
        <ele>1388.28</ele>
        <time>2012-06-16T16:10:49Z</time>
      </trkpt>
      <trkpt lat="44.38566" lon="3.88459">
        <ele>1388.76</ele>
        <time>2012-06-16T16:10:50Z</time>
      </trkpt>
      <trkpt lat="44.38564" lon="3.88459">
        <ele>1388.76</ele>
        <time>2012-06-16T16:10:51Z</time>
      </trkpt>
      <trkpt lat="44.38562" lon="3.88458">
        <ele>1389.24</ele>
        <time>2012-06-16T16:10:52Z</time>
      </trkpt>
      <trkpt lat="44.3856" lon="3.88457">
        <ele>1388.76</ele>
        <time>2012-06-16T16:10:53Z</time>
      </trkpt>
      <trkpt lat="44.38558" lon="3.88456">
        <ele>1388.76</ele>
        <time>2012-06-16T16:10:54Z</time>
      </trkpt>
      <trkpt lat="44.38557" lon="3.88456">
        <ele>1388.76</ele>
        <time>2012-06-16T16:10:55Z</time>
      </trkpt>
      <trkpt lat="44.38537" lon="3.88449">
        <ele>1391.17</ele>
        <time>2012-06-16T16:11:05Z</time>
      </trkpt>
      <trkpt lat="44.38536" lon="3.88448">
        <ele>1391.17</ele>
        <time>2012-06-16T16:11:06Z</time>
      </trkpt>
      <trkpt lat="44.38534" lon="3.88448">
        <ele>1390.68</ele>
        <time>2012-06-16T16:11:07Z</time>
      </trkpt>
      <trkpt lat="44.38525" lon="3.88445">
        <ele>1392.61</ele>
        <time>2012-06-16T16:11:14Z</time>
      </trkpt>
      <trkpt lat="44.38524" lon="3.88444">
        <ele>1392.61</ele>
        <time>2012-06-16T16:11:15Z</time>
      </trkpt>
      <trkpt lat="44.38522" lon="3.88443">
        <ele>1392.61</ele>
        <time>2012-06-16T16:11:16Z</time>
      </trkpt>
      <trkpt lat="44.38521" lon="3.88443">
        <ele>1393.09</ele>
        <time>2012-06-16T16:11:17Z</time>
      </trkpt>
      <trkpt lat="44.3852" lon="3.88442">
        <ele>1393.09</ele>
        <time>2012-06-16T16:11:18Z</time>
      </trkpt>
      <trkpt lat="44.38519" lon="3.88441">
        <ele>1393.57</ele>
        <time>2012-06-16T16:11:19Z</time>
      </trkpt>
      <trkpt lat="44.38518" lon="3.88439">
        <ele>1394.05</ele>
        <time>2012-06-16T16:11:20Z</time>
      </trkpt>
      <trkpt lat="44.38517" lon="3.88438">
        <ele>1394.05</ele>
        <time>2012-06-16T16:11:21Z</time>
      </trkpt>
      <trkpt lat="44.38516" lon="3.88437">
        <ele>1394.05</ele>
        <time>2012-06-16T16:11:22Z</time>
      </trkpt>
      <trkpt lat="44.38516" lon="3.88435">
        <ele>1394.53</ele>
        <time>2012-06-16T16:11:23Z</time>
      </trkpt>
      <trkpt lat="44.38509" lon="3.88416">
        <ele>1396.93</ele>
        <time>2012-06-16T16:11:34Z</time>
      </trkpt>
      <trkpt lat="44.38509" lon="3.88406">
        <ele>1397.41</ele>
        <time>2012-06-16T16:11:40Z</time>
      </trkpt>
      <trkpt lat="44.38508" lon="3.88402">
        <ele>1397.89</ele>
        <time>2012-06-16T16:11:43Z</time>
      </trkpt>
      <trkpt lat="44.38508" lon="3.88396">
        <ele>1397.89</ele>
        <time>2012-06-16T16:11:47Z</time>
      </trkpt>
      <trkpt lat="44.38508" lon="3.88394">
        <ele>1397.89</ele>
        <time>2012-06-16T16:11:48Z</time>
      </trkpt>
      <trkpt lat="44.38505" lon="3.88364">
        <ele>1398.37</ele>
        <time>2012-06-16T16:12:00Z</time>
      </trkpt>
      <trkpt lat="44.38505" lon="3.88335">
        <ele>1399.82</ele>
        <time>2012-06-16T16:12:11Z</time>
      </trkpt>
      <trkpt lat="44.38505" lon="3.88317">
        <ele>1399.82</ele>
        <time>2012-06-16T16:12:18Z</time>
      </trkpt>
      <trkpt lat="44.38505" lon="3.88312">
        <ele>1399.82</ele>
        <time>2012-06-16T16:12:19Z</time>
      </trkpt>
      <trkpt lat="44.38505" lon="3.88309">
        <ele>1399.82</ele>
        <time>2012-06-16T16:12:20Z</time>
      </trkpt>
      <trkpt lat="44.38504" lon="3.88306">
        <ele>1399.82</ele>
        <time>2012-06-16T16:12:21Z</time>
      </trkpt>
      <trkpt lat="44.38504" lon="3.88303">
        <ele>1400.3</ele>
        <time>2012-06-16T16:12:22Z</time>
      </trkpt>
      <trkpt lat="44.38504" lon="3.883">
        <ele>1399.82</ele>
        <time>2012-06-16T16:12:23Z</time>
      </trkpt>
      <trkpt lat="44.38499" lon="3.88258">
        <ele>1400.3</ele>
        <time>2012-06-16T16:12:34Z</time>
      </trkpt>
      <trkpt lat="44.38485" lon="3.8822">
        <ele>1402.7</ele>
        <time>2012-06-16T16:12:46Z</time>
      </trkpt>
      <trkpt lat="44.38484" lon="3.88218">
        <ele>1402.22</ele>
        <time>2012-06-16T16:12:47Z</time>
      </trkpt>
      <trkpt lat="44.38482" lon="3.88207">
        <ele>1403.18</ele>
        <time>2012-06-16T16:12:52Z</time>
      </trkpt>
      <trkpt lat="44.38473" lon="3.88192">
        <ele>1405.58</ele>
        <time>2012-06-16T16:13:00Z</time>
      </trkpt>
      <trkpt lat="44.38468" lon="3.88185">
        <ele>1407.03</ele>
        <time>2012-06-16T16:13:05Z</time>
      </trkpt>
      <trkpt lat="44.38459" lon="3.88177">
        <ele>1407.99</ele>
        <time>2012-06-16T16:13:10Z</time>
      </trkpt>
      <trkpt lat="44.38456" lon="3.88157">
        <ele>1410.39</ele>
        <time>2012-06-16T16:13:20Z</time>
      </trkpt>
      <trkpt lat="44.38453" lon="3.88148">
        <ele>1411.35</ele>
        <time>2012-06-16T16:13:24Z</time>
      </trkpt>
      <trkpt lat="44.3845" lon="3.88118">
        <ele>1412.31</ele>
        <time>2012-06-16T16:13:36Z</time>
      </trkpt>
      <trkpt lat="44.38447" lon="3.88077">
        <ele>1411.83</ele>
        <time>2012-06-16T16:13:48Z</time>
      </trkpt>
      <trkpt lat="44.38446" lon="3.88045">
        <ele>1411.35</ele>
        <time>2012-06-16T16:14:00Z</time>
      </trkpt>
      <trkpt lat="44.38443" lon="3.88039">
        <ele>1411.35</ele>
        <time>2012-06-16T16:14:30Z</time>
      </trkpt>
      <trkpt lat="44.38443" lon="3.88024">
        <ele>1411.35</ele>
        <time>2012-06-16T16:14:37Z</time>
      </trkpt>
      <trkpt lat="44.38446" lon="3.88009">
        <ele>1410.87</ele>
        <time>2012-06-16T16:14:42Z</time>
      </trkpt>
      <trkpt lat="44.38457" lon="3.87929">
        <ele>1409.91</ele>
        <time>2012-06-16T16:14:57Z</time>
      </trkpt>
      <trkpt lat="44.38483" lon="3.87861">
        <ele>1410.39</ele>
        <time>2012-06-16T16:15:13Z</time>
      </trkpt>
      <trkpt lat="44.38511" lon="3.87792">
        <ele>1410.87</ele>
        <time>2012-06-16T16:15:30Z</time>
      </trkpt>
      <trkpt lat="44.38535" lon="3.87732">
        <ele>1411.83</ele>
        <time>2012-06-16T16:15:45Z</time>
      </trkpt>
      <trkpt lat="44.3855" lon="3.87685">
        <ele>1412.31</ele>
        <time>2012-06-16T16:15:57Z</time>
      </trkpt>
      <trkpt lat="44.38541" lon="3.87648">
        <ele>1414.24</ele>
        <time>2012-06-16T16:16:08Z</time>
      </trkpt>
      <trkpt lat="44.38539" lon="3.87611">
        <ele>1416.16</ele>
        <time>2012-06-16T16:16:17Z</time>
      </trkpt>
      <trkpt lat="44.38528" lon="3.8758">
        <ele>1417.6</ele>
        <time>2012-06-16T16:16:29Z</time>
      </trkpt>
      <trkpt lat="44.38518" lon="3.87544">
        <ele>1418.08</ele>
        <time>2012-06-16T16:16:42Z</time>
      </trkpt>
      <trkpt lat="44.38517" lon="3.87538">
        <ele>1418.08</ele>
        <time>2012-06-16T16:16:44Z</time>
      </trkpt>
      <trkpt lat="44.38514" lon="3.87529">
        <ele>1418.56</ele>
        <time>2012-06-16T16:16:55Z</time>
      </trkpt>
      <trkpt lat="44.38515" lon="3.87528">
        <ele>1419.04</ele>
        <time>2012-06-16T16:17:13Z</time>
      </trkpt>
      <trkpt lat="44.38515" lon="3.87528">
        <ele>1419.04</ele>
        <time>2012-06-16T16:17:41Z</time>
      </trkpt>
      <trkpt lat="44.38515" lon="3.87529">
        <ele>1418.08</ele>
        <time>2012-06-16T16:18:09Z</time>
      </trkpt>
      <trkpt lat="44.38516" lon="3.87529">
        <ele>1419.04</ele>
        <time>2012-06-16T16:18:35Z</time>
      </trkpt>
      <trkpt lat="44.38515" lon="3.87529">
        <ele>1419.04</ele>
        <time>2012-06-16T16:19:03Z</time>
      </trkpt>
      <trkpt lat="44.38516" lon="3.87528">
        <ele>1418.08</ele>
        <time>2012-06-16T16:19:28Z</time>
      </trkpt>
    </trkseg>
  </trk>
</gpx>